GFSWCAN_prec_precacc12_003.txt.gz
Total_Precipitation_Accumulation
0.09 0.03 0.01 0.00 0.00 0.00 0.00 0.00 0.00 0.00 0.00 0.00 0.00 0.00 0.00 0.00 0.00 0.00 0.00 0.00 0.00 0.00 0.00 0.00 0.00 0.00 0.00 0.00 0.00 0.00 0.00 0.00 0.00 0.00 0.00 0.00 0.00 0.00 0.00 0.00 0.00 0.00 0.00 0.00 0.00 0.00 0.01 0.00 0.00 0.00 0.01 0.01 0.00 0.00
0.11 0.04 0.01 0.00 0.00 0.00 0.00 0.00 0.00 0.00 0.00 0.00 0.00 0.00 0.00 0.00 0.00 0.00 0.00 0.00 0.00 0.00 0.00 0.00 0.00 0.00 0.00 0.00 0.00 0.00 0.00 0.00 0.00 0.00 0.00 0.00 0.00 0.00 0.00 0.00 0.00 0.00 0.00 0.00 0.01 0.00 0.00 0.00 0.01 0.01 0.00 0.00 0.00 0.00
0.07 0.06 0.02 0.00 0.00 0.00 0.00 0.00 0.00 0.00 0.00 0.00 0.00 0.00 0.00 0.00 0.00 0.00 0.00 0.00 0.00 0.00 0.00 0.00 0.00 0.00 0.00 0.00 0.00 0.00 0.00 0.00 0.00 0.00 0.00 0.00 0.00 0.00 0.00 0.00 0.00 0.00 0.00 0.00 0.01 0.00 0.00 0.01 0.01 0.01 0.00 0.00 0.00 0.00
0.00 0.01 0.01 0.00 0.00 0.00 0.00 0.00 0.00 0.00 0.00 0.00 0.00 0.00 0.00 0.00 0.00 0.00 0.00 0.00 0.00 0.00 0.01 0.00 0.00 0.00 0.00 0.00 0.00 0.00 0.00 0.00 0.00 0.00 0.00 0.00 0.00 0.00 0.00 0.00 0.00 0.00 0.00 0.01 0.01 0.00 0.00 0.01 0.01 0.00 0.00 0.00 0.00 0.00
0.00 0.00 0.00 0.00 0.00 0.00 0.00 0.00 0.00 0.00 0.00 0.00 0.00 0.00 0.00 0.00 0.00 0.00 0.00 0.00 0.00 0.01 0.01 0.00 0.00 0.00 0.00 0.00 0.00 0.00 0.00 0.00 0.00 0.00 0.00 0.00 0.00 0.00 0.00 0.00 0.00 0.00 0.00 0.01 0.01 0.01 0.01 0.02 0.01 0.01 0.01 0.01 0.00 0.00
0.00 0.00 0.00 0.00 0.00 0.00 0.00 0.00 0.00 0.00 0.00 0.00 0.00 0.00 0.00 0.00 0.00 0.00 0.00 0.00 0.00 0.00 0.00 0.01 0.00 0.00 0.00 0.00 0.00 0.00 0.00 0.00 0.00 0.00 0.00 0.00 0.00 0.00 0.00 0.00 0.00 0.00 0.00 0.00 0.01 0.01 0.03 0.02 0.01 0.00 0.00 0.00 0.00 0.00
0.00 0.00 0.00 0.00 0.00 0.00 0.00 0.00 0.00 0.00 0.00 0.00 0.00 0.00 0.00 0.00 0.00 0.01 0.01 0.00 0.00 0.00 0.01 0.01 0.00 0.00 0.00 0.00 0.00 0.00 0.00 0.00 0.00 0.01 0.00 0.00 0.00 0.01 0.00 0.00 0.00 0.00 0.00 0.00 0.00 0.02 0.03 0.01 0.01 0.00 0.00 0.00 0.00 0.00
0.00 0.00 0.00 0.00 0.00 0.00 0.00 0.00 0.00 0.00 0.00 0.00 0.00 0.00 0.00 0.00 0.00 0.01 0.00 0.00 0.00 0.01 0.01 0.00 0.00 0.00 0.00 0.00 0.00 0.00 0.00 0.00 0.01 0.01 0.00 0.00 0.00 0.01 0.00 0.00 0.00 0.00 0.00 0.00 0.01 0.02 0.01 0.01 0.00 0.00 0.00 0.00 0.00 0.00
0.00 0.00 0.00 0.00 0.00 0.00 0.00 0.00 0.01 0.01 0.00 0.00 0.02 0.01 0.00 0.00 0.00 0.00 0.00 0.00 0.00 0.02 0.01 0.00 0.00 0.00 0.00 0.00 0.00 0.00 0.00 0.00 0.00 0.00 0.00 0.00 0.00 0.00 0.00 0.00 0.00 0.00 0.00 0.01 0.00 0.00 0.00 0.00 0.00 0.00 0.00 0.00 0.00 0.00
0.00 0.00 0.00 0.00 0.00 0.00 0.00 0.00 0.00 0.03 0.09 0.15 0.16 0.10 0.02 0.03 0.03 0.01 0.01 0.00 0.00 0.00 0.00 0.00 0.00 0.00 0.00 0.00 0.00 0.00 0.00 0.00 0.00 0.00 0.00 0.00 0.00 0.00 0.00 0.00 0.00 0.00 0.00 0.00 0.00 0.00 0.00 0.00 0.00 0.00 0.00 0.00 0.00 0.00
0.00 0.00 0.00 0.00 0.00 0.00 0.00 0.00 0.00 0.07 0.38 0.46 0.39 0.18 0.08 0.08 0.04 0.04 0.05 0.05 0.01 0.00 0.00 0.00 0.00 0.00 0.00 0.00 0.01 0.02 0.04 0.02 0.01 0.00 0.00 0.00 0.00 0.00 0.00 0.00 0.00 0.00 0.00 0.00 0.00 0.00 0.00 0.00 0.00 0.00 0.00 0.00 0.00 0.00
0.00 0.00 0.00 0.00 0.00 0.00 0.00 0.02 0.05 0.12 0.32 0.43 0.32 0.16 0.12 0.16 0.14 0.20 0.22 0.12 0.03 0.00 0.01 0.00 0.00 0.01 0.03 0.03 0.06 0.10 0.10 0.07 0.04 0.00 0.01 0.00 0.00 0.00 0.00 0.00 0.00 0.00 0.00 0.00 0.00 0.00 0.00 0.00 0.00 0.00 0.00 0.00 0.00 0.00
0.00 0.00 0.00 0.00 0.00 0.01 0.00 0.02 0.02 0.05 0.17 0.35 0.33 0.31 0.33 0.35 0.31 0.22 0.16 0.08 0.02 0.01 0.00 0.00 0.01 0.03 0.05 0.05 0.07 0.07 0.08 0.07 0.01 0.00 0.00 0.00 0.00 0.00 0.00 0.00 0.00 0.00 0.00 0.00 0.00 0.00 0.00 0.00 0.00 0.00 0.00 0.00 0.00 0.00
0.00 0.00 0.00 0.00 0.00 0.02 0.02 0.01 0.05 0.06 0.15 0.31 0.40 0.41 0.31 0.33 0.24 0.13 0.05 0.02 0.01 0.00 0.00 0.01 0.03 0.03 0.03 0.03 0.05 0.05 0.05 0.02 0.02 0.01 0.00 0.00 0.00 0.00 0.00 0.00 0.00 0.00 0.00 0.00 0.00 0.00 0.00 0.00 0.00 0.00 0.00 0.00 0.00 0.00
0.00 0.00 0.00 0.00 0.00 0.02 0.03 0.03 0.04 0.03 0.04 0.08 0.13 0.19 0.20 0.18 0.11 0.07 0.05 0.05 0.05 0.04 0.03 0.02 0.03 0.01 0.02 0.03 0.04 0.03 0.03 0.02 0.01 0.00 0.00 0.00 0.00 0.00 0.00 0.00 0.00 0.00 0.00 0.00 0.00 0.00 0.00 0.00 0.00 0.00 0.00 0.00 0.00 0.00
0.00 0.00 0.00 0.00 0.00 0.01 0.01 0.08 0.03 0.04 0.03 0.00 0.04 0.09 0.12 0.10 0.09 0.08 0.06 0.04 0.02 0.01 0.02 0.04 0.03 0.03 0.04 0.04 0.03 0.02 0.02 0.00 0.00 0.00 0.00 0.00 0.00 0.00 0.00 0.00 0.00 0.00 0.00 0.00 0.00 0.00 0.00 0.00 0.00 0.00 0.00 0.00 0.00 0.00
0.00 0.00 0.00 0.00 0.00 0.02 0.02 0.02 0.00 0.01 0.07 0.00 0.00 0.01 0.02 0.03 0.03 0.05 0.04 0.03 0.03 0.05 0.05 0.03 0.03 0.02 0.02 0.02 0.01 0.00 0.00 0.00 0.00 0.00 0.00 0.00 0.00 0.00 0.00 0.00 0.00 0.00 0.00 0.00 0.00 0.00 0.00 0.00 0.00 0.00 0.00 0.00 0.00 0.00
0.00 0.00 0.00 0.00 0.00 0.00 0.05 0.02 0.03 0.01 0.00 0.00 0.00 0.00 0.00 0.00 0.00 0.00 0.00 0.00 0.00 0.00 0.00 0.00 0.00 0.00 0.00 0.00 0.00 0.00 0.00 0.00 0.00 0.00 0.00 0.00 0.00 0.00 0.00 0.00 0.00 0.00 0.00 0.00 0.00 0.00 0.00 0.00 0.00 0.00 0.00 0.00 0.00 0.00
0.01 0.01 0.00 0.01 0.00 0.01 0.05 0.05 0.01 0.01 0.00 0.00 0.00 0.00 0.00 0.00 0.00 0.00 0.00 0.00 0.00 0.00 0.00 0.00 0.00 0.00 0.00 0.00 0.00 0.00 0.00 0.00 0.00 0.00 0.00 0.00 0.00 0.00 0.00 0.00 0.00 0.00 0.00 0.00 0.00 0.00 0.00 0.00 0.00 0.00 0.00 0.00 0.00 0.00
0.00 0.04 0.05 0.03 0.00 0.00 0.00 0.01 0.00 0.00 0.00 0.00 0.00 0.00 0.00 0.00 0.00 0.00 0.00 0.00 0.00 0.00 0.00 0.00 0.00 0.00 0.00 0.00 0.00 0.00 0.00 0.00 0.00 0.00 0.00 0.00 0.00 0.00 0.00 0.00 0.00 0.00 0.00 0.00 0.00 0.00 0.00 0.00 0.00 0.00 0.01 0.00 0.00 0.00
0.03 0.15 0.16 0.08 0.01 0.00 0.00 0.00 0.00 0.00 0.00 0.00 0.00 0.00 0.00 0.00 0.00 0.00 0.00 0.00 0.00 0.01 0.00 0.00 0.00 0.00 0.00 0.00 0.00 0.00 0.00 0.00 0.00 0.00 0.00 0.00 0.00 0.00 0.00 0.00 0.00 0.00 0.00 0.00 0.00 0.00 0.00 0.00 0.00 0.00 0.00 0.00 0.00 0.00
0.05 0.18 0.20 0.12 0.06 0.01 0.00 0.00 0.00 0.00 0.00 0.00 0.00 0.00 0.00 0.00 0.00 0.00 0.00 0.00 0.00 0.00 0.00 0.00 0.00 0.00 0.00 0.00 0.00 0.00 0.00 0.00 0.00 0.00 0.00 0.00 0.00 0.00 0.00 0.00 0.00 0.00 0.00 0.00 0.00 0.00 0.00 0.00 0.00 0.00 0.00 0.00 0.00 0.00
0.10 0.21 0.18 0.10 0.06 0.02 0.01 0.00 0.00 0.00 0.00 0.00 0.00 0.00 0.00 0.00 0.00 0.00 0.00 0.00 0.00 0.00 0.00 0.00 0.00 0.00 0.00 0.00 0.00 0.00 0.00 0.00 0.00 0.00 0.00 0.00 0.00 0.00 0.00 0.00 0.00 0.00 0.00 0.00 0.00 0.00 0.01 0.00 0.00 0.00 0.00 0.00 0.01 0.01
0.10 0.18 0.15 0.06 0.01 0.01 0.00 0.00 0.00 0.00 0.00 0.00 0.00 0.00 0.00 0.00 0.00 0.00 0.00 0.00 0.00 0.00 0.00 0.00 0.00 0.00 0.00 0.00 0.00 0.00 0.00 0.00 0.00 0.00 0.00 0.00 0.00 0.00 0.00 0.00 0.01 0.01 0.00 0.00 0.00 0.00 0.00 0.00 0.00 0.01 0.01 0.01 0.01 0.01
0.10 0.11 0.03 0.01 0.00 0.00 0.00 0.00 0.00 0.00 0.00 0.00 0.00 0.00 0.00 0.00 0.00 0.00 0.00 0.00 0.00 0.00 0.00 0.00 0.00 0.00 0.00 0.00 0.00 0.00 0.00 0.00 0.00 0.00 0.00 0.01 0.01 0.00 0.00 0.00 0.00 0.01 0.02 0.01 0.00 0.00 0.01 0.01 0.01 0.01 0.01 0.01 0.01 0.01
0.02 0.01 0.00 0.00 0.00 0.00 0.00 0.00 0.00 0.00 0.00 0.00 0.00 0.00 0.00 0.00 0.00 0.00 0.00 0.00 0.00 0.00 0.00 0.00 0.00 0.00 0.00 0.00 0.00 0.00 0.00 0.00 0.00 0.00 0.00 0.00 0.01 0.01 0.00 0.00 0.00 0.00 0.01 0.00 0.01 0.01 0.01 0.01 0.01 0.01 0.01 0.01 0.01 0.00
0.00 0.00 0.00 0.00 0.00 0.00 0.00 0.00 0.00 0.00 0.00 0.00 0.00 0.00 0.00 0.00 0.00 0.00 0.00 0.00 0.00 0.00 0.00 0.00 0.00 0.00 0.00 0.00 0.00 0.00 0.00 0.00 0.00 0.00 0.00 0.00 0.00 0.00 0.00 0.01 0.02 0.02 0.01 0.01 0.02 0.03 0.02 0.02 0.01 0.01 0.02 0.01 0.01 0.01
0.00 0.00 0.00 0.00 0.00 0.00 0.00 0.00 0.00 0.00 0.00 0.00 0.00 0.00 0.00 0.00 0.00 0.00 0.00 0.00 0.00 0.00 0.00 0.00 0.00 0.00 0.00 0.00 0.00 0.00 0.00 0.00 0.00 0.00 0.00 0.00 0.02 0.02 0.02 0.03 0.03 0.02 0.02 0.03 0.04 0.03 0.03 0.03 0.03 0.02 0.01 0.02 0.02 0.01
0.00 0.00 0.00 0.00 0.00 0.00 0.00 0.00 0.00 0.00 0.00 0.00 0.00 0.00 0.00 0.00 0.00 0.00 0.00 0.00 0.00 0.00 0.00 0.00 0.00 0.00 0.00 0.00 0.00 0.00 0.00 0.00 0.00 0.00 0.00 0.00 0.03 0.03 0.02 0.02 0.02 0.02 0.02 0.02 0.02 0.03 0.03 0.03 0.02 0.01 0.02 0.02 0.01 0.01
0.00 0.00 0.00 0.00 0.00 0.00 0.00 0.00 0.00 0.00 0.00 0.00 0.00 0.00 0.00 0.00 0.01 0.00 0.00 0.00 0.00 0.00 0.00 0.00 0.00 0.00 0.00 0.00 0.00 0.01 0.01 0.00 0.01 0.01 0.01 0.01 0.01 0.01 0.01 0.01 0.02 0.02 0.02 0.02 0.02 0.02 0.03 0.02 0.01 0.01 0.01 0.01 0.00 0.00
0.00 0.00 0.00 0.00 0.00 0.00 0.00 0.00 0.00 0.00 0.00 0.00 0.00 0.00 0.02 0.02 0.01 0.00 0.00 0.00 0.00 0.00 0.00 0.00 0.00 0.00 0.00 0.00 0.00 0.00 0.00 0.00 0.00 0.01 0.01 0.01 0.01 0.01 0.01 0.01 0.01 0.02 0.02 0.02 0.02 0.02 0.02 0.01 0.01 0.00 0.00 0.00 0.00 0.00
0.00 0.00 0.00 0.00 0.00 0.00 0.00 0.00 0.00 0.00 0.00 0.00 0.00 0.00 0.01 0.01 0.01 0.01 0.00 0.00 0.00 0.00 0.00 0.00 0.00 0.01 0.01 0.01 0.01 0.01 0.01 0.01 0.00 0.00 0.00 0.00 0.01 0.01 0.01 0.01 0.01 0.02 0.02 0.02 0.02 0.02 0.01 0.01 0.00 0.00 0.00 0.00 0.00 0.00
0.00 0.00 0.00 0.00 0.00 0.00 0.00 0.00 0.00 0.00 0.00 0.00 0.00 0.00 0.00 0.00 0.00 0.00 0.00 0.00 0.00 0.01 0.00 0.00 0.00 0.01 0.01 0.01 0.01 0.00 0.00 0.00 0.00 0.00 0.00 0.00 0.00 0.01 0.01 0.01 0.01 0.02 0.02 0.03 0.02 0.02 0.01 0.00 0.00 0.00 0.00 0.00 0.00 0.00

GFSWCAN_prec_precacc12_006.txt.gz
Total_Precipitation_Accumulation
0.24 0.06 0.01 0.00 0.00 0.00 0.00 0.00 0.00 0.00 0.00 0.00 0.00 0.00 0.00 0.00 0.00 0.00 0.00 0.00 0.00 0.00 0.00 0.00 0.00 0.00 0.00 0.00 0.00 0.00 0.00 0.00 0.00 0.00 0.00 0.00 0.00 0.00 0.00 0.00 0.00 0.00 0.00 0.00 0.00 0.00 0.01 0.00 0.00 0.01 0.02 0.02 0.00 0.00
0.34 0.12 0.04 0.00 0.00 0.00 0.00 0.00 0.00 0.00 0.00 0.00 0.00 0.00 0.00 0.00 0.00 0.00 0.00 0.00 0.00 0.00 0.00 0.00 0.00 0.00 0.00 0.00 0.00 0.00 0.00 0.00 0.00 0.00 0.00 0.00 0.00 0.00 0.00 0.00 0.00 0.00 0.00 0.00 0.01 0.00 0.00 0.00 0.02 0.02 0.01 0.01 0.00 0.00
0.28 0.14 0.06 0.01 0.00 0.00 0.00 0.00 0.00 0.00 0.00 0.00 0.00 0.00 0.00 0.00 0.00 0.00 0.00 0.00 0.00 0.00 0.00 0.00 0.00 0.00 0.00 0.00 0.00 0.00 0.00 0.00 0.00 0.00 0.00 0.00 0.01 0.00 0.00 0.00 0.00 0.00 0.00 0.00 0.01 0.00 0.00 0.01 0.01 0.01 0.00 0.00 0.00 0.00
0.10 0.09 0.05 0.01 0.00 0.00 0.00 0.00 0.00 0.00 0.00 0.00 0.00 0.00 0.00 0.00 0.00 0.00 0.00 0.00 0.00 0.00 0.03 0.00 0.00 0.00 0.00 0.00 0.00 0.00 0.00 0.00 0.00 0.00 0.00 0.01 0.01 0.00 0.00 0.00 0.00 0.00 0.00 0.01 0.01 0.00 0.00 0.01 0.01 0.00 0.00 0.01 0.01 0.00
0.00 0.02 0.02 0.01 0.00 0.00 0.00 0.00 0.00 0.00 0.00 0.00 0.00 0.00 0.00 0.00 0.00 0.00 0.00 0.00 0.00 0.03 0.02 0.00 0.00 0.00 0.00 0.00 0.00 0.00 0.00 0.00 0.00 0.00 0.01 0.00 0.00 0.00 0.01 0.00 0.00 0.00 0.00 0.01 0.01 0.01 0.01 0.03 0.02 0.01 0.02 0.02 0.02 0.00
0.00 0.00 0.00 0.00 0.00 0.00 0.00 0.00 0.00 0.00 0.00 0.00 0.00 0.00 0.00 0.00 0.00 0.00 0.00 0.00 0.00 0.00 0.01 0.02 0.00 0.00 0.00 0.00 0.00 0.00 0.00 0.00 0.00 0.01 0.00 0.00 0.00 0.01 0.00 0.00 0.00 0.00 0.00 0.00 0.01 0.01 0.03 0.02 0.01 0.00 0.00 0.00 0.00 0.00
0.00 0.00 0.00 0.00 0.00 0.00 0.00 0.00 0.00 0.00 0.00 0.00 0.00 0.00 0.00 0.00 0.00 0.02 0.02 0.01 0.00 0.01 0.03 0.02 0.01 0.00 0.00 0.00 0.00 0.00 0.00 0.01 0.01 0.03 0.01 0.00 0.00 0.03 0.01 0.00 0.00 0.00 0.00 0.00 0.00 0.02 0.03 0.01 0.01 0.00 0.00 0.00 0.00 0.00
0.00 0.00 0.00 0.00 0.00 0.00 0.00 0.00 0.00 0.00 0.00 0.00 0.00 0.00 0.00 0.00 0.00 0.03 0.01 0.00 0.00 0.02 0.03 0.02 0.00 0.00 0.00 0.00 0.00 0.00 0.00 0.00 0.01 0.02 0.01 0.00 0.01 0.04 0.01 0.00 0.00 0.00 0.00 0.00 0.01 0.02 0.01 0.01 0.00 0.00 0.00 0.00 0.00 0.00
0.00 0.00 0.00 0.00 0.00 0.00 0.00 0.00 0.01 0.01 0.01 0.01 0.02 0.01 0.00 0.01 0.02 0.01 0.00 0.00 0.00 0.05 0.04 0.01 0.00 0.00 0.00 0.00 0.00 0.00 0.00 0.00 0.00 0.00 0.00 0.01 0.00 0.00 0.00 0.00 0.00 0.00 0.00 0.01 0.00 0.00 0.00 0.00 0.00 0.00 0.00 0.00 0.00 0.00
0.00 0.00 0.00 0.00 0.00 0.00 0.00 0.00 0.00 0.03 0.12 0.19 0.20 0.15 0.03 0.04 0.04 0.01 0.02 0.03 0.02 0.00 0.00 0.00 0.00 0.00 0.00 0.00 0.00 0.00 0.00 0.00 0.00 0.00 0.00 0.00 0.00 0.00 0.00 0.00 0.00 0.00 0.00 0.00 0.00 0.00 0.00 0.00 0.00 0.00 0.00 0.00 0.00 0.00
0.00 0.00 0.00 0.00 0.00 0.00 0.00 0.00 0.00 0.08 0.50 0.64 0.54 0.29 0.15 0.15 0.05 0.07 0.06 0.06 0.02 0.00 0.00 0.00 0.00 0.00 0.00 0.01 0.01 0.02 0.04 0.02 0.01 0.00 0.00 0.01 0.00 0.00 0.00 0.00 0.00 0.00 0.00 0.00 0.00 0.00 0.00 0.00 0.00 0.00 0.00 0.00 0.00 0.00
0.00 0.00 0.00 0.00 0.00 0.00 0.00 0.03 0.06 0.13 0.36 0.59 0.47 0.24 0.21 0.41 0.31 0.35 0.41 0.16 0.03 0.00 0.01 0.00 0.00 0.01 0.03 0.03 0.06 0.10 0.11 0.10 0.07 0.01 0.03 0.01 0.00 0.00 0.00 0.00 0.00 0.00 0.00 0.00 0.00 0.00 0.00 0.00 0.00 0.00 0.00 0.00 0.00 0.00
0.00 0.00 0.00 0.00 0.00 0.01 0.00 0.02 0.03 0.06 0.20 0.46 0.57 0.57 0.57 0.67 0.68 0.49 0.30 0.11 0.02 0.01 0.00 0.00 0.01 0.03 0.06 0.06 0.10 0.14 0.18 0.16 0.06 0.04 0.01 0.00 0.00 0.00 0.00 0.00 0.00 0.00 0.00 0.00 0.00 0.00 0.00 0.00 0.00 0.00 0.00 0.00 0.00 0.00
0.00 0.00 0.00 0.00 0.00 0.02 0.02 0.01 0.05 0.06 0.16 0.41 0.60 0.76 0.66 0.67 0.50 0.33 0.15 0.05 0.02 0.00 0.00 0.01 0.04 0.05 0.06 0.07 0.14 0.18 0.16 0.08 0.08 0.04 0.01 0.00 0.00 0.00 0.00 0.00 0.00 0.00 0.00 0.00 0.00 0.00 0.00 0.00 0.00 0.00 0.00 0.00 0.00 0.00
0.00 0.00 0.00 0.00 0.00 0.03 0.04 0.04 0.05 0.03 0.05 0.11 0.22 0.33 0.36 0.33 0.24 0.17 0.16 0.14 0.11 0.09 0.10 0.10 0.12 0.10 0.11 0.12 0.14 0.10 0.09 0.08 0.05 0.04 0.02 0.00 0.00 0.00 0.00 0.00 0.00 0.00 0.00 0.00 0.00 0.00 0.00 0.00 0.00 0.00 0.00 0.00 0.00 0.00
0.00 0.00 0.00 0.00 0.00 0.01 0.01 0.08 0.04 0.04 0.03 0.01 0.06 0.15 0.19 0.16 0.16 0.18 0.16 0.16 0.14 0.16 0.15 0.15 0.14 0.12 0.11 0.10 0.11 0.09 0.08 0.06 0.03 0.01 0.00 0.00 0.00 0.00 0.00 0.00 0.00 0.00 0.00 0.00 0.00 0.00 0.00 0.00 0.00 0.00 0.00 0.00 0.00 0.00
0.00 0.01 0.00 0.00 0.00 0.02 0.03 0.03 0.03 0.01 0.08 0.00 0.00 0.02 0.04 0.06 0.07 0.09 0.09 0.09 0.09 0.12 0.16 0.11 0.09 0.09 0.07 0.08 0.06 0.03 0.04 0.03 0.01 0.00 0.00 0.00 0.00 0.00 0.00 0.00 0.00 0.00 0.00 0.00 0.00 0.00 0.00 0.00 0.00 0.00 0.00 0.00 0.00 0.00
0.00 0.00 0.00 0.00 0.01 0.01 0.05 0.03 0.04 0.01 0.00 0.00 0.00 0.00 0.00 0.00 0.00 0.00 0.00 0.00 0.00 0.00 0.01 0.01 0.01 0.01 0.03 0.03 0.01 0.00 0.00 0.00 0.00 0.00 0.00 0.00 0.00 0.00 0.00 0.00 0.00 0.00 0.00 0.00 0.00 0.00 0.00 0.00 0.00 0.00 0.00 0.00 0.00 0.01
0.02 0.03 0.01 0.01 0.01 0.01 0.05 0.07 0.02 0.01 0.00 0.00 0.00 0.00 0.00 0.00 0.00 0.00 0.00 0.00 0.00 0.00 0.00 0.00 0.01 0.00 0.00 0.00 0.00 0.00 0.00 0.00 0.00 0.00 0.00 0.00 0.00 0.00 0.00 0.00 0.00 0.00 0.00 0.00 0.00 0.00 0.00 0.00 0.00 0.00 0.00 0.01 0.01 0.02
0.01 0.04 0.07 0.06 0.00 0.00 0.01 0.01 0.01 0.01 0.00 0.00 0.00 0.00 0.00 0.00 0.00 0.00 0.00 0.00 0.00 0.00 0.00 0.00 0.00 0.00 0.00 0.00 0.00 0.00 0.00 0.00 0.00 0.00 0.00 0.00 0.00 0.00 0.00 0.00 0.00 0.00 0.00 0.00 0.00 0.00 0.00 0.00 0.01 0.02 0.02 0.02 0.02 0.01
0.04 0.16 0.22 0.18 0.06 0.00 0.00 0.00 0.00 0.00 0.00 0.00 0.00 0.00 0.00 0.00 0.00 0.00 0.00 0.00 0.01 0.01 0.00 0.00 0.00 0.00 0.00 0.00 0.00 0.00 0.00 0.00 0.00 0.00 0.00 0.00 0.00 0.00 0.00 0.00 0.00 0.00 0.00 0.00 0.00 0.00 0.01 0.02 0.02 0.03 0.03 0.01 0.01 0.00
0.07 0.21 0.24 0.23 0.19 0.03 0.00 0.00 0.00 0.00 0.00 0.00 0.00 0.00 0.00 0.00 0.00 0.00 0.00 0.00 0.00 0.00 0.00 0.00 0.00 0.00 0.00 0.00 0.00 0.00 0.00 0.00 0.00 0.00 0.00 0.00 0.00 0.00 0.00 0.00 0.00 0.01 0.01 0.01 0.02 0.01 0.01 0.01 0.02 0.02 0.01 0.00 0.00 0.01
0.17 0.32 0.32 0.25 0.18 0.07 0.03 0.00 0.00 0.00 0.00 0.00 0.00 0.00 0.00 0.00 0.00 0.00 0.00 0.00 0.00 0.00 0.00 0.00 0.00 0.00 0.00 0.00 0.00 0.00 0.00 0.00 0.00 0.00 0.00 0.00 0.00 0.00 0.00 0.01 0.02 0.02 0.02 0.02 0.02 0.02 0.03 0.02 0.01 0.01 0.01 0.01 0.01 0.01
0.24 0.40 0.33 0.22 0.10 0.05 0.01 0.00 0.00 0.00 0.00 0.00 0.00 0.00 0.00 0.00 0.00 0.00 0.00 0.00 0.00 0.00 0.00 0.00 0.00 0.00 0.00 0.00 0.00 0.00 0.00 0.00 0.00 0.00 0.00 0.00 0.00 0.00 0.01 0.01 0.02 0.02 0.02 0.03 0.03 0.01 0.01 0.00 0.00 0.01 0.01 0.02 0.02 0.02
0.36 0.32 0.20 0.12 0.04 0.01 0.00 0.00 0.00 0.00 0.00 0.00 0.00 0.00 0.00 0.00 0.00 0.00 0.00 0.00 0.00 0.00 0.00 0.00 0.00 0.00 0.00 0.00 0.00 0.00 0.00 0.00 0.00 0.00 0.00 0.01 0.01 0.01 0.01 0.02 0.02 0.02 0.04 0.04 0.01 0.01 0.01 0.01 0.02 0.02 0.02 0.03 0.02 0.03
0.20 0.12 0.07 0.03 0.01 0.01 0.00 0.00 0.00 0.00 0.00 0.00 0.00 0.00 0.00 0.00 0.00 0.00 0.00 0.00 0.00 0.00 0.00 0.00 0.00 0.00 0.00 0.00 0.00 0.00 0.00 0.00 0.00 0.00 0.00 0.00 0.01 0.02 0.02 0.02 0.01 0.02 0.04 0.03 0.03 0.03 0.02 0.02 0.02 0.03 0.03 0.03 0.04 0.05
0.03 0.01 0.00 0.00 0.00 0.00 0.00 0.00 0.00 0.00 0.00 0.00 0.00 0.00 0.00 0.00 0.00 0.00 0.00 0.00 0.00 0.00 0.00 0.00 0.00 0.00 0.00 0.00 0.00 0.00 0.00 0.00 0.00 0.00 0.00 0.00 0.01 0.02 0.04 0.07 0.08 0.06 0.02 0.03 0.05 0.06 0.07 0.05 0.04 0.04 0.04 0.05 0.04 0.05
0.00 0.00 0.00 0.00 0.00 0.00 0.00 0.00 0.00 0.00 0.00 0.00 0.00 0.00 0.00 0.00 0.00 0.00 0.00 0.00 0.00 0.00 0.00 0.00 0.00 0.00 0.00 0.00 0.00 0.00 0.00 0.00 0.00 0.00 0.00 0.01 0.05 0.05 0.03 0.04 0.05 0.03 0.03 0.05 0.07 0.06 0.07 0.07 0.06 0.05 0.05 0.05 0.06 0.07
0.00 0.00 0.00 0.00 0.00 0.00 0.00 0.00 0.00 0.00 0.00 0.00 0.00 0.00 0.00 0.00 0.01 0.01 0.00 0.00 0.00 0.00 0.00 0.00 0.00 0.00 0.00 0.00 0.01 0.01 0.01 0.00 0.00 0.00 0.00 0.01 0.03 0.03 0.02 0.03 0.03 0.03 0.03 0.03 0.03 0.05 0.06 0.06 0.04 0.03 0.05 0.07 0.05 0.05
0.00 0.00 0.00 0.00 0.00 0.00 0.00 0.00 0.00 0.00 0.00 0.00 0.00 0.00 0.01 0.01 0.01 0.01 0.01 0.00 0.00 0.01 0.01 0.01 0.01 0.01 0.01 0.01 0.01 0.02 0.03 0.01 0.01 0.02 0.02 0.02 0.02 0.02 0.02 0.02 0.02 0.03 0.03 0.03 0.03 0.03 0.04 0.04 0.04 0.05 0.04 0.03 0.01 0.02
0.00 0.00 0.00 0.00 0.00 0.00 0.00 0.00 0.00 0.00 0.00 0.00 0.00 0.01 0.06 0.03 0.02 0.01 0.01 0.01 0.01 0.00 0.00 0.00 0.01 0.01 0.01 0.01 0.01 0.01 0.01 0.01 0.01 0.01 0.02 0.02 0.02 0.02 0.01 0.01 0.02 0.02 0.03 0.03 0.03 0.04 0.03 0.04 0.05 0.04 0.02 0.02 0.01 0.01
0.00 0.01 0.01 0.01 0.01 0.00 0.00 0.00 0.00 0.00 0.00 0.00 0.01 0.01 0.02 0.02 0.02 0.01 0.01 0.01 0.00 0.00 0.00 0.01 0.01 0.01 0.01 0.01 0.02 0.02 0.01 0.01 0.01 0.01 0.01 0.01 0.01 0.01 0.01 0.01 0.02 0.03 0.03 0.03 0.04 0.04 0.04 0.04 0.03 0.03 0.02 0.01 0.01 0.00
0.00 0.00 0.00 0.00 0.00 0.00 0.00 0.00 0.00 0.00 0.00 0.00 0.01 0.01 0.01 0.01 0.01 0.01 0.01 0.01 0.01 0.01 0.01 0.01 0.01 0.01 0.02 0.02 0.01 0.01 0.01 0.01 0.01 0.01 0.01 0.01 0.01 0.01 0.01 0.02 0.02 0.03 0.04 0.04 0.05 0.04 0.03 0.03 0.02 0.02 0.01 0.00 0.00 0.00

GFSWCAN_prec_precacc12_012.txt.gz
Total_Precipitation_Accumulation
0.26 0.06 0.01 0.00 0.00 0.00 0.00 0.00 0.00 0.00 0.00 0.00 0.00 0.00 0.00 0.00 0.00 0.00 0.00 0.00 0.00 0.00 0.00 0.00 0.00 0.00 0.00 0.00 0.00 0.00 0.00 0.00 0.00 0.00 0.00 0.00 0.00 0.00 0.00 0.00 0.00 0.00 0.00 0.00 0.00 0.00 0.01 0.00 0.00 0.01 0.02 0.02 0.00 0.00
0.47 0.14 0.04 0.00 0.00 0.00 0.00 0.00 0.00 0.00 0.00 0.00 0.00 0.00 0.00 0.00 0.00 0.00 0.00 0.00 0.00 0.00 0.00 0.00 0.00 0.00 0.00 0.00 0.00 0.00 0.00 0.00 0.00 0.00 0.00 0.00 0.00 0.00 0.00 0.00 0.00 0.00 0.00 0.00 0.01 0.00 0.00 0.00 0.02 0.02 0.01 0.01 0.00 0.00
0.58 0.25 0.07 0.01 0.00 0.00 0.00 0.00 0.00 0.00 0.00 0.00 0.00 0.00 0.00 0.00 0.00 0.00 0.00 0.00 0.00 0.00 0.00 0.00 0.00 0.00 0.00 0.00 0.00 0.00 0.00 0.00 0.00 0.00 0.00 0.00 0.01 0.00 0.00 0.00 0.00 0.00 0.00 0.00 0.01 0.00 0.00 0.01 0.01 0.01 0.00 0.00 0.00 0.00
0.45 0.32 0.11 0.01 0.00 0.00 0.00 0.00 0.00 0.00 0.00 0.00 0.00 0.00 0.00 0.00 0.00 0.00 0.00 0.00 0.00 0.00 0.03 0.01 0.00 0.00 0.00 0.00 0.00 0.00 0.00 0.00 0.00 0.00 0.00 0.01 0.01 0.00 0.00 0.00 0.00 0.00 0.00 0.01 0.01 0.00 0.00 0.01 0.01 0.00 0.00 0.01 0.01 0.01
0.35 0.25 0.14 0.03 0.00 0.00 0.00 0.00 0.00 0.00 0.00 0.00 0.01 0.01 0.00 0.00 0.00 0.00 0.00 0.00 0.00 0.04 0.03 0.00 0.00 0.00 0.00 0.00 0.00 0.00 0.00 0.00 0.00 0.00 0.01 0.00 0.00 0.00 0.01 0.00 0.00 0.00 0.00 0.01 0.01 0.01 0.01 0.03 0.02 0.01 0.02 0.02 0.02 0.00
0.30 0.21 0.13 0.03 0.00 0.00 0.00 0.00 0.00 0.00 0.00 0.01 0.01 0.01 0.00 0.00 0.00 0.00 0.00 0.00 0.00 0.00 0.01 0.02 0.00 0.00 0.00 0.00 0.00 0.00 0.00 0.00 0.00 0.01 0.00 0.00 0.00 0.01 0.00 0.00 0.00 0.00 0.00 0.00 0.01 0.01 0.03 0.02 0.01 0.00 0.00 0.00 0.00 0.00
0.15 0.14 0.10 0.04 0.00 0.00 0.00 0.00 0.00 0.00 0.00 0.00 0.00 0.00 0.00 0.00 0.00 0.02 0.02 0.01 0.00 0.01 0.03 0.02 0.01 0.00 0.00 0.00 0.00 0.01 0.01 0.01 0.02 0.04 0.01 0.00 0.00 0.04 0.01 0.00 0.00 0.00 0.00 0.00 0.00 0.02 0.03 0.01 0.01 0.00 0.00 0.00 0.00 0.00
0.03 0.03 0.03 0.03 0.00 0.00 0.00 0.00 0.00 0.01 0.00 0.00 0.00 0.00 0.00 0.00 0.00 0.03 0.01 0.00 0.00 0.03 0.04 0.02 0.00 0.00 0.00 0.00 0.01 0.02 0.06 0.10 0.07 0.04 0.01 0.00 0.01 0.04 0.01 0.00 0.00 0.00 0.00 0.00 0.01 0.02 0.01 0.01 0.00 0.00 0.00 0.00 0.00 0.00
0.00 0.00 0.00 0.00 0.00 0.00 0.00 0.00 0.01 0.01 0.01 0.01 0.02 0.01 0.01 0.01 0.02 0.01 0.00 0.00 0.00 0.08 0.05 0.01 0.00 0.00 0.00 0.00 0.00 0.00 0.03 0.02 0.01 0.01 0.00 0.01 0.00 0.00 0.00 0.00 0.00 0.00 0.00 0.01 0.00 0.00 0.00 0.00 0.00 0.00 0.00 0.00 0.00 0.00
0.00 0.00 0.00 0.00 0.00 0.00 0.00 0.00 0.01 0.04 0.12 0.19 0.20 0.15 0.03 0.04 0.04 0.01 0.02 0.03 0.02 0.01 0.00 0.00 0.00 0.00 0.00 0.00 0.00 0.00 0.00 0.00 0.00 0.00 0.00 0.00 0.00 0.00 0.00 0.00 0.00 0.00 0.00 0.00 0.00 0.00 0.01 0.01 0.01 0.01 0.00 0.00 0.00 0.00
0.00 0.00 0.00 0.00 0.00 0.00 0.00 0.00 0.02 0.11 0.55 0.67 0.58 0.30 0.15 0.16 0.05 0.08 0.06 0.07 0.02 0.00 0.00 0.00 0.00 0.00 0.00 0.01 0.01 0.03 0.04 0.02 0.01 0.00 0.00 0.01 0.00 0.00 0.00 0.00 0.00 0.00 0.00 0.00 0.00 0.00 0.02 0.04 0.03 0.01 0.00 0.00 0.00 0.00
0.00 0.00 0.00 0.00 0.00 0.00 0.00 0.03 0.06 0.13 0.39 0.68 0.54 0.29 0.28 0.55 0.39 0.44 0.47 0.17 0.03 0.00 0.01 0.01 0.00 0.01 0.03 0.03 0.06 0.10 0.12 0.10 0.07 0.01 0.03 0.01 0.00 0.00 0.00 0.00 0.00 0.00 0.00 0.00 0.03 0.07 0.06 0.03 0.01 0.00 0.00 0.00 0.00 0.00
0.00 0.00 0.00 0.00 0.00 0.01 0.00 0.02 0.03 0.08 0.26 0.59 0.71 0.73 0.77 1.04 1.08 0.80 0.43 0.15 0.04 0.01 0.01 0.01 0.02 0.03 0.06 0.06 0.12 0.20 0.28 0.23 0.09 0.06 0.02 0.00 0.00 0.00 0.00 0.01 0.01 0.02 0.03 0.05 0.06 0.02 0.00 0.00 0.00 0.00 0.00 0.00 0.00 0.00
0.00 0.00 0.00 0.00 0.00 0.02 0.02 0.01 0.05 0.06 0.16 0.45 0.75 1.03 0.91 0.90 0.65 0.46 0.20 0.07 0.05 0.04 0.02 0.02 0.05 0.06 0.08 0.09 0.30 0.43 0.42 0.22 0.21 0.11 0.04 0.05 0.07 0.09 0.05 0.04 0.03 0.01 0.01 0.00 0.00 0.00 0.00 0.00 0.00 0.00 0.00 0.00 0.00 0.00
0.00 0.00 0.00 0.00 0.00 0.03 0.04 0.04 0.05 0.03 0.05 0.11 0.22 0.39 0.45 0.39 0.29 0.21 0.18 0.16 0.16 0.15 0.20 0.23 0.28 0.24 0.22 0.32 0.39 0.31 0.28 0.25 0.20 0.22 0.24 0.18 0.15 0.09 0.01 0.00 0.00 0.00 0.00 0.00 0.00 0.00 0.00 0.00 0.00 0.00 0.00 0.00 0.00 0.00
0.00 0.00 0.00 0.00 0.00 0.01 0.01 0.08 0.04 0.04 0.03 0.01 0.06 0.16 0.20 0.17 0.20 0.23 0.22 0.24 0.26 0.32 0.32 0.32 0.32 0.31 0.30 0.26 0.23 0.23 0.23 0.27 0.30 0.15 0.05 0.01 0.01 0.01 0.02 0.01 0.00 0.00 0.00 0.00 0.00 0.00 0.00 0.00 0.00 0.00 0.00 0.00 0.00 0.00
0.00 0.01 0.00 0.00 0.00 0.02 0.03 0.03 0.03 0.01 0.08 0.00 0.00 0.02 0.05 0.06 0.08 0.10 0.11 0.12 0.11 0.15 0.20 0.16 0.17 0.18 0.16 0.18 0.18 0.14 0.17 0.13 0.05 0.01 0.00 0.00 0.00 0.00 0.00 0.00 0.00 0.00 0.00 0.00 0.00 0.00 0.00 0.00 0.00 0.00 0.00 0.00 0.00 0.00
0.02 0.02 0.00 0.00 0.01 0.01 0.05 0.03 0.04 0.01 0.00 0.00 0.00 0.00 0.00 0.01 0.01 0.01 0.00 0.00 0.00 0.01 0.01 0.02 0.02 0.03 0.08 0.08 0.08 0.04 0.01 0.01 0.00 0.00 0.00 0.00 0.00 0.00 0.00 0.00 0.00 0.00 0.00 0.00 0.00 0.00 0.00 0.00 0.00 0.00 0.00 0.00 0.00 0.01
0.02 0.04 0.01 0.02 0.01 0.01 0.05 0.07 0.02 0.01 0.00 0.00 0.00 0.00 0.00 0.01 0.00 0.00 0.00 0.00 0.00 0.00 0.00 0.00 0.01 0.00 0.00 0.00 0.00 0.00 0.00 0.00 0.00 0.00 0.00 0.00 0.00 0.00 0.00 0.00 0.00 0.00 0.00 0.00 0.00 0.00 0.00 0.00 0.00 0.00 0.00 0.01 0.01 0.02
0.01 0.04 0.07 0.11 0.01 0.00 0.01 0.01 0.01 0.01 0.01 0.00 0.00 0.00 0.00 0.00 0.00 0.01 0.01 0.00 0.00 0.00 0.00 0.00 0.00 0.00 0.00 0.00 0.00 0.00 0.00 0.00 0.00 0.00 0.00 0.00 0.00 0.00 0.00 0.00 0.00 0.00 0.00 0.00 0.00 0.00 0.00 0.00 0.01 0.02 0.03 0.03 0.02 0.02
0.04 0.16 0.23 0.21 0.16 0.01 0.00 0.00 0.00 0.00 0.00 0.00 0.00 0.00 0.00 0.00 0.00 0.00 0.00 0.00 0.01 0.02 0.00 0.00 0.00 0.00 0.00 0.00 0.00 0.00 0.00 0.00 0.00 0.00 0.00 0.00 0.00 0.00 0.00 0.00 0.00 0.00 0.00 0.00 0.00 0.00 0.01 0.02 0.02 0.04 0.05 0.01 0.01 0.01
0.07 0.21 0.25 0.27 0.30 0.13 0.02 0.00 0.00 0.00 0.00 0.00 0.00 0.00 0.00 0.00 0.00 0.00 0.00 0.00 0.00 0.00 0.00 0.00 0.00 0.00 0.00 0.00 0.00 0.00 0.00 0.00 0.00 0.00 0.00 0.00 0.00 0.00 0.00 0.00 0.00 0.01 0.01 0.01 0.02 0.01 0.01 0.02 0.04 0.04 0.02 0.00 0.01 0.01
0.18 0.32 0.33 0.29 0.28 0.14 0.09 0.02 0.01 0.00 0.00 0.00 0.00 0.00 0.00 0.00 0.00 0.00 0.00 0.00 0.00 0.00 0.00 0.00 0.00 0.00 0.00 0.00 0.00 0.00 0.00 0.00 0.00 0.00 0.00 0.00 0.00 0.00 0.00 0.01 0.02 0.03 0.02 0.02 0.03 0.03 0.04 0.03 0.02 0.01 0.01 0.03 0.04 0.03
0.24 0.43 0.44 0.33 0.16 0.14 0.08 0.06 0.03 0.02 0.00 0.00 0.00 0.00 0.00 0.00 0.00 0.00 0.00 0.00 0.00 0.00 0.00 0.00 0.00 0.00 0.00 0.00 0.00 0.00 0.00 0.00 0.00 0.00 0.00 0.00 0.00 0.00 0.01 0.01 0.02 0.03 0.03 0.04 0.03 0.02 0.02 0.01 0.02 0.04 0.04 0.03 0.02 0.03
0.41 0.36 0.32 0.26 0.13 0.06 0.03 0.03 0.04 0.02 0.01 0.00 0.00 0.00 0.00 0.00 0.00 0.00 0.00 0.01 0.01 0.01 0.00 0.00 0.00 0.00 0.00 0.00 0.00 0.00 0.00 0.00 0.00 0.00 0.00 0.01 0.01 0.01 0.01 0.02 0.02 0.03 0.04 0.04 0.03 0.03 0.03 0.03 0.03 0.03 0.03 0.04 0.06 0.07
0.35 0.20 0.13 0.09 0.06 0.07 0.04 0.02 0.01 0.01 0.01 0.03 0.02 0.00 0.00 0.00 0.00 0.00 0.02 0.04 0.02 0.01 0.00 0.00 0.00 0.00 0.00 0.00 0.00 0.00 0.00 0.00 0.00 0.00 0.00 0.01 0.02 0.03 0.03 0.02 0.02 0.02 0.04 0.04 0.06 0.05 0.03 0.02 0.03 0.04 0.05 0.05 0.07 0.09
0.14 0.09 0.03 0.02 0.05 0.08 0.10 0.08 0.06 0.04 0.02 0.02 0.01 0.01 0.00 0.00 0.00 0.02 0.02 0.03 0.02 0.02 0.00 0.00 0.00 0.00 0.00 0.00 0.00 0.00 0.00 0.00 0.00 0.00 0.00 0.02 0.03 0.04 0.06 0.09 0.11 0.09 0.03 0.04 0.06 0.08 0.09 0.08 0.06 0.05 0.06 0.07 0.07 0.10
0.05 0.05 0.06 0.08 0.11 0.10 0.10 0.09 0.08 0.06 0.04 0.02 0.00 0.00 0.00 0.00 0.02 0.03 0.02 0.02 0.02 0.01 0.01 0.00 0.00 0.00 0.00 0.01 0.01 0.01 0.00 0.00 0.00 0.00 0.02 0.05 0.07 0.05 0.03 0.04 0.05 0.03 0.04 0.06 0.07 0.07 0.08 0.09 0.09 0.08 0.08 0.10 0.14 0.15
0.06 0.07 0.06 0.06 0.03 0.01 0.01 0.01 0.01 0.00 0.00 0.00 0.00 0.00 0.01 0.01 0.03 0.03 0.02 0.01 0.00 0.00 0.00 0.00 0.00 0.00 0.00 0.00 0.01 0.02 0.01 0.00 0.00 0.00 0.00 0.01 0.03 0.03 0.02 0.03 0.03 0.03 0.03 0.03 0.04 0.05 0.07 0.09 0.08 0.11 0.15 0.16 0.15 0.11
0.00 0.00 0.00 0.00 0.00 0.01 0.01 0.01 0.01 0.00 0.00 0.00 0.00 0.00 0.01 0.02 0.04 0.02 0.01 0.01 0.01 0.02 0.03 0.02 0.01 0.01 0.01 0.01 0.01 0.02 0.04 0.01 0.01 0.02 0.03 0.03 0.03 0.02 0.02 0.02 0.02 0.03 0.03 0.04 0.03 0.03 0.04 0.04 0.06 0.14 0.08 0.07 0.09 0.09
0.00 0.00 0.00 0.00 0.01 0.01 0.00 0.00 0.00 0.00 0.00 0.00 0.00 0.02 0.07 0.04 0.04 0.02 0.02 0.03 0.01 0.01 0.01 0.01 0.01 0.01 0.01 0.01 0.02 0.02 0.01 0.02 0.01 0.02 0.02 0.02 0.02 0.02 0.02 0.02 0.02 0.03 0.03 0.04 0.04 0.05 0.05 0.05 0.08 0.10 0.05 0.05 0.06 0.06
0.01 0.01 0.01 0.02 0.03 0.01 0.00 0.00 0.00 0.00 0.00 0.00 0.02 0.02 0.03 0.03 0.03 0.02 0.01 0.01 0.01 0.01 0.01 0.01 0.01 0.02 0.02 0.02 0.03 0.03 0.03 0.02 0.01 0.01 0.02 0.02 0.02 0.01 0.01 0.01 0.02 0.03 0.04 0.04 0.05 0.07 0.07 0.07 0.07 0.07 0.07 0.05 0.06 0.05
0.00 0.00 0.00 0.00 0.00 0.00 0.00 0.00 0.00 0.00 0.00 0.01 0.03 0.02 0.03 0.03 0.02 0.02 0.01 0.01 0.01 0.01 0.01 0.01 0.01 0.01 0.03 0.02 0.01 0.02 0.01 0.01 0.01 0.01 0.01 0.01 0.01 0.01 0.01 0.02 0.03 0.04 0.04 0.05 0.07 0.07 0.06 0.06 0.06 0.06 0.05 0.05 0.04 0.03

GFSWCAN_prec_precacc12_015.txt.gz
Total_Precipitation_Accumulation
0.16 0.03 0.00 0.00 0.00 0.00 0.00 0.00 0.00 0.00 0.00 0.00 0.00 0.00 0.00 0.00 0.00 0.00 0.00 0.00 0.00 0.00 0.00 0.00 0.00 0.00 0.00 0.00 0.00 0.00 0.00 0.00 0.00 0.00 0.00 0.00 0.00 0.00 0.00 0.00 0.00 0.00 0.00 0.00 0.00 0.00 0.00 0.00 0.00 0.00 0.00 0.01 0.00 0.00
0.36 0.10 0.03 0.00 0.00 0.00 0.00 0.00 0.00 0.00 0.00 0.00 0.00 0.00 0.00 0.00 0.00 0.00 0.00 0.00 0.00 0.00 0.00 0.00 0.00 0.00 0.00 0.00 0.00 0.00 0.00 0.00 0.00 0.00 0.00 0.00 0.00 0.00 0.00 0.00 0.00 0.00 0.00 0.00 0.00 0.00 0.00 0.00 0.01 0.01 0.00 0.00 0.00 0.00
0.50 0.19 0.05 0.00 0.00 0.00 0.00 0.00 0.00 0.00 0.00 0.00 0.00 0.00 0.00 0.00 0.00 0.00 0.00 0.00 0.00 0.00 0.00 0.00 0.00 0.00 0.00 0.00 0.00 0.00 0.00 0.00 0.00 0.00 0.00 0.00 0.00 0.00 0.00 0.00 0.00 0.00 0.00 0.00 0.00 0.00 0.00 0.00 0.00 0.00 0.00 0.00 0.00 0.00
0.44 0.31 0.10 0.01 0.00 0.00 0.00 0.00 0.00 0.00 0.00 0.00 0.00 0.00 0.00 0.00 0.00 0.00 0.00 0.00 0.00 0.00 0.02 0.00 0.00 0.00 0.00 0.00 0.00 0.00 0.00 0.00 0.00 0.00 0.00 0.00 0.00 0.00 0.00 0.00 0.00 0.00 0.00 0.00 0.00 0.00 0.00 0.00 0.00 0.00 0.00 0.00 0.00 0.00
0.35 0.25 0.14 0.03 0.00 0.00 0.00 0.00 0.00 0.00 0.00 0.00 0.01 0.01 0.00 0.00 0.00 0.00 0.00 0.00 0.00 0.03 0.02 0.00 0.00 0.00 0.00 0.00 0.00 0.00 0.00 0.00 0.00 0.00 0.00 0.00 0.00 0.00 0.01 0.00 0.00 0.00 0.00 0.00 0.00 0.00 0.00 0.01 0.00 0.00 0.01 0.01 0.01 0.00
0.31 0.21 0.13 0.03 0.01 0.01 0.01 0.01 0.01 0.00 0.01 0.01 0.01 0.01 0.00 0.00 0.00 0.00 0.00 0.00 0.00 0.00 0.01 0.01 0.00 0.00 0.00 0.00 0.00 0.00 0.00 0.00 0.00 0.00 0.00 0.00 0.00 0.00 0.00 0.00 0.00 0.00 0.00 0.00 0.00 0.00 0.00 0.00 0.00 0.00 0.00 0.00 0.00 0.00
0.20 0.16 0.11 0.04 0.00 0.00 0.00 0.00 0.01 0.00 0.01 0.01 0.01 0.00 0.00 0.00 0.00 0.01 0.01 0.01 0.00 0.00 0.02 0.01 0.01 0.00 0.00 0.00 0.00 0.01 0.01 0.01 0.02 0.03 0.01 0.00 0.00 0.02 0.01 0.00 0.00 0.00 0.00 0.00 0.00 0.00 0.00 0.00 0.00 0.00 0.00 0.00 0.00 0.00
0.11 0.06 0.04 0.03 0.00 0.00 0.00 0.00 0.00 0.00 0.00 0.00 0.01 0.00 0.00 0.00 0.00 0.02 0.01 0.00 0.00 0.02 0.02 0.01 0.00 0.00 0.00 0.00 0.01 0.02 0.07 0.10 0.06 0.03 0.01 0.00 0.01 0.03 0.01 0.00 0.00 0.00 0.00 0.00 0.00 0.00 0.00 0.00 0.00 0.00 0.00 0.00 0.00 0.00
0.04 0.02 0.01 0.01 0.00 0.00 0.00 0.00 0.00 0.00 0.01 0.01 0.00 0.00 0.00 0.01 0.02 0.01 0.00 0.00 0.00 0.06 0.04 0.01 0.00 0.00 0.00 0.00 0.00 0.00 0.03 0.03 0.01 0.00 0.00 0.01 0.00 0.00 0.00 0.00 0.00 0.00 0.00 0.00 0.00 0.00 0.00 0.00 0.00 0.00 0.00 0.02 0.04 0.03
0.00 0.00 0.00 0.00 0.00 0.00 0.00 0.01 0.00 0.01 0.03 0.04 0.04 0.04 0.01 0.01 0.01 0.00 0.01 0.03 0.02 0.01 0.00 0.00 0.00 0.00 0.00 0.00 0.00 0.00 0.00 0.00 0.00 0.00 0.00 0.00 0.00 0.00 0.00 0.00 0.00 0.00 0.00 0.00 0.00 0.00 0.01 0.01 0.01 0.02 0.04 0.06 0.04 0.00
0.00 0.00 0.00 0.00 0.00 0.00 0.00 0.01 0.02 0.04 0.16 0.21 0.19 0.12 0.07 0.07 0.01 0.03 0.02 0.01 0.00 0.00 0.00 0.00 0.00 0.00 0.00 0.00 0.00 0.00 0.00 0.00 0.00 0.00 0.00 0.00 0.00 0.00 0.00 0.00 0.00 0.00 0.00 0.00 0.00 0.00 0.02 0.05 0.11 0.18 0.13 0.04 0.00 0.00
0.00 0.00 0.00 0.00 0.00 0.00 0.01 0.02 0.02 0.01 0.07 0.26 0.21 0.14 0.16 0.39 0.25 0.24 0.25 0.05 0.00 0.00 0.00 0.00 0.00 0.00 0.00 0.00 0.00 0.00 0.02 0.04 0.03 0.00 0.02 0.01 0.00 0.00 0.00 0.00 0.00 0.00 0.00 0.00 0.03 0.10 0.17 0.21 0.18 0.06 0.00 0.00 0.00 0.00
0.00 0.00 0.00 0.00 0.00 0.00 0.00 0.01 0.01 0.04 0.09 0.24 0.39 0.45 0.46 0.74 0.79 0.59 0.28 0.08 0.02 0.00 0.01 0.00 0.00 0.00 0.00 0.00 0.08 0.17 0.27 0.20 0.09 0.06 0.03 0.02 0.00 0.00 0.01 0.02 0.03 0.04 0.07 0.14 0.20 0.17 0.09 0.03 0.01 0.01 0.00 0.00 0.00 0.00
0.00 0.00 0.00 0.00 0.00 0.00 0.00 0.00 0.00 0.00 0.01 0.17 0.37 0.66 0.64 0.62 0.44 0.35 0.16 0.06 0.05 0.04 0.02 0.01 0.02 0.04 0.05 0.07 0.28 0.46 0.46 0.25 0.24 0.13 0.07 0.09 0.15 0.18 0.11 0.09 0.08 0.06 0.04 0.02 0.01 0.01 0.01 0.00 0.00 0.00 0.00 0.00 0.00 0.00
0.00 0.00 0.00 0.00 0.00 0.00 0.00 0.00 0.00 0.00 0.00 0.03 0.10 0.21 0.26 0.21 0.18 0.14 0.13 0.12 0.12 0.13 0.20 0.24 0.31 0.29 0.25 0.38 0.41 0.33 0.29 0.27 0.23 0.26 0.30 0.29 0.23 0.16 0.03 0.01 0.01 0.00 0.00 0.00 0.00 0.00 0.00 0.00 0.00 0.00 0.00 0.00 0.00 0.00
0.00 0.00 0.00 0.00 0.00 0.00 0.00 0.00 0.01 0.00 0.00 0.00 0.02 0.07 0.08 0.07 0.11 0.14 0.16 0.20 0.24 0.31 0.31 0.32 0.33 0.34 0.35 0.32 0.26 0.25 0.24 0.29 0.33 0.16 0.07 0.03 0.02 0.03 0.07 0.05 0.00 0.00 0.00 0.00 0.00 0.00 0.00 0.00 0.00 0.00 0.00 0.00 0.00 0.00
0.00 0.01 0.00 0.00 0.00 0.00 0.00 0.01 0.03 0.00 0.01 0.00 0.00 0.01 0.02 0.03 0.04 0.05 0.07 0.09 0.07 0.10 0.15 0.13 0.15 0.17 0.16 0.18 0.21 0.19 0.22 0.16 0.08 0.04 0.01 0.01 0.01 0.02 0.01 0.00 0.00 0.00 0.00 0.00 0.00 0.00 0.00 0.00 0.00 0.00 0.00 0.00 0.00 0.00
0.01 0.01 0.00 0.00 0.01 0.00 0.00 0.00 0.01 0.00 0.00 0.00 0.00 0.00 0.00 0.00 0.00 0.00 0.00 0.00 0.00 0.01 0.01 0.02 0.02 0.04 0.09 0.10 0.11 0.06 0.02 0.02 0.01 0.01 0.00 0.00 0.00 0.00 0.00 0.00 0.00 0.00 0.00 0.00 0.00 0.00 0.00 0.00 0.00 0.00 0.00 0.00 0.00 0.01
0.02 0.03 0.01 0.01 0.00 0.00 0.00 0.02 0.01 0.00 0.00 0.00 0.00 0.00 0.01 0.01 0.00 0.00 0.01 0.00 0.00 0.00 0.00 0.00 0.01 0.00 0.01 0.00 0.00 0.00 0.00 0.00 0.00 0.00 0.00 0.00 0.00 0.00 0.00 0.00 0.00 0.00 0.00 0.00 0.00 0.00 0.00 0.00 0.00 0.00 0.00 0.01 0.01 0.02
0.00 0.00 0.02 0.07 0.01 0.00 0.00 0.00 0.00 0.01 0.01 0.00 0.00 0.00 0.00 0.00 0.01 0.01 0.01 0.00 0.00 0.00 0.00 0.00 0.00 0.00 0.00 0.00 0.00 0.00 0.00 0.00 0.00 0.00 0.00 0.00 0.00 0.00 0.00 0.00 0.00 0.00 0.00 0.00 0.00 0.00 0.00 0.00 0.00 0.01 0.02 0.03 0.02 0.01
0.01 0.02 0.07 0.13 0.14 0.01 0.00 0.00 0.00 0.00 0.00 0.00 0.00 0.00 0.00 0.00 0.00 0.00 0.00 0.00 0.01 0.01 0.00 0.00 0.00 0.00 0.00 0.00 0.00 0.00 0.00 0.00 0.00 0.00 0.00 0.00 0.00 0.00 0.00 0.00 0.00 0.00 0.00 0.00 0.00 0.00 0.01 0.02 0.02 0.03 0.04 0.01 0.01 0.01
0.02 0.03 0.05 0.15 0.24 0.12 0.02 0.00 0.00 0.00 0.00 0.00 0.00 0.00 0.00 0.00 0.00 0.00 0.00 0.00 0.00 0.00 0.00 0.00 0.00 0.00 0.00 0.00 0.00 0.00 0.00 0.00 0.00 0.00 0.00 0.00 0.00 0.00 0.00 0.00 0.00 0.00 0.00 0.01 0.02 0.02 0.01 0.02 0.03 0.04 0.01 0.00 0.01 0.01
0.08 0.12 0.15 0.19 0.22 0.12 0.08 0.02 0.02 0.00 0.00 0.00 0.01 0.01 0.00 0.00 0.00 0.00 0.00 0.00 0.00 0.00 0.00 0.00 0.00 0.00 0.00 0.00 0.00 0.00 0.00 0.00 0.00 0.00 0.00 0.00 0.00 0.00 0.00 0.00 0.01 0.02 0.02 0.02 0.03 0.03 0.03 0.03 0.02 0.01 0.01 0.02 0.03 0.02
0.14 0.25 0.30 0.27 0.15 0.13 0.08 0.07 0.04 0.03 0.01 0.01 0.01 0.01 0.00 0.00 0.00 0.00 0.00 0.00 0.01 0.00 0.00 0.00 0.00 0.00 0.00 0.00 0.00 0.00 0.00 0.00 0.00 0.00 0.00 0.00 0.00 0.00 0.01 0.01 0.02 0.02 0.03 0.03 0.03 0.02 0.01 0.01 0.02 0.03 0.03 0.02 0.02 0.03
0.31 0.25 0.30 0.25 0.13 0.07 0.03 0.03 0.04 0.03 0.02 0.01 0.01 0.01 0.00 0.00 0.00 0.00 0.00 0.02 0.03 0.02 0.01 0.00 0.00 0.00 0.00 0.00 0.01 0.00 0.00 0.00 0.00 0.00 0.00 0.00 0.00 0.01 0.01 0.01 0.02 0.02 0.03 0.04 0.03 0.02 0.02 0.02 0.02 0.02 0.02 0.03 0.05 0.06
0.33 0.19 0.13 0.09 0.06 0.07 0.04 0.02 0.01 0.02 0.01 0.05 0.05 0.02 0.01 0.01 0.01 0.00 0.03 0.06 0.04 0.03 0.02 0.01 0.01 0.01 0.01 0.01 0.01 0.01 0.00 0.00 0.00 0.00 0.00 0.01 0.01 0.02 0.03 0.02 0.02 0.02 0.03 0.04 0.05 0.05 0.02 0.01 0.02 0.03 0.04 0.04 0.06 0.09
0.15 0.09 0.04 0.02 0.06 0.11 0.15 0.12 0.10 0.09 0.06 0.06 0.03 0.02 0.04 0.04 0.02 0.04 0.04 0.05 0.04 0.04 0.01 0.00 0.00 0.01 0.01 0.01 0.00 0.00 0.00 0.00 0.00 0.00 0.01 0.02 0.03 0.03 0.05 0.08 0.09 0.07 0.02 0.03 0.04 0.05 0.07 0.06 0.05 0.04 0.05 0.05 0.06 0.10
0.05 0.06 0.07 0.10 0.16 0.16 0.15 0.13 0.14 0.12 0.12 0.10 0.06 0.06 0.05 0.02 0.03 0.04 0.04 0.04 0.04 0.03 0.01 0.00 0.00 0.00 0.00 0.01 0.01 0.00 0.00 0.00 0.00 0.00 0.02 0.05 0.05 0.02 0.01 0.02 0.02 0.01 0.02 0.02 0.03 0.04 0.05 0.06 0.06 0.06 0.08 0.09 0.13 0.16
0.07 0.09 0.08 0.09 0.05 0.02 0.03 0.04 0.04 0.05 0.05 0.03 0.02 0.02 0.02 0.02 0.04 0.04 0.03 0.02 0.01 0.01 0.01 0.01 0.01 0.01 0.01 0.00 0.01 0.01 0.00 0.00 0.00 0.00 0.00 0.00 0.00 0.00 0.00 0.01 0.01 0.01 0.01 0.01 0.01 0.02 0.04 0.07 0.06 0.12 0.16 0.17 0.15 0.11
0.01 0.01 0.01 0.00 0.00 0.01 0.01 0.02 0.02 0.02 0.02 0.00 0.00 0.01 0.01 0.03 0.04 0.03 0.01 0.01 0.01 0.02 0.03 0.02 0.01 0.00 0.00 0.01 0.01 0.02 0.04 0.01 0.00 0.01 0.02 0.02 0.02 0.01 0.01 0.01 0.01 0.01 0.01 0.01 0.01 0.01 0.01 0.02 0.04 0.13 0.08 0.07 0.10 0.10
0.00 0.00 0.00 0.00 0.01 0.01 0.01 0.00 0.00 0.00 0.01 0.01 0.01 0.02 0.06 0.03 0.04 0.02 0.02 0.04 0.02 0.01 0.00 0.00 0.01 0.01 0.01 0.01 0.02 0.01 0.01 0.01 0.01 0.01 0.01 0.01 0.01 0.01 0.01 0.01 0.00 0.01 0.01 0.01 0.02 0.03 0.04 0.04 0.07 0.09 0.05 0.05 0.07 0.06
0.00 0.01 0.01 0.02 0.03 0.01 0.00 0.00 0.00 0.00 0.00 0.01 0.03 0.02 0.03 0.03 0.02 0.02 0.01 0.01 0.00 0.00 0.00 0.00 0.01 0.01 0.01 0.02 0.02 0.02 0.02 0.01 0.01 0.01 0.01 0.02 0.01 0.00 0.00 0.00 0.01 0.01 0.01 0.02 0.03 0.04 0.05 0.06 0.07 0.07 0.07 0.05 0.06 0.05
0.00 0.00 0.00 0.00 0.00 0.00 0.00 0.00 0.00 0.00 0.01 0.02 0.04 0.03 0.03 0.03 0.02 0.02 0.02 0.01 0.01 0.00 0.00 0.00 0.00 0.01 0.02 0.01 0.00 0.01 0.01 0.00 0.00 0.00 0.01 0.01 0.00 0.00 0.00 0.01 0.01 0.02 0.02 0.02 0.04 0.06 0.05 0.05 0.06 0.05 0.05 0.05 0.04 0.04

GFSWCAN_prec_precacc12_018.txt.gz
Total_Precipitation_Accumulation
0.01 0.00 0.00 0.00 0.00 0.00 0.00 0.00 0.00 0.00 0.00 0.00 0.00 0.00 0.00 0.00 0.00 0.00 0.00 0.00 0.00 0.00 0.00 0.00 0.00 0.00 0.00 0.00 0.00 0.00 0.00 0.00 0.00 0.00 0.00 0.00 0.00 0.00 0.00 0.00 0.00 0.00 0.00 0.00 0.00 0.00 0.00 0.00 0.00 0.00 0.00 0.00 0.00 0.00
0.12 0.02 0.00 0.00 0.00 0.00 0.00 0.00 0.00 0.01 0.00 0.00 0.00 0.00 0.00 0.00 0.00 0.00 0.00 0.00 0.00 0.00 0.00 0.00 0.00 0.00 0.00 0.00 0.00 0.00 0.00 0.00 0.00 0.00 0.00 0.00 0.00 0.00 0.00 0.00 0.00 0.00 0.00 0.00 0.00 0.00 0.00 0.00 0.00 0.00 0.00 0.00 0.00 0.00
0.30 0.11 0.01 0.00 0.00 0.00 0.00 0.00 0.00 0.01 0.00 0.01 0.01 0.01 0.00 0.00 0.00 0.00 0.00 0.00 0.00 0.00 0.00 0.00 0.00 0.00 0.00 0.00 0.00 0.00 0.00 0.00 0.00 0.00 0.00 0.00 0.00 0.00 0.00 0.00 0.00 0.00 0.00 0.00 0.00 0.00 0.00 0.00 0.00 0.00 0.00 0.00 0.00 0.00
0.35 0.23 0.06 0.00 0.00 0.00 0.00 0.00 0.00 0.00 0.00 0.00 0.01 0.01 0.00 0.00 0.00 0.00 0.00 0.00 0.00 0.00 0.00 0.00 0.00 0.00 0.00 0.00 0.00 0.00 0.00 0.00 0.00 0.00 0.00 0.00 0.00 0.00 0.00 0.00 0.00 0.00 0.00 0.00 0.00 0.00 0.00 0.00 0.00 0.00 0.00 0.00 0.00 0.00
0.35 0.23 0.12 0.02 0.00 0.00 0.00 0.00 0.00 0.00 0.01 0.01 0.01 0.01 0.01 0.00 0.00 0.00 0.00 0.00 0.00 0.01 0.00 0.00 0.00 0.00 0.00 0.00 0.00 0.00 0.00 0.00 0.00 0.00 0.00 0.00 0.00 0.00 0.00 0.00 0.00 0.00 0.00 0.00 0.00 0.00 0.00 0.00 0.00 0.00 0.00 0.00 0.00 0.00
0.31 0.21 0.13 0.02 0.00 0.00 0.01 0.01 0.01 0.01 0.01 0.01 0.01 0.01 0.00 0.00 0.00 0.00 0.00 0.00 0.00 0.00 0.00 0.00 0.00 0.00 0.00 0.00 0.00 0.00 0.00 0.00 0.00 0.00 0.00 0.00 0.00 0.00 0.00 0.00 0.00 0.00 0.00 0.00 0.00 0.00 0.00 0.00 0.00 0.00 0.00 0.00 0.00 0.00
0.20 0.16 0.11 0.04 0.00 0.00 0.00 0.00 0.01 0.00 0.01 0.01 0.01 0.00 0.00 0.00 0.00 0.00 0.00 0.00 0.00 0.00 0.00 0.00 0.00 0.00 0.00 0.00 0.00 0.01 0.00 0.00 0.01 0.01 0.00 0.00 0.00 0.00 0.00 0.00 0.00 0.00 0.00 0.00 0.00 0.00 0.00 0.00 0.00 0.00 0.00 0.00 0.00 0.00
0.12 0.06 0.04 0.03 0.01 0.01 0.00 0.00 0.00 0.01 0.01 0.01 0.01 0.00 0.00 0.00 0.00 0.00 0.00 0.00 0.00 0.00 0.00 0.00 0.00 0.00 0.00 0.00 0.01 0.02 0.07 0.10 0.06 0.01 0.00 0.00 0.00 0.00 0.00 0.00 0.00 0.00 0.00 0.00 0.00 0.00 0.00 0.00 0.00 0.00 0.00 0.00 0.00 0.01
0.05 0.02 0.01 0.01 0.00 0.01 0.00 0.00 0.00 0.01 0.01 0.00 0.00 0.00 0.00 0.00 0.00 0.00 0.00 0.00 0.00 0.02 0.01 0.00 0.00 0.00 0.00 0.00 0.00 0.00 0.03 0.03 0.01 0.00 0.00 0.00 0.00 0.00 0.00 0.00 0.00 0.00 0.00 0.00 0.00 0.00 0.00 0.00 0.00 0.00 0.00 0.02 0.05 0.12
0.03 0.01 0.00 0.00 0.00 0.00 0.00 0.01 0.01 0.01 0.01 0.01 0.00 0.00 0.00 0.00 0.00 0.00 0.00 0.01 0.00 0.00 0.00 0.00 0.00 0.00 0.00 0.00 0.00 0.00 0.00 0.00 0.00 0.00 0.00 0.00 0.00 0.00 0.00 0.00 0.00 0.00 0.00 0.00 0.00 0.00 0.01 0.01 0.01 0.02 0.04 0.10 0.15 0.10
0.04 0.02 0.00 0.00 0.00 0.00 0.00 0.01 0.02 0.03 0.05 0.03 0.04 0.01 0.01 0.01 0.00 0.00 0.00 0.00 0.00 0.00 0.00 0.00 0.00 0.00 0.00 0.00 0.00 0.00 0.00 0.00 0.00 0.00 0.00 0.00 0.00 0.00 0.00 0.00 0.00 0.00 0.00 0.00 0.00 0.00 0.02 0.05 0.13 0.24 0.23 0.13 0.03 0.01
0.02 0.01 0.00 0.00 0.00 0.00 0.01 0.01 0.01 0.01 0.03 0.10 0.07 0.05 0.07 0.15 0.09 0.09 0.06 0.01 0.00 0.00 0.00 0.00 0.00 0.00 0.00 0.00 0.00 0.00 0.00 0.00 0.00 0.00 0.00 0.01 0.00 0.00 0.00 0.00 0.00 0.00 0.00 0.00 0.03 0.10 0.18 0.23 0.23 0.11 0.03 0.02 0.02 0.01
0.00 0.00 0.00 0.00 0.00 0.01 0.01 0.01 0.01 0.04 0.07 0.13 0.16 0.18 0.23 0.42 0.42 0.32 0.14 0.04 0.01 0.00 0.00 0.00 0.00 0.00 0.00 0.00 0.05 0.12 0.18 0.11 0.04 0.04 0.02 0.03 0.02 0.02 0.04 0.05 0.06 0.07 0.09 0.15 0.21 0.18 0.11 0.05 0.03 0.03 0.03 0.02 0.01 0.01
0.00 0.00 0.00 0.00 0.00 0.00 0.01 0.01 0.01 0.01 0.01 0.08 0.17 0.33 0.30 0.29 0.18 0.16 0.06 0.03 0.04 0.04 0.02 0.01 0.01 0.02 0.02 0.04 0.21 0.38 0.40 0.22 0.21 0.11 0.08 0.11 0.19 0.26 0.17 0.12 0.10 0.07 0.05 0.03 0.01 0.01 0.01 0.01 0.01 0.00 0.00 0.00 0.00 0.00
0.00 0.00 0.00 0.00 0.00 0.00 0.00 0.00 0.00 0.00 0.00 0.03 0.02 0.10 0.12 0.07 0.06 0.04 0.03 0.03 0.05 0.08 0.14 0.19 0.23 0.22 0.19 0.32 0.35 0.29 0.25 0.22 0.21 0.23 0.31 0.33 0.29 0.23 0.07 0.01 0.01 0.00 0.00 0.00 0.00 0.00 0.00 0.00 0.00 0.00 0.00 0.00 0.00 0.00
0.00 0.00 0.00 0.00 0.00 0.00 0.00 0.00 0.00 0.00 0.00 0.00 0.00 0.01 0.01 0.02 0.03 0.05 0.06 0.09 0.12 0.17 0.20 0.23 0.24 0.28 0.34 0.33 0.22 0.21 0.21 0.25 0.31 0.17 0.10 0.06 0.05 0.06 0.09 0.06 0.00 0.00 0.00 0.00 0.00 0.00 0.00 0.00 0.00 0.00 0.00 0.00 0.00 0.00
0.00 0.01 0.00 0.00 0.00 0.00 0.00 0.00 0.00 0.00 0.00 0.00 0.00 0.00 0.00 0.00 0.01 0.01 0.03 0.03 0.02 0.03 0.04 0.05 0.09 0.11 0.13 0.14 0.18 0.18 0.21 0.15 0.11 0.08 0.03 0.04 0.06 0.03 0.01 0.00 0.00 0.00 0.00 0.00 0.00 0.00 0.00 0.00 0.00 0.00 0.00 0.00 0.00 0.00
0.01 0.01 0.00 0.00 0.00 0.00 0.00 0.00 0.00 0.00 0.00 0.00 0.00 0.00 0.00 0.00 0.00 0.00 0.00 0.00 0.00 0.00 0.00 0.01 0.01 0.03 0.07 0.08 0.10 0.06 0.03 0.02 0.02 0.01 0.01 0.03 0.01 0.00 0.00 0.00 0.00 0.00 0.00 0.00 0.00 0.00 0.00 0.00 0.00 0.00 0.00 0.00 0.00 0.00
0.01 0.01 0.00 0.01 0.00 0.00 0.00 0.00 0.00 0.00 0.00 0.00 0.00 0.01 0.01 0.01 0.00 0.00 0.01 0.00 0.00 0.00 0.00 0.00 0.00 0.00 0.01 0.00 0.00 0.00 0.00 0.00 0.00 0.00 0.00 0.00 0.00 0.00 0.00 0.00 0.00 0.00 0.00 0.00 0.00 0.00 0.00 0.00 0.00 0.00 0.00 0.00 0.00 0.00
0.00 0.00 0.00 0.04 0.01 0.00 0.00 0.00 0.00 0.00 0.00 0.00 0.00 0.00 0.00 0.01 0.01 0.01 0.01 0.00 0.00 0.00 0.00 0.00 0.00 0.00 0.00 0.00 0.00 0.00 0.00 0.00 0.00 0.00 0.00 0.00 0.00 0.00 0.00 0.00 0.00 0.00 0.00 0.00 0.00 0.00 0.00 0.00 0.00 0.00 0.00 0.01 0.01 0.01
0.00 0.00 0.00 0.04 0.10 0.01 0.00 0.00 0.00 0.00 0.00 0.00 0.00 0.00 0.00 0.00 0.00 0.00 0.00 0.00 0.00 0.00 0.00 0.00 0.00 0.00 0.00 0.00 0.00 0.00 0.00 0.00 0.00 0.00 0.00 0.00 0.00 0.00 0.00 0.00 0.00 0.00 0.00 0.00 0.00 0.00 0.00 0.00 0.00 0.01 0.02 0.00 0.00 0.00
0.00 0.00 0.00 0.03 0.11 0.09 0.02 0.00 0.00 0.00 0.00 0.00 0.00 0.00 0.00 0.00 0.00 0.00 0.00 0.00 0.00 0.00 0.00 0.00 0.00 0.00 0.00 0.00 0.00 0.00 0.00 0.00 0.00 0.00 0.00 0.00 0.00 0.00 0.00 0.00 0.00 0.00 0.00 0.00 0.00 0.01 0.00 0.01 0.02 0.02 0.01 0.00 0.00 0.01
0.01 0.01 0.02 0.04 0.10 0.07 0.06 0.02 0.02 0.00 0.00 0.00 0.01 0.01 0.00 0.00 0.00 0.00 0.00 0.00 0.00 0.00 0.00 0.00 0.00 0.00 0.00 0.01 0.00 0.00 0.00 0.00 0.00 0.00 0.00 0.00 0.00 0.00 0.00 0.00 0.00 0.01 0.00 0.00 0.01 0.01 0.01 0.01 0.00 0.00 0.01 0.02 0.03 0.02
0.00 0.03 0.12 0.11 0.07 0.09 0.07 0.07 0.04 0.03 0.01 0.01 0.01 0.01 0.00 0.00 0.00 0.00 0.00 0.00 0.01 0.00 0.00 0.01 0.00 0.00 0.00 0.00 0.00 0.00 0.00 0.00 0.00 0.00 0.00 0.00 0.00 0.00 0.00 0.00 0.01 0.01 0.01 0.00 0.00 0.00 0.01 0.01 0.02 0.03 0.02 0.02 0.01 0.02
0.05 0.03 0.12 0.14 0.09 0.06 0.03 0.03 0.04 0.03 0.02 0.00 0.01 0.01 0.00 0.00 0.01 0.01 0.01 0.04 0.04 0.03 0.02 0.01 0.01 0.01 0.01 0.01 0.02 0.01 0.00 0.00 0.00 0.00 0.00 0.00 0.00 0.00 0.00 0.00 0.00 0.01 0.00 0.01 0.01 0.02 0.02 0.02 0.01 0.01 0.00 0.01 0.03 0.05
0.15 0.08 0.06 0.06 0.05 0.06 0.04 0.02 0.01 0.02 0.01 0.05 0.06 0.03 0.01 0.03 0.03 0.03 0.05 0.08 0.07 0.06 0.04 0.03 0.02 0.02 0.02 0.02 0.02 0.01 0.00 0.00 0.00 0.00 0.01 0.00 0.01 0.01 0.01 0.01 0.01 0.00 0.00 0.01 0.03 0.03 0.01 0.00 0.01 0.01 0.02 0.02 0.03 0.05
0.12 0.08 0.03 0.03 0.06 0.13 0.17 0.14 0.13 0.14 0.11 0.09 0.06 0.05 0.07 0.09 0.07 0.06 0.07 0.09 0.08 0.08 0.05 0.02 0.01 0.01 0.02 0.02 0.01 0.00 0.00 0.00 0.00 0.00 0.00 0.02 0.02 0.01 0.01 0.02 0.03 0.02 0.01 0.01 0.01 0.02 0.03 0.03 0.02 0.02 0.02 0.02 0.04 0.07
0.05 0.07 0.07 0.10 0.17 0.19 0.17 0.14 0.16 0.16 0.16 0.15 0.10 0.10 0.11 0.07 0.06 0.07 0.07 0.08 0.07 0.05 0.03 0.01 0.00 0.00 0.00 0.01 0.01 0.00 0.00 0.00 0.00 0.00 0.01 0.04 0.02 0.00 0.00 0.00 0.00 0.00 0.00 0.00 0.00 0.01 0.02 0.03 0.04 0.04 0.05 0.07 0.09 0.10
0.08 0.09 0.09 0.09 0.06 0.03 0.04 0.06 0.07 0.07 0.08 0.07 0.04 0.03 0.04 0.03 0.05 0.05 0.05 0.03 0.02 0.01 0.01 0.01 0.01 0.01 0.01 0.00 0.01 0.01 0.00 0.00 0.00 0.00 0.00 0.00 0.00 0.00 0.00 0.00 0.00 0.00 0.00 0.00 0.00 0.00 0.00 0.03 0.04 0.10 0.13 0.12 0.12 0.08
0.00 0.00 0.01 0.00 0.00 0.01 0.01 0.02 0.02 0.03 0.02 0.02 0.01 0.01 0.01 0.02 0.05 0.04 0.02 0.01 0.02 0.03 0.04 0.03 0.02 0.00 0.00 0.00 0.00 0.01 0.02 0.01 0.00 0.00 0.01 0.01 0.01 0.01 0.00 0.00 0.00 0.00 0.00 0.01 0.00 0.00 0.00 0.00 0.02 0.09 0.04 0.05 0.09 0.08
0.00 0.00 0.00 0.00 0.01 0.01 0.01 0.00 0.00 0.01 0.03 0.02 0.01 0.01 0.02 0.03 0.03 0.03 0.03 0.04 0.02 0.01 0.01 0.00 0.00 0.00 0.00 0.00 0.01 0.01 0.01 0.01 0.01 0.01 0.00 0.01 0.01 0.00 0.00 0.00 0.00 0.01 0.01 0.00 0.00 0.01 0.02 0.02 0.03 0.05 0.03 0.04 0.06 0.06
0.00 0.00 0.01 0.02 0.03 0.00 0.00 0.00 0.00 0.00 0.01 0.01 0.02 0.02 0.02 0.02 0.01 0.02 0.02 0.01 0.00 0.00 0.00 0.00 0.00 0.01 0.01 0.01 0.01 0.01 0.01 0.01 0.00 0.00 0.01 0.01 0.01 0.00 0.00 0.00 0.00 0.01 0.01 0.01 0.01 0.02 0.03 0.03 0.04 0.04 0.04 0.04 0.05 0.05
0.00 0.00 0.00 0.00 0.00 0.00 0.00 0.00 0.00 0.00 0.01 0.02 0.04 0.03 0.03 0.02 0.02 0.02 0.02 0.00 0.00 0.00 0.00 0.00 0.00 0.00 0.01 0.00 0.00 0.00 0.00 0.00 0.00 0.00 0.00 0.01 0.00 0.00 0.00 0.00 0.00 0.01 0.00 0.01 0.02 0.03 0.03 0.03 0.03 0.04 0.04 0.04 0.04 0.04

GFSWCAN_prec_precacc12_024.txt.gz
Total_Precipitation_Accumulation
0.16 0.21 0.30 0.25 0.13 0.06 0.01 0.00 0.00 0.00 0.00 0.00 0.00 0.00 0.00 0.00 0.00 0.01 0.00 0.00 0.00 0.00 0.00 0.00 0.00 0.00 0.00 0.00 0.00 0.00 0.00 0.00 0.00 0.00 0.00 0.00 0.00 0.00 0.00 0.00 0.00 0.00 0.00 0.00 0.00 0.00 0.00 0.00 0.00 0.00 0.00 0.00 0.00 0.00
0.21 0.29 0.20 0.10 0.06 0.02 0.00 0.00 0.00 0.01 0.01 0.01 0.00 0.00 0.00 0.00 0.00 0.01 0.00 0.01 0.02 0.00 0.00 0.00 0.00 0.00 0.00 0.00 0.00 0.00 0.00 0.00 0.00 0.00 0.00 0.00 0.00 0.00 0.00 0.00 0.00 0.00 0.00 0.00 0.00 0.00 0.00 0.00 0.00 0.00 0.00 0.00 0.00 0.00
0.15 0.09 0.04 0.02 0.00 0.00 0.00 0.00 0.01 0.02 0.01 0.01 0.01 0.01 0.00 0.00 0.00 0.00 0.01 0.02 0.02 0.00 0.00 0.00 0.00 0.00 0.00 0.00 0.00 0.00 0.00 0.00 0.00 0.00 0.00 0.00 0.00 0.00 0.00 0.00 0.00 0.00 0.00 0.00 0.00 0.00 0.00 0.00 0.00 0.00 0.00 0.00 0.00 0.00
0.01 0.00 0.00 0.00 0.00 0.00 0.00 0.00 0.01 0.02 0.02 0.01 0.01 0.01 0.00 0.00 0.00 0.00 0.00 0.02 0.02 0.02 0.01 0.00 0.00 0.00 0.00 0.00 0.00 0.00 0.00 0.00 0.00 0.00 0.00 0.00 0.00 0.00 0.00 0.00 0.00 0.00 0.00 0.00 0.00 0.00 0.00 0.00 0.00 0.00 0.00 0.00 0.00 0.00
0.00 0.00 0.00 0.00 0.00 0.00 0.01 0.00 0.02 0.06 0.06 0.03 0.02 0.02 0.00 0.00 0.00 0.00 0.01 0.02 0.01 0.01 0.01 0.00 0.00 0.00 0.00 0.00 0.00 0.00 0.00 0.00 0.00 0.00 0.00 0.00 0.00 0.00 0.00 0.00 0.00 0.00 0.00 0.00 0.00 0.00 0.00 0.00 0.00 0.00 0.00 0.00 0.00 0.00
0.01 0.00 0.00 0.00 0.01 0.01 0.00 0.01 0.03 0.07 0.05 0.03 0.02 0.01 0.00 0.00 0.01 0.03 0.01 0.00 0.00 0.00 0.00 0.01 0.00 0.00 0.00 0.00 0.00 0.00 0.00 0.00 0.00 0.00 0.00 0.00 0.00 0.00 0.00 0.00 0.00 0.00 0.00 0.00 0.00 0.00 0.00 0.00 0.00 0.00 0.00 0.00 0.00 0.00
0.05 0.02 0.00 0.00 0.01 0.00 0.00 0.00 0.01 0.05 0.03 0.04 0.04 0.03 0.03 0.04 0.03 0.01 0.00 0.00 0.01 0.00 0.00 0.00 0.00 0.00 0.00 0.00 0.00 0.00 0.00 0.00 0.00 0.00 0.00 0.00 0.00 0.00 0.00 0.00 0.00 0.00 0.00 0.00 0.00 0.00 0.00 0.00 0.00 0.00 0.00 0.00 0.00 0.00
0.08 0.03 0.01 0.00 0.01 0.01 0.00 0.00 0.01 0.02 0.04 0.05 0.06 0.07 0.07 0.06 0.02 0.00 0.00 0.00 0.00 0.00 0.00 0.00 0.00 0.00 0.00 0.00 0.00 0.00 0.01 0.01 0.00 0.00 0.00 0.00 0.00 0.00 0.00 0.00 0.00 0.00 0.00 0.00 0.00 0.00 0.00 0.00 0.00 0.00 0.00 0.00 0.00 0.01
0.05 0.02 0.01 0.00 0.02 0.02 0.01 0.00 0.00 0.00 0.00 0.00 0.01 0.01 0.02 0.01 0.00 0.00 0.00 0.00 0.00 0.00 0.00 0.00 0.00 0.00 0.00 0.00 0.01 0.00 0.01 0.01 0.00 0.00 0.00 0.00 0.00 0.00 0.00 0.00 0.00 0.00 0.00 0.00 0.00 0.00 0.00 0.00 0.00 0.00 0.00 0.02 0.06 0.17
0.03 0.01 0.00 0.01 0.03 0.05 0.02 0.01 0.00 0.00 0.00 0.00 0.00 0.00 0.00 0.00 0.00 0.00 0.00 0.00 0.00 0.00 0.00 0.00 0.00 0.00 0.00 0.00 0.00 0.00 0.00 0.00 0.00 0.00 0.00 0.00 0.00 0.00 0.00 0.00 0.00 0.00 0.00 0.00 0.00 0.00 0.00 0.00 0.00 0.01 0.05 0.12 0.20 0.16
0.06 0.02 0.01 0.02 0.04 0.04 0.05 0.02 0.01 0.00 0.00 0.00 0.00 0.00 0.00 0.00 0.00 0.00 0.00 0.00 0.00 0.00 0.00 0.00 0.00 0.00 0.00 0.00 0.00 0.00 0.00 0.00 0.00 0.00 0.00 0.00 0.00 0.00 0.00 0.00 0.00 0.00 0.00 0.00 0.00 0.00 0.00 0.01 0.10 0.25 0.26 0.15 0.05 0.02
0.08 0.04 0.02 0.02 0.01 0.01 0.05 0.04 0.01 0.00 0.00 0.00 0.00 0.00 0.00 0.00 0.00 0.00 0.00 0.00 0.00 0.00 0.00 0.00 0.00 0.00 0.00 0.00 0.00 0.00 0.00 0.00 0.00 0.00 0.00 0.01 0.01 0.01 0.00 0.00 0.00 0.00 0.00 0.00 0.00 0.03 0.12 0.21 0.22 0.11 0.03 0.02 0.02 0.02
0.08 0.07 0.04 0.03 0.01 0.01 0.01 0.03 0.02 0.03 0.00 0.00 0.01 0.03 0.03 0.04 0.02 0.01 0.01 0.00 0.00 0.00 0.00 0.00 0.00 0.00 0.00 0.00 0.02 0.06 0.08 0.04 0.01 0.02 0.03 0.05 0.04 0.06 0.07 0.06 0.06 0.05 0.06 0.10 0.16 0.16 0.10 0.05 0.03 0.03 0.03 0.02 0.01 0.01
0.01 0.04 0.07 0.08 0.06 0.03 0.02 0.02 0.02 0.01 0.01 0.04 0.03 0.07 0.05 0.05 0.03 0.03 0.01 0.00 0.01 0.01 0.01 0.00 0.00 0.00 0.01 0.01 0.05 0.15 0.19 0.12 0.12 0.06 0.07 0.10 0.17 0.23 0.16 0.09 0.07 0.06 0.04 0.03 0.01 0.01 0.01 0.01 0.01 0.00 0.00 0.00 0.00 0.00
0.00 0.00 0.01 0.05 0.06 0.06 0.04 0.03 0.04 0.01 0.03 0.10 0.03 0.06 0.05 0.01 0.01 0.01 0.00 0.00 0.01 0.02 0.04 0.05 0.08 0.08 0.08 0.14 0.13 0.10 0.10 0.09 0.07 0.05 0.11 0.17 0.19 0.20 0.09 0.02 0.01 0.00 0.00 0.00 0.00 0.00 0.00 0.00 0.00 0.00 0.00 0.00 0.00 0.00
0.00 0.00 0.00 0.00 0.01 0.00 0.00 0.01 0.01 0.02 0.07 0.10 0.09 0.08 0.05 0.02 0.03 0.03 0.03 0.03 0.03 0.03 0.06 0.09 0.08 0.11 0.19 0.20 0.12 0.09 0.08 0.05 0.04 0.04 0.07 0.09 0.11 0.11 0.10 0.05 0.00 0.00 0.00 0.00 0.00 0.00 0.00 0.00 0.00 0.00 0.00 0.00 0.00 0.00
0.00 0.00 0.00 0.00 0.00 0.00 0.00 0.00 0.00 0.00 0.00 0.01 0.04 0.05 0.04 0.04 0.06 0.07 0.05 0.04 0.03 0.02 0.03 0.03 0.03 0.04 0.07 0.07 0.08 0.09 0.08 0.05 0.09 0.11 0.07 0.08 0.09 0.04 0.01 0.00 0.00 0.00 0.00 0.00 0.00 0.00 0.00 0.00 0.00 0.00 0.00 0.00 0.00 0.00
0.00 0.00 0.00 0.00 0.00 0.00 0.00 0.00 0.00 0.00 0.00 0.01 0.01 0.02 0.01 0.01 0.01 0.01 0.00 0.00 0.00 0.00 0.00 0.00 0.00 0.01 0.02 0.03 0.04 0.03 0.01 0.01 0.01 0.02 0.03 0.07 0.05 0.01 0.00 0.00 0.00 0.00 0.00 0.00 0.00 0.00 0.00 0.00 0.00 0.00 0.00 0.00 0.00 0.00
0.00 0.00 0.00 0.00 0.00 0.00 0.00 0.00 0.00 0.00 0.01 0.01 0.01 0.02 0.02 0.02 0.01 0.00 0.00 0.00 0.00 0.00 0.00 0.00 0.00 0.00 0.00 0.00 0.00 0.00 0.00 0.00 0.00 0.01 0.01 0.01 0.01 0.00 0.00 0.00 0.00 0.00 0.00 0.00 0.00 0.00 0.00 0.00 0.00 0.00 0.00 0.00 0.00 0.00
0.00 0.00 0.00 0.00 0.00 0.00 0.00 0.00 0.00 0.00 0.00 0.00 0.01 0.01 0.01 0.01 0.01 0.01 0.01 0.00 0.00 0.00 0.00 0.00 0.00 0.00 0.00 0.00 0.00 0.00 0.00 0.00 0.00 0.00 0.00 0.00 0.00 0.00 0.00 0.00 0.00 0.00 0.00 0.00 0.00 0.00 0.00 0.00 0.00 0.00 0.00 0.00 0.00 0.00
0.00 0.00 0.00 0.00 0.00 0.00 0.00 0.00 0.00 0.00 0.00 0.00 0.00 0.00 0.00 0.00 0.00 0.00 0.00 0.00 0.00 0.00 0.00 0.00 0.00 0.00 0.00 0.00 0.00 0.00 0.00 0.00 0.00 0.00 0.00 0.00 0.00 0.00 0.00 0.00 0.00 0.00 0.00 0.00 0.00 0.00 0.00 0.00 0.00 0.00 0.00 0.00 0.00 0.00
0.00 0.00 0.00 0.00 0.00 0.00 0.00 0.00 0.00 0.00 0.00 0.00 0.00 0.00 0.00 0.00 0.00 0.01 0.00 0.01 0.01 0.01 0.01 0.01 0.02 0.01 0.00 0.00 0.00 0.00 0.00 0.00 0.00 0.00 0.00 0.00 0.01 0.00 0.00 0.00 0.00 0.00 0.00 0.00 0.00 0.00 0.00 0.00 0.00 0.00 0.00 0.00 0.00 0.01
0.00 0.00 0.00 0.00 0.00 0.00 0.00 0.00 0.01 0.00 0.00 0.00 0.01 0.00 0.00 0.00 0.00 0.00 0.01 0.02 0.02 0.02 0.02 0.01 0.04 0.07 0.06 0.08 0.04 0.02 0.01 0.00 0.00 0.00 0.00 0.00 0.00 0.00 0.00 0.00 0.00 0.00 0.00 0.00 0.00 0.00 0.00 0.00 0.00 0.00 0.00 0.00 0.00 0.01
0.00 0.00 0.00 0.00 0.00 0.00 0.00 0.01 0.01 0.01 0.01 0.01 0.01 0.01 0.00 0.00 0.00 0.01 0.01 0.02 0.04 0.02 0.02 0.05 0.06 0.09 0.10 0.10 0.10 0.09 0.07 0.03 0.02 0.01 0.01 0.00 0.00 0.01 0.00 0.00 0.00 0.00 0.00 0.00 0.00 0.00 0.00 0.00 0.00 0.00 0.00 0.00 0.00 0.00
0.00 0.00 0.00 0.00 0.00 0.00 0.00 0.00 0.01 0.01 0.01 0.01 0.01 0.01 0.01 0.01 0.02 0.02 0.02 0.05 0.05 0.06 0.08 0.11 0.12 0.13 0.12 0.12 0.11 0.08 0.05 0.04 0.03 0.02 0.01 0.00 0.00 0.00 0.00 0.00 0.00 0.00 0.00 0.00 0.00 0.00 0.00 0.00 0.00 0.00 0.00 0.00 0.00 0.01
0.00 0.01 0.00 0.00 0.01 0.01 0.01 0.00 0.00 0.01 0.02 0.03 0.05 0.04 0.03 0.05 0.05 0.06 0.05 0.07 0.10 0.12 0.13 0.14 0.13 0.12 0.11 0.10 0.09 0.07 0.05 0.04 0.02 0.01 0.01 0.00 0.00 0.00 0.00 0.00 0.00 0.00 0.00 0.00 0.01 0.01 0.00 0.00 0.00 0.00 0.00 0.00 0.00 0.01
0.01 0.01 0.00 0.01 0.02 0.04 0.07 0.07 0.07 0.12 0.10 0.10 0.08 0.06 0.09 0.12 0.09 0.07 0.07 0.11 0.13 0.16 0.15 0.14 0.11 0.08 0.08 0.07 0.04 0.02 0.01 0.01 0.00 0.00 0.00 0.00 0.00 0.00 0.00 0.00 0.00 0.00 0.00 0.00 0.00 0.01 0.01 0.01 0.01 0.00 0.01 0.00 0.01 0.03
0.01 0.02 0.02 0.02 0.06 0.10 0.08 0.06 0.09 0.12 0.15 0.15 0.12 0.12 0.13 0.10 0.08 0.07 0.08 0.11 0.10 0.08 0.05 0.04 0.03 0.02 0.02 0.02 0.01 0.01 0.01 0.00 0.00 0.00 0.00 0.00 0.00 0.00 0.00 0.00 0.00 0.00 0.00 0.00 0.00 0.00 0.00 0.01 0.01 0.01 0.02 0.03 0.02 0.03
0.02 0.03 0.03 0.03 0.02 0.03 0.04 0.06 0.07 0.08 0.09 0.08 0.05 0.04 0.04 0.03 0.04 0.04 0.04 0.05 0.04 0.02 0.02 0.02 0.03 0.02 0.02 0.01 0.00 0.00 0.00 0.00 0.00 0.00 0.00 0.00 0.00 0.00 0.00 0.00 0.00 0.00 0.00 0.00 0.00 0.00 0.00 0.01 0.01 0.02 0.03 0.03 0.02 0.02
0.00 0.00 0.01 0.00 0.00 0.01 0.01 0.01 0.02 0.04 0.03 0.03 0.02 0.02 0.01 0.02 0.04 0.05 0.03 0.03 0.03 0.03 0.03 0.03 0.02 0.01 0.00 0.00 0.00 0.00 0.00 0.00 0.00 0.00 0.00 0.00 0.01 0.01 0.00 0.00 0.00 0.00 0.00 0.00 0.00 0.00 0.00 0.00 0.00 0.00 0.00 0.01 0.01 0.01
0.00 0.01 0.01 0.00 0.01 0.01 0.01 0.00 0.01 0.05 0.05 0.03 0.02 0.01 0.02 0.03 0.03 0.03 0.02 0.02 0.02 0.01 0.01 0.00 0.00 0.00 0.00 0.00 0.00 0.00 0.00 0.00 0.00 0.00 0.00 0.00 0.00 0.00 0.00 0.00 0.00 0.00 0.00 0.00 0.00 0.00 0.00 0.00 0.00 0.00 0.00 0.00 0.00 0.01
0.00 0.00 0.01 0.01 0.01 0.01 0.00 0.00 0.00 0.01 0.02 0.02 0.02 0.02 0.02 0.01 0.01 0.02 0.02 0.01 0.00 0.00 0.00 0.00 0.00 0.00 0.00 0.00 0.00 0.00 0.00 0.00 0.00 0.00 0.00 0.00 0.00 0.00 0.00 0.00 0.00 0.00 0.00 0.00 0.00 0.00 0.00 0.00 0.00 0.00 0.00 0.00 0.00 0.01
0.01 0.01 0.00 0.00 0.00 0.00 0.01 0.00 0.00 0.00 0.02 0.02 0.03 0.02 0.02 0.02 0.02 0.02 0.03 0.01 0.00 0.00 0.00 0.00 0.00 0.00 0.00 0.00 0.00 0.00 0.00 0.00 0.00 0.00 0.00 0.01 0.00 0.00 0.00 0.00 0.00 0.00 0.00 0.00 0.00 0.00 0.00 0.00 0.00 0.00 0.00 0.00 0.00 0.00

GFSWCAN_prec_precacc12_027.txt.gz
Total_Precipitation_Accumulation
0.17 0.24 0.34 0.29 0.22 0.21 0.13 0.21 0.17 0.10 0.09 0.06 0.05 0.02 0.00 0.00 0.01 0.10 0.02 0.00 0.00 0.00 0.00 0.00 0.00 0.00 0.00 0.00 0.00 0.00 0.00 0.00 0.00 0.00 0.00 0.00 0.00 0.00 0.00 0.00 0.00 0.00 0.00 0.00 0.00 0.00 0.00 0.00 0.00 0.00 0.00 0.00 0.00 0.00
0.29 0.46 0.32 0.20 0.25 0.16 0.15 0.17 0.11 0.08 0.06 0.05 0.01 0.00 0.00 0.00 0.01 0.13 0.03 0.01 0.02 0.00 0.00 0.00 0.00 0.00 0.00 0.00 0.00 0.00 0.00 0.00 0.00 0.00 0.00 0.01 0.00 0.00 0.00 0.00 0.00 0.00 0.00 0.00 0.00 0.00 0.00 0.00 0.00 0.00 0.00 0.00 0.00 0.00
0.39 0.29 0.19 0.16 0.13 0.12 0.10 0.08 0.06 0.04 0.02 0.01 0.01 0.01 0.00 0.00 0.02 0.10 0.03 0.02 0.02 0.00 0.01 0.00 0.00 0.00 0.00 0.00 0.00 0.00 0.00 0.00 0.00 0.00 0.00 0.00 0.01 0.00 0.00 0.00 0.00 0.00 0.00 0.00 0.00 0.00 0.00 0.00 0.00 0.00 0.00 0.00 0.00 0.00
0.15 0.12 0.10 0.09 0.08 0.06 0.03 0.02 0.01 0.02 0.02 0.01 0.01 0.01 0.00 0.00 0.02 0.07 0.01 0.02 0.02 0.02 0.03 0.00 0.00 0.00 0.00 0.00 0.00 0.00 0.00 0.00 0.00 0.00 0.00 0.01 0.01 0.00 0.00 0.00 0.00 0.00 0.00 0.00 0.00 0.00 0.00 0.00 0.00 0.00 0.00 0.00 0.00 0.00
0.06 0.05 0.04 0.03 0.01 0.01 0.02 0.01 0.02 0.06 0.06 0.03 0.01 0.01 0.00 0.00 0.01 0.02 0.01 0.02 0.01 0.03 0.03 0.00 0.00 0.00 0.00 0.00 0.00 0.00 0.00 0.00 0.00 0.00 0.01 0.00 0.00 0.00 0.00 0.00 0.00 0.00 0.00 0.00 0.00 0.00 0.00 0.00 0.00 0.00 0.00 0.00 0.00 0.00
0.02 0.01 0.00 0.00 0.01 0.02 0.02 0.03 0.06 0.11 0.06 0.03 0.02 0.01 0.00 0.00 0.02 0.03 0.03 0.01 0.00 0.00 0.02 0.02 0.00 0.00 0.00 0.00 0.00 0.00 0.00 0.00 0.00 0.00 0.00 0.00 0.00 0.00 0.00 0.00 0.00 0.00 0.00 0.00 0.00 0.00 0.00 0.00 0.00 0.00 0.00 0.00 0.00 0.00
0.00 0.00 0.00 0.01 0.02 0.03 0.05 0.06 0.10 0.09 0.03 0.04 0.04 0.03 0.03 0.04 0.04 0.03 0.01 0.01 0.01 0.00 0.01 0.02 0.01 0.00 0.00 0.00 0.00 0.00 0.00 0.00 0.00 0.00 0.00 0.00 0.00 0.00 0.00 0.00 0.00 0.00 0.00 0.00 0.00 0.00 0.00 0.00 0.00 0.00 0.00 0.00 0.00 0.00
0.00 0.00 0.01 0.01 0.02 0.01 0.03 0.06 0.08 0.06 0.07 0.06 0.07 0.08 0.09 0.06 0.05 0.01 0.00 0.00 0.00 0.00 0.00 0.01 0.01 0.02 0.01 0.01 0.00 0.00 0.00 0.00 0.00 0.00 0.00 0.00 0.00 0.00 0.00 0.00 0.00 0.00 0.00 0.00 0.00 0.00 0.00 0.00 0.00 0.00 0.00 0.00 0.00 0.00
0.01 0.00 0.01 0.00 0.02 0.02 0.01 0.02 0.03 0.03 0.03 0.05 0.05 0.05 0.05 0.04 0.04 0.01 0.00 0.01 0.00 0.01 0.00 0.01 0.01 0.01 0.01 0.01 0.01 0.00 0.00 0.00 0.00 0.00 0.00 0.00 0.00 0.00 0.00 0.00 0.00 0.00 0.00 0.00 0.00 0.00 0.00 0.00 0.00 0.00 0.00 0.00 0.02 0.14
0.03 0.03 0.03 0.01 0.04 0.05 0.02 0.00 0.01 0.01 0.01 0.02 0.02 0.01 0.02 0.02 0.01 0.00 0.00 0.01 0.00 0.00 0.00 0.00 0.00 0.00 0.00 0.00 0.00 0.00 0.00 0.00 0.00 0.00 0.00 0.00 0.00 0.00 0.00 0.00 0.00 0.00 0.00 0.00 0.00 0.00 0.00 0.00 0.00 0.00 0.01 0.06 0.16 0.16
0.06 0.02 0.01 0.03 0.07 0.04 0.05 0.01 0.00 0.00 0.00 0.00 0.00 0.01 0.01 0.00 0.00 0.00 0.00 0.00 0.00 0.00 0.00 0.00 0.00 0.00 0.00 0.00 0.00 0.00 0.00 0.00 0.00 0.00 0.00 0.00 0.00 0.00 0.00 0.00 0.00 0.00 0.00 0.00 0.00 0.00 0.00 0.00 0.03 0.08 0.12 0.11 0.04 0.02
0.08 0.05 0.02 0.04 0.05 0.01 0.05 0.03 0.00 0.00 0.00 0.00 0.00 0.00 0.00 0.00 0.00 0.00 0.00 0.00 0.00 0.00 0.00 0.00 0.00 0.00 0.00 0.00 0.00 0.00 0.00 0.00 0.00 0.00 0.01 0.01 0.01 0.01 0.00 0.00 0.00 0.00 0.00 0.00 0.00 0.00 0.01 0.02 0.06 0.05 0.03 0.01 0.01 0.02
0.08 0.07 0.04 0.03 0.02 0.01 0.02 0.03 0.01 0.01 0.00 0.00 0.00 0.00 0.00 0.00 0.00 0.00 0.00 0.00 0.00 0.00 0.00 0.00 0.00 0.00 0.00 0.00 0.00 0.02 0.01 0.01 0.00 0.02 0.03 0.04 0.04 0.06 0.07 0.05 0.03 0.02 0.02 0.01 0.01 0.01 0.02 0.02 0.02 0.02 0.02 0.02 0.01 0.01
0.02 0.04 0.07 0.08 0.06 0.03 0.02 0.03 0.03 0.01 0.01 0.02 0.02 0.03 0.02 0.01 0.00 0.01 0.00 0.00 0.00 0.00 0.00 0.00 0.00 0.00 0.00 0.00 0.02 0.07 0.11 0.07 0.07 0.04 0.05 0.07 0.09 0.15 0.10 0.03 0.02 0.01 0.01 0.01 0.00 0.00 0.00 0.00 0.00 0.00 0.00 0.00 0.00 0.00
0.00 0.00 0.02 0.06 0.07 0.07 0.04 0.03 0.05 0.02 0.04 0.11 0.03 0.06 0.04 0.01 0.01 0.01 0.00 0.00 0.00 0.00 0.01 0.02 0.02 0.02 0.03 0.05 0.06 0.05 0.06 0.05 0.04 0.02 0.05 0.07 0.11 0.13 0.07 0.01 0.00 0.00 0.00 0.00 0.00 0.00 0.00 0.00 0.00 0.00 0.00 0.00 0.00 0.00
0.00 0.00 0.00 0.02 0.02 0.01 0.00 0.01 0.01 0.03 0.08 0.11 0.10 0.09 0.05 0.02 0.03 0.03 0.03 0.03 0.02 0.02 0.04 0.05 0.03 0.06 0.10 0.11 0.07 0.05 0.05 0.03 0.01 0.02 0.05 0.07 0.10 0.10 0.04 0.00 0.00 0.00 0.00 0.00 0.00 0.00 0.00 0.00 0.00 0.00 0.00 0.00 0.00 0.00
0.00 0.00 0.00 0.00 0.00 0.00 0.00 0.00 0.00 0.01 0.04 0.04 0.07 0.08 0.07 0.06 0.09 0.10 0.08 0.07 0.05 0.04 0.06 0.05 0.04 0.04 0.05 0.05 0.05 0.04 0.04 0.02 0.06 0.08 0.05 0.07 0.07 0.03 0.00 0.00 0.00 0.00 0.00 0.00 0.00 0.00 0.00 0.00 0.00 0.00 0.00 0.00 0.00 0.00
0.00 0.00 0.00 0.00 0.00 0.00 0.00 0.00 0.00 0.00 0.01 0.02 0.02 0.03 0.02 0.03 0.03 0.03 0.01 0.01 0.01 0.01 0.02 0.02 0.01 0.02 0.03 0.02 0.02 0.01 0.00 0.00 0.01 0.01 0.03 0.07 0.06 0.02 0.00 0.00 0.00 0.00 0.00 0.00 0.00 0.00 0.00 0.00 0.00 0.00 0.00 0.00 0.00 0.00
0.00 0.00 0.00 0.00 0.00 0.00 0.00 0.00 0.00 0.00 0.01 0.02 0.03 0.02 0.02 0.03 0.02 0.00 0.00 0.00 0.00 0.00 0.00 0.00 0.00 0.00 0.01 0.00 0.00 0.00 0.00 0.00 0.01 0.01 0.02 0.03 0.03 0.00 0.00 0.00 0.00 0.00 0.00 0.00 0.00 0.00 0.00 0.00 0.00 0.00 0.00 0.00 0.00 0.00
0.00 0.00 0.00 0.00 0.00 0.00 0.00 0.00 0.00 0.00 0.00 0.01 0.02 0.01 0.01 0.01 0.00 0.00 0.01 0.00 0.00 0.00 0.00 0.00 0.00 0.00 0.00 0.00 0.00 0.00 0.00 0.00 0.00 0.00 0.00 0.00 0.00 0.00 0.00 0.00 0.00 0.00 0.00 0.00 0.00 0.00 0.00 0.00 0.00 0.00 0.00 0.00 0.00 0.00
0.00 0.00 0.00 0.00 0.00 0.00 0.00 0.00 0.00 0.00 0.00 0.00 0.01 0.00 0.00 0.00 0.00 0.00 0.00 0.00 0.00 0.00 0.01 0.01 0.01 0.00 0.00 0.00 0.00 0.00 0.00 0.00 0.00 0.00 0.00 0.00 0.00 0.00 0.00 0.00 0.00 0.00 0.00 0.00 0.00 0.00 0.00 0.00 0.00 0.00 0.00 0.00 0.00 0.00
0.00 0.00 0.00 0.00 0.00 0.00 0.00 0.00 0.00 0.00 0.00 0.00 0.00 0.00 0.01 0.01 0.01 0.01 0.01 0.02 0.02 0.03 0.03 0.04 0.03 0.03 0.02 0.01 0.00 0.00 0.01 0.02 0.02 0.02 0.01 0.01 0.02 0.02 0.01 0.00 0.00 0.00 0.00 0.00 0.00 0.00 0.00 0.00 0.00 0.00 0.00 0.00 0.00 0.00
0.00 0.00 0.00 0.00 0.00 0.00 0.00 0.00 0.00 0.00 0.00 0.00 0.01 0.01 0.01 0.01 0.00 0.00 0.02 0.03 0.04 0.03 0.04 0.02 0.05 0.09 0.09 0.12 0.07 0.05 0.03 0.01 0.02 0.03 0.04 0.03 0.03 0.02 0.01 0.01 0.00 0.00 0.00 0.00 0.00 0.00 0.00 0.00 0.00 0.00 0.00 0.00 0.00 0.00
0.00 0.00 0.00 0.00 0.00 0.00 0.00 0.00 0.00 0.00 0.00 0.00 0.01 0.01 0.00 0.00 0.00 0.01 0.02 0.03 0.04 0.02 0.03 0.06 0.07 0.10 0.12 0.12 0.12 0.14 0.15 0.12 0.10 0.08 0.07 0.05 0.04 0.03 0.01 0.00 0.00 0.00 0.00 0.00 0.00 0.00 0.00 0.00 0.00 0.00 0.00 0.00 0.00 0.00
0.00 0.00 0.00 0.00 0.00 0.00 0.00 0.00 0.00 0.00 0.00 0.01 0.01 0.01 0.01 0.01 0.02 0.02 0.02 0.05 0.04 0.05 0.09 0.12 0.13 0.14 0.14 0.15 0.14 0.13 0.11 0.09 0.08 0.06 0.05 0.02 0.02 0.01 0.00 0.00 0.00 0.00 0.00 0.00 0.00 0.00 0.00 0.00 0.00 0.00 0.00 0.00 0.01 0.01
0.00 0.01 0.00 0.00 0.00 0.00 0.01 0.00 0.00 0.01 0.01 0.01 0.02 0.03 0.03 0.05 0.05 0.06 0.04 0.06 0.09 0.10 0.13 0.15 0.14 0.12 0.12 0.11 0.10 0.08 0.06 0.06 0.04 0.03 0.02 0.00 0.00 0.00 0.00 0.00 0.00 0.00 0.00 0.00 0.00 0.00 0.00 0.00 0.00 0.00 0.00 0.00 0.01 0.01
0.00 0.01 0.00 0.00 0.00 0.02 0.02 0.03 0.04 0.07 0.07 0.07 0.06 0.05 0.07 0.09 0.07 0.06 0.06 0.09 0.12 0.14 0.15 0.14 0.11 0.08 0.08 0.06 0.04 0.03 0.02 0.01 0.01 0.01 0.00 0.00 0.00 0.00 0.00 0.00 0.00 0.00 0.00 0.00 0.00 0.00 0.00 0.00 0.00 0.00 0.01 0.00 0.01 0.02
0.01 0.01 0.01 0.01 0.02 0.03 0.03 0.02 0.04 0.06 0.08 0.08 0.07 0.07 0.09 0.08 0.07 0.07 0.08 0.09 0.09 0.07 0.05 0.04 0.03 0.02 0.02 0.02 0.02 0.02 0.01 0.00 0.00 0.00 0.00 0.00 0.00 0.00 0.00 0.00 0.00 0.00 0.00 0.00 0.00 0.00 0.00 0.01 0.01 0.01 0.01 0.01 0.01 0.01
0.01 0.01 0.01 0.01 0.00 0.01 0.02 0.03 0.04 0.04 0.05 0.05 0.04 0.03 0.03 0.03 0.04 0.04 0.04 0.05 0.04 0.03 0.02 0.03 0.03 0.03 0.02 0.01 0.00 0.00 0.00 0.00 0.00 0.00 0.00 0.00 0.00 0.00 0.00 0.00 0.00 0.00 0.00 0.00 0.00 0.00 0.00 0.01 0.01 0.01 0.01 0.01 0.01 0.00
0.00 0.00 0.00 0.00 0.00 0.00 0.01 0.01 0.02 0.03 0.02 0.02 0.02 0.02 0.02 0.02 0.04 0.05 0.04 0.04 0.03 0.03 0.04 0.03 0.02 0.01 0.01 0.00 0.00 0.00 0.00 0.00 0.00 0.00 0.00 0.00 0.00 0.00 0.00 0.00 0.00 0.00 0.00 0.00 0.00 0.00 0.00 0.00 0.00 0.00 0.00 0.00 0.00 0.00
0.01 0.01 0.01 0.01 0.01 0.02 0.01 0.01 0.02 0.05 0.05 0.03 0.02 0.02 0.02 0.03 0.03 0.03 0.02 0.02 0.02 0.02 0.01 0.00 0.00 0.00 0.00 0.00 0.00 0.00 0.00 0.00 0.00 0.00 0.00 0.00 0.00 0.00 0.00 0.00 0.01 0.01 0.00 0.00 0.00 0.00 0.00 0.00 0.00 0.00 0.00 0.00 0.00 0.00
0.00 0.00 0.01 0.00 0.01 0.01 0.00 0.00 0.01 0.02 0.03 0.03 0.02 0.02 0.02 0.02 0.02 0.03 0.02 0.02 0.01 0.00 0.00 0.00 0.00 0.00 0.00 0.00 0.00 0.00 0.00 0.00 0.00 0.00 0.00 0.00 0.01 0.00 0.01 0.01 0.01 0.00 0.00 0.00 0.00 0.00 0.00 0.00 0.00 0.00 0.00 0.00 0.00 0.00
0.01 0.01 0.01 0.01 0.01 0.00 0.01 0.00 0.00 0.00 0.02 0.02 0.02 0.02 0.02 0.02 0.02 0.03 0.03 0.01 0.00 0.00 0.00 0.00 0.00 0.00 0.00 0.00 0.00 0.00 0.00 0.00 0.00 0.00 0.00 0.01 0.01 0.00 0.00 0.00 0.01 0.00 0.00 0.00 0.00 0.00 0.00 0.00 0.00 0.00 0.00 0.00 0.00 0.00

GFSWCAN_prec_precacc12_030.txt.gz
Total_Precipitation_Accumulation
0.17 0.24 0.34 0.29 0.22 0.22 0.14 0.21 0.18 0.11 0.12 0.12 0.12 0.09 0.04 0.01 0.01 0.15 0.19 0.17 0.16 0.07 0.00 0.00 0.00 0.00 0.00 0.00 0.00 0.00 0.00 0.00 0.00 0.00 0.00 0.00 0.00 0.00 0.00 0.00 0.00 0.00 0.00 0.00 0.00 0.00 0.00 0.00 0.00 0.00 0.00 0.00 0.00 0.00
0.29 0.46 0.32 0.21 0.27 0.18 0.20 0.20 0.13 0.10 0.12 0.14 0.09 0.05 0.02 0.01 0.02 0.19 0.22 0.13 0.15 0.13 0.00 0.00 0.00 0.00 0.00 0.00 0.00 0.00 0.00 0.00 0.00 0.00 0.01 0.02 0.00 0.00 0.00 0.00 0.00 0.00 0.00 0.00 0.00 0.00 0.00 0.00 0.00 0.00 0.00 0.00 0.00 0.00
0.40 0.31 0.21 0.20 0.20 0.25 0.22 0.15 0.10 0.13 0.11 0.11 0.07 0.04 0.02 0.03 0.04 0.18 0.19 0.17 0.29 0.03 0.02 0.00 0.00 0.00 0.00 0.00 0.00 0.00 0.00 0.00 0.00 0.00 0.00 0.00 0.01 0.00 0.00 0.00 0.00 0.00 0.00 0.00 0.00 0.00 0.00 0.00 0.00 0.00 0.00 0.00 0.00 0.00
0.25 0.23 0.19 0.17 0.21 0.22 0.19 0.11 0.11 0.12 0.09 0.09 0.08 0.02 0.02 0.02 0.05 0.22 0.11 0.09 0.08 0.03 0.06 0.02 0.00 0.00 0.00 0.00 0.00 0.00 0.00 0.00 0.00 0.00 0.00 0.01 0.01 0.00 0.00 0.00 0.00 0.00 0.00 0.00 0.00 0.00 0.00 0.00 0.00 0.00 0.00 0.00 0.00 0.00
0.24 0.22 0.20 0.16 0.16 0.17 0.13 0.08 0.11 0.14 0.10 0.07 0.06 0.02 0.00 0.02 0.06 0.16 0.07 0.05 0.03 0.03 0.04 0.00 0.00 0.00 0.00 0.00 0.00 0.00 0.00 0.00 0.00 0.00 0.01 0.01 0.00 0.00 0.00 0.00 0.00 0.00 0.00 0.00 0.00 0.00 0.00 0.00 0.00 0.00 0.00 0.00 0.00 0.00
0.34 0.26 0.17 0.09 0.08 0.08 0.06 0.07 0.12 0.14 0.08 0.05 0.03 0.01 0.01 0.02 0.07 0.11 0.10 0.04 0.02 0.00 0.03 0.03 0.01 0.00 0.00 0.00 0.00 0.00 0.00 0.00 0.00 0.00 0.00 0.00 0.00 0.00 0.00 0.00 0.00 0.00 0.00 0.00 0.00 0.00 0.00 0.00 0.00 0.00 0.00 0.00 0.00 0.00
0.28 0.21 0.15 0.12 0.08 0.05 0.06 0.08 0.11 0.10 0.04 0.04 0.05 0.04 0.05 0.07 0.14 0.14 0.07 0.02 0.01 0.00 0.05 0.04 0.01 0.00 0.00 0.00 0.00 0.00 0.00 0.00 0.00 0.00 0.00 0.00 0.00 0.00 0.00 0.01 0.00 0.00 0.00 0.00 0.00 0.00 0.00 0.00 0.00 0.00 0.00 0.00 0.00 0.00
0.19 0.19 0.16 0.10 0.10 0.08 0.08 0.09 0.10 0.06 0.07 0.07 0.07 0.09 0.10 0.09 0.11 0.05 0.01 0.01 0.00 0.00 0.04 0.04 0.02 0.02 0.01 0.01 0.00 0.00 0.00 0.00 0.00 0.00 0.00 0.00 0.00 0.00 0.01 0.00 0.00 0.00 0.00 0.00 0.00 0.00 0.00 0.00 0.00 0.00 0.00 0.00 0.00 0.00
0.04 0.02 0.04 0.04 0.07 0.10 0.11 0.09 0.07 0.04 0.06 0.06 0.05 0.06 0.07 0.10 0.14 0.03 0.01 0.01 0.00 0.03 0.04 0.01 0.02 0.03 0.02 0.02 0.01 0.01 0.00 0.00 0.00 0.00 0.00 0.00 0.00 0.00 0.00 0.00 0.00 0.00 0.00 0.00 0.00 0.00 0.00 0.00 0.00 0.00 0.00 0.00 0.01 0.06
0.05 0.05 0.03 0.01 0.05 0.06 0.06 0.06 0.05 0.06 0.05 0.04 0.03 0.04 0.12 0.10 0.07 0.00 0.00 0.03 0.01 0.00 0.00 0.00 0.00 0.01 0.02 0.03 0.02 0.02 0.01 0.01 0.00 0.00 0.00 0.00 0.00 0.00 0.00 0.00 0.00 0.00 0.00 0.00 0.00 0.00 0.00 0.00 0.00 0.00 0.01 0.02 0.05 0.06
0.04 0.02 0.01 0.04 0.07 0.04 0.05 0.02 0.02 0.01 0.01 0.03 0.04 0.02 0.03 0.03 0.02 0.01 0.02 0.05 0.04 0.00 0.00 0.00 0.00 0.00 0.00 0.02 0.02 0.01 0.00 0.00 0.00 0.00 0.00 0.00 0.00 0.00 0.00 0.00 0.00 0.00 0.00 0.00 0.00 0.00 0.00 0.00 0.01 0.02 0.03 0.02 0.01 0.01
0.07 0.05 0.02 0.05 0.05 0.01 0.05 0.04 0.01 0.00 0.01 0.02 0.00 0.02 0.03 0.02 0.03 0.01 0.02 0.02 0.01 0.00 0.00 0.00 0.00 0.00 0.00 0.00 0.00 0.00 0.00 0.00 0.00 0.00 0.01 0.01 0.01 0.01 0.01 0.00 0.00 0.00 0.00 0.00 0.00 0.00 0.00 0.00 0.00 0.00 0.00 0.00 0.00 0.00
0.10 0.08 0.06 0.08 0.02 0.01 0.02 0.03 0.01 0.00 0.00 0.00 0.01 0.05 0.06 0.02 0.01 0.00 0.00 0.00 0.00 0.00 0.00 0.00 0.00 0.00 0.00 0.00 0.00 0.00 0.00 0.00 0.00 0.01 0.02 0.02 0.03 0.04 0.04 0.02 0.01 0.00 0.00 0.00 0.00 0.00 0.00 0.00 0.00 0.00 0.00 0.00 0.00 0.00
0.02 0.04 0.09 0.12 0.07 0.04 0.02 0.02 0.01 0.01 0.01 0.01 0.02 0.05 0.06 0.03 0.00 0.00 0.00 0.00 0.00 0.00 0.00 0.00 0.00 0.00 0.00 0.00 0.01 0.03 0.05 0.04 0.05 0.03 0.03 0.04 0.05 0.07 0.04 0.01 0.00 0.00 0.00 0.00 0.00 0.00 0.00 0.00 0.00 0.00 0.00 0.00 0.00 0.00
0.00 0.00 0.02 0.06 0.07 0.07 0.05 0.04 0.05 0.02 0.05 0.08 0.04 0.07 0.03 0.01 0.01 0.01 0.00 0.00 0.00 0.00 0.00 0.00 0.00 0.00 0.00 0.02 0.02 0.02 0.04 0.04 0.03 0.01 0.01 0.02 0.06 0.06 0.03 0.00 0.00 0.00 0.00 0.00 0.00 0.00 0.00 0.00 0.00 0.00 0.00 0.00 0.00 0.00
0.00 0.00 0.00 0.02 0.02 0.01 0.00 0.01 0.03 0.06 0.17 0.16 0.12 0.09 0.06 0.03 0.04 0.03 0.03 0.03 0.02 0.02 0.03 0.04 0.02 0.03 0.04 0.04 0.03 0.03 0.03 0.03 0.01 0.01 0.02 0.05 0.08 0.07 0.02 0.00 0.00 0.00 0.00 0.00 0.00 0.00 0.00 0.00 0.00 0.00 0.00 0.00 0.00 0.00
0.00 0.00 0.00 0.00 0.00 0.00 0.00 0.00 0.00 0.02 0.05 0.06 0.12 0.11 0.08 0.08 0.11 0.10 0.08 0.08 0.05 0.04 0.06 0.05 0.04 0.03 0.04 0.04 0.04 0.03 0.04 0.02 0.02 0.04 0.04 0.04 0.03 0.01 0.00 0.00 0.00 0.00 0.00 0.00 0.00 0.00 0.00 0.00 0.00 0.00 0.00 0.00 0.00 0.00
0.00 0.00 0.00 0.00 0.00 0.00 0.00 0.00 0.01 0.02 0.04 0.06 0.07 0.09 0.06 0.08 0.07 0.05 0.03 0.02 0.02 0.03 0.05 0.05 0.05 0.08 0.10 0.09 0.07 0.03 0.02 0.02 0.01 0.02 0.03 0.05 0.06 0.02 0.01 0.00 0.00 0.00 0.00 0.00 0.00 0.00 0.00 0.00 0.00 0.00 0.00 0.00 0.00 0.00
0.00 0.00 0.00 0.00 0.00 0.00 0.00 0.00 0.00 0.03 0.07 0.06 0.06 0.04 0.03 0.03 0.02 0.01 0.00 0.00 0.00 0.00 0.01 0.02 0.04 0.05 0.07 0.06 0.05 0.02 0.00 0.00 0.01 0.02 0.02 0.04 0.04 0.01 0.00 0.00 0.00 0.00 0.00 0.00 0.00 0.00 0.00 0.00 0.00 0.00 0.00 0.00 0.00 0.00
0.00 0.00 0.00 0.00 0.00 0.00 0.00 0.00 0.00 0.00 0.02 0.04 0.04 0.02 0.01 0.01 0.00 0.00 0.00 0.00 0.00 0.00 0.00 0.01 0.04 0.05 0.03 0.02 0.02 0.01 0.00 0.00 0.00 0.00 0.02 0.02 0.01 0.00 0.00 0.00 0.00 0.00 0.00 0.00 0.00 0.00 0.00 0.00 0.00 0.00 0.00 0.00 0.00 0.00
0.00 0.00 0.00 0.00 0.00 0.00 0.00 0.00 0.00 0.00 0.00 0.01 0.01 0.00 0.00 0.00 0.00 0.00 0.00 0.00 0.00 0.01 0.04 0.05 0.05 0.04 0.01 0.00 0.01 0.02 0.02 0.02 0.02 0.01 0.00 0.00 0.00 0.00 0.00 0.00 0.00 0.00 0.00 0.00 0.00 0.00 0.00 0.00 0.00 0.00 0.00 0.00 0.00 0.00
0.00 0.00 0.00 0.00 0.00 0.00 0.00 0.00 0.00 0.00 0.00 0.01 0.00 0.01 0.01 0.02 0.01 0.01 0.01 0.02 0.03 0.05 0.06 0.05 0.04 0.04 0.02 0.02 0.01 0.02 0.04 0.05 0.06 0.06 0.06 0.05 0.05 0.04 0.02 0.03 0.02 0.02 0.01 0.00 0.00 0.00 0.00 0.00 0.00 0.00 0.00 0.00 0.00 0.00
0.00 0.00 0.00 0.00 0.00 0.00 0.00 0.00 0.00 0.00 0.00 0.00 0.00 0.01 0.01 0.01 0.01 0.01 0.03 0.04 0.05 0.05 0.06 0.03 0.06 0.09 0.09 0.11 0.07 0.07 0.06 0.04 0.05 0.08 0.09 0.09 0.08 0.07 0.06 0.05 0.04 0.02 0.01 0.00 0.00 0.00 0.00 0.00 0.00 0.00 0.00 0.00 0.00 0.00
0.00 0.00 0.00 0.00 0.00 0.00 0.00 0.00 0.00 0.00 0.00 0.00 0.01 0.01 0.01 0.01 0.01 0.02 0.02 0.04 0.05 0.02 0.03 0.06 0.07 0.11 0.12 0.12 0.13 0.15 0.17 0.14 0.13 0.13 0.13 0.10 0.09 0.08 0.04 0.02 0.00 0.00 0.00 0.00 0.00 0.00 0.00 0.00 0.00 0.00 0.00 0.00 0.00 0.00
0.00 0.00 0.00 0.00 0.00 0.00 0.00 0.00 0.00 0.00 0.00 0.01 0.01 0.01 0.01 0.01 0.03 0.02 0.03 0.05 0.04 0.05 0.07 0.11 0.12 0.13 0.14 0.15 0.14 0.13 0.13 0.11 0.10 0.08 0.08 0.05 0.04 0.02 0.00 0.00 0.00 0.00 0.00 0.00 0.00 0.00 0.00 0.00 0.00 0.00 0.00 0.00 0.00 0.00
0.00 0.01 0.00 0.00 0.00 0.00 0.00 0.01 0.01 0.01 0.01 0.01 0.02 0.02 0.02 0.04 0.03 0.04 0.03 0.06 0.07 0.08 0.11 0.13 0.15 0.12 0.10 0.10 0.09 0.08 0.07 0.07 0.05 0.03 0.03 0.01 0.01 0.01 0.00 0.00 0.00 0.00 0.00 0.00 0.00 0.00 0.00 0.00 0.00 0.00 0.00 0.00 0.00 0.01
0.00 0.00 0.00 0.00 0.00 0.00 0.01 0.01 0.01 0.02 0.03 0.04 0.03 0.03 0.04 0.05 0.03 0.04 0.04 0.06 0.09 0.11 0.12 0.13 0.11 0.08 0.08 0.06 0.04 0.04 0.02 0.01 0.01 0.01 0.00 0.00 0.00 0.00 0.00 0.00 0.00 0.00 0.00 0.00 0.00 0.00 0.00 0.00 0.00 0.00 0.00 0.01 0.01 0.01
0.00 0.01 0.00 0.00 0.01 0.01 0.01 0.01 0.02 0.03 0.04 0.03 0.04 0.03 0.03 0.04 0.05 0.05 0.05 0.06 0.07 0.05 0.04 0.04 0.03 0.02 0.02 0.02 0.03 0.02 0.01 0.00 0.00 0.00 0.00 0.00 0.00 0.00 0.00 0.00 0.00 0.00 0.00 0.00 0.00 0.00 0.00 0.01 0.01 0.01 0.01 0.01 0.01 0.01
0.01 0.01 0.00 0.00 0.00 0.01 0.01 0.01 0.02 0.02 0.02 0.02 0.03 0.03 0.02 0.02 0.04 0.04 0.04 0.04 0.04 0.04 0.03 0.03 0.03 0.03 0.02 0.01 0.00 0.00 0.00 0.00 0.00 0.00 0.00 0.00 0.00 0.00 0.00 0.00 0.00 0.00 0.00 0.00 0.00 0.00 0.01 0.01 0.01 0.01 0.00 0.00 0.01 0.01
0.01 0.00 0.00 0.00 0.00 0.01 0.02 0.01 0.02 0.02 0.01 0.01 0.02 0.02 0.02 0.03 0.05 0.05 0.04 0.04 0.03 0.03 0.03 0.02 0.02 0.01 0.01 0.00 0.00 0.00 0.00 0.00 0.00 0.00 0.00 0.00 0.00 0.00 0.00 0.01 0.00 0.00 0.01 0.01 0.00 0.00 0.00 0.00 0.00 0.00 0.01 0.01 0.01 0.01
0.00 0.01 0.00 0.00 0.01 0.02 0.02 0.01 0.02 0.05 0.04 0.02 0.02 0.03 0.03 0.03 0.03 0.03 0.02 0.02 0.02 0.02 0.01 0.01 0.00 0.00 0.00 0.00 0.00 0.00 0.00 0.00 0.00 0.00 0.00 0.00 0.00 0.01 0.01 0.01 0.01 0.01 0.01 0.01 0.01 0.00 0.00 0.00 0.00 0.00 0.00 0.00 0.00 0.00
0.00 0.01 0.00 0.00 0.02 0.01 0.00 0.01 0.02 0.04 0.04 0.03 0.03 0.02 0.03 0.03 0.02 0.03 0.02 0.03 0.02 0.01 0.00 0.00 0.00 0.00 0.00 0.00 0.00 0.00 0.00 0.00 0.00 0.00 0.00 0.00 0.00 0.01 0.01 0.01 0.01 0.01 0.01 0.01 0.00 0.00 0.01 0.00 0.00 0.00 0.00 0.00 0.00 0.00
0.01 0.01 0.00 0.00 0.01 0.01 0.01 0.00 0.00 0.01 0.02 0.02 0.02 0.02 0.03 0.03 0.03 0.03 0.02 0.02 0.01 0.01 0.01 0.01 0.01 0.00 0.00 0.00 0.00 0.00 0.00 0.00 0.00 0.00 0.00 0.01 0.01 0.01 0.01 0.01 0.01 0.01 0.01 0.01 0.00 0.00 0.01 0.01 0.00 0.00 0.00 0.00 0.00 0.00

GFSWCAN_prec_precacc12_033.txt.gz
Total_Precipitation_Accumulation
0.12 0.20 0.30 0.28 0.23 0.22 0.15 0.23 0.19 0.12 0.13 0.14 0.13 0.09 0.05 0.01 0.01 0.16 0.22 0.26 0.41 0.18 0.01 0.00 0.00 0.00 0.00 0.00 0.01 0.00 0.06 0.01 0.00 0.01 0.01 0.00 0.00 0.00 0.00 0.00 0.00 0.00 0.00 0.00 0.00 0.00 0.00 0.00 0.00 0.00 0.00 0.00 0.00 0.00
0.27 0.44 0.32 0.21 0.28 0.19 0.21 0.21 0.14 0.10 0.12 0.14 0.09 0.05 0.02 0.01 0.02 0.20 0.24 0.17 0.35 0.44 0.08 0.02 0.00 0.00 0.00 0.00 0.00 0.00 0.01 0.00 0.00 0.00 0.01 0.02 0.00 0.00 0.00 0.00 0.00 0.00 0.00 0.00 0.00 0.00 0.00 0.00 0.00 0.00 0.00 0.00 0.00 0.00
0.40 0.31 0.21 0.20 0.20 0.26 0.23 0.16 0.09 0.12 0.11 0.11 0.08 0.04 0.02 0.03 0.04 0.19 0.21 0.22 0.82 0.61 0.25 0.06 0.01 0.00 0.00 0.00 0.00 0.01 0.00 0.00 0.00 0.00 0.00 0.00 0.01 0.00 0.00 0.00 0.00 0.00 0.00 0.00 0.00 0.00 0.00 0.00 0.00 0.00 0.00 0.00 0.00 0.00
0.25 0.24 0.19 0.18 0.21 0.23 0.19 0.11 0.10 0.12 0.09 0.10 0.09 0.03 0.03 0.03 0.06 0.24 0.17 0.49 1.31 0.85 0.65 0.19 0.01 0.00 0.00 0.00 0.00 0.00 0.00 0.00 0.00 0.00 0.00 0.01 0.01 0.00 0.00 0.00 0.00 0.00 0.00 0.00 0.00 0.00 0.00 0.00 0.00 0.00 0.00 0.00 0.00 0.00
0.26 0.24 0.21 0.17 0.17 0.19 0.15 0.09 0.11 0.15 0.16 0.11 0.08 0.01 0.02 0.03 0.09 0.24 0.20 0.63 0.89 0.64 0.54 0.14 0.01 0.00 0.01 0.01 0.00 0.00 0.00 0.00 0.00 0.00 0.01 0.01 0.00 0.00 0.00 0.00 0.00 0.00 0.00 0.00 0.00 0.00 0.00 0.00 0.00 0.00 0.00 0.00 0.00 0.00
0.41 0.31 0.21 0.13 0.12 0.13 0.12 0.10 0.13 0.19 0.16 0.11 0.05 0.01 0.02 0.05 0.23 0.34 0.56 0.41 0.53 0.30 0.21 0.07 0.01 0.01 0.00 0.00 0.00 0.00 0.00 0.00 0.00 0.00 0.00 0.00 0.00 0.00 0.00 0.00 0.00 0.00 0.00 0.00 0.00 0.00 0.00 0.00 0.00 0.00 0.00 0.00 0.00 0.00
0.46 0.31 0.21 0.16 0.12 0.11 0.11 0.11 0.14 0.16 0.12 0.09 0.07 0.04 0.07 0.12 0.44 0.47 0.59 0.24 0.18 0.13 0.10 0.05 0.03 0.01 0.01 0.00 0.00 0.00 0.00 0.00 0.00 0.00 0.00 0.00 0.00 0.00 0.00 0.01 0.00 0.00 0.00 0.00 0.00 0.00 0.00 0.00 0.00 0.00 0.00 0.00 0.00 0.00
0.48 0.35 0.23 0.14 0.12 0.11 0.11 0.12 0.15 0.14 0.13 0.10 0.10 0.10 0.14 0.25 0.64 0.26 0.18 0.05 0.04 0.04 0.04 0.06 0.02 0.03 0.01 0.02 0.01 0.01 0.01 0.00 0.00 0.00 0.00 0.00 0.00 0.00 0.01 0.00 0.00 0.00 0.00 0.00 0.00 0.00 0.00 0.00 0.00 0.00 0.00 0.00 0.00 0.00
0.15 0.10 0.10 0.08 0.10 0.12 0.13 0.11 0.10 0.08 0.09 0.08 0.07 0.11 0.25 0.51 0.70 0.12 0.04 0.01 0.01 0.03 0.05 0.02 0.03 0.03 0.02 0.02 0.01 0.01 0.01 0.01 0.00 0.00 0.00 0.00 0.00 0.00 0.00 0.00 0.00 0.00 0.00 0.00 0.00 0.00 0.00 0.00 0.00 0.00 0.00 0.00 0.00 0.01
0.09 0.08 0.06 0.05 0.10 0.09 0.11 0.10 0.07 0.07 0.05 0.05 0.09 0.18 0.39 0.37 0.18 0.01 0.01 0.04 0.01 0.01 0.00 0.00 0.01 0.01 0.02 0.03 0.03 0.02 0.01 0.01 0.00 0.01 0.00 0.00 0.00 0.00 0.00 0.00 0.00 0.00 0.00 0.00 0.00 0.00 0.00 0.00 0.00 0.00 0.00 0.00 0.01 0.01
0.06 0.03 0.04 0.07 0.10 0.07 0.06 0.06 0.04 0.03 0.03 0.08 0.12 0.14 0.24 0.18 0.03 0.01 0.02 0.05 0.04 0.01 0.00 0.00 0.00 0.00 0.00 0.03 0.05 0.04 0.03 0.02 0.01 0.01 0.01 0.00 0.00 0.01 0.00 0.00 0.00 0.00 0.00 0.00 0.00 0.00 0.00 0.00 0.00 0.00 0.00 0.00 0.00 0.00
0.10 0.07 0.05 0.08 0.08 0.03 0.05 0.03 0.01 0.02 0.05 0.07 0.02 0.07 0.23 0.09 0.06 0.01 0.02 0.02 0.01 0.00 0.00 0.00 0.00 0.00 0.00 0.01 0.01 0.01 0.01 0.01 0.00 0.00 0.01 0.01 0.00 0.01 0.01 0.00 0.00 0.00 0.00 0.00 0.00 0.00 0.00 0.00 0.00 0.00 0.00 0.00 0.00 0.00
0.10 0.06 0.07 0.10 0.04 0.02 0.03 0.04 0.03 0.01 0.00 0.00 0.01 0.08 0.17 0.04 0.08 0.01 0.00 0.01 0.00 0.00 0.00 0.00 0.00 0.00 0.00 0.00 0.00 0.01 0.01 0.00 0.00 0.01 0.01 0.01 0.01 0.01 0.01 0.00 0.00 0.00 0.00 0.00 0.00 0.00 0.00 0.00 0.00 0.00 0.00 0.00 0.00 0.00
0.01 0.03 0.09 0.11 0.06 0.04 0.01 0.02 0.01 0.01 0.01 0.01 0.02 0.06 0.09 0.06 0.01 0.00 0.00 0.00 0.00 0.01 0.00 0.00 0.00 0.00 0.00 0.00 0.00 0.01 0.02 0.02 0.03 0.02 0.01 0.01 0.01 0.01 0.01 0.00 0.00 0.00 0.00 0.00 0.00 0.00 0.00 0.00 0.00 0.00 0.00 0.00 0.00 0.00
0.00 0.00 0.02 0.06 0.07 0.05 0.02 0.01 0.01 0.01 0.03 0.02 0.03 0.07 0.04 0.02 0.01 0.01 0.00 0.00 0.00 0.00 0.00 0.00 0.00 0.00 0.00 0.01 0.01 0.01 0.02 0.03 0.02 0.01 0.00 0.00 0.02 0.01 0.01 0.00 0.00 0.00 0.00 0.00 0.00 0.00 0.00 0.00 0.00 0.00 0.00 0.00 0.00 0.00
0.00 0.00 0.00 0.02 0.02 0.01 0.00 0.01 0.02 0.06 0.17 0.15 0.13 0.11 0.06 0.03 0.03 0.02 0.01 0.01 0.01 0.01 0.01 0.02 0.01 0.01 0.02 0.01 0.02 0.02 0.03 0.03 0.01 0.00 0.01 0.01 0.03 0.03 0.01 0.00 0.00 0.00 0.00 0.00 0.00 0.00 0.00 0.00 0.00 0.00 0.00 0.00 0.00 0.00
0.00 0.00 0.00 0.00 0.00 0.00 0.00 0.00 0.05 0.12 0.16 0.16 0.22 0.20 0.15 0.13 0.15 0.14 0.10 0.10 0.08 0.06 0.06 0.04 0.03 0.03 0.03 0.04 0.04 0.03 0.05 0.03 0.02 0.03 0.03 0.03 0.03 0.02 0.00 0.00 0.00 0.00 0.00 0.00 0.00 0.00 0.00 0.00 0.00 0.00 0.00 0.00 0.00 0.00
0.00 0.00 0.00 0.00 0.00 0.00 0.00 0.00 0.03 0.06 0.12 0.16 0.16 0.21 0.12 0.16 0.14 0.12 0.08 0.05 0.04 0.05 0.07 0.08 0.07 0.11 0.14 0.13 0.12 0.08 0.08 0.07 0.04 0.05 0.05 0.07 0.08 0.02 0.01 0.00 0.00 0.00 0.00 0.00 0.00 0.00 0.00 0.00 0.00 0.00 0.00 0.00 0.00 0.00
0.00 0.00 0.00 0.00 0.00 0.00 0.00 0.00 0.00 0.04 0.13 0.14 0.15 0.11 0.07 0.07 0.05 0.04 0.02 0.01 0.02 0.02 0.03 0.05 0.08 0.10 0.14 0.15 0.16 0.12 0.07 0.03 0.02 0.03 0.04 0.06 0.05 0.02 0.01 0.00 0.00 0.00 0.00 0.00 0.00 0.00 0.00 0.00 0.00 0.00 0.00 0.00 0.00 0.00
0.00 0.00 0.00 0.00 0.00 0.00 0.00 0.00 0.00 0.01 0.06 0.07 0.07 0.03 0.01 0.02 0.01 0.00 0.00 0.00 0.00 0.00 0.01 0.05 0.11 0.13 0.12 0.12 0.11 0.09 0.04 0.00 0.00 0.01 0.04 0.07 0.04 0.01 0.02 0.02 0.01 0.00 0.00 0.00 0.00 0.00 0.00 0.00 0.00 0.00 0.00 0.00 0.00 0.00
0.00 0.00 0.00 0.00 0.00 0.00 0.00 0.00 0.00 0.01 0.01 0.01 0.01 0.00 0.00 0.00 0.00 0.00 0.00 0.00 0.00 0.02 0.06 0.09 0.11 0.08 0.04 0.04 0.06 0.07 0.07 0.06 0.05 0.02 0.01 0.02 0.02 0.03 0.04 0.02 0.02 0.02 0.02 0.02 0.02 0.01 0.00 0.00 0.00 0.00 0.00 0.00 0.00 0.00
0.00 0.00 0.00 0.00 0.00 0.00 0.00 0.00 0.01 0.01 0.00 0.01 0.01 0.01 0.02 0.02 0.02 0.01 0.01 0.02 0.04 0.09 0.10 0.07 0.05 0.05 0.02 0.03 0.02 0.04 0.08 0.10 0.12 0.14 0.14 0.09 0.08 0.07 0.07 0.08 0.06 0.05 0.04 0.04 0.03 0.01 0.00 0.00 0.00 0.00 0.00 0.00 0.00 0.00
0.00 0.00 0.00 0.00 0.00 0.00 0.00 0.00 0.00 0.00 0.00 0.00 0.01 0.01 0.02 0.02 0.01 0.01 0.03 0.04 0.07 0.07 0.08 0.05 0.05 0.06 0.06 0.08 0.06 0.06 0.06 0.05 0.08 0.14 0.17 0.16 0.14 0.13 0.12 0.11 0.09 0.07 0.05 0.02 0.01 0.00 0.00 0.00 0.00 0.00 0.00 0.00 0.00 0.00
0.00 0.00 0.00 0.00 0.00 0.00 0.00 0.00 0.00 0.00 0.00 0.00 0.01 0.01 0.01 0.01 0.01 0.02 0.03 0.05 0.05 0.02 0.03 0.05 0.07 0.09 0.07 0.08 0.11 0.14 0.18 0.15 0.15 0.16 0.17 0.13 0.12 0.12 0.07 0.05 0.03 0.02 0.01 0.00 0.00 0.00 0.00 0.00 0.00 0.00 0.00 0.00 0.00 0.00
0.00 0.00 0.00 0.00 0.00 0.00 0.00 0.00 0.00 0.00 0.01 0.01 0.01 0.01 0.00 0.01 0.03 0.02 0.03 0.07 0.03 0.03 0.04 0.08 0.07 0.08 0.11 0.13 0.13 0.12 0.12 0.11 0.10 0.09 0.09 0.07 0.07 0.05 0.02 0.01 0.00 0.00 0.00 0.00 0.00 0.00 0.00 0.00 0.00 0.00 0.00 0.00 0.00 0.00
0.00 0.00 0.00 0.00 0.00 0.00 0.01 0.01 0.01 0.01 0.01 0.02 0.01 0.01 0.01 0.03 0.02 0.03 0.03 0.06 0.04 0.04 0.06 0.07 0.10 0.08 0.07 0.07 0.06 0.06 0.07 0.08 0.05 0.04 0.04 0.01 0.01 0.01 0.00 0.00 0.00 0.00 0.00 0.00 0.00 0.00 0.00 0.00 0.00 0.00 0.00 0.00 0.00 0.01
0.00 0.00 0.00 0.00 0.00 0.00 0.01 0.01 0.01 0.02 0.02 0.02 0.02 0.02 0.02 0.04 0.02 0.04 0.03 0.03 0.04 0.04 0.04 0.05 0.04 0.04 0.05 0.05 0.05 0.04 0.02 0.01 0.01 0.01 0.00 0.00 0.00 0.00 0.00 0.00 0.00 0.00 0.00 0.00 0.00 0.00 0.00 0.00 0.00 0.00 0.00 0.01 0.01 0.01
0.00 0.00 0.01 0.00 0.00 0.00 0.00 0.01 0.01 0.02 0.02 0.01 0.02 0.02 0.01 0.03 0.04 0.05 0.05 0.05 0.04 0.02 0.01 0.01 0.01 0.01 0.02 0.03 0.03 0.03 0.01 0.00 0.00 0.00 0.00 0.01 0.00 0.00 0.00 0.00 0.00 0.00 0.00 0.00 0.00 0.00 0.00 0.01 0.01 0.01 0.01 0.01 0.00 0.01
0.00 0.00 0.00 0.00 0.00 0.00 0.01 0.01 0.02 0.02 0.01 0.01 0.03 0.03 0.02 0.03 0.06 0.06 0.05 0.05 0.05 0.06 0.04 0.03 0.04 0.04 0.03 0.01 0.00 0.00 0.00 0.00 0.00 0.00 0.00 0.01 0.01 0.01 0.00 0.00 0.00 0.00 0.00 0.00 0.00 0.00 0.01 0.01 0.01 0.01 0.00 0.01 0.01 0.02
0.01 0.00 0.00 0.00 0.00 0.01 0.02 0.02 0.04 0.02 0.01 0.01 0.01 0.02 0.02 0.04 0.06 0.05 0.04 0.03 0.03 0.03 0.03 0.02 0.02 0.01 0.02 0.01 0.01 0.01 0.00 0.00 0.00 0.00 0.00 0.00 0.00 0.00 0.00 0.01 0.01 0.00 0.01 0.01 0.00 0.00 0.00 0.00 0.00 0.00 0.01 0.01 0.01 0.01
0.00 0.00 0.00 0.00 0.01 0.02 0.02 0.01 0.03 0.03 0.02 0.02 0.02 0.03 0.03 0.03 0.04 0.02 0.02 0.04 0.02 0.03 0.03 0.02 0.00 0.00 0.00 0.00 0.00 0.00 0.01 0.00 0.00 0.00 0.00 0.00 0.00 0.00 0.01 0.01 0.01 0.01 0.01 0.01 0.01 0.00 0.00 0.00 0.01 0.01 0.00 0.00 0.01 0.00
0.00 0.01 0.00 0.01 0.02 0.01 0.00 0.01 0.03 0.07 0.05 0.03 0.03 0.02 0.03 0.04 0.03 0.03 0.02 0.04 0.03 0.01 0.00 0.01 0.01 0.01 0.00 0.00 0.00 0.00 0.00 0.00 0.00 0.00 0.00 0.00 0.00 0.01 0.01 0.01 0.01 0.01 0.01 0.01 0.01 0.01 0.01 0.01 0.01 0.01 0.01 0.01 0.00 0.00
0.01 0.00 0.00 0.00 0.01 0.02 0.01 0.00 0.01 0.02 0.02 0.02 0.02 0.02 0.03 0.03 0.03 0.03 0.02 0.02 0.01 0.01 0.01 0.01 0.01 0.01 0.00 0.00 0.00 0.00 0.00 0.00 0.00 0.00 0.00 0.01 0.00 0.00 0.00 0.01 0.01 0.01 0.01 0.01 0.00 0.00 0.01 0.01 0.01 0.01 0.01 0.00 0.00 0.00

GFSWCAN_prec_precacc12_036.txt.gz
Total_Precipitation_Accumulation
0.02 0.03 0.05 0.05 0.11 0.17 0.15 0.29 0.27 0.22 0.22 0.30 0.20 0.17 0.09 0.04 0.03 0.16 0.29 0.37 0.54 0.29 0.06 0.05 0.02 0.00 0.01 0.01 0.01 0.01 0.09 0.06 0.06 0.05 0.02 0.00 0.00 0.00 0.00 0.00 0.00 0.00 0.00 0.00 0.00 0.00 0.00 0.00 0.00 0.00 0.00 0.00 0.00 0.00
0.08 0.17 0.12 0.12 0.22 0.17 0.22 0.27 0.20 0.17 0.19 0.28 0.17 0.13 0.07 0.03 0.04 0.20 0.27 0.22 0.39 0.53 0.17 0.06 0.03 0.00 0.00 0.00 0.01 0.01 0.02 0.01 0.01 0.02 0.01 0.01 0.00 0.00 0.00 0.00 0.00 0.00 0.00 0.00 0.00 0.00 0.00 0.00 0.00 0.00 0.00 0.00 0.00 0.00
0.25 0.23 0.18 0.19 0.20 0.26 0.24 0.17 0.12 0.15 0.16 0.19 0.15 0.12 0.07 0.06 0.06 0.19 0.22 0.25 0.84 0.64 0.35 0.11 0.03 0.01 0.01 0.01 0.02 0.03 0.00 0.00 0.00 0.00 0.00 0.00 0.01 0.00 0.00 0.00 0.00 0.00 0.00 0.00 0.00 0.00 0.00 0.00 0.00 0.00 0.00 0.00 0.00 0.00
0.24 0.23 0.20 0.18 0.21 0.23 0.19 0.11 0.11 0.13 0.12 0.13 0.10 0.07 0.05 0.04 0.07 0.25 0.19 0.53 1.35 0.90 0.67 0.25 0.03 0.03 0.02 0.02 0.00 0.01 0.01 0.00 0.00 0.00 0.00 0.01 0.01 0.00 0.00 0.00 0.00 0.00 0.00 0.00 0.00 0.00 0.00 0.00 0.00 0.00 0.00 0.00 0.00 0.00
0.26 0.24 0.22 0.17 0.16 0.19 0.15 0.09 0.10 0.10 0.12 0.12 0.07 0.01 0.02 0.03 0.09 0.27 0.24 0.67 0.97 0.84 0.73 0.49 0.08 0.03 0.05 0.07 0.05 0.01 0.00 0.00 0.00 0.01 0.01 0.01 0.00 0.00 0.00 0.00 0.00 0.00 0.00 0.00 0.00 0.00 0.00 0.00 0.00 0.00 0.00 0.00 0.00 0.00
0.41 0.31 0.21 0.13 0.12 0.13 0.11 0.10 0.11 0.13 0.12 0.09 0.04 0.01 0.02 0.06 0.27 0.41 0.66 0.49 0.68 0.56 0.66 0.64 0.40 0.07 0.06 0.05 0.21 0.08 0.04 0.01 0.00 0.00 0.01 0.00 0.00 0.00 0.00 0.00 0.00 0.00 0.00 0.00 0.00 0.00 0.00 0.00 0.00 0.00 0.00 0.00 0.00 0.00
0.47 0.31 0.20 0.16 0.12 0.11 0.11 0.11 0.13 0.11 0.09 0.06 0.03 0.02 0.05 0.12 0.49 0.54 0.75 0.57 0.44 0.50 0.55 0.60 0.50 0.27 0.07 0.06 0.12 0.09 0.11 0.19 0.07 0.02 0.00 0.00 0.00 0.00 0.00 0.01 0.00 0.00 0.00 0.00 0.00 0.00 0.00 0.00 0.00 0.00 0.00 0.00 0.00 0.00
0.51 0.37 0.23 0.14 0.12 0.11 0.11 0.12 0.16 0.13 0.10 0.06 0.05 0.05 0.10 0.31 0.73 0.42 0.47 0.38 0.47 0.43 0.33 0.39 0.33 0.22 0.04 0.04 0.03 0.04 0.04 0.18 0.21 0.03 0.01 0.00 0.00 0.00 0.01 0.00 0.00 0.00 0.00 0.00 0.00 0.00 0.00 0.00 0.00 0.00 0.00 0.00 0.00 0.00
0.22 0.16 0.12 0.09 0.09 0.14 0.16 0.16 0.14 0.11 0.12 0.14 0.14 0.17 0.40 0.79 0.92 0.56 0.39 0.46 0.50 0.40 0.31 0.13 0.12 0.08 0.03 0.02 0.01 0.02 0.03 0.02 0.01 0.01 0.00 0.00 0.00 0.00 0.00 0.00 0.00 0.00 0.00 0.00 0.00 0.00 0.00 0.00 0.00 0.00 0.00 0.00 0.00 0.00
0.14 0.14 0.10 0.07 0.10 0.14 0.16 0.14 0.12 0.14 0.14 0.18 0.30 0.52 0.86 0.78 0.63 0.57 0.39 0.26 0.09 0.05 0.01 0.01 0.02 0.01 0.02 0.02 0.03 0.03 0.02 0.01 0.00 0.01 0.01 0.00 0.00 0.00 0.00 0.00 0.00 0.00 0.00 0.00 0.00 0.00 0.00 0.00 0.00 0.00 0.00 0.00 0.00 0.00
0.10 0.07 0.08 0.09 0.10 0.07 0.08 0.11 0.10 0.12 0.19 0.35 0.48 0.59 0.62 0.52 0.44 0.37 0.18 0.09 0.04 0.01 0.00 0.00 0.01 0.01 0.00 0.03 0.06 0.05 0.04 0.03 0.01 0.01 0.01 0.00 0.00 0.01 0.01 0.01 0.01 0.01 0.00 0.00 0.00 0.00 0.00 0.00 0.00 0.00 0.00 0.00 0.00 0.00
0.10 0.08 0.06 0.08 0.08 0.04 0.04 0.04 0.06 0.13 0.23 0.27 0.21 0.33 0.44 0.22 0.15 0.05 0.02 0.02 0.01 0.00 0.00 0.00 0.00 0.00 0.00 0.01 0.02 0.02 0.03 0.02 0.01 0.00 0.01 0.01 0.01 0.01 0.02 0.02 0.01 0.01 0.00 0.00 0.00 0.00 0.00 0.00 0.00 0.00 0.00 0.00 0.00 0.00
0.11 0.08 0.08 0.11 0.05 0.02 0.04 0.06 0.11 0.11 0.04 0.02 0.09 0.16 0.28 0.06 0.08 0.01 0.00 0.01 0.00 0.00 0.00 0.00 0.00 0.01 0.01 0.01 0.01 0.02 0.02 0.01 0.00 0.00 0.00 0.00 0.00 0.00 0.00 0.00 0.00 0.00 0.00 0.00 0.00 0.00 0.00 0.00 0.00 0.00 0.00 0.00 0.00 0.00
0.12 0.11 0.11 0.10 0.07 0.08 0.06 0.07 0.05 0.02 0.00 0.01 0.04 0.08 0.22 0.12 0.01 0.01 0.01 0.00 0.01 0.01 0.00 0.00 0.00 0.00 0.01 0.02 0.01 0.01 0.01 0.00 0.01 0.01 0.00 0.00 0.00 0.00 0.00 0.00 0.00 0.00 0.00 0.00 0.00 0.00 0.00 0.00 0.00 0.00 0.00 0.00 0.00 0.00
0.05 0.06 0.05 0.04 0.03 0.01 0.00 0.00 0.01 0.01 0.02 0.03 0.04 0.10 0.05 0.04 0.02 0.01 0.01 0.01 0.01 0.01 0.00 0.00 0.00 0.00 0.00 0.00 0.00 0.00 0.01 0.01 0.01 0.01 0.00 0.00 0.00 0.00 0.00 0.00 0.00 0.00 0.00 0.00 0.00 0.00 0.00 0.00 0.00 0.00 0.00 0.00 0.00 0.00
0.00 0.01 0.00 0.02 0.01 0.01 0.00 0.00 0.02 0.04 0.12 0.09 0.08 0.09 0.06 0.03 0.02 0.02 0.01 0.01 0.01 0.01 0.00 0.00 0.00 0.00 0.00 0.00 0.01 0.01 0.02 0.03 0.02 0.00 0.00 0.00 0.01 0.01 0.00 0.00 0.00 0.00 0.00 0.00 0.00 0.00 0.00 0.00 0.00 0.00 0.00 0.00 0.00 0.00
0.00 0.00 0.00 0.00 0.00 0.00 0.00 0.00 0.06 0.14 0.16 0.16 0.22 0.21 0.16 0.12 0.13 0.12 0.09 0.08 0.06 0.05 0.05 0.02 0.03 0.03 0.03 0.04 0.05 0.05 0.08 0.06 0.04 0.04 0.02 0.02 0.03 0.02 0.01 0.02 0.00 0.01 0.03 0.01 0.00 0.00 0.00 0.00 0.00 0.00 0.00 0.00 0.00 0.00
0.00 0.00 0.00 0.00 0.00 0.00 0.00 0.02 0.07 0.09 0.15 0.20 0.22 0.29 0.18 0.23 0.21 0.19 0.17 0.11 0.09 0.11 0.12 0.16 0.14 0.16 0.19 0.18 0.17 0.16 0.16 0.14 0.10 0.08 0.07 0.08 0.07 0.03 0.03 0.02 0.01 0.01 0.01 0.00 0.00 0.00 0.00 0.00 0.00 0.00 0.00 0.00 0.00 0.00
0.00 0.00 0.00 0.00 0.00 0.00 0.00 0.00 0.01 0.08 0.21 0.23 0.24 0.18 0.13 0.14 0.12 0.11 0.07 0.06 0.05 0.05 0.06 0.09 0.12 0.16 0.21 0.22 0.26 0.22 0.17 0.11 0.07 0.07 0.08 0.10 0.06 0.04 0.03 0.01 0.02 0.02 0.01 0.00 0.00 0.00 0.00 0.00 0.00 0.00 0.00 0.00 0.00 0.00
0.00 0.00 0.00 0.00 0.00 0.00 0.00 0.00 0.00 0.03 0.11 0.13 0.12 0.06 0.04 0.06 0.02 0.00 0.00 0.00 0.00 0.00 0.02 0.08 0.17 0.21 0.20 0.21 0.23 0.20 0.13 0.04 0.02 0.03 0.08 0.11 0.07 0.04 0.06 0.05 0.03 0.02 0.01 0.00 0.00 0.00 0.00 0.00 0.00 0.00 0.00 0.00 0.00 0.00
0.00 0.00 0.00 0.00 0.00 0.00 0.00 0.00 0.00 0.01 0.02 0.01 0.01 0.00 0.00 0.00 0.00 0.00 0.00 0.00 0.00 0.03 0.09 0.15 0.17 0.14 0.09 0.09 0.11 0.13 0.11 0.08 0.07 0.05 0.04 0.06 0.09 0.06 0.07 0.06 0.06 0.07 0.06 0.05 0.04 0.04 0.03 0.03 0.01 0.00 0.00 0.00 0.00 0.00
0.00 0.00 0.00 0.00 0.00 0.00 0.00 0.00 0.01 0.01 0.00 0.01 0.01 0.01 0.02 0.02 0.02 0.01 0.01 0.01 0.04 0.12 0.14 0.09 0.06 0.05 0.03 0.04 0.04 0.06 0.10 0.12 0.16 0.20 0.20 0.12 0.11 0.11 0.13 0.15 0.11 0.11 0.10 0.10 0.07 0.06 0.04 0.01 0.00 0.00 0.00 0.00 0.00 0.00
0.00 0.00 0.00 0.00 0.00 0.00 0.00 0.00 0.00 0.00 0.00 0.00 0.01 0.01 0.02 0.02 0.02 0.01 0.03 0.04 0.07 0.08 0.10 0.07 0.03 0.02 0.03 0.05 0.04 0.05 0.05 0.06 0.10 0.18 0.25 0.23 0.21 0.21 0.19 0.17 0.15 0.12 0.09 0.06 0.04 0.02 0.01 0.00 0.00 0.00 0.00 0.00 0.00 0.00
0.00 0.00 0.00 0.00 0.00 0.00 0.00 0.00 0.00 0.00 0.00 0.00 0.01 0.01 0.01 0.01 0.01 0.02 0.03 0.05 0.06 0.02 0.02 0.04 0.06 0.05 0.02 0.02 0.04 0.07 0.13 0.12 0.14 0.16 0.19 0.16 0.15 0.15 0.10 0.08 0.06 0.05 0.04 0.02 0.01 0.00 0.00 0.00 0.00 0.00 0.00 0.00 0.00 0.00
0.00 0.00 0.00 0.00 0.00 0.00 0.00 0.00 0.00 0.00 0.00 0.00 0.01 0.01 0.00 0.01 0.02 0.02 0.03 0.07 0.03 0.02 0.02 0.04 0.02 0.01 0.03 0.05 0.06 0.07 0.08 0.07 0.07 0.07 0.09 0.08 0.08 0.06 0.04 0.03 0.01 0.00 0.00 0.00 0.00 0.00 0.00 0.00 0.00 0.00 0.00 0.00 0.00 0.00
0.00 0.00 0.00 0.00 0.00 0.00 0.00 0.01 0.01 0.01 0.01 0.01 0.01 0.01 0.01 0.02 0.01 0.03 0.04 0.07 0.04 0.03 0.03 0.04 0.06 0.02 0.02 0.02 0.02 0.03 0.03 0.04 0.04 0.03 0.03 0.01 0.01 0.02 0.01 0.01 0.01 0.00 0.00 0.00 0.00 0.00 0.00 0.00 0.00 0.00 0.00 0.00 0.01 0.01
0.00 0.00 0.00 0.00 0.00 0.00 0.01 0.01 0.01 0.01 0.01 0.02 0.02 0.01 0.02 0.04 0.03 0.05 0.04 0.04 0.04 0.03 0.02 0.02 0.01 0.01 0.02 0.02 0.03 0.03 0.01 0.01 0.01 0.01 0.00 0.00 0.00 0.00 0.00 0.00 0.00 0.00 0.00 0.00 0.00 0.00 0.00 0.00 0.00 0.00 0.00 0.01 0.01 0.01
0.00 0.00 0.00 0.00 0.00 0.00 0.00 0.00 0.01 0.02 0.02 0.01 0.02 0.02 0.02 0.03 0.05 0.06 0.07 0.06 0.05 0.02 0.01 0.01 0.00 0.00 0.01 0.02 0.02 0.02 0.01 0.00 0.00 0.00 0.00 0.01 0.00 0.00 0.00 0.00 0.00 0.00 0.00 0.00 0.00 0.00 0.00 0.01 0.01 0.01 0.01 0.01 0.00 0.01
0.00 0.00 0.00 0.00 0.00 0.00 0.01 0.02 0.02 0.02 0.01 0.01 0.03 0.03 0.03 0.03 0.08 0.08 0.07 0.06 0.06 0.06 0.04 0.03 0.05 0.04 0.02 0.01 0.00 0.00 0.00 0.00 0.00 0.00 0.00 0.01 0.02 0.01 0.00 0.00 0.01 0.00 0.00 0.00 0.00 0.00 0.01 0.01 0.01 0.01 0.00 0.01 0.01 0.02
0.00 0.00 0.00 0.00 0.00 0.01 0.03 0.02 0.04 0.02 0.00 0.01 0.01 0.01 0.02 0.05 0.07 0.05 0.04 0.03 0.03 0.03 0.03 0.02 0.03 0.02 0.02 0.01 0.01 0.01 0.00 0.00 0.00 0.00 0.00 0.00 0.00 0.00 0.00 0.01 0.01 0.01 0.01 0.01 0.01 0.01 0.01 0.00 0.00 0.00 0.01 0.01 0.01 0.02
0.00 0.00 0.00 0.00 0.01 0.02 0.02 0.02 0.03 0.02 0.01 0.01 0.02 0.03 0.02 0.03 0.04 0.02 0.02 0.04 0.02 0.03 0.03 0.02 0.00 0.00 0.00 0.00 0.00 0.00 0.01 0.01 0.00 0.00 0.00 0.00 0.00 0.00 0.01 0.01 0.01 0.01 0.01 0.01 0.01 0.01 0.01 0.01 0.01 0.01 0.01 0.01 0.01 0.01
0.00 0.00 0.00 0.01 0.02 0.01 0.00 0.02 0.05 0.09 0.05 0.03 0.03 0.02 0.03 0.04 0.03 0.03 0.02 0.04 0.03 0.01 0.01 0.01 0.01 0.01 0.00 0.00 0.00 0.00 0.00 0.01 0.01 0.00 0.00 0.00 0.00 0.01 0.01 0.01 0.01 0.01 0.01 0.01 0.01 0.01 0.01 0.01 0.01 0.01 0.01 0.01 0.01 0.00
0.00 0.00 0.00 0.00 0.01 0.03 0.01 0.00 0.02 0.03 0.02 0.02 0.02 0.02 0.03 0.03 0.03 0.04 0.03 0.02 0.01 0.01 0.01 0.01 0.01 0.02 0.01 0.00 0.00 0.00 0.00 0.00 0.00 0.00 0.01 0.01 0.00 0.01 0.00 0.00 0.01 0.01 0.01 0.01 0.01 0.01 0.01 0.01 0.01 0.01 0.01 0.01 0.00 0.00

GFSWCAN_prec_precacc12_042.txt.gz
Total_Precipitation_Accumulation
0.15 0.15 0.16 0.19 0.21 0.16 0.16 0.21 0.19 0.19 0.15 0.21 0.11 0.09 0.05 0.04 0.05 0.13 0.18 0.44 0.58 0.37 0.10 0.10 0.06 0.02 0.01 0.01 0.01 0.01 0.10 0.07 0.09 0.09 0.04 0.02 0.01 0.00 0.00 0.00 0.00 0.00 0.00 0.00 0.00 0.00 0.00 0.00 0.00 0.00 0.00 0.00 0.00 0.00
0.12 0.12 0.13 0.14 0.12 0.11 0.12 0.14 0.13 0.12 0.13 0.17 0.10 0.09 0.06 0.05 0.06 0.08 0.11 0.34 0.50 0.57 0.23 0.09 0.04 0.01 0.00 0.00 0.01 0.01 0.02 0.01 0.02 0.04 0.01 0.02 0.01 0.00 0.00 0.00 0.00 0.00 0.00 0.00 0.00 0.00 0.00 0.00 0.00 0.00 0.00 0.00 0.00 0.00
0.02 0.03 0.04 0.05 0.04 0.04 0.05 0.06 0.08 0.09 0.09 0.15 0.12 0.11 0.08 0.07 0.10 0.09 0.10 0.25 0.85 0.80 0.44 0.13 0.04 0.05 0.02 0.01 0.02 0.03 0.00 0.01 0.03 0.03 0.05 0.03 0.02 0.00 0.00 0.00 0.00 0.00 0.00 0.00 0.00 0.00 0.00 0.00 0.00 0.00 0.00 0.00 0.00 0.00
0.01 0.01 0.02 0.02 0.02 0.03 0.03 0.05 0.04 0.05 0.07 0.17 0.12 0.12 0.10 0.09 0.14 0.10 0.15 0.63 1.50 1.09 0.83 0.39 0.07 0.09 0.06 0.03 0.00 0.01 0.02 0.03 0.05 0.06 0.07 0.05 0.02 0.01 0.00 0.00 0.00 0.00 0.00 0.00 0.00 0.00 0.00 0.00 0.00 0.00 0.00 0.00 0.00 0.00
0.02 0.03 0.03 0.03 0.06 0.08 0.08 0.05 0.03 0.05 0.16 0.21 0.14 0.12 0.11 0.12 0.20 0.19 0.23 0.79 1.12 0.98 0.89 0.70 0.16 0.07 0.13 0.13 0.08 0.03 0.01 0.00 0.02 0.09 0.05 0.02 0.02 0.01 0.00 0.00 0.00 0.00 0.00 0.00 0.00 0.00 0.00 0.00 0.00 0.00 0.00 0.00 0.00 0.00
0.07 0.06 0.07 0.08 0.09 0.10 0.09 0.07 0.04 0.11 0.23 0.21 0.16 0.12 0.11 0.17 0.38 0.41 0.70 0.64 0.77 0.67 0.85 0.77 0.47 0.10 0.15 0.20 0.35 0.14 0.06 0.04 0.04 0.06 0.04 0.01 0.00 0.02 0.01 0.00 0.00 0.00 0.00 0.00 0.00 0.00 0.00 0.00 0.00 0.00 0.00 0.00 0.00 0.00
0.18 0.11 0.07 0.06 0.07 0.08 0.06 0.07 0.08 0.15 0.23 0.20 0.16 0.12 0.14 0.22 0.46 0.48 0.80 0.63 0.49 0.60 0.69 0.68 0.53 0.29 0.23 0.26 0.33 0.38 0.22 0.26 0.13 0.06 0.03 0.01 0.01 0.01 0.00 0.00 0.00 0.00 0.00 0.00 0.00 0.00 0.00 0.00 0.00 0.00 0.00 0.00 0.00 0.00
0.32 0.18 0.08 0.04 0.04 0.04 0.06 0.07 0.10 0.14 0.17 0.21 0.20 0.14 0.19 0.38 0.68 0.39 0.55 0.53 0.52 0.53 0.55 0.55 0.40 0.41 0.24 0.53 0.23 0.31 0.23 0.32 0.35 0.15 0.02 0.01 0.02 0.01 0.01 0.00 0.00 0.00 0.00 0.00 0.00 0.00 0.00 0.00 0.00 0.00 0.00 0.00 0.00 0.00
0.18 0.14 0.09 0.05 0.04 0.06 0.07 0.08 0.09 0.10 0.18 0.22 0.24 0.31 0.54 0.83 0.83 0.57 0.62 0.81 0.74 0.50 0.51 0.27 0.20 0.29 0.31 0.34 0.28 0.20 0.23 0.19 0.23 0.33 0.28 0.12 0.02 0.02 0.01 0.00 0.00 0.00 0.00 0.00 0.00 0.00 0.00 0.00 0.00 0.00 0.00 0.00 0.00 0.00
0.12 0.10 0.07 0.06 0.09 0.12 0.11 0.08 0.07 0.10 0.14 0.23 0.39 0.59 0.85 0.81 0.64 0.80 0.81 0.81 0.58 0.30 0.20 0.19 0.12 0.12 0.31 0.31 0.31 0.31 0.30 0.19 0.15 0.20 0.23 0.29 0.21 0.09 0.02 0.00 0.00 0.00 0.00 0.00 0.00 0.00 0.01 0.00 0.00 0.00 0.00 0.01 0.01 0.01
0.12 0.09 0.08 0.07 0.06 0.07 0.08 0.10 0.09 0.13 0.25 0.42 0.57 0.79 0.86 0.76 0.72 0.77 0.67 0.55 0.38 0.15 0.06 0.07 0.06 0.07 0.11 0.42 0.40 0.27 0.29 0.34 0.17 0.12 0.17 0.23 0.18 0.09 0.05 0.04 0.04 0.04 0.02 0.01 0.01 0.01 0.01 0.01 0.00 0.01 0.02 0.04 0.04 0.02
0.10 0.07 0.05 0.04 0.04 0.04 0.05 0.05 0.09 0.20 0.41 0.53 0.63 0.75 0.79 0.60 0.49 0.39 0.34 0.26 0.14 0.06 0.02 0.03 0.04 0.04 0.09 0.17 0.46 0.35 0.20 0.18 0.15 0.08 0.07 0.05 0.05 0.08 0.12 0.07 0.03 0.02 0.01 0.01 0.01 0.01 0.00 0.01 0.01 0.02 0.04 0.04 0.01 0.00
0.11 0.07 0.07 0.06 0.04 0.03 0.03 0.08 0.25 0.56 0.75 0.62 0.44 0.53 0.58 0.35 0.29 0.23 0.14 0.07 0.06 0.02 0.02 0.03 0.01 0.02 0.03 0.07 0.16 0.25 0.20 0.09 0.05 0.04 0.04 0.01 0.01 0.02 0.02 0.01 0.00 0.00 0.00 0.00 0.00 0.01 0.02 0.04 0.06 0.06 0.05 0.02 0.00 0.00
0.14 0.12 0.11 0.09 0.10 0.12 0.19 0.38 0.67 0.90 0.58 0.42 0.43 0.32 0.38 0.26 0.12 0.09 0.04 0.03 0.04 0.03 0.03 0.02 0.01 0.01 0.02 0.05 0.02 0.05 0.07 0.04 0.01 0.00 0.00 0.00 0.00 0.00 0.00 0.00 0.00 0.00 0.01 0.04 0.05 0.05 0.04 0.02 0.01 0.00 0.00 0.00 0.00 0.00
0.10 0.12 0.13 0.18 0.21 0.27 0.38 0.40 0.53 0.60 0.41 0.33 0.25 0.24 0.18 0.17 0.13 0.09 0.05 0.02 0.03 0.03 0.01 0.01 0.01 0.01 0.01 0.06 0.04 0.01 0.01 0.02 0.02 0.02 0.02 0.01 0.01 0.01 0.01 0.02 0.01 0.02 0.02 0.02 0.01 0.01 0.01 0.00 0.00 0.00 0.00 0.00 0.00 0.00
0.09 0.16 0.24 0.31 0.34 0.31 0.31 0.31 0.38 0.33 0.11 0.08 0.21 0.28 0.19 0.11 0.07 0.06 0.05 0.04 0.03 0.02 0.00 0.00 0.00 0.01 0.05 0.02 0.02 0.03 0.01 0.04 0.05 0.04 0.03 0.01 0.01 0.01 0.01 0.02 0.02 0.03 0.03 0.03 0.03 0.03 0.01 0.00 0.00 0.00 0.00 0.00 0.00 0.00
0.08 0.05 0.14 0.17 0.18 0.22 0.17 0.15 0.13 0.12 0.12 0.13 0.27 0.31 0.21 0.15 0.16 0.16 0.11 0.10 0.07 0.05 0.03 0.01 0.03 0.07 0.07 0.05 0.06 0.08 0.11 0.13 0.11 0.09 0.07 0.06 0.07 0.06 0.08 0.10 0.10 0.09 0.07 0.05 0.04 0.02 0.01 0.01 0.00 0.00 0.00 0.00 0.00 0.00
0.10 0.05 0.09 0.10 0.12 0.13 0.08 0.09 0.07 0.07 0.16 0.25 0.28 0.37 0.21 0.26 0.26 0.25 0.26 0.19 0.15 0.15 0.13 0.17 0.13 0.11 0.13 0.13 0.16 0.21 0.25 0.28 0.26 0.24 0.24 0.25 0.23 0.18 0.15 0.11 0.12 0.08 0.07 0.06 0.04 0.03 0.03 0.02 0.01 0.00 0.00 0.00 0.00 0.00
0.07 0.09 0.06 0.03 0.03 0.04 0.01 0.01 0.00 0.08 0.25 0.30 0.31 0.25 0.16 0.20 0.20 0.19 0.14 0.11 0.09 0.07 0.08 0.13 0.14 0.19 0.24 0.28 0.36 0.37 0.36 0.33 0.31 0.25 0.20 0.22 0.19 0.17 0.16 0.15 0.14 0.14 0.11 0.07 0.04 0.02 0.02 0.00 0.00 0.00 0.00 0.00 0.00 0.00
0.00 0.01 0.01 0.02 0.02 0.02 0.00 0.00 0.00 0.04 0.16 0.20 0.16 0.07 0.04 0.06 0.03 0.00 0.00 0.00 0.01 0.01 0.06 0.14 0.27 0.33 0.36 0.38 0.42 0.40 0.35 0.29 0.20 0.11 0.15 0.20 0.21 0.19 0.22 0.19 0.16 0.13 0.09 0.08 0.07 0.05 0.03 0.03 0.03 0.01 0.01 0.01 0.01 0.01
0.00 0.00 0.00 0.00 0.00 0.00 0.00 0.00 0.01 0.02 0.04 0.02 0.02 0.00 0.00 0.00 0.00 0.00 0.00 0.00 0.00 0.03 0.12 0.21 0.24 0.24 0.21 0.22 0.22 0.23 0.20 0.18 0.18 0.15 0.14 0.16 0.22 0.17 0.18 0.18 0.17 0.17 0.15 0.16 0.14 0.15 0.12 0.11 0.08 0.05 0.03 0.02 0.02 0.01
0.00 0.00 0.00 0.00 0.00 0.00 0.00 0.00 0.00 0.00 0.00 0.00 0.00 0.00 0.00 0.01 0.00 0.00 0.00 0.00 0.05 0.16 0.17 0.12 0.10 0.08 0.06 0.07 0.09 0.10 0.14 0.13 0.18 0.23 0.23 0.15 0.15 0.16 0.20 0.25 0.20 0.21 0.21 0.21 0.17 0.15 0.12 0.09 0.06 0.05 0.04 0.03 0.02 0.01
0.00 0.00 0.00 0.00 0.00 0.00 0.00 0.00 0.00 0.00 0.00 0.00 0.00 0.00 0.01 0.01 0.02 0.01 0.01 0.03 0.08 0.14 0.14 0.08 0.03 0.01 0.01 0.02 0.01 0.01 0.01 0.03 0.06 0.15 0.22 0.21 0.21 0.23 0.22 0.22 0.21 0.18 0.17 0.16 0.12 0.10 0.08 0.06 0.04 0.02 0.01 0.00 0.00 0.00
0.00 0.00 0.00 0.00 0.00 0.00 0.00 0.00 0.00 0.00 0.00 0.00 0.00 0.00 0.02 0.03 0.00 0.00 0.01 0.05 0.09 0.05 0.02 0.04 0.05 0.02 0.00 0.00 0.01 0.02 0.03 0.01 0.03 0.06 0.10 0.09 0.08 0.12 0.10 0.10 0.08 0.08 0.07 0.05 0.03 0.02 0.01 0.00 0.00 0.00 0.00 0.00 0.00 0.00
0.00 0.00 0.00 0.00 0.00 0.00 0.00 0.00 0.00 0.00 0.00 0.00 0.01 0.01 0.02 0.00 0.00 0.01 0.02 0.07 0.04 0.03 0.03 0.02 0.01 0.00 0.01 0.02 0.02 0.02 0.02 0.00 0.00 0.01 0.04 0.04 0.04 0.05 0.04 0.03 0.02 0.01 0.00 0.00 0.00 0.00 0.00 0.00 0.00 0.00 0.00 0.00 0.00 0.00
0.00 0.00 0.00 0.00 0.00 0.00 0.00 0.00 0.00 0.00 0.01 0.01 0.01 0.02 0.01 0.01 0.01 0.03 0.05 0.06 0.03 0.03 0.03 0.03 0.03 0.01 0.01 0.01 0.01 0.01 0.01 0.01 0.00 0.00 0.01 0.00 0.01 0.01 0.01 0.01 0.01 0.00 0.00 0.00 0.00 0.00 0.00 0.00 0.00 0.00 0.00 0.00 0.00 0.01
0.00 0.00 0.00 0.00 0.00 0.00 0.00 0.00 0.00 0.00 0.01 0.01 0.01 0.01 0.01 0.03 0.03 0.06 0.06 0.05 0.03 0.03 0.03 0.02 0.01 0.01 0.02 0.02 0.02 0.02 0.00 0.00 0.00 0.00 0.00 0.00 0.00 0.00 0.00 0.00 0.00 0.01 0.00 0.00 0.00 0.00 0.00 0.00 0.00 0.00 0.00 0.00 0.00 0.00
0.00 0.00 0.00 0.00 0.00 0.00 0.00 0.00 0.01 0.02 0.02 0.01 0.02 0.01 0.01 0.02 0.05 0.08 0.09 0.10 0.06 0.02 0.00 0.00 0.00 0.00 0.00 0.01 0.01 0.01 0.01 0.00 0.00 0.00 0.00 0.01 0.00 0.00 0.00 0.00 0.01 0.00 0.00 0.01 0.00 0.01 0.00 0.01 0.01 0.01 0.00 0.00 0.00 0.00
0.00 0.00 0.00 0.00 0.00 0.00 0.01 0.02 0.02 0.02 0.02 0.01 0.01 0.02 0.03 0.04 0.08 0.08 0.10 0.08 0.06 0.04 0.02 0.02 0.04 0.03 0.01 0.00 0.00 0.00 0.00 0.00 0.00 0.00 0.00 0.01 0.01 0.00 0.00 0.00 0.01 0.00 0.00 0.00 0.00 0.00 0.01 0.02 0.01 0.01 0.00 0.00 0.00 0.01
0.00 0.00 0.00 0.00 0.01 0.02 0.03 0.02 0.02 0.01 0.00 0.00 0.01 0.01 0.02 0.05 0.08 0.06 0.04 0.02 0.02 0.02 0.02 0.02 0.02 0.01 0.01 0.01 0.00 0.00 0.00 0.00 0.00 0.00 0.00 0.00 0.00 0.00 0.00 0.01 0.00 0.00 0.01 0.00 0.00 0.00 0.00 0.00 0.00 0.00 0.00 0.00 0.01 0.01
0.00 0.00 0.00 0.00 0.01 0.03 0.02 0.01 0.01 0.00 0.00 0.00 0.01 0.01 0.01 0.03 0.04 0.02 0.02 0.04 0.02 0.02 0.02 0.01 0.00 0.00 0.00 0.00 0.00 0.00 0.01 0.01 0.01 0.00 0.00 0.00 0.00 0.00 0.00 0.00 0.00 0.00 0.00 0.01 0.01 0.01 0.00 0.00 0.00 0.00 0.00 0.00 0.01 0.01
0.00 0.00 0.00 0.01 0.03 0.03 0.03 0.04 0.05 0.06 0.03 0.01 0.01 0.01 0.02 0.02 0.01 0.02 0.02 0.02 0.01 0.01 0.01 0.01 0.01 0.01 0.01 0.00 0.00 0.00 0.01 0.01 0.01 0.00 0.00 0.00 0.00 0.00 0.00 0.00 0.00 0.00 0.01 0.01 0.00 0.00 0.01 0.01 0.00 0.00 0.01 0.01 0.01 0.00
0.00 0.00 0.00 0.00 0.02 0.04 0.02 0.02 0.04 0.03 0.02 0.01 0.02 0.02 0.02 0.01 0.01 0.02 0.03 0.01 0.00 0.00 0.00 0.00 0.01 0.02 0.01 0.00 0.00 0.00 0.00 0.00 0.00 0.00 0.01 0.01 0.00 0.00 0.00 0.00 0.00 0.00 0.00 0.00 0.00 0.00 0.00 0.00 0.00 0.01 0.01 0.00 0.00 0.00

GFSWCAN_prec_precacc12_045.txt.gz
Total_Precipitation_Accumulation
0.17 0.18 0.19 0.21 0.22 0.17 0.17 0.22 0.24 0.32 0.32 0.34 0.18 0.16 0.09 0.06 0.07 0.13 0.15 0.43 0.40 0.30 0.17 0.17 0.09 0.03 0.00 0.00 0.00 0.01 0.04 0.06 0.09 0.08 0.03 0.02 0.01 0.00 0.01 0.00 0.00 0.00 0.00 0.00 0.00 0.00 0.00 0.00 0.00 0.00 0.00 0.00 0.00 0.00
0.18 0.18 0.18 0.18 0.15 0.15 0.16 0.20 0.25 0.27 0.27 0.29 0.20 0.16 0.10 0.09 0.09 0.09 0.09 0.35 0.43 0.30 0.24 0.18 0.10 0.04 0.00 0.00 0.01 0.00 0.01 0.01 0.02 0.04 0.01 0.02 0.01 0.00 0.00 0.00 0.00 0.00 0.00 0.00 0.00 0.00 0.00 0.00 0.00 0.00 0.00 0.00 0.00 0.00
0.05 0.09 0.11 0.12 0.13 0.14 0.13 0.16 0.20 0.21 0.22 0.24 0.20 0.17 0.13 0.12 0.14 0.08 0.08 0.20 0.43 0.34 0.22 0.08 0.07 0.10 0.05 0.02 0.02 0.02 0.00 0.01 0.03 0.03 0.05 0.03 0.02 0.00 0.00 0.00 0.00 0.00 0.00 0.00 0.00 0.00 0.00 0.00 0.00 0.00 0.00 0.00 0.00 0.00
0.02 0.02 0.04 0.06 0.08 0.11 0.12 0.14 0.14 0.16 0.17 0.25 0.19 0.18 0.12 0.11 0.15 0.09 0.10 0.23 0.32 0.38 0.27 0.22 0.08 0.10 0.09 0.08 0.01 0.01 0.02 0.03 0.05 0.06 0.07 0.05 0.02 0.01 0.00 0.00 0.00 0.00 0.01 0.00 0.00 0.00 0.00 0.00 0.00 0.00 0.00 0.00 0.00 0.00
0.01 0.01 0.02 0.02 0.05 0.07 0.09 0.08 0.08 0.10 0.17 0.22 0.17 0.14 0.10 0.13 0.18 0.11 0.11 0.22 0.27 0.47 0.49 0.57 0.16 0.09 0.12 0.13 0.10 0.03 0.01 0.00 0.02 0.10 0.06 0.02 0.02 0.02 0.01 0.01 0.00 0.00 0.00 0.00 0.00 0.00 0.00 0.00 0.00 0.00 0.00 0.00 0.00 0.00
0.00 0.01 0.03 0.04 0.05 0.05 0.04 0.04 0.04 0.08 0.17 0.17 0.14 0.13 0.11 0.16 0.23 0.18 0.27 0.29 0.32 0.47 0.86 0.77 0.47 0.11 0.17 0.21 0.41 0.16 0.07 0.04 0.04 0.06 0.04 0.02 0.01 0.02 0.01 0.00 0.00 0.00 0.00 0.01 0.00 0.00 0.00 0.00 0.00 0.00 0.00 0.00 0.00 0.00
0.01 0.01 0.01 0.01 0.02 0.02 0.02 0.04 0.04 0.08 0.15 0.15 0.14 0.12 0.14 0.20 0.17 0.18 0.30 0.42 0.35 0.65 0.82 0.70 0.54 0.29 0.26 0.32 0.35 0.41 0.24 0.27 0.13 0.07 0.03 0.01 0.01 0.01 0.00 0.00 0.00 0.00 0.00 0.01 0.00 0.00 0.00 0.00 0.00 0.00 0.00 0.00 0.00 0.00
0.04 0.02 0.00 0.00 0.01 0.02 0.04 0.05 0.05 0.07 0.12 0.19 0.18 0.13 0.17 0.25 0.17 0.21 0.41 0.49 0.62 0.77 0.68 0.59 0.44 0.44 0.25 0.56 0.28 0.32 0.23 0.34 0.38 0.16 0.03 0.01 0.03 0.02 0.01 0.00 0.00 0.00 0.00 0.00 0.00 0.00 0.00 0.00 0.00 0.00 0.00 0.00 0.00 0.00
0.07 0.06 0.03 0.01 0.02 0.03 0.06 0.07 0.06 0.08 0.17 0.21 0.24 0.31 0.46 0.47 0.29 0.48 0.61 0.85 0.80 0.64 0.63 0.33 0.28 0.32 0.33 0.53 0.70 0.33 0.28 0.24 0.25 0.33 0.28 0.12 0.02 0.02 0.01 0.00 0.00 0.00 0.00 0.00 0.00 0.00 0.00 0.00 0.00 0.00 0.00 0.00 0.00 0.00
0.07 0.07 0.04 0.02 0.04 0.07 0.06 0.05 0.06 0.10 0.17 0.28 0.42 0.69 0.73 0.56 0.55 0.84 0.89 0.91 0.76 0.36 0.27 0.25 0.16 0.12 0.31 0.34 0.61 0.84 0.52 0.23 0.16 0.20 0.24 0.29 0.21 0.09 0.02 0.00 0.00 0.00 0.00 0.01 0.01 0.01 0.01 0.01 0.00 0.00 0.00 0.01 0.01 0.02
0.08 0.07 0.05 0.04 0.04 0.04 0.05 0.06 0.07 0.13 0.29 0.47 0.69 0.84 0.68 0.67 0.76 0.82 0.79 0.77 0.52 0.23 0.08 0.09 0.08 0.08 0.11 0.40 0.40 0.34 0.40 0.53 0.25 0.12 0.16 0.23 0.18 0.08 0.05 0.04 0.04 0.06 0.06 0.05 0.04 0.02 0.02 0.02 0.01 0.01 0.02 0.04 0.06 0.08
0.05 0.03 0.02 0.02 0.04 0.05 0.06 0.07 0.14 0.27 0.47 0.62 0.68 0.74 0.65 0.56 0.48 0.42 0.50 0.46 0.27 0.09 0.03 0.05 0.05 0.05 0.09 0.17 0.45 0.38 0.23 0.22 0.27 0.19 0.12 0.08 0.05 0.08 0.17 0.20 0.18 0.15 0.13 0.11 0.09 0.07 0.04 0.02 0.02 0.02 0.04 0.07 0.09 0.11
0.06 0.04 0.03 0.01 0.03 0.06 0.08 0.15 0.31 0.65 0.94 0.74 0.51 0.53 0.49 0.34 0.23 0.24 0.20 0.12 0.12 0.04 0.04 0.05 0.03 0.02 0.04 0.07 0.18 0.32 0.33 0.18 0.11 0.15 0.22 0.15 0.11 0.09 0.07 0.04 0.04 0.04 0.04 0.04 0.02 0.02 0.02 0.04 0.07 0.09 0.12 0.14 0.12 0.10
0.13 0.12 0.09 0.06 0.08 0.11 0.21 0.40 0.82 1.20 0.83 0.68 0.55 0.32 0.41 0.28 0.17 0.14 0.09 0.06 0.12 0.10 0.07 0.05 0.02 0.02 0.03 0.09 0.05 0.06 0.11 0.13 0.11 0.11 0.10 0.11 0.13 0.10 0.05 0.03 0.01 0.01 0.02 0.05 0.08 0.08 0.09 0.11 0.13 0.13 0.10 0.07 0.04 0.02
0.10 0.12 0.13 0.19 0.22 0.29 0.38 0.43 0.66 0.79 0.58 0.44 0.25 0.26 0.23 0.25 0.25 0.23 0.14 0.12 0.11 0.14 0.10 0.08 0.08 0.03 0.06 0.10 0.09 0.03 0.04 0.06 0.06 0.08 0.08 0.07 0.05 0.06 0.05 0.06 0.06 0.09 0.12 0.13 0.12 0.09 0.09 0.09 0.06 0.05 0.03 0.01 0.00 0.00
0.10 0.18 0.27 0.34 0.37 0.34 0.33 0.36 0.49 0.48 0.15 0.07 0.23 0.32 0.29 0.28 0.27 0.20 0.13 0.11 0.07 0.06 0.05 0.03 0.05 0.03 0.10 0.05 0.03 0.05 0.03 0.05 0.08 0.09 0.10 0.09 0.08 0.08 0.10 0.12 0.14 0.15 0.13 0.10 0.09 0.07 0.06 0.04 0.02 0.00 0.00 0.00 0.00 0.00
0.10 0.08 0.17 0.24 0.27 0.31 0.28 0.27 0.20 0.08 0.04 0.10 0.32 0.39 0.29 0.21 0.19 0.16 0.12 0.10 0.07 0.03 0.03 0.01 0.04 0.08 0.08 0.06 0.08 0.10 0.14 0.17 0.18 0.16 0.15 0.13 0.13 0.13 0.16 0.20 0.21 0.17 0.12 0.07 0.06 0.04 0.03 0.01 0.00 0.00 0.00 0.00 0.00 0.00
0.13 0.07 0.12 0.16 0.18 0.20 0.20 0.15 0.06 0.03 0.11 0.21 0.24 0.33 0.20 0.22 0.21 0.21 0.24 0.19 0.13 0.13 0.11 0.15 0.12 0.09 0.11 0.10 0.14 0.21 0.25 0.29 0.34 0.34 0.32 0.31 0.30 0.28 0.24 0.20 0.20 0.14 0.11 0.11 0.09 0.08 0.07 0.05 0.04 0.03 0.01 0.00 0.00 0.00
0.24 0.23 0.16 0.13 0.14 0.08 0.04 0.02 0.00 0.08 0.22 0.25 0.25 0.19 0.12 0.16 0.17 0.17 0.13 0.10 0.07 0.06 0.06 0.10 0.11 0.16 0.21 0.24 0.31 0.32 0.36 0.38 0.39 0.34 0.28 0.28 0.27 0.25 0.24 0.22 0.20 0.20 0.16 0.13 0.09 0.07 0.07 0.06 0.05 0.03 0.02 0.00 0.00 0.00
0.23 0.25 0.20 0.18 0.13 0.05 0.00 0.00 0.00 0.04 0.14 0.17 0.13 0.05 0.03 0.05 0.03 0.00 0.00 0.00 0.01 0.01 0.05 0.12 0.24 0.30 0.32 0.35 0.39 0.41 0.39 0.37 0.29 0.17 0.17 0.22 0.26 0.25 0.26 0.23 0.20 0.18 0.14 0.13 0.12 0.11 0.09 0.08 0.08 0.06 0.04 0.04 0.03 0.03
0.06 0.09 0.09 0.05 0.01 0.00 0.00 0.00 0.02 0.02 0.04 0.02 0.02 0.00 0.00 0.00 0.00 0.00 0.00 0.00 0.00 0.02 0.12 0.21 0.23 0.24 0.23 0.24 0.24 0.25 0.22 0.20 0.20 0.17 0.19 0.20 0.26 0.19 0.20 0.22 0.21 0.21 0.19 0.19 0.17 0.18 0.16 0.15 0.13 0.09 0.06 0.05 0.05 0.04
0.00 0.00 0.00 0.00 0.00 0.00 0.00 0.00 0.00 0.00 0.00 0.00 0.00 0.00 0.00 0.00 0.00 0.00 0.00 0.00 0.06 0.15 0.17 0.13 0.11 0.10 0.08 0.09 0.12 0.11 0.15 0.11 0.15 0.18 0.19 0.15 0.15 0.16 0.19 0.24 0.20 0.21 0.21 0.21 0.18 0.17 0.15 0.12 0.09 0.07 0.05 0.04 0.03 0.02
0.00 0.00 0.00 0.00 0.00 0.00 0.00 0.00 0.00 0.00 0.00 0.00 0.00 0.00 0.00 0.00 0.01 0.00 0.00 0.03 0.08 0.15 0.15 0.08 0.03 0.02 0.02 0.02 0.02 0.01 0.01 0.02 0.04 0.09 0.14 0.15 0.16 0.18 0.17 0.18 0.16 0.14 0.14 0.15 0.13 0.11 0.09 0.07 0.04 0.02 0.01 0.01 0.00 0.00
0.00 0.00 0.00 0.00 0.00 0.00 0.00 0.00 0.00 0.00 0.00 0.00 0.00 0.00 0.02 0.03 0.00 0.00 0.01 0.04 0.09 0.07 0.02 0.04 0.02 0.00 0.00 0.00 0.01 0.02 0.02 0.00 0.02 0.04 0.06 0.05 0.05 0.08 0.06 0.06 0.06 0.06 0.06 0.05 0.03 0.02 0.01 0.00 0.00 0.00 0.00 0.00 0.00 0.00
0.00 0.00 0.00 0.00 0.00 0.00 0.00 0.00 0.00 0.00 0.00 0.00 0.01 0.02 0.02 0.00 0.00 0.00 0.01 0.05 0.04 0.03 0.03 0.01 0.00 0.00 0.00 0.01 0.01 0.02 0.01 0.00 0.00 0.00 0.03 0.02 0.02 0.02 0.02 0.02 0.01 0.01 0.00 0.00 0.00 0.00 0.00 0.00 0.00 0.00 0.00 0.00 0.00 0.00
0.00 0.00 0.00 0.00 0.00 0.00 0.00 0.00 0.00 0.00 0.01 0.00 0.01 0.02 0.01 0.00 0.00 0.02 0.04 0.04 0.03 0.04 0.04 0.03 0.02 0.00 0.01 0.01 0.00 0.01 0.00 0.00 0.00 0.00 0.01 0.00 0.00 0.00 0.00 0.00 0.00 0.00 0.00 0.00 0.00 0.00 0.00 0.00 0.00 0.00 0.00 0.00 0.00 0.01
0.00 0.00 0.00 0.00 0.00 0.00 0.00 0.00 0.00 0.00 0.01 0.01 0.01 0.00 0.01 0.01 0.02 0.06 0.06 0.05 0.03 0.03 0.03 0.02 0.01 0.00 0.01 0.02 0.02 0.01 0.00 0.00 0.00 0.00 0.00 0.00 0.00 0.00 0.00 0.00 0.01 0.01 0.01 0.00 0.00 0.00 0.00 0.00 0.01 0.00 0.00 0.00 0.00 0.00
0.00 0.00 0.00 0.00 0.00 0.00 0.00 0.00 0.00 0.01 0.02 0.01 0.01 0.00 0.00 0.01 0.04 0.07 0.08 0.09 0.05 0.02 0.00 0.00 0.00 0.00 0.00 0.00 0.01 0.01 0.00 0.00 0.00 0.00 0.00 0.00 0.00 0.00 0.00 0.00 0.01 0.00 0.00 0.01 0.00 0.01 0.01 0.01 0.01 0.01 0.01 0.01 0.00 0.00
0.00 0.00 0.00 0.00 0.00 0.00 0.01 0.02 0.02 0.02 0.02 0.01 0.01 0.02 0.02 0.03 0.06 0.07 0.09 0.07 0.05 0.01 0.01 0.01 0.02 0.01 0.00 0.00 0.00 0.00 0.00 0.00 0.00 0.00 0.00 0.00 0.00 0.00 0.00 0.00 0.01 0.00 0.00 0.00 0.00 0.00 0.00 0.02 0.01 0.01 0.00 0.00 0.00 0.01
0.00 0.00 0.00 0.00 0.01 0.01 0.02 0.01 0.01 0.00 0.00 0.00 0.00 0.01 0.01 0.04 0.08 0.06 0.04 0.02 0.01 0.01 0.01 0.01 0.01 0.01 0.00 0.00 0.00 0.00 0.00 0.00 0.00 0.00 0.00 0.00 0.00 0.01 0.01 0.00 0.00 0.00 0.00 0.00 0.00 0.00 0.00 0.00 0.00 0.00 0.00 0.00 0.00 0.00
0.00 0.00 0.00 0.00 0.02 0.03 0.02 0.01 0.00 0.00 0.00 0.00 0.00 0.00 0.01 0.03 0.04 0.03 0.02 0.02 0.01 0.01 0.00 0.00 0.00 0.00 0.00 0.00 0.00 0.00 0.00 0.00 0.01 0.00 0.00 0.00 0.00 0.00 0.00 0.00 0.00 0.00 0.00 0.00 0.01 0.01 0.00 0.00 0.00 0.00 0.00 0.00 0.00 0.01
0.00 0.00 0.00 0.01 0.02 0.03 0.03 0.04 0.04 0.03 0.01 0.00 0.01 0.00 0.01 0.00 0.01 0.01 0.02 0.01 0.00 0.00 0.01 0.00 0.00 0.01 0.01 0.00 0.00 0.00 0.01 0.01 0.00 0.00 0.00 0.01 0.00 0.00 0.00 0.00 0.00 0.00 0.00 0.00 0.00 0.00 0.00 0.00 0.00 0.00 0.00 0.00 0.00 0.00
0.00 0.00 0.00 0.00 0.02 0.03 0.02 0.03 0.04 0.03 0.02 0.01 0.02 0.01 0.01 0.00 0.00 0.02 0.02 0.01 0.00 0.00 0.00 0.00 0.00 0.01 0.01 0.00 0.00 0.00 0.00 0.00 0.00 0.00 0.01 0.01 0.01 0.00 0.00 0.00 0.00 0.00 0.00 0.00 0.00 0.00 0.00 0.00 0.00 0.00 0.00 0.00 0.00 0.00

GFSWCAN_prec_precacc12_048.txt.gz
Total_Precipitation_Accumulation
0.18 0.18 0.19 0.23 0.25 0.21 0.26 0.20 0.20 0.26 0.27 0.23 0.19 0.19 0.21 0.17 0.11 0.13 0.09 0.33 0.30 0.24 0.17 0.19 0.14 0.10 0.02 0.02 0.01 0.00 0.01 0.01 0.03 0.04 0.02 0.02 0.01 0.00 0.01 0.00 0.01 0.00 0.00 0.00 0.00 0.00 0.00 0.00 0.00 0.00 0.00 0.00 0.00 0.00
0.20 0.18 0.18 0.18 0.16 0.18 0.18 0.17 0.20 0.23 0.24 0.25 0.21 0.20 0.19 0.16 0.12 0.09 0.09 0.30 0.38 0.21 0.24 0.22 0.10 0.08 0.02 0.00 0.00 0.00 0.00 0.00 0.01 0.02 0.01 0.02 0.01 0.00 0.00 0.00 0.00 0.00 0.00 0.00 0.00 0.00 0.00 0.00 0.00 0.00 0.00 0.00 0.00 0.00
0.07 0.11 0.11 0.12 0.13 0.15 0.14 0.16 0.23 0.23 0.26 0.29 0.24 0.21 0.20 0.18 0.19 0.10 0.09 0.16 0.40 0.32 0.14 0.14 0.15 0.13 0.07 0.01 0.00 0.00 0.00 0.00 0.02 0.03 0.05 0.03 0.02 0.00 0.00 0.00 0.00 0.00 0.00 0.00 0.00 0.00 0.00 0.00 0.00 0.00 0.00 0.00 0.00 0.00
0.04 0.07 0.08 0.09 0.11 0.14 0.14 0.19 0.23 0.24 0.27 0.36 0.31 0.30 0.25 0.26 0.31 0.10 0.07 0.18 0.26 0.32 0.25 0.19 0.16 0.13 0.12 0.07 0.00 0.00 0.01 0.03 0.06 0.06 0.07 0.05 0.02 0.01 0.00 0.00 0.00 0.00 0.01 0.01 0.00 0.00 0.00 0.00 0.00 0.00 0.00 0.00 0.00 0.00
0.02 0.03 0.06 0.07 0.10 0.11 0.14 0.14 0.15 0.20 0.32 0.36 0.33 0.29 0.28 0.30 0.25 0.08 0.06 0.16 0.18 0.26 0.30 0.22 0.11 0.17 0.25 0.14 0.09 0.02 0.01 0.00 0.03 0.10 0.06 0.02 0.02 0.02 0.01 0.01 0.00 0.00 0.00 0.00 0.00 0.01 0.00 0.00 0.00 0.00 0.00 0.00 0.00 0.00
0.01 0.02 0.04 0.06 0.08 0.09 0.09 0.11 0.13 0.19 0.28 0.29 0.23 0.23 0.19 0.19 0.19 0.10 0.19 0.22 0.17 0.21 0.42 0.19 0.09 0.06 0.22 0.26 0.26 0.12 0.04 0.03 0.04 0.06 0.05 0.02 0.01 0.02 0.01 0.00 0.00 0.00 0.00 0.01 0.00 0.01 0.00 0.00 0.00 0.00 0.00 0.00 0.00 0.00
0.00 0.01 0.02 0.02 0.05 0.06 0.07 0.09 0.11 0.16 0.24 0.23 0.20 0.15 0.13 0.16 0.10 0.10 0.14 0.09 0.09 0.28 0.40 0.19 0.07 0.04 0.24 0.39 0.34 0.39 0.17 0.12 0.10 0.07 0.03 0.03 0.02 0.01 0.01 0.00 0.00 0.00 0.00 0.01 0.01 0.00 0.00 0.00 0.00 0.00 0.00 0.00 0.00 0.00
0.02 0.01 0.00 0.01 0.02 0.04 0.06 0.08 0.10 0.11 0.15 0.20 0.17 0.11 0.13 0.13 0.06 0.06 0.12 0.16 0.19 0.37 0.40 0.29 0.14 0.25 0.26 0.61 0.32 0.34 0.27 0.22 0.23 0.17 0.03 0.01 0.03 0.02 0.01 0.00 0.00 0.00 0.00 0.00 0.00 0.00 0.00 0.00 0.00 0.00 0.00 0.00 0.00 0.00
0.02 0.02 0.01 0.01 0.01 0.02 0.02 0.02 0.02 0.05 0.13 0.15 0.16 0.24 0.31 0.20 0.07 0.08 0.29 0.41 0.31 0.31 0.43 0.24 0.20 0.29 0.35 0.56 0.74 0.38 0.29 0.31 0.27 0.32 0.29 0.14 0.03 0.02 0.01 0.00 0.00 0.00 0.00 0.00 0.00 0.00 0.00 0.00 0.00 0.00 0.00 0.00 0.00 0.00
0.04 0.03 0.03 0.03 0.02 0.02 0.01 0.01 0.01 0.03 0.09 0.16 0.23 0.37 0.28 0.16 0.14 0.43 0.66 0.78 0.76 0.41 0.32 0.32 0.22 0.16 0.37 0.36 0.62 0.86 0.65 0.28 0.17 0.20 0.24 0.29 0.21 0.09 0.02 0.00 0.00 0.00 0.00 0.00 0.00 0.01 0.01 0.01 0.01 0.01 0.01 0.01 0.02 0.02
0.04 0.03 0.02 0.03 0.04 0.04 0.03 0.02 0.02 0.04 0.14 0.19 0.37 0.43 0.31 0.35 0.39 0.53 0.69 0.78 0.56 0.34 0.11 0.12 0.11 0.19 0.17 0.44 0.40 0.35 0.56 0.81 0.34 0.15 0.17 0.23 0.18 0.08 0.04 0.03 0.03 0.05 0.06 0.05 0.04 0.02 0.02 0.02 0.02 0.02 0.03 0.05 0.07 0.10
0.02 0.02 0.02 0.03 0.05 0.05 0.04 0.05 0.11 0.18 0.33 0.48 0.57 0.51 0.47 0.47 0.40 0.38 0.50 0.47 0.29 0.14 0.10 0.09 0.09 0.13 0.13 0.19 0.45 0.37 0.22 0.33 0.48 0.27 0.16 0.11 0.07 0.08 0.15 0.18 0.16 0.14 0.13 0.11 0.09 0.07 0.06 0.06 0.06 0.06 0.07 0.09 0.12 0.16
0.02 0.02 0.03 0.04 0.06 0.07 0.15 0.34 0.41 0.73 1.04 0.84 0.56 0.52 0.40 0.31 0.23 0.24 0.22 0.16 0.24 0.20 0.11 0.12 0.08 0.05 0.06 0.07 0.17 0.31 0.33 0.19 0.12 0.23 0.36 0.25 0.16 0.15 0.15 0.12 0.11 0.10 0.09 0.08 0.06 0.04 0.03 0.05 0.09 0.11 0.17 0.24 0.27 0.27
0.02 0.02 0.03 0.04 0.08 0.17 0.42 0.56 0.92 1.28 0.93 0.76 0.56 0.31 0.28 0.22 0.17 0.14 0.10 0.08 0.18 0.19 0.12 0.13 0.10 0.10 0.07 0.08 0.06 0.07 0.15 0.15 0.16 0.17 0.16 0.17 0.22 0.21 0.21 0.22 0.21 0.22 0.22 0.21 0.18 0.16 0.18 0.18 0.21 0.26 0.24 0.21 0.16 0.14
0.05 0.06 0.09 0.16 0.21 0.30 0.41 0.47 0.73 0.85 0.63 0.46 0.24 0.27 0.25 0.28 0.28 0.27 0.18 0.16 0.19 0.37 0.24 0.19 0.17 0.06 0.08 0.14 0.11 0.05 0.05 0.08 0.08 0.11 0.12 0.12 0.14 0.14 0.14 0.16 0.16 0.19 0.22 0.24 0.26 0.23 0.21 0.20 0.16 0.16 0.15 0.12 0.09 0.07
0.10 0.17 0.27 0.33 0.37 0.34 0.34 0.38 0.55 0.57 0.16 0.08 0.27 0.41 0.35 0.40 0.38 0.33 0.29 0.29 0.27 0.34 0.26 0.12 0.10 0.04 0.12 0.06 0.03 0.06 0.04 0.06 0.10 0.13 0.15 0.16 0.16 0.16 0.19 0.22 0.25 0.27 0.24 0.19 0.17 0.15 0.13 0.12 0.08 0.05 0.04 0.02 0.02 0.01
0.10 0.09 0.17 0.24 0.28 0.32 0.28 0.30 0.26 0.10 0.05 0.14 0.40 0.51 0.46 0.39 0.37 0.34 0.31 0.26 0.19 0.13 0.06 0.01 0.03 0.09 0.08 0.05 0.06 0.09 0.12 0.17 0.20 0.21 0.23 0.21 0.20 0.21 0.24 0.29 0.31 0.25 0.15 0.11 0.11 0.10 0.06 0.03 0.01 0.00 0.00 0.00 0.00 0.01
0.16 0.09 0.14 0.18 0.20 0.22 0.21 0.16 0.03 0.02 0.14 0.28 0.27 0.39 0.31 0.29 0.25 0.21 0.21 0.16 0.10 0.08 0.06 0.07 0.05 0.03 0.05 0.06 0.10 0.16 0.22 0.28 0.36 0.39 0.37 0.36 0.35 0.33 0.30 0.26 0.25 0.17 0.13 0.15 0.14 0.13 0.11 0.08 0.06 0.06 0.04 0.03 0.01 0.00
0.33 0.28 0.23 0.21 0.18 0.10 0.08 0.03 0.00 0.06 0.17 0.19 0.19 0.15 0.09 0.10 0.11 0.12 0.08 0.06 0.04 0.03 0.03 0.06 0.06 0.11 0.16 0.19 0.23 0.25 0.30 0.36 0.38 0.37 0.30 0.31 0.33 0.31 0.30 0.27 0.24 0.23 0.19 0.17 0.13 0.11 0.11 0.09 0.08 0.07 0.05 0.03 0.02 0.01
0.43 0.35 0.25 0.20 0.14 0.06 0.00 0.00 0.00 0.03 0.10 0.10 0.07 0.02 0.01 0.01 0.01 0.00 0.00 0.00 0.00 0.01 0.04 0.08 0.19 0.25 0.27 0.29 0.32 0.34 0.35 0.38 0.32 0.19 0.18 0.23 0.29 0.27 0.27 0.24 0.22 0.21 0.17 0.16 0.15 0.14 0.12 0.10 0.11 0.10 0.08 0.07 0.06 0.06
0.20 0.16 0.12 0.07 0.02 0.00 0.00 0.00 0.02 0.03 0.03 0.02 0.02 0.00 0.00 0.00 0.00 0.00 0.00 0.00 0.00 0.02 0.10 0.18 0.18 0.21 0.21 0.22 0.22 0.23 0.22 0.21 0.20 0.16 0.18 0.18 0.23 0.18 0.19 0.21 0.19 0.18 0.16 0.18 0.17 0.19 0.16 0.15 0.15 0.11 0.09 0.08 0.07 0.06
0.03 0.01 0.00 0.00 0.00 0.00 0.00 0.00 0.00 0.00 0.00 0.00 0.00 0.00 0.00 0.00 0.00 0.00 0.00 0.00 0.05 0.13 0.15 0.12 0.11 0.10 0.08 0.09 0.11 0.11 0.14 0.11 0.12 0.13 0.14 0.13 0.13 0.13 0.16 0.21 0.16 0.17 0.17 0.17 0.15 0.14 0.13 0.12 0.10 0.08 0.06 0.05 0.04 0.03
0.00 0.00 0.00 0.00 0.00 0.00 0.00 0.00 0.00 0.00 0.00 0.00 0.00 0.00 0.00 0.00 0.00 0.00 0.00 0.03 0.08 0.15 0.13 0.07 0.04 0.02 0.02 0.03 0.02 0.01 0.01 0.01 0.01 0.04 0.06 0.07 0.08 0.11 0.11 0.11 0.11 0.10 0.10 0.12 0.10 0.09 0.08 0.07 0.04 0.02 0.01 0.01 0.00 0.00
0.00 0.00 0.00 0.00 0.00 0.00 0.00 0.00 0.00 0.00 0.00 0.00 0.00 0.01 0.02 0.02 0.00 0.00 0.01 0.03 0.09 0.07 0.03 0.03 0.01 0.00 0.00 0.00 0.01 0.02 0.02 0.00 0.01 0.02 0.03 0.02 0.02 0.04 0.03 0.04 0.03 0.03 0.03 0.03 0.02 0.01 0.01 0.00 0.00 0.00 0.00 0.00 0.00 0.00
0.00 0.00 0.00 0.00 0.00 0.00 0.00 0.00 0.00 0.00 0.00 0.00 0.01 0.02 0.02 0.00 0.00 0.00 0.01 0.04 0.04 0.04 0.03 0.01 0.00 0.00 0.00 0.01 0.01 0.02 0.01 0.00 0.00 0.00 0.01 0.01 0.01 0.01 0.01 0.01 0.00 0.00 0.00 0.00 0.00 0.00 0.00 0.00 0.00 0.00 0.00 0.00 0.00 0.00
0.00 0.00 0.00 0.00 0.00 0.00 0.00 0.00 0.00 0.00 0.01 0.01 0.01 0.03 0.01 0.00 0.00 0.02 0.03 0.03 0.03 0.04 0.03 0.03 0.01 0.00 0.01 0.01 0.00 0.01 0.00 0.00 0.00 0.00 0.01 0.00 0.00 0.00 0.00 0.00 0.00 0.00 0.01 0.00 0.00 0.00 0.00 0.00 0.00 0.00 0.00 0.00 0.00 0.00
0.00 0.00 0.00 0.00 0.00 0.00 0.00 0.00 0.00 0.00 0.01 0.01 0.01 0.00 0.00 0.00 0.01 0.05 0.05 0.04 0.02 0.03 0.02 0.01 0.00 0.00 0.01 0.01 0.01 0.01 0.00 0.00 0.00 0.00 0.00 0.00 0.00 0.00 0.00 0.00 0.01 0.01 0.01 0.00 0.00 0.00 0.00 0.00 0.00 0.00 0.00 0.00 0.00 0.01
0.00 0.00 0.00 0.00 0.00 0.00 0.00 0.00 0.00 0.01 0.01 0.02 0.00 0.00 0.00 0.01 0.02 0.05 0.06 0.07 0.03 0.01 0.00 0.00 0.00 0.00 0.00 0.00 0.00 0.01 0.01 0.00 0.00 0.00 0.00 0.00 0.00 0.00 0.00 0.00 0.01 0.00 0.00 0.00 0.01 0.01 0.01 0.01 0.01 0.01 0.00 0.00 0.00 0.00
0.00 0.00 0.00 0.00 0.00 0.00 0.01 0.02 0.01 0.02 0.02 0.01 0.00 0.01 0.02 0.02 0.04 0.05 0.07 0.06 0.03 0.01 0.01 0.00 0.01 0.00 0.00 0.00 0.00 0.00 0.00 0.00 0.00 0.00 0.00 0.00 0.00 0.00 0.00 0.00 0.00 0.00 0.00 0.00 0.00 0.00 0.01 0.01 0.01 0.00 0.00 0.00 0.00 0.00
0.00 0.00 0.00 0.00 0.01 0.01 0.02 0.01 0.01 0.00 0.00 0.00 0.00 0.01 0.01 0.03 0.06 0.06 0.04 0.02 0.01 0.01 0.01 0.01 0.00 0.00 0.00 0.00 0.00 0.00 0.00 0.00 0.00 0.00 0.00 0.00 0.00 0.00 0.00 0.00 0.00 0.00 0.00 0.00 0.00 0.00 0.00 0.00 0.00 0.00 0.00 0.00 0.00 0.00
0.00 0.00 0.00 0.00 0.02 0.03 0.01 0.00 0.00 0.00 0.00 0.00 0.00 0.00 0.01 0.03 0.03 0.03 0.02 0.02 0.00 0.00 0.00 0.00 0.00 0.00 0.00 0.00 0.00 0.00 0.00 0.00 0.00 0.00 0.00 0.00 0.00 0.00 0.00 0.00 0.00 0.00 0.00 0.00 0.00 0.00 0.00 0.00 0.00 0.00 0.00 0.00 0.00 0.00
0.00 0.00 0.00 0.00 0.02 0.03 0.03 0.04 0.02 0.01 0.01 0.00 0.01 0.00 0.01 0.00 0.01 0.01 0.01 0.01 0.00 0.00 0.00 0.00 0.00 0.01 0.01 0.00 0.00 0.00 0.00 0.00 0.00 0.00 0.00 0.00 0.00 0.00 0.00 0.00 0.00 0.00 0.00 0.00 0.00 0.00 0.00 0.00 0.00 0.00 0.00 0.00 0.00 0.00
0.00 0.00 0.00 0.00 0.02 0.03 0.02 0.03 0.03 0.02 0.01 0.01 0.01 0.01 0.01 0.00 0.00 0.01 0.01 0.00 0.00 0.00 0.00 0.00 0.00 0.01 0.00 0.00 0.00 0.00 0.00 0.00 0.00 0.00 0.00 0.00 0.00 0.00 0.00 0.00 0.00 0.00 0.00 0.00 0.00 0.00 0.00 0.00 0.00 0.00 0.00 0.00 0.00 0.00

GFSWCAN_prec_precacc12_051.txt.gz
Total_Precipitation_Accumulation
0.11 0.10 0.12 0.18 0.23 0.20 0.26 0.29 0.25 0.32 0.31 0.32 0.34 0.27 0.25 0.25 0.31 0.15 0.09 0.21 0.18 0.19 0.20 0.20 0.16 0.13 0.03 0.05 0.05 0.02 0.06 0.04 0.02 0.00 0.01 0.02 0.01 0.00 0.01 0.00 0.01 0.01 0.01 0.01 0.01 0.02 0.00 0.00 0.00 0.00 0.00 0.00 0.00 0.00
0.19 0.17 0.17 0.17 0.15 0.17 0.18 0.18 0.24 0.25 0.28 0.32 0.28 0.23 0.23 0.28 0.33 0.15 0.11 0.24 0.32 0.20 0.27 0.21 0.12 0.12 0.04 0.00 0.00 0.01 0.03 0.00 0.00 0.00 0.00 0.02 0.02 0.01 0.00 0.00 0.00 0.00 0.02 0.03 0.01 0.00 0.00 0.00 0.00 0.00 0.00 0.00 0.00 0.00
0.09 0.11 0.10 0.11 0.12 0.15 0.14 0.16 0.22 0.22 0.28 0.27 0.24 0.23 0.28 0.38 0.33 0.13 0.09 0.15 0.39 0.34 0.07 0.12 0.16 0.12 0.10 0.01 0.00 0.05 0.01 0.00 0.00 0.00 0.01 0.02 0.02 0.00 0.00 0.00 0.00 0.00 0.00 0.00 0.00 0.00 0.00 0.00 0.00 0.00 0.00 0.00 0.00 0.00
0.07 0.07 0.06 0.08 0.10 0.12 0.13 0.17 0.21 0.21 0.26 0.25 0.26 0.31 0.41 0.46 0.33 0.07 0.03 0.15 0.24 0.25 0.07 0.06 0.14 0.08 0.11 0.08 0.01 0.02 0.02 0.01 0.03 0.01 0.03 0.04 0.02 0.01 0.00 0.00 0.00 0.00 0.01 0.01 0.00 0.00 0.00 0.00 0.00 0.00 0.00 0.00 0.00 0.00
0.07 0.08 0.06 0.06 0.07 0.11 0.14 0.14 0.15 0.20 0.29 0.29 0.33 0.39 0.51 0.45 0.17 0.04 0.05 0.16 0.16 0.16 0.19 0.05 0.05 0.14 0.20 0.16 0.11 0.03 0.03 0.03 0.04 0.06 0.04 0.01 0.01 0.01 0.01 0.01 0.00 0.00 0.00 0.00 0.00 0.01 0.00 0.00 0.00 0.00 0.00 0.00 0.00 0.00
0.03 0.05 0.07 0.09 0.11 0.11 0.12 0.13 0.16 0.21 0.25 0.28 0.35 0.42 0.38 0.15 0.07 0.09 0.25 0.23 0.15 0.15 0.28 0.10 0.06 0.04 0.17 0.23 0.24 0.14 0.06 0.05 0.04 0.05 0.05 0.02 0.01 0.02 0.01 0.00 0.00 0.00 0.00 0.01 0.00 0.01 0.00 0.00 0.00 0.00 0.00 0.00 0.00 0.00
0.02 0.04 0.04 0.05 0.06 0.08 0.10 0.13 0.16 0.22 0.29 0.28 0.30 0.19 0.10 0.10 0.06 0.10 0.15 0.07 0.09 0.26 0.30 0.16 0.09 0.05 0.19 0.41 0.30 0.21 0.12 0.09 0.09 0.10 0.06 0.03 0.02 0.01 0.01 0.00 0.00 0.00 0.00 0.01 0.01 0.00 0.00 0.00 0.00 0.00 0.00 0.00 0.00 0.00
0.02 0.03 0.02 0.03 0.04 0.06 0.09 0.12 0.14 0.16 0.18 0.22 0.18 0.11 0.13 0.13 0.06 0.06 0.07 0.07 0.15 0.36 0.31 0.24 0.16 0.17 0.19 0.66 0.45 0.23 0.22 0.17 0.16 0.10 0.04 0.02 0.03 0.04 0.02 0.00 0.00 0.00 0.00 0.00 0.00 0.00 0.00 0.00 0.00 0.00 0.00 0.00 0.00 0.00
0.03 0.02 0.02 0.02 0.03 0.05 0.06 0.06 0.05 0.08 0.16 0.18 0.17 0.22 0.28 0.14 0.05 0.08 0.15 0.13 0.13 0.24 0.29 0.17 0.18 0.21 0.20 0.61 0.80 0.36 0.22 0.27 0.15 0.10 0.06 0.06 0.03 0.03 0.01 0.00 0.00 0.00 0.00 0.00 0.00 0.00 0.00 0.00 0.00 0.00 0.00 0.00 0.00 0.00
0.03 0.03 0.03 0.03 0.04 0.04 0.03 0.03 0.03 0.04 0.09 0.14 0.20 0.32 0.20 0.05 0.10 0.38 0.45 0.38 0.41 0.25 0.17 0.20 0.15 0.12 0.15 0.18 0.49 0.83 0.50 0.17 0.11 0.14 0.23 0.17 0.08 0.08 0.02 0.00 0.00 0.00 0.00 0.00 0.00 0.00 0.01 0.01 0.01 0.01 0.01 0.01 0.02 0.02
0.02 0.02 0.02 0.04 0.04 0.04 0.03 0.02 0.02 0.02 0.07 0.10 0.24 0.27 0.10 0.13 0.18 0.31 0.38 0.42 0.34 0.28 0.08 0.07 0.07 0.15 0.08 0.28 0.39 0.36 0.57 0.76 0.34 0.15 0.21 0.25 0.19 0.08 0.04 0.03 0.04 0.05 0.05 0.04 0.03 0.01 0.01 0.01 0.02 0.02 0.03 0.05 0.07 0.10
0.01 0.02 0.02 0.03 0.05 0.05 0.04 0.04 0.09 0.13 0.16 0.27 0.36 0.31 0.19 0.11 0.08 0.08 0.23 0.31 0.24 0.14 0.11 0.09 0.07 0.10 0.09 0.33 0.53 0.41 0.26 0.36 0.63 0.39 0.25 0.17 0.11 0.10 0.16 0.18 0.16 0.14 0.12 0.10 0.09 0.07 0.06 0.06 0.06 0.06 0.07 0.09 0.13 0.18
0.00 0.01 0.02 0.04 0.06 0.08 0.16 0.32 0.28 0.41 0.67 0.64 0.31 0.20 0.07 0.04 0.05 0.12 0.16 0.16 0.27 0.37 0.27 0.16 0.11 0.06 0.07 0.21 0.30 0.35 0.34 0.20 0.25 0.42 0.50 0.33 0.20 0.16 0.16 0.15 0.14 0.13 0.12 0.10 0.07 0.05 0.04 0.06 0.10 0.13 0.19 0.29 0.33 0.38
0.00 0.00 0.01 0.03 0.07 0.19 0.40 0.31 0.48 0.88 0.78 0.57 0.31 0.14 0.18 0.18 0.17 0.15 0.12 0.12 0.25 0.34 0.30 0.22 0.15 0.14 0.12 0.20 0.20 0.13 0.19 0.16 0.18 0.21 0.21 0.21 0.28 0.26 0.25 0.28 0.30 0.35 0.38 0.38 0.38 0.35 0.36 0.36 0.37 0.39 0.35 0.34 0.28 0.27
0.02 0.03 0.05 0.08 0.12 0.23 0.27 0.30 0.53 0.74 0.61 0.44 0.20 0.23 0.24 0.28 0.28 0.27 0.18 0.16 0.24 0.52 0.45 0.36 0.33 0.27 0.18 0.20 0.13 0.09 0.09 0.09 0.10 0.14 0.15 0.16 0.19 0.18 0.18 0.20 0.21 0.26 0.31 0.34 0.36 0.34 0.34 0.36 0.33 0.34 0.30 0.24 0.17 0.16
0.07 0.15 0.24 0.24 0.28 0.28 0.28 0.37 0.54 0.57 0.16 0.07 0.24 0.37 0.33 0.40 0.38 0.32 0.29 0.31 0.34 0.47 0.45 0.31 0.27 0.23 0.21 0.08 0.04 0.07 0.05 0.07 0.11 0.15 0.18 0.22 0.21 0.21 0.24 0.27 0.31 0.33 0.29 0.24 0.22 0.20 0.19 0.19 0.14 0.13 0.13 0.11 0.10 0.07
0.07 0.08 0.17 0.23 0.27 0.31 0.28 0.30 0.26 0.10 0.05 0.15 0.38 0.50 0.46 0.38 0.37 0.37 0.38 0.38 0.37 0.32 0.22 0.11 0.06 0.10 0.10 0.05 0.06 0.07 0.11 0.17 0.22 0.23 0.27 0.28 0.27 0.27 0.29 0.32 0.34 0.27 0.18 0.15 0.15 0.15 0.12 0.09 0.05 0.03 0.03 0.04 0.03 0.03
0.15 0.09 0.14 0.18 0.20 0.22 0.21 0.16 0.04 0.04 0.17 0.31 0.28 0.42 0.37 0.35 0.31 0.29 0.32 0.29 0.26 0.22 0.14 0.07 0.04 0.04 0.05 0.07 0.10 0.15 0.17 0.24 0.34 0.37 0.36 0.36 0.36 0.35 0.33 0.29 0.27 0.19 0.14 0.17 0.17 0.18 0.16 0.11 0.08 0.09 0.07 0.06 0.03 0.02
0.35 0.29 0.25 0.24 0.19 0.10 0.10 0.05 0.00 0.07 0.17 0.18 0.18 0.18 0.15 0.15 0.14 0.12 0.07 0.04 0.02 0.02 0.03 0.04 0.04 0.07 0.12 0.14 0.17 0.19 0.22 0.27 0.31 0.33 0.30 0.31 0.34 0.34 0.31 0.27 0.23 0.21 0.18 0.18 0.15 0.13 0.13 0.11 0.11 0.09 0.08 0.05 0.04 0.04
0.50 0.40 0.28 0.21 0.14 0.06 0.01 0.02 0.00 0.03 0.07 0.04 0.02 0.00 0.00 0.00 0.01 0.00 0.00 0.00 0.00 0.00 0.02 0.05 0.13 0.18 0.20 0.21 0.23 0.25 0.25 0.29 0.27 0.19 0.18 0.21 0.26 0.24 0.24 0.21 0.20 0.19 0.15 0.16 0.15 0.15 0.12 0.10 0.12 0.11 0.10 0.08 0.07 0.07
0.24 0.17 0.13 0.07 0.02 0.00 0.00 0.01 0.03 0.02 0.02 0.02 0.01 0.00 0.00 0.00 0.00 0.00 0.00 0.00 0.00 0.02 0.09 0.15 0.14 0.16 0.16 0.18 0.17 0.17 0.18 0.16 0.16 0.12 0.15 0.16 0.19 0.15 0.15 0.17 0.16 0.14 0.13 0.15 0.13 0.14 0.12 0.12 0.12 0.10 0.09 0.09 0.08 0.07
0.03 0.01 0.00 0.00 0.00 0.00 0.00 0.00 0.01 0.00 0.00 0.00 0.00 0.00 0.00 0.00 0.00 0.00 0.00 0.00 0.05 0.12 0.13 0.10 0.10 0.09 0.07 0.08 0.10 0.09 0.12 0.09 0.09 0.09 0.10 0.10 0.09 0.09 0.10 0.14 0.10 0.11 0.10 0.12 0.10 0.09 0.09 0.08 0.07 0.06 0.05 0.04 0.04 0.03
0.00 0.00 0.00 0.00 0.00 0.00 0.00 0.00 0.00 0.00 0.00 0.00 0.00 0.00 0.00 0.00 0.00 0.00 0.00 0.02 0.07 0.12 0.10 0.06 0.05 0.02 0.02 0.03 0.02 0.01 0.00 0.00 0.01 0.02 0.02 0.02 0.03 0.04 0.04 0.04 0.04 0.04 0.05 0.06 0.06 0.05 0.04 0.04 0.03 0.02 0.01 0.01 0.00 0.00
0.00 0.00 0.00 0.00 0.00 0.00 0.00 0.00 0.00 0.00 0.00 0.00 0.00 0.01 0.02 0.00 0.00 0.00 0.01 0.03 0.07 0.06 0.02 0.02 0.01 0.01 0.00 0.00 0.00 0.01 0.01 0.00 0.00 0.01 0.01 0.00 0.00 0.01 0.01 0.01 0.01 0.01 0.01 0.01 0.01 0.01 0.00 0.00 0.00 0.00 0.00 0.00 0.00 0.00
0.00 0.00 0.00 0.00 0.00 0.00 0.00 0.00 0.00 0.00 0.00 0.00 0.01 0.02 0.01 0.00 0.00 0.00 0.01 0.03 0.03 0.04 0.03 0.01 0.00 0.00 0.00 0.01 0.00 0.01 0.00 0.00 0.00 0.00 0.00 0.00 0.00 0.00 0.00 0.00 0.00 0.00 0.00 0.00 0.00 0.00 0.00 0.00 0.00 0.00 0.00 0.00 0.00 0.00
0.00 0.00 0.00 0.00 0.00 0.00 0.00 0.00 0.00 0.00 0.00 0.01 0.01 0.02 0.00 0.00 0.00 0.02 0.03 0.03 0.03 0.04 0.04 0.03 0.01 0.01 0.00 0.00 0.00 0.00 0.00 0.00 0.00 0.00 0.00 0.00 0.00 0.00 0.00 0.00 0.00 0.00 0.01 0.01 0.00 0.00 0.00 0.00 0.00 0.00 0.00 0.00 0.00 0.00
0.00 0.00 0.00 0.00 0.00 0.00 0.00 0.00 0.00 0.00 0.01 0.01 0.01 0.00 0.00 0.00 0.01 0.04 0.05 0.03 0.02 0.02 0.01 0.01 0.00 0.00 0.00 0.01 0.00 0.01 0.00 0.00 0.00 0.00 0.00 0.00 0.00 0.00 0.00 0.00 0.01 0.01 0.01 0.00 0.01 0.01 0.00 0.00 0.00 0.00 0.01 0.00 0.00 0.01
0.00 0.00 0.00 0.00 0.00 0.00 0.00 0.00 0.00 0.01 0.01 0.01 0.00 0.00 0.00 0.00 0.02 0.04 0.05 0.05 0.02 0.00 0.00 0.00 0.00 0.00 0.00 0.00 0.00 0.01 0.00 0.00 0.00 0.00 0.00 0.00 0.00 0.00 0.00 0.00 0.00 0.00 0.00 0.00 0.01 0.01 0.01 0.01 0.01 0.01 0.00 0.00 0.00 0.01
0.00 0.00 0.00 0.00 0.00 0.00 0.01 0.01 0.01 0.02 0.01 0.00 0.00 0.01 0.01 0.02 0.04 0.04 0.06 0.04 0.02 0.01 0.00 0.00 0.00 0.00 0.00 0.00 0.00 0.00 0.00 0.00 0.00 0.00 0.00 0.00 0.00 0.00 0.01 0.00 0.00 0.00 0.00 0.00 0.00 0.00 0.01 0.01 0.01 0.00 0.00 0.00 0.00 0.00
0.00 0.00 0.00 0.00 0.00 0.01 0.01 0.01 0.01 0.01 0.00 0.00 0.00 0.01 0.01 0.03 0.05 0.05 0.04 0.02 0.01 0.01 0.01 0.01 0.00 0.00 0.00 0.00 0.00 0.00 0.00 0.00 0.00 0.00 0.00 0.00 0.01 0.01 0.01 0.01 0.00 0.01 0.01 0.01 0.00 0.00 0.00 0.00 0.00 0.00 0.00 0.00 0.00 0.00
0.00 0.00 0.00 0.00 0.01 0.01 0.00 0.00 0.00 0.00 0.00 0.00 0.00 0.00 0.01 0.02 0.03 0.03 0.01 0.01 0.00 0.00 0.00 0.00 0.00 0.00 0.00 0.00 0.00 0.00 0.00 0.00 0.00 0.00 0.00 0.00 0.00 0.00 0.00 0.00 0.01 0.01 0.01 0.01 0.00 0.00 0.00 0.00 0.00 0.00 0.00 0.00 0.00 0.00
0.00 0.00 0.00 0.00 0.02 0.03 0.02 0.03 0.01 0.00 0.00 0.00 0.01 0.00 0.01 0.00 0.01 0.01 0.01 0.01 0.00 0.00 0.00 0.00 0.01 0.01 0.01 0.00 0.00 0.00 0.00 0.00 0.00 0.00 0.00 0.01 0.00 0.00 0.00 0.00 0.00 0.00 0.00 0.00 0.00 0.00 0.00 0.00 0.00 0.00 0.00 0.00 0.00 0.00
0.00 0.00 0.00 0.00 0.01 0.02 0.02 0.03 0.01 0.01 0.01 0.01 0.01 0.01 0.00 0.00 0.00 0.01 0.01 0.00 0.00 0.00 0.00 0.00 0.00 0.01 0.00 0.00 0.00 0.00 0.00 0.00 0.00 0.00 0.00 0.00 0.00 0.00 0.00 0.00 0.00 0.00 0.00 0.00 0.00 0.00 0.00 0.00 0.00 0.00 0.00 0.00 0.00 0.00

GFSWCAN_prec_precacc12_054.txt.gz
Total_Precipitation_Accumulation
0.05 0.04 0.04 0.05 0.06 0.06 0.13 0.18 0.17 0.27 0.30 0.32 0.35 0.40 0.36 0.32 0.46 0.41 0.12 0.13 0.17 0.23 0.23 0.22 0.19 0.15 0.04 0.06 0.07 0.02 0.12 0.16 0.16 0.07 0.02 0.00 0.00 0.00 0.00 0.00 0.02 0.05 0.06 0.04 0.03 0.05 0.01 0.00 0.00 0.00 0.00 0.00 0.00 0.00
0.10 0.07 0.06 0.05 0.05 0.08 0.10 0.13 0.21 0.25 0.28 0.33 0.34 0.33 0.37 0.35 0.44 0.37 0.14 0.13 0.23 0.23 0.31 0.22 0.16 0.21 0.06 0.00 0.00 0.01 0.05 0.07 0.09 0.10 0.01 0.01 0.01 0.01 0.00 0.00 0.00 0.01 0.04 0.06 0.02 0.00 0.00 0.00 0.00 0.00 0.00 0.00 0.00 0.00
0.10 0.09 0.09 0.08 0.10 0.13 0.13 0.22 0.23 0.22 0.31 0.31 0.30 0.29 0.38 0.45 0.47 0.31 0.13 0.07 0.25 0.37 0.16 0.14 0.18 0.13 0.15 0.01 0.00 0.10 0.04 0.00 0.02 0.00 0.00 0.01 0.01 0.00 0.00 0.00 0.00 0.00 0.00 0.01 0.02 0.01 0.01 0.01 0.01 0.00 0.00 0.00 0.00 0.00
0.08 0.07 0.07 0.08 0.10 0.12 0.14 0.20 0.25 0.30 0.33 0.35 0.31 0.34 0.46 0.55 0.50 0.21 0.06 0.02 0.11 0.22 0.15 0.10 0.15 0.08 0.10 0.07 0.01 0.07 0.04 0.01 0.02 0.01 0.02 0.06 0.02 0.00 0.00 0.00 0.00 0.00 0.01 0.01 0.00 0.00 0.00 0.00 0.01 0.01 0.00 0.00 0.00 0.00
0.08 0.08 0.06 0.05 0.06 0.09 0.11 0.15 0.20 0.26 0.35 0.34 0.34 0.43 0.61 0.56 0.27 0.11 0.07 0.06 0.06 0.16 0.19 0.05 0.05 0.14 0.18 0.11 0.09 0.06 0.08 0.09 0.11 0.13 0.04 0.01 0.00 0.00 0.01 0.00 0.00 0.00 0.00 0.00 0.00 0.01 0.00 0.00 0.00 0.00 0.00 0.00 0.00 0.00
0.05 0.05 0.06 0.07 0.08 0.07 0.09 0.11 0.15 0.21 0.24 0.29 0.37 0.46 0.43 0.16 0.08 0.10 0.27 0.20 0.11 0.13 0.22 0.06 0.03 0.04 0.15 0.15 0.16 0.11 0.08 0.15 0.08 0.14 0.08 0.02 0.00 0.00 0.00 0.00 0.00 0.00 0.00 0.01 0.00 0.01 0.00 0.00 0.00 0.00 0.00 0.00 0.00 0.00
0.04 0.04 0.05 0.07 0.07 0.08 0.10 0.11 0.14 0.19 0.26 0.32 0.31 0.23 0.09 0.05 0.04 0.09 0.12 0.06 0.04 0.18 0.21 0.10 0.06 0.05 0.09 0.31 0.22 0.16 0.13 0.17 0.18 0.17 0.08 0.03 0.02 0.01 0.00 0.00 0.00 0.00 0.00 0.01 0.01 0.00 0.00 0.00 0.00 0.00 0.00 0.00 0.00 0.00
0.04 0.05 0.05 0.05 0.06 0.07 0.08 0.11 0.15 0.18 0.20 0.18 0.15 0.11 0.09 0.07 0.06 0.08 0.04 0.00 0.14 0.28 0.16 0.13 0.11 0.18 0.14 0.32 0.36 0.18 0.23 0.25 0.26 0.30 0.11 0.05 0.05 0.09 0.04 0.00 0.00 0.00 0.00 0.00 0.00 0.00 0.00 0.00 0.00 0.00 0.00 0.00 0.00 0.00
0.04 0.05 0.06 0.05 0.05 0.06 0.08 0.10 0.11 0.11 0.12 0.11 0.08 0.10 0.18 0.14 0.11 0.09 0.06 0.06 0.12 0.25 0.22 0.11 0.19 0.29 0.25 0.51 0.76 0.34 0.24 0.35 0.23 0.11 0.07 0.10 0.07 0.09 0.02 0.00 0.00 0.00 0.00 0.00 0.00 0.00 0.00 0.00 0.00 0.00 0.00 0.00 0.00 0.00
0.04 0.06 0.08 0.07 0.06 0.05 0.04 0.04 0.04 0.04 0.06 0.08 0.11 0.27 0.20 0.07 0.09 0.20 0.25 0.23 0.31 0.24 0.16 0.14 0.13 0.21 0.47 0.45 0.65 0.77 0.52 0.24 0.13 0.06 0.09 0.10 0.09 0.02 0.00 0.00 0.00 0.00 0.00 0.00 0.00 0.00 0.00 0.00 0.00 0.00 0.00 0.00 0.00 0.01
0.03 0.05 0.07 0.09 0.07 0.06 0.04 0.03 0.02 0.02 0.07 0.11 0.25 0.24 0.06 0.11 0.17 0.25 0.28 0.30 0.21 0.23 0.06 0.06 0.07 0.19 0.38 0.48 0.38 0.33 0.47 0.62 0.23 0.07 0.14 0.08 0.05 0.04 0.01 0.01 0.01 0.02 0.05 0.04 0.02 0.01 0.01 0.01 0.01 0.01 0.01 0.01 0.03 0.08
0.01 0.02 0.03 0.04 0.06 0.05 0.04 0.05 0.08 0.13 0.16 0.19 0.15 0.09 0.11 0.12 0.12 0.10 0.21 0.24 0.16 0.14 0.10 0.09 0.11 0.16 0.27 0.49 0.46 0.31 0.26 0.29 0.56 0.35 0.31 0.23 0.12 0.04 0.07 0.14 0.15 0.13 0.12 0.10 0.09 0.06 0.05 0.05 0.04 0.03 0.03 0.05 0.12 0.18
0.00 0.01 0.02 0.04 0.06 0.08 0.16 0.32 0.27 0.29 0.35 0.28 0.23 0.13 0.10 0.04 0.03 0.07 0.12 0.14 0.22 0.35 0.26 0.15 0.14 0.13 0.09 0.29 0.36 0.29 0.28 0.20 0.30 0.57 0.56 0.37 0.21 0.16 0.16 0.15 0.15 0.14 0.13 0.10 0.07 0.05 0.03 0.03 0.04 0.07 0.16 0.28 0.34 0.41
0.00 0.00 0.01 0.02 0.05 0.18 0.39 0.27 0.33 0.42 0.45 0.45 0.19 0.04 0.09 0.08 0.10 0.13 0.14 0.14 0.24 0.35 0.31 0.23 0.15 0.15 0.12 0.29 0.45 0.26 0.22 0.16 0.23 0.35 0.29 0.24 0.32 0.31 0.29 0.31 0.34 0.39 0.41 0.39 0.38 0.35 0.39 0.43 0.47 0.50 0.46 0.46 0.40 0.41
0.00 0.01 0.01 0.02 0.08 0.16 0.18 0.16 0.24 0.29 0.28 0.16 0.02 0.11 0.13 0.19 0.20 0.21 0.16 0.19 0.29 0.57 0.51 0.43 0.34 0.27 0.20 0.31 0.32 0.18 0.13 0.09 0.10 0.17 0.19 0.21 0.26 0.23 0.23 0.25 0.26 0.30 0.34 0.37 0.41 0.39 0.41 0.44 0.40 0.44 0.43 0.37 0.28 0.26
0.01 0.03 0.04 0.03 0.05 0.04 0.04 0.07 0.17 0.24 0.08 0.03 0.13 0.23 0.23 0.34 0.35 0.30 0.27 0.30 0.34 0.52 0.58 0.44 0.33 0.27 0.22 0.15 0.12 0.11 0.06 0.08 0.12 0.16 0.21 0.28 0.28 0.28 0.31 0.33 0.36 0.37 0.33 0.28 0.25 0.24 0.24 0.25 0.20 0.19 0.20 0.18 0.18 0.15
0.02 0.04 0.04 0.07 0.10 0.10 0.12 0.16 0.18 0.09 0.05 0.15 0.32 0.42 0.42 0.37 0.35 0.36 0.37 0.37 0.38 0.37 0.31 0.16 0.12 0.18 0.16 0.05 0.08 0.08 0.13 0.18 0.21 0.23 0.28 0.31 0.30 0.31 0.32 0.32 0.33 0.27 0.18 0.16 0.16 0.17 0.15 0.13 0.09 0.06 0.07 0.11 0.08 0.09
0.06 0.04 0.05 0.08 0.07 0.09 0.13 0.09 0.03 0.04 0.15 0.27 0.26 0.37 0.37 0.35 0.33 0.34 0.39 0.33 0.30 0.25 0.18 0.12 0.07 0.07 0.13 0.09 0.13 0.17 0.19 0.22 0.28 0.31 0.31 0.32 0.31 0.31 0.30 0.27 0.25 0.19 0.15 0.18 0.18 0.18 0.16 0.12 0.09 0.12 0.11 0.10 0.06 0.05
0.28 0.21 0.19 0.21 0.16 0.07 0.09 0.05 0.00 0.06 0.17 0.18 0.19 0.21 0.22 0.23 0.21 0.21 0.15 0.09 0.06 0.06 0.09 0.08 0.09 0.12 0.18 0.19 0.21 0.20 0.21 0.22 0.22 0.27 0.26 0.28 0.29 0.29 0.26 0.22 0.18 0.17 0.15 0.16 0.13 0.13 0.13 0.12 0.13 0.11 0.10 0.06 0.06 0.06
0.51 0.41 0.28 0.19 0.12 0.04 0.02 0.04 0.00 0.04 0.08 0.03 0.02 0.01 0.02 0.02 0.01 0.00 0.00 0.01 0.01 0.02 0.03 0.06 0.12 0.17 0.16 0.17 0.17 0.18 0.20 0.22 0.19 0.16 0.16 0.18 0.20 0.17 0.18 0.15 0.15 0.14 0.11 0.11 0.11 0.11 0.10 0.09 0.11 0.10 0.09 0.08 0.07 0.08
0.25 0.17 0.13 0.07 0.02 0.00 0.01 0.01 0.02 0.02 0.02 0.02 0.01 0.00 0.00 0.00 0.00 0.00 0.00 0.00 0.01 0.02 0.08 0.12 0.11 0.13 0.12 0.13 0.13 0.12 0.13 0.12 0.11 0.09 0.11 0.13 0.14 0.10 0.10 0.11 0.10 0.08 0.08 0.09 0.08 0.10 0.08 0.08 0.09 0.08 0.07 0.07 0.06 0.06
0.03 0.01 0.00 0.01 0.00 0.00 0.00 0.00 0.01 0.01 0.00 0.00 0.00 0.00 0.00 0.00 0.00 0.00 0.00 0.01 0.06 0.11 0.12 0.08 0.08 0.06 0.05 0.06 0.07 0.06 0.09 0.06 0.06 0.05 0.06 0.06 0.06 0.06 0.07 0.09 0.06 0.05 0.05 0.06 0.05 0.05 0.05 0.04 0.04 0.03 0.02 0.02 0.02 0.01
0.00 0.00 0.00 0.00 0.00 0.00 0.00 0.00 0.00 0.00 0.00 0.00 0.00 0.00 0.00 0.00 0.00 0.00 0.00 0.02 0.08 0.10 0.08 0.05 0.04 0.02 0.02 0.03 0.01 0.00 0.00 0.00 0.00 0.01 0.01 0.01 0.01 0.01 0.01 0.01 0.01 0.01 0.01 0.02 0.02 0.01 0.01 0.01 0.01 0.00 0.00 0.00 0.00 0.00
0.00 0.00 0.00 0.00 0.00 0.00 0.00 0.00 0.00 0.00 0.00 0.00 0.00 0.01 0.01 0.00 0.00 0.00 0.01 0.03 0.07 0.04 0.03 0.03 0.01 0.01 0.00 0.00 0.00 0.01 0.00 0.00 0.00 0.00 0.00 0.00 0.00 0.00 0.00 0.00 0.00 0.00 0.00 0.00 0.00 0.00 0.00 0.00 0.00 0.00 0.00 0.00 0.00 0.00
0.00 0.00 0.00 0.00 0.00 0.00 0.00 0.00 0.00 0.00 0.00 0.00 0.01 0.02 0.01 0.00 0.00 0.00 0.01 0.04 0.04 0.04 0.03 0.02 0.01 0.00 0.00 0.00 0.00 0.00 0.00 0.00 0.00 0.00 0.00 0.00 0.00 0.00 0.00 0.00 0.00 0.00 0.00 0.00 0.00 0.00 0.00 0.00 0.00 0.00 0.00 0.00 0.00 0.00
0.00 0.00 0.00 0.00 0.00 0.00 0.00 0.00 0.00 0.00 0.01 0.01 0.01 0.01 0.00 0.00 0.00 0.01 0.03 0.04 0.03 0.04 0.04 0.04 0.02 0.01 0.00 0.00 0.00 0.00 0.00 0.00 0.00 0.00 0.00 0.00 0.00 0.00 0.00 0.00 0.00 0.00 0.01 0.01 0.00 0.00 0.00 0.00 0.00 0.00 0.00 0.00 0.00 0.00
0.00 0.00 0.00 0.00 0.00 0.00 0.00 0.00 0.00 0.00 0.00 0.01 0.01 0.00 0.00 0.00 0.01 0.03 0.04 0.03 0.02 0.01 0.01 0.01 0.00 0.00 0.00 0.00 0.00 0.00 0.00 0.00 0.00 0.00 0.00 0.00 0.00 0.00 0.00 0.00 0.00 0.01 0.01 0.00 0.00 0.00 0.00 0.00 0.00 0.00 0.00 0.00 0.00 0.01
0.00 0.00 0.00 0.00 0.00 0.00 0.00 0.00 0.00 0.00 0.01 0.01 0.00 0.00 0.00 0.00 0.02 0.04 0.04 0.03 0.01 0.00 0.00 0.00 0.00 0.00 0.00 0.00 0.00 0.00 0.00 0.00 0.00 0.00 0.00 0.00 0.00 0.00 0.00 0.00 0.00 0.00 0.00 0.00 0.00 0.00 0.01 0.01 0.00 0.00 0.00 0.00 0.00 0.00
0.00 0.00 0.00 0.00 0.00 0.00 0.01 0.01 0.01 0.01 0.01 0.00 0.00 0.00 0.01 0.02 0.04 0.04 0.04 0.03 0.02 0.01 0.01 0.00 0.01 0.00 0.00 0.00 0.00 0.00 0.00 0.00 0.00 0.00 0.00 0.00 0.00 0.00 0.00 0.01 0.01 0.00 0.00 0.00 0.00 0.00 0.00 0.00 0.00 0.00 0.00 0.00 0.00 0.00
0.00 0.00 0.00 0.00 0.00 0.01 0.02 0.01 0.01 0.01 0.00 0.00 0.00 0.01 0.01 0.03 0.05 0.05 0.04 0.03 0.02 0.02 0.01 0.01 0.01 0.01 0.00 0.01 0.00 0.00 0.00 0.00 0.00 0.00 0.00 0.00 0.00 0.01 0.01 0.01 0.01 0.01 0.01 0.01 0.00 0.00 0.00 0.00 0.00 0.00 0.00 0.00 0.00 0.00
0.00 0.00 0.00 0.00 0.01 0.01 0.01 0.01 0.00 0.00 0.00 0.00 0.00 0.00 0.01 0.02 0.03 0.03 0.01 0.01 0.00 0.00 0.01 0.00 0.00 0.00 0.00 0.00 0.00 0.00 0.00 0.00 0.00 0.00 0.00 0.00 0.00 0.01 0.01 0.00 0.01 0.01 0.01 0.00 0.00 0.00 0.00 0.00 0.00 0.00 0.00 0.00 0.00 0.00
0.00 0.00 0.00 0.00 0.02 0.01 0.02 0.04 0.01 0.01 0.01 0.00 0.01 0.01 0.01 0.01 0.01 0.01 0.01 0.01 0.01 0.01 0.01 0.01 0.01 0.01 0.00 0.00 0.00 0.00 0.00 0.00 0.00 0.00 0.00 0.00 0.01 0.01 0.00 0.00 0.00 0.00 0.00 0.00 0.00 0.00 0.00 0.00 0.00 0.00 0.00 0.00 0.00 0.00
0.00 0.00 0.00 0.00 0.01 0.01 0.02 0.01 0.01 0.01 0.01 0.01 0.01 0.01 0.01 0.00 0.01 0.01 0.01 0.01 0.01 0.01 0.00 0.00 0.01 0.00 0.00 0.00 0.00 0.00 0.00 0.00 0.00 0.00 0.00 0.00 0.00 0.00 0.00 0.00 0.00 0.00 0.00 0.00 0.00 0.00 0.00 0.00 0.00 0.00 0.00 0.00 0.00 0.00

GFSWCAN_prec_precacc12_057.txt.gz
Total_Precipitation_Accumulation
0.03 0.02 0.02 0.04 0.05 0.05 0.11 0.16 0.11 0.13 0.10 0.18 0.28 0.36 0.36 0.34 0.48 0.49 0.18 0.07 0.20 0.45 0.23 0.17 0.19 0.20 0.05 0.07 0.08 0.02 0.14 0.17 0.17 0.08 0.02 0.00 0.01 0.00 0.00 0.00 0.02 0.06 0.09 0.07 0.06 0.07 0.01 0.00 0.00 0.00 0.00 0.00 0.00 0.00
0.04 0.03 0.02 0.02 0.02 0.03 0.04 0.06 0.09 0.10 0.14 0.21 0.26 0.30 0.37 0.35 0.47 0.52 0.30 0.14 0.17 0.31 0.31 0.24 0.15 0.21 0.09 0.01 0.03 0.03 0.06 0.08 0.10 0.14 0.03 0.01 0.02 0.01 0.00 0.00 0.00 0.02 0.04 0.07 0.04 0.01 0.01 0.01 0.00 0.00 0.00 0.00 0.00 0.00
0.09 0.04 0.02 0.02 0.02 0.02 0.03 0.12 0.12 0.10 0.20 0.24 0.25 0.26 0.39 0.46 0.49 0.53 0.36 0.17 0.29 0.41 0.23 0.17 0.26 0.12 0.12 0.01 0.02 0.15 0.06 0.02 0.04 0.03 0.06 0.04 0.02 0.00 0.00 0.00 0.00 0.00 0.00 0.00 0.03 0.01 0.01 0.02 0.04 0.01 0.00 0.00 0.00 0.00
0.08 0.06 0.06 0.05 0.04 0.04 0.07 0.17 0.20 0.21 0.24 0.27 0.26 0.33 0.60 0.63 0.59 0.43 0.25 0.12 0.17 0.17 0.31 0.15 0.14 0.08 0.09 0.04 0.02 0.11 0.07 0.03 0.06 0.08 0.08 0.14 0.06 0.00 0.00 0.00 0.00 0.00 0.00 0.01 0.02 0.00 0.00 0.00 0.04 0.07 0.05 0.02 0.00 0.00
0.08 0.09 0.08 0.06 0.06 0.07 0.11 0.23 0.24 0.26 0.31 0.30 0.33 0.50 0.82 0.73 0.46 0.29 0.16 0.14 0.08 0.07 0.12 0.08 0.05 0.12 0.18 0.13 0.09 0.09 0.13 0.15 0.23 0.44 0.19 0.05 0.02 0.02 0.00 0.01 0.00 0.00 0.00 0.00 0.01 0.01 0.01 0.00 0.00 0.00 0.01 0.02 0.01 0.00
0.06 0.06 0.06 0.07 0.08 0.07 0.09 0.16 0.20 0.23 0.24 0.30 0.43 0.68 0.64 0.40 0.25 0.29 0.47 0.31 0.07 0.04 0.06 0.05 0.03 0.02 0.13 0.15 0.12 0.11 0.11 0.22 0.20 0.32 0.34 0.09 0.01 0.02 0.01 0.00 0.00 0.00 0.00 0.00 0.00 0.00 0.00 0.00 0.00 0.00 0.00 0.00 0.00 0.00
0.05 0.04 0.05 0.06 0.07 0.07 0.10 0.12 0.16 0.21 0.30 0.38 0.39 0.35 0.28 0.13 0.09 0.11 0.18 0.09 0.02 0.02 0.06 0.07 0.04 0.04 0.06 0.25 0.19 0.13 0.12 0.20 0.23 0.31 0.28 0.20 0.06 0.06 0.02 0.00 0.00 0.00 0.00 0.00 0.00 0.00 0.00 0.00 0.00 0.00 0.00 0.00 0.00 0.00
0.06 0.08 0.06 0.05 0.05 0.06 0.08 0.12 0.16 0.20 0.22 0.21 0.22 0.23 0.17 0.08 0.05 0.04 0.02 0.00 0.00 0.02 0.03 0.07 0.07 0.16 0.14 0.29 0.31 0.16 0.22 0.25 0.29 0.36 0.22 0.14 0.13 0.16 0.07 0.00 0.00 0.00 0.00 0.00 0.00 0.00 0.00 0.00 0.00 0.00 0.00 0.00 0.00 0.00
0.06 0.07 0.08 0.07 0.06 0.07 0.09 0.11 0.12 0.12 0.13 0.13 0.10 0.07 0.10 0.11 0.09 0.08 0.04 0.02 0.06 0.12 0.10 0.04 0.11 0.29 0.25 0.33 0.34 0.23 0.21 0.31 0.28 0.24 0.22 0.20 0.16 0.17 0.04 0.00 0.00 0.00 0.00 0.00 0.00 0.00 0.00 0.00 0.00 0.00 0.00 0.00 0.00 0.00
0.08 0.11 0.12 0.11 0.10 0.09 0.08 0.08 0.09 0.07 0.04 0.03 0.04 0.06 0.12 0.08 0.07 0.16 0.18 0.14 0.16 0.20 0.12 0.08 0.09 0.22 0.54 0.46 0.36 0.28 0.32 0.22 0.16 0.15 0.25 0.38 0.30 0.06 0.01 0.00 0.00 0.00 0.00 0.00 0.00 0.00 0.00 0.00 0.00 0.00 0.00 0.00 0.00 0.00
0.06 0.09 0.12 0.15 0.16 0.15 0.13 0.12 0.09 0.04 0.03 0.02 0.06 0.08 0.05 0.04 0.13 0.20 0.16 0.08 0.08 0.14 0.04 0.04 0.04 0.18 0.39 0.55 0.37 0.26 0.33 0.42 0.17 0.10 0.21 0.29 0.20 0.07 0.03 0.01 0.00 0.00 0.00 0.00 0.00 0.00 0.00 0.00 0.01 0.01 0.01 0.01 0.01 0.01
0.02 0.03 0.05 0.06 0.06 0.06 0.05 0.05 0.04 0.04 0.05 0.06 0.09 0.04 0.06 0.10 0.14 0.09 0.05 0.04 0.03 0.13 0.10 0.08 0.11 0.18 0.32 0.66 0.54 0.30 0.23 0.29 0.48 0.27 0.33 0.35 0.16 0.06 0.03 0.02 0.02 0.01 0.00 0.00 0.01 0.00 0.01 0.04 0.03 0.03 0.02 0.02 0.04 0.07
0.00 0.01 0.02 0.04 0.05 0.03 0.10 0.23 0.20 0.18 0.16 0.16 0.16 0.13 0.12 0.06 0.06 0.08 0.08 0.11 0.19 0.36 0.26 0.15 0.15 0.40 0.33 0.56 0.82 0.44 0.26 0.21 0.45 0.50 0.44 0.32 0.18 0.12 0.14 0.14 0.13 0.11 0.10 0.08 0.06 0.05 0.03 0.03 0.04 0.05 0.09 0.17 0.24 0.32
0.00 0.00 0.01 0.02 0.05 0.16 0.37 0.25 0.18 0.13 0.20 0.18 0.07 0.03 0.04 0.04 0.07 0.11 0.11 0.14 0.18 0.29 0.27 0.20 0.16 0.16 0.20 0.51 0.92 0.59 0.44 0.21 0.32 0.34 0.23 0.18 0.25 0.26 0.29 0.32 0.35 0.41 0.42 0.40 0.38 0.35 0.37 0.38 0.40 0.43 0.43 0.46 0.41 0.45
0.00 0.01 0.01 0.02 0.06 0.14 0.18 0.14 0.12 0.10 0.11 0.04 0.00 0.08 0.07 0.15 0.09 0.09 0.09 0.12 0.22 0.47 0.42 0.38 0.32 0.27 0.21 0.35 0.42 0.35 0.19 0.12 0.10 0.16 0.22 0.26 0.30 0.26 0.27 0.29 0.28 0.29 0.30 0.32 0.35 0.35 0.38 0.41 0.38 0.44 0.47 0.42 0.32 0.31
0.00 0.00 0.01 0.01 0.02 0.02 0.02 0.02 0.07 0.08 0.02 0.00 0.07 0.15 0.11 0.16 0.15 0.16 0.19 0.24 0.30 0.48 0.54 0.44 0.32 0.26 0.17 0.13 0.12 0.15 0.06 0.09 0.14 0.19 0.24 0.30 0.32 0.31 0.34 0.33 0.34 0.34 0.30 0.26 0.25 0.24 0.24 0.25 0.22 0.24 0.25 0.23 0.23 0.18
0.00 0.01 0.00 0.00 0.01 0.00 0.00 0.03 0.06 0.03 0.02 0.08 0.18 0.25 0.28 0.26 0.29 0.37 0.40 0.38 0.39 0.39 0.33 0.18 0.12 0.17 0.15 0.03 0.07 0.09 0.15 0.17 0.19 0.21 0.26 0.30 0.30 0.32 0.32 0.30 0.30 0.24 0.18 0.18 0.18 0.17 0.17 0.16 0.11 0.06 0.09 0.14 0.11 0.11
0.03 0.02 0.02 0.02 0.01 0.01 0.02 0.03 0.02 0.03 0.12 0.22 0.21 0.31 0.33 0.33 0.35 0.38 0.41 0.35 0.31 0.26 0.19 0.11 0.06 0.06 0.12 0.09 0.14 0.19 0.19 0.22 0.23 0.25 0.29 0.30 0.29 0.28 0.27 0.24 0.22 0.17 0.15 0.16 0.15 0.16 0.14 0.10 0.07 0.11 0.12 0.12 0.07 0.07
0.11 0.07 0.09 0.11 0.06 0.02 0.07 0.05 0.00 0.05 0.15 0.17 0.19 0.23 0.25 0.27 0.25 0.27 0.19 0.11 0.07 0.07 0.09 0.10 0.11 0.16 0.23 0.27 0.26 0.23 0.22 0.20 0.20 0.23 0.24 0.25 0.25 0.24 0.22 0.17 0.14 0.14 0.12 0.13 0.10 0.09 0.09 0.08 0.10 0.09 0.09 0.07 0.07 0.08
0.30 0.18 0.09 0.03 0.01 0.01 0.02 0.04 0.00 0.03 0.08 0.05 0.04 0.02 0.02 0.03 0.02 0.01 0.01 0.01 0.02 0.04 0.07 0.11 0.18 0.22 0.20 0.20 0.18 0.18 0.22 0.19 0.13 0.13 0.14 0.16 0.16 0.13 0.14 0.12 0.12 0.11 0.07 0.06 0.07 0.06 0.05 0.04 0.06 0.06 0.06 0.06 0.05 0.05
0.19 0.08 0.03 0.01 0.01 0.00 0.01 0.02 0.02 0.01 0.02 0.03 0.02 0.00 0.00 0.00 0.00 0.00 0.00 0.00 0.01 0.03 0.09 0.12 0.11 0.12 0.09 0.09 0.08 0.07 0.08 0.06 0.07 0.07 0.09 0.10 0.11 0.07 0.06 0.06 0.05 0.04 0.03 0.04 0.04 0.04 0.03 0.05 0.05 0.04 0.04 0.04 0.04 0.04
0.03 0.01 0.00 0.01 0.00 0.00 0.00 0.00 0.01 0.01 0.00 0.00 0.00 0.00 0.00 0.00 0.00 0.00 0.00 0.01 0.07 0.11 0.11 0.07 0.07 0.05 0.04 0.05 0.05 0.03 0.05 0.03 0.03 0.03 0.03 0.03 0.03 0.03 0.03 0.04 0.02 0.02 0.02 0.02 0.02 0.02 0.02 0.01 0.01 0.01 0.01 0.02 0.01 0.00
0.00 0.00 0.00 0.00 0.00 0.00 0.00 0.00 0.00 0.00 0.00 0.00 0.00 0.00 0.00 0.00 0.00 0.00 0.01 0.03 0.10 0.10 0.06 0.03 0.03 0.01 0.01 0.02 0.00 0.00 0.00 0.00 0.00 0.00 0.00 0.00 0.00 0.00 0.00 0.00 0.00 0.00 0.00 0.00 0.00 0.00 0.00 0.00 0.00 0.00 0.00 0.00 0.00 0.00
0.00 0.00 0.00 0.00 0.00 0.00 0.00 0.00 0.00 0.00 0.00 0.00 0.00 0.01 0.00 0.00 0.00 0.00 0.02 0.05 0.06 0.04 0.04 0.03 0.01 0.01 0.00 0.00 0.00 0.00 0.00 0.00 0.00 0.00 0.00 0.00 0.00 0.00 0.00 0.00 0.00 0.00 0.00 0.00 0.00 0.00 0.00 0.00 0.00 0.00 0.00 0.00 0.00 0.00
0.00 0.00 0.00 0.00 0.00 0.00 0.00 0.00 0.00 0.00 0.00 0.00 0.00 0.01 0.00 0.00 0.00 0.01 0.02 0.05 0.04 0.05 0.03 0.01 0.01 0.00 0.00 0.00 0.00 0.00 0.00 0.00 0.00 0.00 0.00 0.00 0.00 0.00 0.00 0.00 0.00 0.00 0.00 0.00 0.00 0.00 0.00 0.00 0.00 0.00 0.00 0.00 0.00 0.00
0.00 0.00 0.00 0.00 0.00 0.00 0.00 0.00 0.00 0.00 0.00 0.00 0.01 0.01 0.00 0.00 0.00 0.01 0.04 0.05 0.03 0.03 0.04 0.05 0.02 0.01 0.00 0.00 0.00 0.00 0.00 0.00 0.00 0.00 0.00 0.00 0.00 0.00 0.00 0.00 0.00 0.00 0.00 0.00 0.00 0.00 0.00 0.00 0.00 0.00 0.00 0.00 0.00 0.00
0.00 0.00 0.00 0.00 0.00 0.00 0.00 0.00 0.00 0.00 0.00 0.00 0.01 0.00 0.00 0.00 0.01 0.03 0.04 0.03 0.01 0.01 0.00 0.01 0.00 0.00 0.00 0.00 0.00 0.00 0.00 0.00 0.00 0.00 0.00 0.00 0.00 0.00 0.00 0.00 0.00 0.00 0.01 0.00 0.00 0.00 0.00 0.00 0.00 0.00 0.00 0.00 0.00 0.00
0.00 0.00 0.00 0.00 0.00 0.00 0.00 0.00 0.00 0.00 0.00 0.00 0.00 0.00 0.00 0.01 0.03 0.05 0.03 0.02 0.00 0.00 0.00 0.00 0.00 0.00 0.00 0.00 0.01 0.01 0.01 0.00 0.00 0.00 0.00 0.00 0.00 0.00 0.00 0.00 0.00 0.00 0.00 0.00 0.00 0.00 0.01 0.00 0.00 0.00 0.00 0.00 0.00 0.00
0.00 0.00 0.00 0.00 0.00 0.00 0.00 0.00 0.00 0.00 0.00 0.00 0.00 0.00 0.01 0.03 0.05 0.04 0.03 0.02 0.01 0.01 0.01 0.00 0.01 0.00 0.00 0.00 0.00 0.00 0.00 0.00 0.00 0.00 0.00 0.01 0.01 0.01 0.00 0.01 0.01 0.00 0.00 0.00 0.00 0.00 0.00 0.00 0.00 0.00 0.00 0.00 0.00 0.01
0.00 0.00 0.00 0.00 0.00 0.01 0.02 0.01 0.02 0.01 0.00 0.00 0.00 0.01 0.01 0.03 0.05 0.04 0.04 0.04 0.03 0.02 0.02 0.01 0.01 0.01 0.01 0.01 0.01 0.00 0.00 0.00 0.00 0.00 0.00 0.00 0.00 0.00 0.00 0.01 0.01 0.01 0.01 0.01 0.00 0.00 0.00 0.00 0.00 0.00 0.00 0.00 0.00 0.00
0.00 0.00 0.00 0.00 0.01 0.01 0.01 0.01 0.01 0.00 0.00 0.00 0.00 0.00 0.01 0.02 0.02 0.03 0.01 0.01 0.00 0.00 0.01 0.00 0.01 0.01 0.01 0.00 0.01 0.00 0.01 0.00 0.00 0.00 0.00 0.00 0.01 0.01 0.01 0.00 0.01 0.01 0.01 0.00 0.00 0.00 0.00 0.00 0.00 0.00 0.00 0.00 0.00 0.00
0.00 0.00 0.00 0.00 0.01 0.01 0.03 0.05 0.02 0.01 0.01 0.00 0.00 0.01 0.01 0.01 0.01 0.01 0.01 0.01 0.02 0.02 0.01 0.01 0.02 0.01 0.00 0.00 0.00 0.00 0.00 0.00 0.00 0.00 0.00 0.00 0.01 0.01 0.00 0.00 0.01 0.01 0.00 0.00 0.00 0.00 0.00 0.00 0.00 0.00 0.00 0.00 0.00 0.00
0.00 0.00 0.00 0.00 0.01 0.01 0.02 0.01 0.00 0.01 0.01 0.01 0.01 0.01 0.01 0.01 0.01 0.02 0.01 0.01 0.03 0.02 0.01 0.01 0.01 0.00 0.00 0.00 0.00 0.00 0.00 0.00 0.00 0.00 0.00 0.00 0.00 0.00 0.00 0.00 0.00 0.00 0.00 0.00 0.00 0.00 0.00 0.00 0.00 0.00 0.00 0.00 0.00 0.00

GFSWCAN_prec_precacc12_060.txt.gz
Total_Precipitation_Accumulation
0.03 0.02 0.02 0.02 0.02 0.02 0.02 0.13 0.09 0.10 0.09 0.15 0.21 0.26 0.22 0.25 0.43 0.51 0.19 0.10 0.23 0.60 0.29 0.13 0.13 0.13 0.03 0.05 0.07 0.02 0.14 0.17 0.18 0.08 0.02 0.00 0.01 0.01 0.00 0.00 0.02 0.06 0.15 0.20 0.27 0.28 0.08 0.00 0.00 0.00 0.00 0.00 0.00 0.00
0.03 0.03 0.03 0.02 0.02 0.01 0.03 0.04 0.07 0.08 0.10 0.13 0.18 0.18 0.25 0.29 0.50 0.58 0.37 0.16 0.18 0.38 0.38 0.23 0.16 0.18 0.10 0.03 0.03 0.02 0.07 0.08 0.10 0.15 0.03 0.01 0.02 0.01 0.00 0.00 0.00 0.02 0.04 0.07 0.07 0.06 0.03 0.02 0.02 0.01 0.00 0.00 0.00 0.00
0.08 0.04 0.04 0.04 0.03 0.02 0.02 0.11 0.07 0.05 0.12 0.12 0.16 0.15 0.30 0.39 0.49 0.67 0.52 0.27 0.31 0.43 0.30 0.30 0.23 0.10 0.10 0.07 0.06 0.16 0.06 0.02 0.06 0.06 0.07 0.06 0.03 0.00 0.01 0.00 0.00 0.00 0.00 0.01 0.02 0.01 0.01 0.03 0.04 0.01 0.00 0.00 0.00 0.00
0.10 0.05 0.06 0.03 0.01 0.02 0.04 0.12 0.12 0.13 0.11 0.14 0.15 0.21 0.46 0.50 0.48 0.64 0.47 0.22 0.18 0.21 0.36 0.18 0.11 0.06 0.04 0.04 0.06 0.14 0.09 0.05 0.11 0.13 0.11 0.15 0.06 0.01 0.00 0.00 0.00 0.00 0.00 0.01 0.02 0.00 0.00 0.00 0.04 0.07 0.05 0.02 0.00 0.00
0.11 0.13 0.05 0.02 0.02 0.03 0.07 0.22 0.21 0.16 0.17 0.16 0.19 0.41 0.70 0.59 0.45 0.55 0.32 0.16 0.10 0.10 0.12 0.10 0.04 0.02 0.01 0.06 0.05 0.10 0.15 0.19 0.30 0.50 0.23 0.06 0.02 0.02 0.02 0.03 0.00 0.00 0.01 0.02 0.01 0.01 0.00 0.01 0.00 0.00 0.01 0.02 0.01 0.00
0.10 0.09 0.06 0.07 0.06 0.04 0.06 0.14 0.12 0.12 0.15 0.21 0.37 0.69 0.63 0.41 0.37 0.56 0.76 0.47 0.14 0.09 0.09 0.08 0.04 0.01 0.03 0.06 0.07 0.07 0.11 0.24 0.27 0.44 0.45 0.11 0.02 0.04 0.03 0.01 0.02 0.02 0.02 0.02 0.00 0.00 0.00 0.00 0.00 0.00 0.00 0.00 0.00 0.00
0.14 0.07 0.05 0.07 0.05 0.04 0.06 0.08 0.11 0.14 0.22 0.33 0.47 0.47 0.37 0.20 0.24 0.25 0.43 0.26 0.09 0.12 0.07 0.12 0.05 0.04 0.05 0.15 0.11 0.09 0.12 0.20 0.26 0.43 0.43 0.27 0.07 0.12 0.05 0.01 0.01 0.03 0.02 0.02 0.01 0.00 0.00 0.00 0.00 0.00 0.00 0.00 0.00 0.00
0.12 0.11 0.07 0.06 0.05 0.06 0.08 0.12 0.15 0.21 0.27 0.34 0.48 0.49 0.31 0.20 0.19 0.11 0.08 0.01 0.03 0.07 0.02 0.05 0.07 0.16 0.11 0.23 0.24 0.14 0.18 0.23 0.25 0.35 0.27 0.22 0.20 0.24 0.21 0.01 0.00 0.00 0.01 0.01 0.00 0.00 0.00 0.00 0.00 0.00 0.00 0.00 0.00 0.00
0.08 0.08 0.07 0.06 0.06 0.09 0.12 0.15 0.19 0.25 0.30 0.33 0.27 0.15 0.18 0.24 0.17 0.17 0.05 0.03 0.06 0.09 0.05 0.01 0.09 0.28 0.23 0.31 0.31 0.18 0.19 0.23 0.25 0.25 0.23 0.23 0.28 0.47 0.26 0.12 0.02 0.00 0.00 0.00 0.00 0.00 0.00 0.00 0.00 0.00 0.00 0.00 0.00 0.00
0.12 0.15 0.14 0.12 0.11 0.10 0.09 0.10 0.12 0.12 0.08 0.03 0.03 0.06 0.21 0.15 0.06 0.02 0.04 0.07 0.08 0.12 0.05 0.01 0.02 0.18 0.48 0.44 0.35 0.28 0.21 0.17 0.16 0.15 0.27 0.42 0.39 0.15 0.04 0.03 0.02 0.00 0.00 0.00 0.00 0.00 0.00 0.00 0.00 0.00 0.00 0.00 0.00 0.00
0.11 0.13 0.16 0.18 0.19 0.19 0.17 0.14 0.10 0.04 0.02 0.02 0.02 0.05 0.08 0.03 0.08 0.12 0.12 0.06 0.04 0.03 0.01 0.01 0.00 0.07 0.34 0.52 0.37 0.27 0.20 0.16 0.09 0.08 0.21 0.39 0.38 0.23 0.07 0.02 0.01 0.00 0.00 0.00 0.00 0.00 0.00 0.01 0.00 0.00 0.00 0.00 0.00 0.00
0.07 0.05 0.05 0.05 0.05 0.05 0.04 0.04 0.01 0.02 0.01 0.01 0.01 0.01 0.02 0.07 0.13 0.09 0.05 0.03 0.02 0.09 0.04 0.03 0.07 0.09 0.28 0.64 0.55 0.32 0.24 0.18 0.28 0.21 0.30 0.35 0.20 0.09 0.06 0.04 0.03 0.02 0.01 0.00 0.00 0.00 0.00 0.01 0.00 0.00 0.00 0.01 0.01 0.03
0.01 0.00 0.00 0.00 0.01 0.01 0.01 0.00 0.00 0.01 0.01 0.04 0.04 0.06 0.09 0.06 0.06 0.09 0.08 0.08 0.10 0.23 0.20 0.08 0.11 0.40 0.37 0.65 0.95 0.48 0.27 0.22 0.46 0.44 0.31 0.25 0.14 0.08 0.07 0.06 0.06 0.06 0.06 0.05 0.05 0.06 0.05 0.05 0.06 0.06 0.06 0.10 0.11 0.17
0.00 0.00 0.00 0.00 0.01 0.06 0.10 0.05 0.03 0.02 0.10 0.10 0.04 0.02 0.04 0.04 0.07 0.11 0.10 0.14 0.15 0.20 0.24 0.14 0.09 0.14 0.28 0.71 1.14 0.67 0.47 0.23 0.31 0.32 0.19 0.16 0.18 0.18 0.14 0.14 0.16 0.23 0.25 0.27 0.31 0.31 0.32 0.34 0.36 0.35 0.35 0.39 0.35 0.41
0.00 0.00 0.00 0.01 0.06 0.13 0.16 0.09 0.05 0.04 0.06 0.01 0.00 0.04 0.04 0.13 0.06 0.04 0.04 0.08 0.14 0.23 0.29 0.28 0.28 0.27 0.28 0.42 0.55 0.44 0.23 0.12 0.10 0.17 0.22 0.26 0.25 0.21 0.22 0.23 0.24 0.25 0.25 0.26 0.28 0.27 0.32 0.35 0.32 0.38 0.41 0.36 0.28 0.29
0.00 0.00 0.01 0.01 0.01 0.02 0.01 0.00 0.00 0.00 0.00 0.00 0.03 0.05 0.03 0.04 0.03 0.02 0.02 0.05 0.11 0.21 0.34 0.39 0.30 0.25 0.18 0.18 0.19 0.23 0.12 0.13 0.17 0.20 0.27 0.30 0.31 0.31 0.34 0.34 0.34 0.33 0.29 0.27 0.27 0.25 0.24 0.23 0.21 0.24 0.25 0.24 0.24 0.19
0.00 0.01 0.00 0.00 0.00 0.00 0.00 0.00 0.00 0.00 0.01 0.03 0.07 0.11 0.09 0.09 0.14 0.24 0.23 0.22 0.28 0.29 0.29 0.18 0.12 0.16 0.14 0.04 0.08 0.10 0.18 0.23 0.22 0.22 0.26 0.30 0.33 0.36 0.34 0.30 0.29 0.24 0.21 0.20 0.19 0.17 0.19 0.18 0.12 0.07 0.11 0.16 0.12 0.11
0.01 0.01 0.00 0.00 0.00 0.00 0.00 0.00 0.01 0.02 0.07 0.13 0.16 0.22 0.21 0.25 0.30 0.34 0.39 0.34 0.30 0.25 0.18 0.12 0.06 0.06 0.12 0.09 0.13 0.19 0.19 0.22 0.21 0.23 0.28 0.31 0.30 0.28 0.24 0.21 0.21 0.17 0.15 0.15 0.13 0.12 0.12 0.08 0.06 0.11 0.11 0.10 0.07 0.07
0.02 0.02 0.03 0.03 0.01 0.00 0.03 0.03 0.00 0.04 0.13 0.16 0.18 0.21 0.26 0.30 0.28 0.30 0.22 0.13 0.07 0.07 0.09 0.10 0.11 0.16 0.23 0.28 0.26 0.23 0.21 0.18 0.19 0.22 0.22 0.22 0.21 0.20 0.17 0.14 0.12 0.11 0.10 0.11 0.08 0.07 0.07 0.06 0.07 0.07 0.07 0.04 0.06 0.08
0.10 0.09 0.04 0.01 0.00 0.00 0.02 0.04 0.00 0.02 0.08 0.06 0.04 0.02 0.03 0.05 0.03 0.01 0.01 0.01 0.02 0.04 0.07 0.12 0.19 0.22 0.20 0.21 0.17 0.16 0.19 0.16 0.10 0.09 0.12 0.13 0.13 0.10 0.11 0.09 0.09 0.08 0.05 0.04 0.04 0.03 0.02 0.02 0.02 0.02 0.02 0.03 0.03 0.03
0.06 0.01 0.00 0.00 0.00 0.00 0.01 0.02 0.01 0.01 0.02 0.04 0.02 0.00 0.01 0.00 0.00 0.00 0.00 0.00 0.01 0.03 0.11 0.14 0.12 0.13 0.09 0.08 0.06 0.04 0.05 0.03 0.05 0.05 0.08 0.09 0.09 0.05 0.05 0.04 0.03 0.02 0.02 0.02 0.01 0.02 0.01 0.02 0.03 0.02 0.01 0.01 0.02 0.02
0.00 0.00 0.00 0.01 0.00 0.00 0.00 0.00 0.01 0.01 0.00 0.00 0.00 0.00 0.00 0.00 0.00 0.00 0.00 0.01 0.09 0.12 0.10 0.06 0.07 0.05 0.04 0.05 0.04 0.02 0.03 0.02 0.02 0.01 0.01 0.02 0.02 0.02 0.02 0.02 0.01 0.01 0.01 0.01 0.00 0.00 0.00 0.00 0.00 0.00 0.01 0.01 0.00 0.00
0.00 0.00 0.00 0.00 0.00 0.00 0.00 0.00 0.00 0.00 0.00 0.00 0.00 0.00 0.00 0.00 0.00 0.00 0.01 0.04 0.13 0.09 0.04 0.02 0.01 0.01 0.01 0.01 0.00 0.00 0.00 0.00 0.00 0.00 0.00 0.00 0.00 0.00 0.00 0.00 0.00 0.00 0.00 0.00 0.00 0.00 0.00 0.00 0.00 0.00 0.00 0.00 0.00 0.00
0.00 0.00 0.00 0.00 0.00 0.00 0.00 0.00 0.00 0.00 0.00 0.00 0.00 0.00 0.00 0.00 0.00 0.00 0.02 0.05 0.08 0.06 0.04 0.03 0.01 0.00 0.00 0.00 0.00 0.00 0.00 0.00 0.00 0.00 0.00 0.00 0.00 0.00 0.00 0.00 0.00 0.00 0.00 0.00 0.00 0.00 0.00 0.00 0.00 0.00 0.00 0.00 0.00 0.00
0.00 0.00 0.00 0.00 0.00 0.00 0.00 0.00 0.00 0.00 0.00 0.00 0.00 0.01 0.00 0.00 0.00 0.00 0.02 0.06 0.04 0.04 0.03 0.01 0.01 0.00 0.00 0.00 0.00 0.00 0.00 0.00 0.00 0.00 0.00 0.00 0.00 0.00 0.00 0.00 0.00 0.00 0.00 0.00 0.00 0.00 0.00 0.00 0.00 0.00 0.00 0.00 0.00 0.00
0.00 0.00 0.00 0.00 0.00 0.00 0.00 0.00 0.00 0.00 0.00 0.00 0.01 0.00 0.00 0.00 0.00 0.02 0.04 0.05 0.03 0.03 0.05 0.05 0.02 0.00 0.00 0.00 0.00 0.00 0.00 0.00 0.00 0.00 0.00 0.00 0.00 0.00 0.00 0.00 0.00 0.00 0.00 0.00 0.00 0.00 0.00 0.00 0.00 0.00 0.00 0.00 0.00 0.00
0.00 0.00 0.00 0.00 0.00 0.00 0.00 0.00 0.00 0.00 0.00 0.00 0.00 0.00 0.00 0.00 0.01 0.03 0.05 0.03 0.01 0.01 0.01 0.01 0.00 0.00 0.00 0.00 0.00 0.00 0.00 0.00 0.00 0.00 0.00 0.00 0.00 0.00 0.00 0.00 0.00 0.00 0.00 0.00 0.00 0.00 0.00 0.00 0.00 0.00 0.00 0.00 0.00 0.00
0.00 0.00 0.00 0.00 0.00 0.00 0.00 0.00 0.00 0.00 0.00 0.00 0.00 0.00 0.00 0.01 0.03 0.06 0.03 0.02 0.00 0.00 0.00 0.00 0.00 0.00 0.00 0.01 0.01 0.01 0.00 0.00 0.00 0.00 0.00 0.00 0.00 0.00 0.00 0.00 0.00 0.00 0.00 0.00 0.00 0.00 0.00 0.00 0.00 0.00 0.00 0.00 0.00 0.00
0.00 0.00 0.00 0.00 0.00 0.00 0.00 0.00 0.00 0.00 0.00 0.00 0.00 0.00 0.01 0.03 0.05 0.04 0.02 0.01 0.01 0.01 0.01 0.00 0.01 0.00 0.00 0.00 0.00 0.00 0.00 0.00 0.00 0.00 0.00 0.01 0.01 0.01 0.00 0.00 0.01 0.00 0.00 0.01 0.00 0.00 0.01 0.00 0.00 0.00 0.00 0.00 0.00 0.01
0.00 0.00 0.00 0.00 0.00 0.01 0.03 0.01 0.02 0.01 0.00 0.00 0.00 0.01 0.02 0.05 0.07 0.04 0.03 0.04 0.03 0.02 0.01 0.01 0.02 0.02 0.01 0.01 0.01 0.00 0.00 0.00 0.00 0.00 0.00 0.00 0.00 0.01 0.00 0.00 0.01 0.00 0.00 0.01 0.00 0.00 0.00 0.00 0.00 0.00 0.00 0.00 0.00 0.00
0.00 0.00 0.00 0.00 0.01 0.02 0.01 0.01 0.01 0.00 0.00 0.00 0.00 0.00 0.01 0.03 0.02 0.02 0.01 0.01 0.00 0.00 0.01 0.01 0.01 0.01 0.01 0.00 0.01 0.01 0.01 0.00 0.00 0.00 0.00 0.00 0.01 0.01 0.00 0.00 0.01 0.01 0.01 0.00 0.00 0.00 0.00 0.00 0.00 0.00 0.00 0.00 0.00 0.00
0.00 0.00 0.00 0.00 0.02 0.02 0.03 0.05 0.01 0.01 0.01 0.00 0.01 0.01 0.01 0.01 0.01 0.01 0.01 0.01 0.02 0.02 0.01 0.01 0.01 0.01 0.00 0.00 0.00 0.00 0.00 0.00 0.00 0.00 0.00 0.00 0.01 0.00 0.00 0.00 0.01 0.01 0.00 0.00 0.00 0.00 0.00 0.00 0.00 0.00 0.00 0.00 0.00 0.00
0.00 0.00 0.00 0.00 0.01 0.01 0.02 0.01 0.00 0.01 0.01 0.01 0.01 0.01 0.02 0.01 0.01 0.02 0.01 0.01 0.04 0.02 0.01 0.01 0.00 0.00 0.00 0.00 0.00 0.00 0.00 0.00 0.00 0.00 0.00 0.00 0.00 0.00 0.00 0.00 0.00 0.00 0.00 0.00 0.00 0.00 0.00 0.00 0.00 0.00 0.00 0.00 0.00 0.00

GFSWCAN_prec_precacc12_063.txt.gz
Total_Precipitation_Accumulation
0.04 0.03 0.03 0.03 0.02 0.02 0.01 0.03 0.04 0.04 0.05 0.06 0.08 0.21 0.19 0.17 0.25 0.54 0.39 0.19 0.28 0.68 0.28 0.09 0.11 0.10 0.02 0.02 0.03 0.01 0.08 0.13 0.16 0.08 0.02 0.00 0.00 0.01 0.00 0.00 0.01 0.05 0.14 0.19 0.26 0.26 0.12 0.04 0.07 0.06 0.02 0.00 0.00 0.00
0.03 0.04 0.05 0.04 0.02 0.01 0.02 0.04 0.05 0.05 0.06 0.06 0.11 0.16 0.22 0.18 0.28 0.53 0.39 0.19 0.20 0.46 0.36 0.23 0.15 0.16 0.09 0.02 0.03 0.01 0.04 0.07 0.10 0.15 0.03 0.01 0.00 0.00 0.00 0.00 0.00 0.02 0.02 0.04 0.06 0.05 0.04 0.04 0.09 0.09 0.04 0.02 0.00 0.00
0.07 0.07 0.06 0.06 0.04 0.02 0.03 0.11 0.07 0.05 0.10 0.10 0.13 0.14 0.22 0.20 0.33 0.65 0.50 0.27 0.33 0.50 0.32 0.30 0.25 0.10 0.09 0.08 0.07 0.10 0.04 0.02 0.06 0.06 0.08 0.06 0.03 0.00 0.00 0.00 0.00 0.00 0.00 0.01 0.02 0.01 0.01 0.03 0.04 0.02 0.01 0.01 0.01 0.00
0.10 0.08 0.09 0.05 0.01 0.01 0.03 0.11 0.11 0.13 0.11 0.15 0.13 0.15 0.29 0.28 0.40 0.72 0.61 0.26 0.18 0.22 0.37 0.17 0.11 0.07 0.04 0.03 0.08 0.14 0.09 0.07 0.13 0.15 0.13 0.17 0.08 0.02 0.00 0.00 0.00 0.00 0.00 0.01 0.02 0.00 0.00 0.00 0.04 0.07 0.05 0.02 0.00 0.01
0.11 0.11 0.04 0.02 0.01 0.01 0.06 0.23 0.24 0.19 0.16 0.13 0.12 0.24 0.43 0.39 0.42 0.63 0.56 0.22 0.10 0.09 0.11 0.10 0.04 0.02 0.02 0.03 0.03 0.10 0.15 0.21 0.34 0.54 0.28 0.08 0.02 0.04 0.05 0.04 0.00 0.00 0.01 0.03 0.01 0.02 0.02 0.01 0.00 0.00 0.01 0.02 0.01 0.00
0.12 0.07 0.03 0.03 0.03 0.03 0.06 0.13 0.09 0.07 0.08 0.12 0.18 0.43 0.40 0.39 0.44 0.79 1.12 0.66 0.15 0.12 0.13 0.09 0.04 0.02 0.02 0.02 0.03 0.04 0.09 0.22 0.28 0.47 0.45 0.13 0.06 0.08 0.03 0.01 0.02 0.03 0.03 0.03 0.01 0.01 0.01 0.00 0.00 0.00 0.00 0.01 0.01 0.00
0.15 0.06 0.07 0.07 0.04 0.02 0.03 0.05 0.06 0.06 0.12 0.21 0.35 0.40 0.38 0.27 0.38 0.41 0.60 0.38 0.10 0.14 0.19 0.18 0.06 0.08 0.09 0.06 0.04 0.05 0.09 0.19 0.24 0.42 0.45 0.29 0.09 0.21 0.14 0.02 0.01 0.03 0.04 0.04 0.03 0.04 0.04 0.02 0.02 0.01 0.00 0.01 0.01 0.00
0.13 0.11 0.09 0.06 0.05 0.06 0.07 0.08 0.11 0.17 0.26 0.38 0.53 0.52 0.34 0.29 0.29 0.18 0.09 0.01 0.05 0.18 0.14 0.21 0.04 0.10 0.08 0.05 0.02 0.05 0.12 0.21 0.23 0.37 0.39 0.31 0.27 0.34 0.34 0.07 0.00 0.00 0.01 0.03 0.03 0.03 0.02 0.02 0.02 0.01 0.01 0.01 0.00 0.00
0.08 0.09 0.10 0.10 0.10 0.11 0.16 0.22 0.26 0.31 0.38 0.41 0.30 0.19 0.33 0.39 0.29 0.38 0.08 0.03 0.14 0.20 0.13 0.02 0.04 0.13 0.10 0.06 0.04 0.09 0.13 0.22 0.21 0.21 0.24 0.31 0.40 0.72 0.42 0.17 0.05 0.01 0.00 0.00 0.00 0.02 0.04 0.02 0.02 0.02 0.01 0.00 0.00 0.00
0.12 0.14 0.15 0.12 0.11 0.10 0.11 0.14 0.18 0.18 0.13 0.07 0.12 0.24 0.46 0.30 0.30 0.14 0.13 0.25 0.27 0.13 0.05 0.00 0.01 0.12 0.41 0.35 0.25 0.21 0.19 0.17 0.11 0.13 0.25 0.41 0.40 0.16 0.06 0.05 0.08 0.08 0.05 0.02 0.00 0.00 0.01 0.01 0.01 0.01 0.01 0.00 0.00 0.00
0.10 0.12 0.15 0.18 0.19 0.19 0.17 0.14 0.10 0.05 0.03 0.07 0.07 0.15 0.18 0.16 0.10 0.10 0.12 0.11 0.06 0.01 0.00 0.00 0.00 0.05 0.32 0.46 0.32 0.23 0.21 0.15 0.08 0.08 0.18 0.38 0.39 0.24 0.08 0.02 0.00 0.01 0.03 0.05 0.02 0.00 0.00 0.01 0.01 0.01 0.00 0.00 0.00 0.00
0.06 0.04 0.04 0.04 0.05 0.05 0.04 0.03 0.00 0.01 0.01 0.00 0.01 0.02 0.03 0.05 0.09 0.07 0.04 0.03 0.01 0.07 0.02 0.01 0.05 0.09 0.25 0.45 0.45 0.29 0.25 0.17 0.15 0.10 0.23 0.30 0.18 0.09 0.06 0.04 0.03 0.03 0.02 0.01 0.01 0.01 0.01 0.01 0.02 0.02 0.01 0.01 0.02 0.02
0.00 0.00 0.00 0.00 0.00 0.00 0.00 0.00 0.00 0.00 0.01 0.02 0.02 0.06 0.08 0.05 0.05 0.08 0.07 0.08 0.10 0.09 0.06 0.04 0.08 0.39 0.36 0.51 0.85 0.47 0.28 0.26 0.37 0.27 0.20 0.19 0.13 0.07 0.06 0.04 0.04 0.03 0.04 0.04 0.05 0.05 0.05 0.05 0.06 0.07 0.08 0.11 0.09 0.11
0.00 0.00 0.00 0.00 0.00 0.00 0.00 0.00 0.00 0.00 0.00 0.00 0.01 0.02 0.03 0.03 0.06 0.11 0.10 0.11 0.09 0.07 0.08 0.05 0.07 0.13 0.33 0.65 1.17 0.71 0.47 0.25 0.30 0.30 0.16 0.15 0.15 0.15 0.12 0.10 0.09 0.11 0.12 0.11 0.15 0.15 0.16 0.18 0.23 0.26 0.29 0.33 0.28 0.33
0.00 0.00 0.00 0.00 0.00 0.00 0.00 0.00 0.00 0.00 0.00 0.00 0.00 0.03 0.04 0.12 0.06 0.05 0.04 0.09 0.10 0.09 0.09 0.14 0.15 0.10 0.26 0.42 0.56 0.42 0.20 0.11 0.09 0.16 0.20 0.26 0.23 0.19 0.21 0.21 0.20 0.21 0.19 0.19 0.21 0.19 0.23 0.23 0.18 0.25 0.31 0.29 0.23 0.25
0.00 0.00 0.00 0.00 0.00 0.00 0.00 0.00 0.00 0.00 0.00 0.00 0.03 0.05 0.03 0.03 0.02 0.02 0.02 0.03 0.04 0.09 0.15 0.20 0.14 0.07 0.14 0.19 0.22 0.25 0.12 0.12 0.16 0.19 0.27 0.28 0.28 0.30 0.32 0.32 0.32 0.31 0.28 0.27 0.26 0.23 0.21 0.20 0.17 0.20 0.20 0.19 0.21 0.17
0.00 0.00 0.00 0.00 0.00 0.00 0.00 0.00 0.00 0.00 0.00 0.04 0.07 0.09 0.08 0.07 0.10 0.17 0.15 0.09 0.10 0.10 0.12 0.08 0.08 0.12 0.10 0.04 0.08 0.11 0.22 0.26 0.24 0.24 0.26 0.27 0.29 0.33 0.32 0.29 0.28 0.24 0.21 0.21 0.19 0.16 0.17 0.17 0.11 0.06 0.11 0.17 0.12 0.12
0.00 0.00 0.00 0.00 0.00 0.00 0.00 0.00 0.00 0.01 0.04 0.11 0.15 0.17 0.13 0.15 0.17 0.19 0.20 0.16 0.10 0.06 0.06 0.08 0.04 0.04 0.10 0.07 0.11 0.18 0.19 0.22 0.23 0.25 0.29 0.31 0.28 0.27 0.24 0.21 0.21 0.17 0.14 0.13 0.10 0.09 0.08 0.06 0.05 0.09 0.09 0.08 0.05 0.05
0.01 0.01 0.00 0.00 0.00 0.00 0.00 0.00 0.00 0.03 0.11 0.15 0.16 0.15 0.17 0.21 0.20 0.24 0.19 0.11 0.06 0.05 0.08 0.09 0.11 0.15 0.21 0.27 0.23 0.21 0.19 0.14 0.17 0.20 0.20 0.20 0.18 0.16 0.14 0.11 0.09 0.09 0.08 0.08 0.05 0.05 0.05 0.04 0.05 0.05 0.04 0.02 0.04 0.06
0.03 0.03 0.01 0.00 0.00 0.00 0.00 0.01 0.00 0.01 0.08 0.09 0.06 0.04 0.04 0.06 0.03 0.01 0.01 0.01 0.02 0.04 0.07 0.12 0.18 0.20 0.18 0.20 0.14 0.14 0.17 0.12 0.07 0.07 0.10 0.11 0.10 0.07 0.08 0.07 0.07 0.06 0.03 0.02 0.03 0.02 0.01 0.01 0.01 0.01 0.01 0.02 0.02 0.02
0.02 0.00 0.00 0.00 0.00 0.00 0.01 0.01 0.01 0.00 0.02 0.05 0.02 0.01 0.01 0.00 0.00 0.00 0.00 0.00 0.01 0.03 0.10 0.14 0.12 0.14 0.08 0.08 0.05 0.03 0.04 0.02 0.04 0.04 0.06 0.08 0.08 0.04 0.03 0.02 0.01 0.01 0.01 0.01 0.00 0.00 0.00 0.01 0.01 0.01 0.00 0.00 0.01 0.01
0.00 0.00 0.00 0.01 0.00 0.00 0.00 0.00 0.00 0.01 0.00 0.00 0.00 0.00 0.00 0.00 0.00 0.00 0.00 0.01 0.09 0.11 0.10 0.07 0.07 0.06 0.04 0.05 0.05 0.02 0.03 0.01 0.01 0.01 0.01 0.01 0.01 0.01 0.01 0.00 0.00 0.00 0.00 0.00 0.00 0.00 0.00 0.00 0.00 0.00 0.00 0.01 0.00 0.00
0.00 0.00 0.00 0.00 0.00 0.00 0.00 0.00 0.00 0.00 0.00 0.00 0.00 0.00 0.00 0.00 0.00 0.00 0.01 0.05 0.14 0.09 0.03 0.01 0.01 0.01 0.01 0.01 0.00 0.00 0.00 0.00 0.00 0.00 0.00 0.00 0.00 0.00 0.00 0.00 0.00 0.00 0.00 0.00 0.00 0.00 0.00 0.00 0.00 0.00 0.00 0.00 0.00 0.00
0.00 0.00 0.00 0.00 0.00 0.00 0.00 0.00 0.00 0.00 0.00 0.00 0.00 0.00 0.00 0.00 0.00 0.00 0.02 0.06 0.10 0.06 0.04 0.02 0.01 0.00 0.00 0.00 0.00 0.00 0.00 0.00 0.00 0.00 0.00 0.00 0.00 0.00 0.00 0.00 0.00 0.00 0.00 0.00 0.00 0.00 0.00 0.00 0.00 0.00 0.00 0.00 0.00 0.00
0.00 0.00 0.00 0.00 0.00 0.00 0.00 0.00 0.00 0.00 0.00 0.00 0.00 0.01 0.00 0.00 0.00 0.00 0.02 0.06 0.06 0.05 0.03 0.01 0.00 0.00 0.00 0.00 0.00 0.00 0.00 0.00 0.00 0.00 0.00 0.00 0.00 0.00 0.00 0.00 0.00 0.00 0.00 0.00 0.00 0.00 0.00 0.00 0.00 0.00 0.00 0.00 0.00 0.00
0.00 0.00 0.00 0.00 0.00 0.00 0.00 0.00 0.00 0.00 0.00 0.00 0.01 0.00 0.00 0.00 0.00 0.02 0.04 0.05 0.02 0.03 0.04 0.04 0.01 0.00 0.00 0.00 0.00 0.00 0.00 0.00 0.00 0.00 0.00 0.00 0.00 0.00 0.00 0.00 0.00 0.00 0.00 0.00 0.00 0.00 0.00 0.00 0.00 0.00 0.00 0.00 0.00 0.00
0.00 0.00 0.00 0.00 0.00 0.00 0.00 0.00 0.00 0.00 0.00 0.00 0.00 0.00 0.00 0.00 0.01 0.03 0.05 0.03 0.01 0.01 0.00 0.01 0.00 0.00 0.00 0.00 0.00 0.00 0.00 0.00 0.00 0.00 0.00 0.00 0.00 0.00 0.00 0.00 0.00 0.00 0.00 0.00 0.00 0.00 0.00 0.00 0.00 0.00 0.00 0.00 0.00 0.00
0.00 0.00 0.00 0.00 0.00 0.00 0.00 0.00 0.00 0.00 0.01 0.00 0.00 0.00 0.00 0.01 0.03 0.06 0.02 0.01 0.00 0.00 0.00 0.00 0.00 0.00 0.00 0.01 0.01 0.01 0.00 0.00 0.00 0.00 0.00 0.00 0.00 0.00 0.00 0.00 0.00 0.00 0.00 0.00 0.00 0.00 0.00 0.00 0.00 0.00 0.00 0.00 0.00 0.00
0.00 0.00 0.00 0.00 0.00 0.00 0.01 0.01 0.01 0.00 0.00 0.00 0.00 0.00 0.01 0.04 0.04 0.03 0.02 0.01 0.01 0.00 0.00 0.00 0.01 0.00 0.00 0.00 0.00 0.00 0.00 0.00 0.00 0.00 0.00 0.01 0.01 0.01 0.00 0.00 0.00 0.00 0.00 0.00 0.00 0.00 0.01 0.00 0.00 0.00 0.00 0.00 0.00 0.01
0.00 0.00 0.00 0.00 0.00 0.01 0.03 0.01 0.02 0.01 0.00 0.00 0.00 0.01 0.02 0.06 0.07 0.03 0.02 0.03 0.03 0.01 0.01 0.01 0.02 0.01 0.01 0.01 0.00 0.00 0.00 0.00 0.00 0.00 0.00 0.00 0.00 0.00 0.00 0.00 0.00 0.00 0.00 0.00 0.00 0.00 0.00 0.00 0.00 0.00 0.00 0.00 0.00 0.00
0.00 0.00 0.00 0.00 0.01 0.02 0.01 0.01 0.01 0.00 0.00 0.00 0.00 0.00 0.01 0.03 0.03 0.03 0.02 0.01 0.00 0.00 0.01 0.01 0.01 0.01 0.00 0.00 0.01 0.01 0.01 0.00 0.00 0.00 0.00 0.00 0.00 0.00 0.00 0.00 0.00 0.00 0.00 0.00 0.00 0.00 0.00 0.00 0.00 0.00 0.00 0.00 0.00 0.00
0.00 0.00 0.00 0.00 0.02 0.02 0.03 0.05 0.01 0.01 0.01 0.00 0.00 0.00 0.01 0.01 0.01 0.01 0.01 0.01 0.02 0.02 0.01 0.01 0.01 0.01 0.00 0.00 0.00 0.00 0.00 0.00 0.00 0.00 0.00 0.00 0.00 0.00 0.00 0.00 0.00 0.00 0.00 0.00 0.00 0.00 0.00 0.00 0.00 0.00 0.00 0.00 0.00 0.00
0.00 0.00 0.00 0.00 0.01 0.01 0.02 0.01 0.00 0.00 0.00 0.00 0.01 0.01 0.02 0.01 0.01 0.02 0.01 0.01 0.03 0.02 0.00 0.01 0.00 0.00 0.00 0.00 0.00 0.00 0.00 0.00 0.00 0.00 0.00 0.00 0.00 0.00 0.00 0.00 0.00 0.00 0.00 0.00 0.00 0.00 0.00 0.00 0.00 0.00 0.00 0.00 0.00 0.00

GFSWCAN_prec_precacc12_069.txt.gz
Total_Precipitation_Accumulation
0.08 0.05 0.03 0.02 0.02 0.03 0.03 0.03 0.04 0.04 0.04 0.05 0.08 0.16 0.20 0.24 0.30 0.58 0.72 0.31 0.30 0.58 0.30 0.07 0.04 0.03 0.02 0.02 0.03 0.02 0.12 0.09 0.06 0.06 0.02 0.01 0.00 0.00 0.00 0.00 0.00 0.01 0.07 0.15 0.24 0.24 0.11 0.04 0.08 0.07 0.02 0.01 0.00 0.00
0.03 0.03 0.05 0.06 0.06 0.07 0.07 0.06 0.05 0.05 0.05 0.06 0.05 0.09 0.15 0.21 0.32 0.53 0.75 0.37 0.21 0.48 0.37 0.12 0.08 0.04 0.04 0.02 0.01 0.03 0.03 0.00 0.00 0.01 0.00 0.00 0.00 0.00 0.00 0.00 0.00 0.01 0.00 0.00 0.02 0.05 0.02 0.03 0.09 0.09 0.04 0.03 0.01 0.00
0.07 0.10 0.11 0.10 0.07 0.05 0.06 0.07 0.07 0.07 0.08 0.09 0.10 0.09 0.12 0.17 0.27 0.63 0.67 0.35 0.40 0.63 0.35 0.30 0.15 0.04 0.05 0.08 0.06 0.02 0.00 0.01 0.03 0.02 0.02 0.02 0.01 0.00 0.00 0.00 0.00 0.00 0.00 0.00 0.00 0.00 0.00 0.00 0.00 0.01 0.00 0.01 0.01 0.01
0.18 0.17 0.12 0.06 0.04 0.05 0.05 0.05 0.06 0.06 0.08 0.11 0.15 0.17 0.14 0.14 0.24 0.63 0.68 0.37 0.21 0.25 0.23 0.13 0.08 0.06 0.02 0.04 0.08 0.06 0.05 0.05 0.09 0.12 0.07 0.03 0.01 0.01 0.00 0.00 0.00 0.00 0.00 0.00 0.00 0.00 0.00 0.00 0.00 0.00 0.00 0.01 0.00 0.01
0.28 0.16 0.03 0.01 0.01 0.01 0.05 0.11 0.12 0.12 0.10 0.10 0.14 0.20 0.21 0.16 0.31 0.61 0.63 0.32 0.11 0.10 0.15 0.06 0.03 0.01 0.01 0.01 0.03 0.07 0.10 0.13 0.17 0.19 0.18 0.03 0.00 0.02 0.05 0.07 0.02 0.01 0.02 0.04 0.00 0.01 0.01 0.00 0.00 0.00 0.00 0.00 0.00 0.00
0.16 0.06 0.03 0.04 0.03 0.04 0.07 0.10 0.05 0.07 0.11 0.14 0.13 0.21 0.22 0.20 0.54 1.09 1.38 0.81 0.18 0.16 0.14 0.08 0.03 0.02 0.02 0.01 0.03 0.05 0.15 0.22 0.30 0.33 0.21 0.06 0.05 0.08 0.03 0.01 0.02 0.03 0.04 0.03 0.01 0.01 0.01 0.01 0.00 0.00 0.01 0.02 0.02 0.02
0.16 0.11 0.10 0.09 0.05 0.03 0.03 0.03 0.02 0.02 0.09 0.16 0.30 0.27 0.23 0.33 0.74 0.65 0.59 0.38 0.13 0.16 0.22 0.19 0.06 0.09 0.09 0.06 0.05 0.05 0.11 0.28 0.35 0.45 0.39 0.17 0.08 0.25 0.23 0.17 0.06 0.04 0.04 0.04 0.03 0.04 0.04 0.03 0.02 0.02 0.02 0.02 0.02 0.01
0.17 0.12 0.12 0.10 0.11 0.08 0.07 0.08 0.08 0.11 0.20 0.39 0.52 0.42 0.36 0.49 0.53 0.34 0.10 0.01 0.06 0.21 0.22 0.40 0.06 0.15 0.09 0.08 0.10 0.09 0.15 0.22 0.16 0.18 0.26 0.22 0.19 0.34 0.40 0.12 0.05 0.02 0.02 0.03 0.03 0.04 0.02 0.02 0.02 0.02 0.02 0.02 0.01 0.01
0.07 0.10 0.13 0.11 0.12 0.18 0.25 0.27 0.30 0.35 0.53 0.64 0.48 0.40 0.56 0.53 0.53 0.54 0.09 0.04 0.11 0.16 0.15 0.26 0.12 0.22 0.10 0.11 0.08 0.16 0.08 0.15 0.11 0.13 0.07 0.17 0.34 0.66 0.47 0.21 0.08 0.03 0.02 0.01 0.01 0.04 0.07 0.09 0.10 0.10 0.09 0.08 0.09 0.07
0.07 0.06 0.07 0.08 0.08 0.09 0.16 0.24 0.31 0.41 0.46 0.29 0.28 0.44 0.69 0.42 0.39 0.27 0.31 0.41 0.39 0.18 0.07 0.08 0.13 0.14 0.10 0.12 0.05 0.15 0.12 0.08 0.08 0.09 0.12 0.17 0.19 0.17 0.06 0.05 0.11 0.16 0.15 0.10 0.07 0.06 0.07 0.09 0.10 0.15 0.16 0.17 0.15 0.13
0.07 0.06 0.06 0.07 0.10 0.10 0.07 0.08 0.09 0.08 0.06 0.10 0.13 0.41 0.70 0.45 0.21 0.28 0.38 0.33 0.30 0.18 0.04 0.04 0.07 0.02 0.08 0.14 0.02 0.06 0.22 0.06 0.05 0.11 0.16 0.19 0.24 0.21 0.06 0.01 0.00 0.02 0.04 0.08 0.10 0.10 0.09 0.09 0.09 0.10 0.09 0.07 0.04 0.03
0.05 0.03 0.01 0.01 0.01 0.01 0.01 0.01 0.00 0.00 0.01 0.01 0.10 0.37 0.28 0.10 0.18 0.16 0.12 0.11 0.10 0.07 0.02 0.02 0.02 0.01 0.05 0.14 0.05 0.06 0.27 0.20 0.10 0.15 0.11 0.10 0.12 0.08 0.05 0.03 0.02 0.03 0.02 0.03 0.03 0.05 0.07 0.08 0.09 0.10 0.09 0.09 0.08 0.06
0.00 0.00 0.00 0.00 0.00 0.00 0.00 0.00 0.02 0.01 0.01 0.00 0.01 0.01 0.00 0.02 0.02 0.01 0.02 0.04 0.08 0.08 0.04 0.02 0.03 0.05 0.09 0.10 0.18 0.12 0.10 0.26 0.17 0.12 0.11 0.09 0.07 0.04 0.03 0.02 0.03 0.03 0.04 0.05 0.08 0.09 0.09 0.10 0.11 0.11 0.12 0.15 0.12 0.11
0.00 0.00 0.00 0.00 0.00 0.00 0.00 0.00 0.00 0.00 0.00 0.00 0.00 0.00 0.00 0.00 0.03 0.05 0.04 0.04 0.07 0.07 0.07 0.04 0.05 0.09 0.25 0.31 0.47 0.32 0.19 0.10 0.09 0.10 0.05 0.10 0.08 0.07 0.05 0.05 0.04 0.07 0.08 0.08 0.12 0.12 0.12 0.11 0.13 0.15 0.17 0.21 0.14 0.18
0.00 0.00 0.00 0.00 0.00 0.00 0.00 0.00 0.00 0.00 0.00 0.00 0.00 0.02 0.03 0.08 0.05 0.06 0.06 0.06 0.06 0.07 0.07 0.08 0.10 0.08 0.21 0.28 0.24 0.17 0.10 0.06 0.04 0.07 0.09 0.14 0.11 0.09 0.11 0.11 0.12 0.13 0.14 0.15 0.17 0.14 0.17 0.16 0.12 0.17 0.21 0.19 0.15 0.17
0.00 0.00 0.00 0.00 0.00 0.00 0.00 0.00 0.00 0.00 0.00 0.00 0.02 0.03 0.02 0.02 0.03 0.03 0.04 0.04 0.05 0.07 0.04 0.05 0.04 0.03 0.15 0.17 0.18 0.18 0.11 0.08 0.10 0.11 0.18 0.16 0.14 0.18 0.21 0.23 0.24 0.25 0.24 0.24 0.22 0.20 0.18 0.17 0.14 0.16 0.16 0.14 0.14 0.11
0.00 0.00 0.00 0.00 0.00 0.00 0.00 0.00 0.00 0.00 0.00 0.04 0.06 0.08 0.06 0.06 0.08 0.10 0.08 0.05 0.05 0.03 0.01 0.01 0.02 0.05 0.08 0.09 0.12 0.15 0.24 0.26 0.22 0.21 0.20 0.20 0.21 0.26 0.26 0.24 0.25 0.23 0.21 0.20 0.19 0.18 0.17 0.16 0.12 0.08 0.10 0.15 0.10 0.08
0.00 0.00 0.00 0.00 0.00 0.00 0.00 0.00 0.00 0.02 0.06 0.12 0.12 0.14 0.10 0.10 0.08 0.06 0.04 0.03 0.01 0.00 0.00 0.01 0.02 0.03 0.07 0.07 0.06 0.09 0.13 0.17 0.21 0.21 0.25 0.27 0.24 0.23 0.21 0.19 0.20 0.17 0.15 0.14 0.10 0.09 0.07 0.05 0.04 0.05 0.04 0.02 0.01 0.01
0.00 0.00 0.00 0.00 0.00 0.00 0.00 0.00 0.00 0.03 0.08 0.10 0.10 0.06 0.06 0.07 0.06 0.05 0.04 0.01 0.00 0.00 0.00 0.00 0.01 0.02 0.05 0.05 0.05 0.06 0.06 0.06 0.10 0.15 0.17 0.18 0.17 0.16 0.14 0.12 0.10 0.09 0.08 0.08 0.06 0.05 0.04 0.03 0.02 0.02 0.01 0.00 0.01 0.01
0.00 0.00 0.00 0.00 0.00 0.00 0.00 0.00 0.00 0.00 0.04 0.06 0.04 0.03 0.03 0.04 0.02 0.00 0.00 0.00 0.00 0.00 0.00 0.02 0.06 0.06 0.06 0.09 0.04 0.04 0.05 0.04 0.03 0.04 0.07 0.09 0.09 0.07 0.08 0.07 0.06 0.06 0.04 0.03 0.02 0.01 0.00 0.00 0.00 0.00 0.00 0.00 0.00 0.01
0.00 0.00 0.00 0.00 0.00 0.00 0.00 0.00 0.00 0.00 0.02 0.04 0.02 0.01 0.01 0.00 0.00 0.00 0.00 0.00 0.00 0.02 0.08 0.11 0.10 0.13 0.06 0.06 0.04 0.02 0.03 0.02 0.02 0.02 0.03 0.05 0.06 0.04 0.03 0.02 0.01 0.00 0.00 0.00 0.00 0.00 0.00 0.01 0.01 0.00 0.00 0.00 0.00 0.00
0.00 0.00 0.00 0.00 0.00 0.00 0.00 0.00 0.00 0.00 0.00 0.00 0.01 0.01 0.00 0.00 0.00 0.00 0.00 0.01 0.06 0.08 0.10 0.07 0.07 0.06 0.03 0.03 0.04 0.02 0.02 0.01 0.01 0.01 0.01 0.01 0.01 0.01 0.01 0.00 0.00 0.00 0.00 0.00 0.00 0.00 0.00 0.00 0.00 0.00 0.00 0.00 0.00 0.00
0.00 0.00 0.00 0.00 0.00 0.00 0.01 0.00 0.00 0.01 0.00 0.00 0.00 0.00 0.00 0.00 0.00 0.00 0.00 0.04 0.11 0.09 0.04 0.01 0.02 0.01 0.01 0.01 0.00 0.00 0.00 0.00 0.00 0.00 0.00 0.00 0.00 0.00 0.00 0.00 0.00 0.00 0.00 0.00 0.00 0.00 0.00 0.00 0.00 0.00 0.00 0.00 0.00 0.00
0.00 0.00 0.00 0.00 0.00 0.00 0.00 0.00 0.00 0.00 0.00 0.00 0.00 0.00 0.00 0.00 0.00 0.00 0.01 0.04 0.09 0.07 0.02 0.01 0.00 0.00 0.00 0.00 0.00 0.00 0.00 0.00 0.00 0.00 0.00 0.00 0.00 0.00 0.00 0.00 0.00 0.00 0.00 0.00 0.00 0.00 0.00 0.00 0.00 0.00 0.00 0.00 0.00 0.00
0.00 0.00 0.00 0.00 0.00 0.00 0.00 0.00 0.00 0.00 0.00 0.00 0.00 0.00 0.00 0.00 0.00 0.00 0.00 0.04 0.04 0.02 0.01 0.00 0.00 0.00 0.00 0.00 0.00 0.00 0.00 0.00 0.00 0.00 0.00 0.00 0.00 0.00 0.00 0.00 0.00 0.00 0.00 0.00 0.00 0.00 0.00 0.00 0.00 0.00 0.00 0.00 0.00 0.00
0.00 0.00 0.00 0.00 0.00 0.00 0.00 0.00 0.00 0.00 0.00 0.00 0.00 0.00 0.00 0.00 0.00 0.01 0.01 0.01 0.01 0.01 0.01 0.00 0.00 0.00 0.00 0.00 0.00 0.00 0.00 0.00 0.00 0.00 0.00 0.00 0.00 0.00 0.00 0.00 0.00 0.00 0.00 0.00 0.00 0.00 0.00 0.00 0.00 0.00 0.00 0.00 0.00 0.00
0.00 0.00 0.00 0.00 0.00 0.00 0.00 0.00 0.00 0.00 0.00 0.00 0.00 0.00 0.00 0.00 0.00 0.02 0.04 0.02 0.00 0.01 0.00 0.00 0.00 0.00 0.00 0.00 0.00 0.00 0.00 0.00 0.00 0.00 0.00 0.00 0.00 0.00 0.00 0.00 0.00 0.00 0.00 0.00 0.00 0.00 0.00 0.00 0.00 0.00 0.00 0.00 0.00 0.00
0.00 0.00 0.00 0.00 0.00 0.00 0.00 0.00 0.00 0.01 0.01 0.00 0.00 0.00 0.00 0.00 0.02 0.03 0.01 0.02 0.00 0.00 0.00 0.00 0.00 0.00 0.00 0.00 0.00 0.00 0.00 0.00 0.00 0.00 0.00 0.00 0.00 0.00 0.00 0.00 0.00 0.00 0.00 0.00 0.00 0.00 0.00 0.00 0.00 0.00 0.00 0.00 0.00 0.01
0.00 0.00 0.00 0.00 0.00 0.00 0.01 0.01 0.01 0.01 0.01 0.00 0.00 0.01 0.02 0.03 0.03 0.02 0.02 0.01 0.00 0.00 0.00 0.00 0.00 0.00 0.00 0.00 0.00 0.00 0.00 0.00 0.00 0.00 0.00 0.00 0.00 0.00 0.00 0.00 0.00 0.00 0.00 0.00 0.00 0.01 0.01 0.00 0.00 0.00 0.00 0.00 0.01 0.00
0.00 0.00 0.00 0.00 0.00 0.01 0.03 0.01 0.01 0.00 0.00 0.00 0.00 0.02 0.02 0.06 0.08 0.02 0.01 0.01 0.00 0.00 0.00 0.00 0.00 0.00 0.00 0.00 0.00 0.00 0.00 0.00 0.00 0.00 0.00 0.00 0.00 0.00 0.00 0.00 0.00 0.00 0.00 0.00 0.00 0.00 0.01 0.00 0.00 0.00 0.00 0.00 0.00 0.00
0.00 0.00 0.00 0.00 0.01 0.01 0.01 0.00 0.00 0.00 0.00 0.00 0.00 0.00 0.01 0.03 0.03 0.03 0.02 0.01 0.00 0.00 0.00 0.00 0.00 0.00 0.00 0.00 0.00 0.00 0.00 0.00 0.00 0.00 0.00 0.00 0.00 0.00 0.00 0.00 0.00 0.00 0.00 0.00 0.00 0.00 0.00 0.00 0.00 0.00 0.00 0.00 0.00 0.00
0.00 0.00 0.00 0.00 0.02 0.01 0.02 0.01 0.00 0.00 0.00 0.00 0.00 0.00 0.00 0.00 0.00 0.01 0.02 0.02 0.01 0.00 0.00 0.00 0.00 0.00 0.00 0.00 0.00 0.00 0.00 0.00 0.00 0.00 0.00 0.00 0.00 0.00 0.00 0.00 0.00 0.00 0.00 0.00 0.00 0.00 0.00 0.00 0.00 0.00 0.00 0.00 0.00 0.00
0.00 0.00 0.00 0.00 0.01 0.01 0.01 0.00 0.00 0.00 0.00 0.00 0.01 0.01 0.01 0.00 0.00 0.01 0.02 0.01 0.01 0.00 0.00 0.00 0.00 0.00 0.00 0.00 0.00 0.00 0.00 0.00 0.00 0.00 0.00 0.00 0.00 0.00 0.00 0.00 0.00 0.00 0.00 0.00 0.00 0.00 0.00 0.00 0.00 0.00 0.00 0.00 0.00 0.00

GFSWCAN_prec_precacc12_072.txt.gz
Total_Precipitation_Accumulation
0.09 0.06 0.04 0.03 0.03 0.03 0.03 0.03 0.03 0.04 0.04 0.05 0.09 0.16 0.21 0.27 0.37 0.66 0.80 0.30 0.27 0.44 0.20 0.08 0.05 0.05 0.04 0.04 0.06 0.05 0.22 0.21 0.16 0.12 0.04 0.02 0.01 0.00 0.00 0.00 0.01 0.01 0.02 0.02 0.03 0.04 0.04 0.04 0.08 0.08 0.02 0.01 0.00 0.00
0.03 0.03 0.05 0.06 0.07 0.08 0.07 0.07 0.05 0.05 0.05 0.05 0.05 0.09 0.16 0.24 0.35 0.58 0.76 0.38 0.21 0.45 0.25 0.06 0.05 0.05 0.04 0.03 0.07 0.14 0.06 0.01 0.01 0.03 0.01 0.01 0.00 0.00 0.00 0.00 0.00 0.01 0.00 0.00 0.00 0.00 0.01 0.02 0.09 0.08 0.04 0.03 0.01 0.00
0.05 0.10 0.10 0.09 0.07 0.05 0.06 0.07 0.08 0.08 0.09 0.09 0.10 0.09 0.11 0.19 0.34 0.63 0.61 0.29 0.45 0.79 0.34 0.09 0.08 0.03 0.04 0.05 0.06 0.07 0.02 0.01 0.01 0.01 0.02 0.02 0.01 0.00 0.00 0.00 0.00 0.00 0.00 0.00 0.00 0.00 0.00 0.00 0.00 0.00 0.00 0.01 0.01 0.00
0.16 0.20 0.12 0.06 0.04 0.05 0.05 0.05 0.06 0.07 0.09 0.11 0.14 0.17 0.15 0.17 0.32 0.63 0.65 0.33 0.25 0.33 0.24 0.10 0.01 0.04 0.03 0.03 0.06 0.05 0.04 0.04 0.05 0.07 0.05 0.05 0.02 0.00 0.00 0.00 0.00 0.00 0.00 0.00 0.00 0.00 0.00 0.00 0.00 0.00 0.00 0.01 0.00 0.00
0.36 0.15 0.03 0.01 0.01 0.01 0.04 0.07 0.09 0.12 0.11 0.10 0.12 0.19 0.21 0.23 0.44 0.54 0.65 0.43 0.11 0.10 0.17 0.05 0.01 0.00 0.02 0.04 0.06 0.09 0.11 0.12 0.13 0.16 0.19 0.05 0.02 0.03 0.04 0.05 0.02 0.01 0.00 0.02 0.00 0.01 0.01 0.00 0.00 0.00 0.00 0.00 0.00 0.00
0.16 0.04 0.04 0.04 0.03 0.04 0.05 0.05 0.04 0.07 0.11 0.13 0.12 0.17 0.25 0.31 0.69 1.03 1.40 0.96 0.23 0.15 0.15 0.05 0.02 0.01 0.01 0.02 0.04 0.07 0.16 0.26 0.33 0.28 0.15 0.09 0.07 0.10 0.04 0.01 0.00 0.01 0.01 0.01 0.01 0.01 0.01 0.01 0.00 0.00 0.01 0.02 0.02 0.02
0.09 0.10 0.12 0.09 0.04 0.04 0.04 0.03 0.01 0.04 0.10 0.14 0.17 0.18 0.30 0.47 0.73 0.60 0.40 0.33 0.20 0.10 0.20 0.12 0.06 0.08 0.06 0.05 0.05 0.06 0.13 0.36 0.43 0.43 0.28 0.12 0.08 0.23 0.22 0.17 0.06 0.01 0.01 0.02 0.02 0.03 0.04 0.03 0.02 0.02 0.02 0.02 0.02 0.01
0.09 0.10 0.13 0.10 0.12 0.08 0.05 0.04 0.05 0.08 0.15 0.26 0.28 0.24 0.47 0.52 0.51 0.37 0.04 0.00 0.04 0.18 0.22 0.40 0.07 0.14 0.09 0.09 0.12 0.09 0.16 0.32 0.29 0.25 0.27 0.15 0.15 0.31 0.33 0.12 0.05 0.02 0.01 0.01 0.03 0.04 0.02 0.02 0.02 0.02 0.02 0.02 0.01 0.01
0.03 0.09 0.14 0.13 0.19 0.20 0.23 0.24 0.24 0.31 0.46 0.48 0.37 0.53 0.78 0.58 0.64 0.47 0.06 0.05 0.13 0.18 0.16 0.27 0.14 0.24 0.10 0.12 0.09 0.16 0.10 0.23 0.18 0.20 0.09 0.15 0.25 0.39 0.27 0.11 0.06 0.03 0.02 0.01 0.01 0.04 0.07 0.09 0.11 0.11 0.10 0.09 0.09 0.09
0.01 0.01 0.05 0.08 0.11 0.14 0.18 0.24 0.42 0.65 0.56 0.36 0.41 0.63 0.87 0.57 0.49 0.36 0.48 0.58 0.51 0.22 0.07 0.09 0.13 0.22 0.12 0.13 0.08 0.20 0.13 0.10 0.11 0.11 0.11 0.16 0.12 0.10 0.04 0.03 0.09 0.16 0.15 0.10 0.07 0.06 0.07 0.09 0.11 0.16 0.20 0.21 0.22 0.22
0.01 0.01 0.01 0.03 0.08 0.13 0.21 0.32 0.32 0.17 0.08 0.11 0.17 0.54 0.90 0.60 0.30 0.34 0.42 0.32 0.30 0.19 0.04 0.04 0.07 0.05 0.10 0.15 0.03 0.09 0.25 0.06 0.06 0.13 0.17 0.09 0.07 0.07 0.02 0.00 0.00 0.02 0.04 0.08 0.10 0.10 0.09 0.09 0.11 0.12 0.12 0.11 0.12 0.14
0.00 0.00 0.00 0.00 0.00 0.03 0.06 0.06 0.02 0.01 0.01 0.01 0.13 0.48 0.38 0.15 0.20 0.17 0.13 0.12 0.10 0.08 0.04 0.05 0.05 0.03 0.10 0.29 0.05 0.05 0.30 0.24 0.12 0.15 0.10 0.07 0.08 0.04 0.01 0.01 0.01 0.02 0.02 0.03 0.03 0.05 0.07 0.08 0.10 0.10 0.11 0.11 0.12 0.11
0.00 0.00 0.00 0.00 0.00 0.00 0.00 0.01 0.02 0.01 0.01 0.00 0.01 0.01 0.01 0.06 0.04 0.02 0.02 0.03 0.06 0.05 0.06 0.06 0.06 0.03 0.06 0.19 0.08 0.10 0.10 0.31 0.18 0.13 0.11 0.06 0.05 0.02 0.02 0.02 0.02 0.03 0.04 0.05 0.06 0.07 0.07 0.08 0.09 0.10 0.12 0.15 0.14 0.13
0.00 0.00 0.00 0.00 0.00 0.00 0.00 0.00 0.00 0.00 0.00 0.00 0.00 0.00 0.01 0.01 0.02 0.04 0.03 0.03 0.05 0.07 0.08 0.05 0.04 0.05 0.12 0.11 0.25 0.22 0.14 0.06 0.07 0.06 0.04 0.07 0.07 0.05 0.05 0.05 0.04 0.06 0.07 0.07 0.09 0.09 0.10 0.09 0.11 0.13 0.13 0.16 0.10 0.13
0.00 0.00 0.00 0.00 0.00 0.00 0.00 0.00 0.00 0.00 0.00 0.00 0.00 0.01 0.02 0.06 0.05 0.06 0.06 0.05 0.07 0.09 0.08 0.07 0.05 0.05 0.13 0.17 0.09 0.07 0.06 0.04 0.03 0.03 0.06 0.11 0.09 0.08 0.10 0.10 0.09 0.10 0.11 0.11 0.13 0.11 0.13 0.14 0.10 0.14 0.18 0.17 0.13 0.14
0.00 0.00 0.00 0.00 0.00 0.00 0.00 0.00 0.00 0.00 0.00 0.00 0.02 0.02 0.01 0.02 0.03 0.03 0.04 0.05 0.06 0.07 0.04 0.02 0.02 0.03 0.12 0.11 0.10 0.09 0.05 0.03 0.06 0.09 0.13 0.12 0.11 0.14 0.15 0.15 0.16 0.17 0.16 0.16 0.16 0.15 0.15 0.14 0.13 0.15 0.15 0.13 0.14 0.11
0.00 0.00 0.00 0.00 0.00 0.00 0.00 0.00 0.00 0.00 0.00 0.04 0.05 0.06 0.04 0.03 0.04 0.05 0.05 0.04 0.04 0.02 0.01 0.01 0.01 0.05 0.08 0.09 0.13 0.16 0.22 0.21 0.18 0.19 0.17 0.15 0.15 0.18 0.19 0.17 0.19 0.18 0.16 0.16 0.16 0.16 0.16 0.16 0.13 0.09 0.10 0.15 0.11 0.09
0.00 0.00 0.00 0.00 0.00 0.00 0.00 0.00 0.00 0.02 0.05 0.10 0.08 0.08 0.04 0.04 0.03 0.01 0.01 0.01 0.00 0.00 0.00 0.01 0.02 0.04 0.09 0.09 0.07 0.09 0.12 0.15 0.19 0.19 0.21 0.21 0.20 0.19 0.18 0.17 0.17 0.16 0.14 0.13 0.11 0.10 0.08 0.07 0.05 0.05 0.04 0.02 0.01 0.00
0.00 0.00 0.00 0.00 0.00 0.00 0.00 0.00 0.00 0.02 0.06 0.07 0.07 0.03 0.02 0.02 0.01 0.01 0.00 0.00 0.00 0.00 0.00 0.00 0.01 0.03 0.05 0.03 0.02 0.03 0.03 0.04 0.07 0.11 0.14 0.16 0.16 0.15 0.14 0.12 0.10 0.09 0.08 0.08 0.06 0.05 0.04 0.03 0.02 0.01 0.00 0.00 0.00 0.00
0.00 0.00 0.00 0.00 0.00 0.00 0.00 0.00 0.00 0.00 0.04 0.05 0.04 0.03 0.02 0.02 0.00 0.00 0.00 0.00 0.00 0.00 0.00 0.01 0.05 0.05 0.04 0.04 0.01 0.02 0.03 0.03 0.03 0.04 0.06 0.08 0.08 0.07 0.07 0.07 0.07 0.06 0.05 0.04 0.02 0.01 0.00 0.00 0.00 0.00 0.00 0.00 0.00 0.00
0.00 0.00 0.00 0.00 0.00 0.00 0.00 0.00 0.00 0.00 0.01 0.03 0.01 0.00 0.01 0.00 0.00 0.00 0.00 0.00 0.00 0.01 0.05 0.07 0.07 0.11 0.05 0.04 0.03 0.01 0.02 0.02 0.02 0.01 0.02 0.04 0.05 0.04 0.04 0.03 0.02 0.01 0.00 0.00 0.00 0.00 0.00 0.00 0.00 0.00 0.00 0.00 0.00 0.00
0.00 0.00 0.00 0.00 0.00 0.00 0.00 0.00 0.00 0.00 0.00 0.00 0.01 0.00 0.00 0.00 0.00 0.00 0.00 0.00 0.04 0.06 0.08 0.07 0.06 0.04 0.02 0.03 0.03 0.02 0.02 0.01 0.01 0.01 0.01 0.01 0.01 0.00 0.01 0.00 0.00 0.00 0.00 0.00 0.00 0.00 0.00 0.00 0.00 0.00 0.00 0.00 0.00 0.00
0.00 0.00 0.00 0.00 0.00 0.00 0.03 0.01 0.01 0.01 0.00 0.00 0.00 0.00 0.00 0.00 0.00 0.00 0.00 0.02 0.08 0.09 0.04 0.02 0.02 0.01 0.01 0.01 0.00 0.00 0.00 0.00 0.00 0.00 0.00 0.00 0.00 0.00 0.00 0.00 0.00 0.00 0.00 0.00 0.00 0.00 0.00 0.00 0.00 0.00 0.00 0.00 0.00 0.00
0.00 0.00 0.00 0.00 0.00 0.00 0.00 0.00 0.00 0.00 0.00 0.00 0.00 0.00 0.00 0.00 0.00 0.00 0.01 0.03 0.06 0.04 0.01 0.01 0.00 0.00 0.00 0.00 0.00 0.00 0.00 0.00 0.00 0.00 0.00 0.00 0.00 0.00 0.00 0.00 0.00 0.00 0.00 0.00 0.00 0.00 0.00 0.00 0.00 0.00 0.00 0.00 0.00 0.00
0.00 0.00 0.00 0.00 0.00 0.00 0.00 0.00 0.00 0.00 0.00 0.00 0.00 0.01 0.00 0.00 0.00 0.00 0.00 0.02 0.03 0.02 0.01 0.00 0.00 0.00 0.00 0.00 0.00 0.00 0.00 0.00 0.00 0.00 0.00 0.00 0.00 0.00 0.00 0.00 0.00 0.00 0.00 0.00 0.00 0.00 0.00 0.00 0.00 0.00 0.00 0.00 0.00 0.00
0.00 0.00 0.00 0.00 0.00 0.00 0.00 0.00 0.00 0.00 0.00 0.00 0.00 0.00 0.00 0.00 0.00 0.01 0.01 0.01 0.01 0.00 0.00 0.00 0.00 0.00 0.00 0.00 0.00 0.00 0.00 0.00 0.00 0.00 0.00 0.00 0.00 0.00 0.00 0.00 0.00 0.00 0.00 0.00 0.00 0.00 0.00 0.00 0.00 0.00 0.00 0.00 0.00 0.00
0.00 0.00 0.00 0.00 0.00 0.00 0.00 0.00 0.00 0.00 0.00 0.00 0.00 0.00 0.00 0.00 0.00 0.01 0.03 0.01 0.00 0.00 0.00 0.00 0.00 0.00 0.00 0.00 0.00 0.00 0.00 0.00 0.00 0.00 0.00 0.00 0.00 0.00 0.00 0.00 0.00 0.00 0.00 0.00 0.00 0.00 0.00 0.00 0.00 0.00 0.00 0.00 0.00 0.00
0.00 0.00 0.00 0.00 0.00 0.00 0.00 0.00 0.00 0.00 0.01 0.00 0.00 0.00 0.00 0.00 0.01 0.02 0.02 0.02 0.01 0.00 0.00 0.00 0.00 0.00 0.00 0.00 0.00 0.00 0.00 0.00 0.00 0.00 0.00 0.00 0.00 0.00 0.00 0.00 0.00 0.00 0.00 0.00 0.00 0.00 0.00 0.00 0.00 0.00 0.00 0.00 0.00 0.00
0.00 0.00 0.00 0.00 0.00 0.00 0.01 0.01 0.01 0.01 0.01 0.00 0.00 0.01 0.01 0.02 0.03 0.02 0.03 0.01 0.00 0.00 0.00 0.00 0.00 0.00 0.00 0.00 0.00 0.00 0.00 0.00 0.00 0.00 0.00 0.00 0.00 0.00 0.00 0.00 0.00 0.00 0.00 0.00 0.00 0.01 0.01 0.00 0.00 0.00 0.00 0.00 0.00 0.00
0.00 0.00 0.00 0.00 0.00 0.01 0.02 0.02 0.01 0.01 0.00 0.00 0.00 0.01 0.02 0.05 0.07 0.03 0.01 0.00 0.00 0.00 0.00 0.00 0.00 0.00 0.00 0.00 0.00 0.00 0.00 0.00 0.00 0.00 0.00 0.00 0.00 0.00 0.00 0.00 0.00 0.00 0.00 0.00 0.00 0.00 0.01 0.01 0.00 0.00 0.00 0.00 0.00 0.00
0.00 0.00 0.00 0.00 0.01 0.01 0.01 0.00 0.00 0.00 0.00 0.00 0.00 0.00 0.01 0.03 0.04 0.03 0.02 0.01 0.00 0.00 0.00 0.00 0.00 0.00 0.00 0.00 0.00 0.00 0.00 0.00 0.00 0.00 0.00 0.00 0.00 0.00 0.00 0.00 0.00 0.00 0.00 0.00 0.00 0.00 0.00 0.00 0.00 0.00 0.00 0.00 0.00 0.00
0.00 0.00 0.00 0.00 0.01 0.01 0.01 0.00 0.00 0.00 0.00 0.00 0.00 0.00 0.00 0.00 0.00 0.01 0.02 0.02 0.00 0.00 0.00 0.00 0.00 0.00 0.00 0.00 0.00 0.00 0.00 0.00 0.00 0.00 0.00 0.00 0.00 0.00 0.00 0.00 0.00 0.00 0.00 0.00 0.00 0.00 0.00 0.00 0.00 0.00 0.00 0.00 0.00 0.00
0.00 0.00 0.00 0.00 0.01 0.01 0.01 0.00 0.00 0.00 0.00 0.00 0.01 0.01 0.01 0.00 0.00 0.01 0.02 0.01 0.01 0.00 0.00 0.00 0.00 0.00 0.00 0.00 0.00 0.00 0.00 0.00 0.00 0.00 0.00 0.00 0.00 0.00 0.00 0.00 0.00 0.00 0.00 0.00 0.00 0.00 0.00 0.00 0.00 0.00 0.00 0.00 0.00 0.00

GFSWCAN_prec_precacc12_075.txt.gz
Total_Precipitation_Accumulation
0.07 0.05 0.04 0.03 0.03 0.04 0.05 0.06 0.05 0.04 0.05 0.06 0.08 0.15 0.23 0.30 0.39 0.65 0.75 0.21 0.22 0.35 0.18 0.07 0.05 0.07 0.07 0.07 0.15 0.19 0.28 0.26 0.26 0.21 0.09 0.06 0.03 0.02 0.00 0.03 0.04 0.03 0.03 0.03 0.05 0.06 0.01 0.00 0.01 0.03 0.03 0.00 0.00 0.00
0.03 0.03 0.03 0.05 0.07 0.08 0.08 0.08 0.07 0.08 0.07 0.05 0.05 0.09 0.16 0.27 0.39 0.67 0.97 0.41 0.17 0.34 0.22 0.06 0.04 0.04 0.07 0.09 0.16 0.22 0.12 0.05 0.03 0.07 0.05 0.05 0.04 0.02 0.01 0.01 0.01 0.05 0.01 0.02 0.00 0.00 0.00 0.00 0.04 0.01 0.00 0.01 0.00 0.00
0.05 0.07 0.09 0.09 0.07 0.05 0.05 0.06 0.07 0.08 0.09 0.09 0.11 0.09 0.12 0.20 0.35 0.71 0.80 0.35 0.45 0.78 0.34 0.08 0.05 0.02 0.03 0.05 0.09 0.12 0.06 0.08 0.06 0.05 0.10 0.08 0.06 0.02 0.02 0.00 0.00 0.00 0.00 0.03 0.03 0.01 0.01 0.00 0.00 0.00 0.00 0.00 0.00 0.00
0.13 0.18 0.11 0.04 0.04 0.05 0.05 0.05 0.06 0.07 0.08 0.09 0.14 0.19 0.15 0.18 0.33 0.64 0.65 0.36 0.30 0.38 0.26 0.10 0.00 0.02 0.02 0.04 0.06 0.03 0.04 0.07 0.10 0.12 0.09 0.08 0.04 0.01 0.01 0.00 0.00 0.00 0.00 0.00 0.00 0.00 0.00 0.00 0.00 0.00 0.00 0.01 0.00 0.00
0.32 0.13 0.02 0.01 0.02 0.01 0.03 0.04 0.04 0.06 0.08 0.08 0.13 0.21 0.22 0.24 0.46 0.59 0.50 0.39 0.13 0.13 0.22 0.05 0.01 0.00 0.01 0.04 0.07 0.12 0.13 0.14 0.20 0.23 0.22 0.06 0.04 0.04 0.03 0.06 0.03 0.01 0.00 0.01 0.01 0.01 0.00 0.00 0.00 0.00 0.00 0.00 0.00 0.00
0.13 0.03 0.03 0.04 0.03 0.03 0.04 0.04 0.04 0.06 0.09 0.11 0.11 0.17 0.27 0.34 0.71 1.03 1.30 0.87 0.25 0.16 0.16 0.09 0.02 0.00 0.00 0.02 0.06 0.12 0.19 0.31 0.43 0.35 0.19 0.09 0.07 0.11 0.08 0.03 0.01 0.03 0.01 0.00 0.01 0.00 0.00 0.00 0.00 0.00 0.01 0.02 0.01 0.01
0.07 0.08 0.08 0.06 0.04 0.03 0.03 0.03 0.02 0.03 0.08 0.13 0.14 0.16 0.35 0.49 0.64 0.53 0.31 0.27 0.23 0.14 0.18 0.10 0.05 0.03 0.01 0.06 0.08 0.12 0.21 0.45 0.50 0.50 0.31 0.12 0.10 0.18 0.17 0.19 0.10 0.01 0.00 0.00 0.00 0.00 0.00 0.00 0.01 0.01 0.01 0.01 0.01 0.01
0.08 0.08 0.10 0.08 0.15 0.07 0.03 0.04 0.05 0.08 0.12 0.20 0.21 0.27 0.52 0.47 0.50 0.43 0.04 0.01 0.03 0.15 0.16 0.25 0.08 0.13 0.05 0.09 0.14 0.13 0.25 0.33 0.30 0.25 0.17 0.08 0.12 0.25 0.26 0.08 0.04 0.02 0.01 0.00 0.00 0.01 0.01 0.00 0.00 0.01 0.01 0.01 0.01 0.01
0.03 0.07 0.11 0.09 0.15 0.17 0.16 0.15 0.18 0.28 0.40 0.40 0.47 0.80 0.87 0.56 0.67 0.38 0.08 0.07 0.09 0.15 0.12 0.27 0.16 0.25 0.09 0.12 0.11 0.19 0.11 0.20 0.17 0.21 0.07 0.08 0.16 0.18 0.15 0.06 0.04 0.02 0.01 0.01 0.01 0.02 0.04 0.07 0.09 0.09 0.09 0.09 0.10 0.09
0.00 0.02 0.05 0.12 0.11 0.13 0.17 0.24 0.52 0.71 0.59 0.45 0.56 0.67 0.78 0.55 0.33 0.35 0.57 0.55 0.45 0.23 0.09 0.10 0.18 0.24 0.13 0.14 0.11 0.23 0.13 0.14 0.15 0.14 0.13 0.18 0.14 0.09 0.02 0.01 0.03 0.08 0.10 0.09 0.06 0.06 0.06 0.09 0.10 0.15 0.19 0.21 0.22 0.23
0.00 0.01 0.05 0.16 0.20 0.24 0.36 0.52 0.41 0.19 0.10 0.13 0.27 0.57 0.92 0.62 0.31 0.37 0.45 0.32 0.33 0.23 0.05 0.07 0.09 0.06 0.12 0.18 0.06 0.12 0.22 0.08 0.10 0.14 0.19 0.13 0.07 0.07 0.01 0.00 0.00 0.01 0.01 0.03 0.09 0.10 0.09 0.09 0.10 0.12 0.12 0.12 0.13 0.15
0.00 0.00 0.01 0.05 0.10 0.16 0.16 0.08 0.03 0.02 0.04 0.02 0.15 0.56 0.48 0.26 0.28 0.20 0.16 0.14 0.12 0.09 0.05 0.06 0.05 0.04 0.10 0.31 0.08 0.07 0.30 0.26 0.14 0.13 0.11 0.08 0.07 0.03 0.01 0.01 0.01 0.01 0.02 0.02 0.03 0.05 0.07 0.08 0.08 0.09 0.10 0.11 0.11 0.11
0.01 0.00 0.00 0.00 0.01 0.00 0.00 0.01 0.02 0.02 0.01 0.00 0.01 0.02 0.02 0.06 0.05 0.03 0.03 0.03 0.04 0.04 0.06 0.06 0.07 0.05 0.12 0.30 0.08 0.08 0.09 0.31 0.17 0.12 0.11 0.06 0.04 0.02 0.02 0.01 0.02 0.02 0.03 0.04 0.06 0.07 0.07 0.08 0.08 0.08 0.09 0.11 0.10 0.10
0.05 0.01 0.00 0.02 0.01 0.00 0.00 0.00 0.00 0.00 0.00 0.00 0.00 0.00 0.01 0.01 0.02 0.03 0.03 0.03 0.04 0.06 0.08 0.05 0.02 0.01 0.05 0.09 0.12 0.14 0.09 0.03 0.06 0.05 0.04 0.07 0.05 0.04 0.04 0.04 0.03 0.05 0.06 0.06 0.08 0.09 0.09 0.09 0.10 0.10 0.10 0.12 0.07 0.09
0.01 0.01 0.00 0.00 0.00 0.00 0.00 0.00 0.00 0.00 0.00 0.00 0.00 0.01 0.02 0.05 0.05 0.06 0.05 0.05 0.06 0.09 0.08 0.05 0.02 0.01 0.04 0.06 0.03 0.04 0.05 0.04 0.03 0.04 0.06 0.08 0.07 0.08 0.09 0.09 0.09 0.09 0.10 0.10 0.11 0.10 0.12 0.12 0.09 0.12 0.15 0.15 0.11 0.12
0.00 0.00 0.00 0.00 0.00 0.00 0.00 0.00 0.00 0.00 0.00 0.00 0.01 0.02 0.01 0.03 0.05 0.04 0.05 0.06 0.07 0.07 0.03 0.01 0.01 0.02 0.07 0.07 0.06 0.06 0.04 0.03 0.05 0.08 0.11 0.10 0.10 0.13 0.14 0.14 0.15 0.16 0.15 0.14 0.14 0.14 0.14 0.14 0.12 0.14 0.14 0.12 0.12 0.10
0.00 0.00 0.00 0.00 0.00 0.00 0.00 0.00 0.00 0.00 0.00 0.01 0.02 0.02 0.03 0.03 0.04 0.06 0.06 0.05 0.04 0.02 0.01 0.01 0.01 0.05 0.08 0.07 0.11 0.14 0.18 0.17 0.16 0.17 0.17 0.17 0.15 0.16 0.16 0.15 0.16 0.16 0.15 0.15 0.14 0.15 0.14 0.15 0.13 0.10 0.10 0.14 0.10 0.07
0.00 0.00 0.00 0.00 0.00 0.00 0.00 0.00 0.00 0.01 0.02 0.04 0.03 0.04 0.02 0.03 0.03 0.02 0.01 0.00 0.00 0.00 0.00 0.01 0.02 0.04 0.08 0.09 0.07 0.08 0.11 0.13 0.14 0.14 0.16 0.16 0.16 0.15 0.15 0.14 0.15 0.14 0.13 0.13 0.12 0.11 0.10 0.09 0.07 0.06 0.04 0.02 0.00 0.00
0.00 0.00 0.00 0.00 0.00 0.00 0.00 0.00 0.00 0.01 0.03 0.03 0.03 0.01 0.01 0.01 0.00 0.00 0.00 0.00 0.00 0.00 0.00 0.00 0.01 0.04 0.05 0.04 0.02 0.03 0.03 0.04 0.05 0.09 0.10 0.12 0.13 0.13 0.13 0.12 0.11 0.11 0.10 0.10 0.08 0.07 0.06 0.04 0.02 0.01 0.00 0.00 0.00 0.00
0.00 0.00 0.00 0.00 0.00 0.00 0.00 0.00 0.00 0.00 0.02 0.02 0.02 0.01 0.01 0.01 0.00 0.00 0.00 0.00 0.00 0.00 0.01 0.02 0.05 0.06 0.04 0.04 0.02 0.02 0.02 0.03 0.02 0.03 0.05 0.07 0.07 0.07 0.08 0.07 0.07 0.07 0.06 0.05 0.03 0.01 0.00 0.00 0.00 0.00 0.00 0.00 0.00 0.00
0.00 0.00 0.00 0.00 0.00 0.00 0.00 0.00 0.00 0.00 0.01 0.02 0.01 0.00 0.01 0.00 0.00 0.00 0.00 0.00 0.00 0.01 0.04 0.07 0.07 0.09 0.04 0.04 0.03 0.01 0.02 0.02 0.02 0.02 0.02 0.03 0.04 0.04 0.04 0.03 0.03 0.01 0.01 0.00 0.00 0.00 0.00 0.00 0.00 0.00 0.00 0.00 0.00 0.00
0.00 0.00 0.00 0.00 0.00 0.00 0.00 0.00 0.00 0.00 0.00 0.01 0.01 0.00 0.00 0.00 0.00 0.00 0.00 0.00 0.03 0.06 0.07 0.06 0.04 0.03 0.01 0.02 0.02 0.01 0.02 0.01 0.01 0.01 0.01 0.01 0.01 0.00 0.00 0.00 0.00 0.00 0.00 0.00 0.00 0.00 0.00 0.00 0.00 0.00 0.00 0.00 0.00 0.00
0.00 0.00 0.00 0.00 0.00 0.00 0.03 0.02 0.01 0.01 0.00 0.00 0.00 0.00 0.00 0.00 0.00 0.00 0.00 0.02 0.07 0.08 0.04 0.02 0.02 0.01 0.01 0.01 0.00 0.00 0.00 0.00 0.00 0.00 0.00 0.00 0.00 0.00 0.00 0.00 0.00 0.00 0.00 0.00 0.00 0.00 0.00 0.00 0.00 0.00 0.00 0.00 0.00 0.00
0.00 0.00 0.00 0.00 0.00 0.00 0.00 0.00 0.00 0.00 0.00 0.00 0.00 0.00 0.00 0.00 0.00 0.00 0.01 0.01 0.04 0.04 0.01 0.01 0.00 0.00 0.00 0.00 0.00 0.00 0.00 0.00 0.00 0.00 0.00 0.00 0.00 0.00 0.00 0.00 0.00 0.00 0.00 0.00 0.00 0.00 0.00 0.00 0.00 0.00 0.00 0.00 0.00 0.00
0.00 0.00 0.00 0.00 0.00 0.00 0.00 0.00 0.00 0.00 0.00 0.00 0.00 0.00 0.00 0.00 0.00 0.00 0.00 0.01 0.02 0.01 0.01 0.00 0.00 0.00 0.00 0.00 0.00 0.00 0.00 0.00 0.00 0.00 0.00 0.00 0.00 0.00 0.00 0.00 0.00 0.00 0.00 0.00 0.00 0.00 0.00 0.00 0.00 0.00 0.00 0.00 0.00 0.00
0.00 0.00 0.00 0.00 0.00 0.00 0.00 0.00 0.00 0.00 0.00 0.00 0.00 0.00 0.00 0.00 0.00 0.00 0.01 0.01 0.01 0.00 0.00 0.00 0.00 0.00 0.00 0.00 0.00 0.00 0.00 0.00 0.00 0.00 0.00 0.00 0.00 0.00 0.00 0.00 0.00 0.00 0.00 0.00 0.00 0.00 0.00 0.00 0.00 0.00 0.00 0.00 0.00 0.00
0.00 0.00 0.00 0.00 0.00 0.00 0.00 0.00 0.00 0.00 0.00 0.00 0.00 0.00 0.00 0.00 0.00 0.01 0.02 0.01 0.00 0.00 0.00 0.00 0.00 0.00 0.00 0.00 0.00 0.00 0.00 0.00 0.00 0.00 0.00 0.00 0.00 0.00 0.00 0.00 0.00 0.00 0.00 0.00 0.00 0.00 0.00 0.00 0.00 0.00 0.00 0.00 0.00 0.01
0.00 0.00 0.00 0.00 0.00 0.00 0.00 0.00 0.00 0.00 0.01 0.00 0.00 0.00 0.00 0.00 0.01 0.02 0.02 0.02 0.01 0.00 0.00 0.00 0.00 0.00 0.00 0.00 0.00 0.00 0.00 0.00 0.00 0.00 0.00 0.00 0.00 0.00 0.00 0.00 0.00 0.00 0.00 0.00 0.00 0.00 0.00 0.00 0.00 0.00 0.00 0.00 0.00 0.01
0.00 0.00 0.00 0.00 0.00 0.00 0.00 0.01 0.01 0.01 0.01 0.00 0.00 0.00 0.01 0.02 0.04 0.02 0.03 0.01 0.00 0.00 0.00 0.00 0.00 0.00 0.00 0.00 0.00 0.00 0.00 0.00 0.00 0.00 0.00 0.00 0.00 0.00 0.00 0.00 0.00 0.00 0.00 0.00 0.01 0.01 0.01 0.01 0.00 0.00 0.01 0.00 0.00 0.00
0.00 0.00 0.00 0.00 0.00 0.01 0.02 0.02 0.01 0.01 0.01 0.00 0.00 0.01 0.02 0.04 0.07 0.04 0.02 0.01 0.00 0.00 0.00 0.00 0.00 0.00 0.00 0.00 0.00 0.00 0.00 0.00 0.00 0.00 0.00 0.00 0.00 0.00 0.01 0.00 0.00 0.00 0.00 0.00 0.00 0.00 0.01 0.01 0.01 0.00 0.00 0.00 0.00 0.00
0.00 0.00 0.00 0.00 0.01 0.02 0.02 0.01 0.00 0.00 0.00 0.00 0.00 0.00 0.02 0.03 0.03 0.02 0.01 0.01 0.00 0.00 0.00 0.00 0.00 0.00 0.00 0.00 0.00 0.00 0.00 0.00 0.00 0.00 0.00 0.00 0.00 0.00 0.01 0.01 0.00 0.00 0.00 0.00 0.00 0.00 0.00 0.00 0.00 0.00 0.00 0.00 0.00 0.00
0.00 0.00 0.00 0.00 0.01 0.01 0.01 0.01 0.00 0.00 0.00 0.00 0.00 0.00 0.00 0.00 0.01 0.01 0.02 0.02 0.01 0.00 0.00 0.00 0.00 0.00 0.00 0.00 0.00 0.00 0.00 0.00 0.00 0.00 0.00 0.00 0.00 0.00 0.00 0.00 0.00 0.00 0.00 0.00 0.00 0.00 0.00 0.00 0.00 0.00 0.00 0.00 0.00 0.00
0.00 0.00 0.00 0.00 0.00 0.01 0.01 0.00 0.00 0.00 0.00 0.00 0.00 0.01 0.00 0.00 0.00 0.01 0.01 0.01 0.01 0.01 0.01 0.00 0.00 0.00 0.00 0.00 0.00 0.00 0.00 0.00 0.00 0.00 0.00 0.00 0.00 0.00 0.00 0.00 0.00 0.00 0.00 0.00 0.00 0.00 0.00 0.00 0.00 0.00 0.00 0.00 0.00 0.00

GFSWCAN_prec_precacc12_078.txt.gz
Total_Precipitation_Accumulation
0.05 0.04 0.03 0.02 0.02 0.03 0.04 0.05 0.05 0.06 0.07 0.07 0.08 0.14 0.20 0.23 0.26 0.36 0.45 0.13 0.18 0.27 0.08 0.04 0.04 0.08 0.10 0.12 0.21 0.28 0.32 0.27 0.27 0.24 0.13 0.09 0.08 0.06 0.02 0.07 0.09 0.05 0.05 0.05 0.05 0.08 0.02 0.00 0.02 0.07 0.10 0.02 0.00 0.00
0.03 0.03 0.03 0.03 0.04 0.06 0.07 0.07 0.07 0.07 0.08 0.08 0.06 0.07 0.13 0.22 0.31 0.47 0.64 0.28 0.14 0.22 0.13 0.04 0.03 0.04 0.08 0.14 0.27 0.31 0.25 0.11 0.05 0.08 0.09 0.11 0.10 0.08 0.03 0.04 0.04 0.09 0.01 0.02 0.00 0.01 0.00 0.00 0.06 0.02 0.00 0.01 0.00 0.00
0.05 0.06 0.06 0.07 0.05 0.04 0.03 0.04 0.05 0.05 0.06 0.10 0.11 0.08 0.10 0.16 0.31 0.63 0.70 0.27 0.36 0.72 0.30 0.06 0.05 0.01 0.01 0.05 0.19 0.39 0.11 0.11 0.13 0.19 0.25 0.19 0.15 0.08 0.06 0.02 0.03 0.02 0.03 0.07 0.09 0.03 0.03 0.06 0.02 0.00 0.00 0.00 0.00 0.00
0.09 0.15 0.10 0.03 0.02 0.03 0.04 0.04 0.04 0.04 0.05 0.07 0.12 0.16 0.14 0.16 0.30 0.66 0.74 0.40 0.33 0.46 0.27 0.09 0.00 0.02 0.01 0.02 0.04 0.06 0.07 0.07 0.15 0.24 0.26 0.14 0.10 0.05 0.05 0.02 0.01 0.01 0.03 0.02 0.07 0.05 0.03 0.10 0.12 0.01 0.00 0.00 0.00 0.00
0.27 0.13 0.02 0.02 0.01 0.01 0.02 0.02 0.03 0.05 0.06 0.07 0.11 0.20 0.22 0.21 0.41 0.61 0.64 0.46 0.18 0.17 0.26 0.06 0.01 0.00 0.01 0.04 0.05 0.08 0.12 0.14 0.23 0.29 0.26 0.08 0.06 0.07 0.03 0.04 0.01 0.01 0.02 0.04 0.08 0.06 0.06 0.08 0.02 0.00 0.00 0.00 0.00 0.00
0.14 0.03 0.03 0.03 0.02 0.03 0.03 0.02 0.03 0.04 0.05 0.06 0.08 0.16 0.30 0.34 0.64 0.96 1.38 0.89 0.29 0.18 0.28 0.18 0.05 0.00 0.00 0.02 0.05 0.10 0.19 0.30 0.43 0.39 0.21 0.13 0.11 0.12 0.10 0.06 0.03 0.05 0.01 0.00 0.02 0.00 0.00 0.00 0.00 0.00 0.00 0.00 0.00 0.01
0.06 0.06 0.05 0.04 0.03 0.03 0.03 0.02 0.02 0.03 0.06 0.07 0.08 0.15 0.39 0.52 0.60 0.48 0.32 0.28 0.25 0.20 0.26 0.12 0.10 0.03 0.01 0.06 0.07 0.13 0.24 0.51 0.54 0.57 0.34 0.12 0.12 0.20 0.12 0.06 0.11 0.04 0.01 0.00 0.00 0.00 0.00 0.00 0.00 0.00 0.00 0.00 0.00 0.00
0.08 0.05 0.06 0.05 0.12 0.05 0.01 0.03 0.03 0.05 0.10 0.15 0.12 0.25 0.53 0.54 0.53 0.46 0.05 0.01 0.04 0.22 0.14 0.11 0.13 0.08 0.03 0.08 0.11 0.13 0.28 0.35 0.32 0.27 0.18 0.09 0.13 0.29 0.31 0.05 0.00 0.00 0.00 0.00 0.00 0.00 0.00 0.00 0.00 0.00 0.00 0.00 0.00 0.00
0.02 0.04 0.08 0.14 0.17 0.12 0.08 0.10 0.12 0.20 0.31 0.27 0.42 0.80 0.89 0.63 0.70 0.42 0.09 0.08 0.11 0.17 0.11 0.08 0.12 0.19 0.04 0.08 0.12 0.19 0.18 0.28 0.18 0.19 0.07 0.09 0.14 0.22 0.14 0.02 0.00 0.00 0.00 0.00 0.00 0.01 0.02 0.02 0.01 0.03 0.06 0.07 0.08 0.08
0.00 0.04 0.08 0.14 0.10 0.12 0.15 0.21 0.50 0.73 0.63 0.52 0.67 0.69 0.67 0.49 0.42 0.37 0.60 0.62 0.49 0.18 0.09 0.07 0.20 0.26 0.08 0.09 0.13 0.23 0.14 0.14 0.15 0.09 0.11 0.19 0.13 0.07 0.01 0.00 0.00 0.00 0.01 0.03 0.04 0.04 0.05 0.07 0.07 0.11 0.15 0.19 0.21 0.23
0.01 0.05 0.14 0.18 0.21 0.29 0.49 0.67 0.54 0.31 0.18 0.22 0.33 0.46 0.64 0.51 0.34 0.36 0.42 0.29 0.23 0.14 0.04 0.12 0.14 0.09 0.13 0.19 0.08 0.13 0.17 0.07 0.14 0.16 0.16 0.17 0.08 0.06 0.01 0.00 0.00 0.00 0.00 0.01 0.03 0.04 0.05 0.07 0.09 0.11 0.12 0.12 0.13 0.15
0.02 0.01 0.04 0.10 0.17 0.30 0.31 0.19 0.15 0.15 0.13 0.04 0.12 0.37 0.42 0.39 0.36 0.23 0.17 0.12 0.12 0.12 0.06 0.10 0.09 0.07 0.11 0.33 0.11 0.06 0.19 0.21 0.15 0.09 0.08 0.10 0.06 0.02 0.01 0.01 0.01 0.01 0.01 0.01 0.01 0.02 0.03 0.04 0.06 0.08 0.09 0.11 0.12 0.12
0.02 0.01 0.02 0.02 0.02 0.03 0.06 0.08 0.10 0.05 0.02 0.01 0.01 0.04 0.07 0.12 0.08 0.08 0.06 0.06 0.05 0.04 0.06 0.06 0.08 0.05 0.12 0.31 0.08 0.08 0.07 0.25 0.14 0.10 0.09 0.06 0.04 0.02 0.01 0.01 0.01 0.01 0.02 0.02 0.03 0.04 0.04 0.05 0.06 0.07 0.08 0.10 0.10 0.10
0.06 0.04 0.03 0.03 0.02 0.01 0.01 0.01 0.01 0.00 0.00 0.00 0.00 0.00 0.01 0.01 0.02 0.03 0.04 0.03 0.03 0.05 0.07 0.04 0.01 0.01 0.08 0.11 0.10 0.07 0.06 0.03 0.05 0.06 0.06 0.08 0.04 0.04 0.04 0.04 0.03 0.04 0.05 0.05 0.07 0.06 0.07 0.07 0.08 0.09 0.09 0.10 0.07 0.09
0.03 0.03 0.02 0.01 0.00 0.00 0.00 0.00 0.00 0.00 0.00 0.00 0.00 0.01 0.02 0.04 0.04 0.05 0.04 0.04 0.05 0.07 0.06 0.04 0.01 0.00 0.01 0.03 0.03 0.02 0.04 0.04 0.03 0.06 0.07 0.07 0.06 0.07 0.08 0.08 0.08 0.08 0.09 0.09 0.09 0.08 0.08 0.09 0.06 0.09 0.12 0.12 0.10 0.10
0.00 0.00 0.00 0.00 0.00 0.00 0.00 0.00 0.00 0.00 0.00 0.00 0.01 0.03 0.03 0.06 0.06 0.05 0.06 0.06 0.06 0.06 0.02 0.01 0.00 0.01 0.04 0.03 0.03 0.04 0.04 0.04 0.07 0.09 0.10 0.09 0.09 0.11 0.12 0.12 0.12 0.12 0.12 0.12 0.12 0.12 0.12 0.12 0.11 0.12 0.12 0.11 0.11 0.10
0.00 0.00 0.00 0.00 0.00 0.00 0.00 0.00 0.00 0.01 0.01 0.00 0.02 0.03 0.04 0.04 0.06 0.06 0.06 0.06 0.04 0.03 0.01 0.01 0.01 0.03 0.04 0.04 0.07 0.09 0.13 0.15 0.14 0.14 0.15 0.15 0.13 0.13 0.13 0.12 0.13 0.13 0.13 0.13 0.12 0.13 0.13 0.13 0.12 0.09 0.09 0.12 0.08 0.06
0.00 0.00 0.00 0.00 0.00 0.00 0.00 0.00 0.00 0.00 0.01 0.02 0.03 0.05 0.02 0.03 0.04 0.04 0.02 0.01 0.00 0.00 0.00 0.02 0.02 0.04 0.06 0.06 0.07 0.08 0.10 0.11 0.10 0.10 0.11 0.12 0.12 0.12 0.12 0.11 0.12 0.11 0.11 0.11 0.11 0.11 0.10 0.09 0.07 0.07 0.05 0.02 0.01 0.00
0.00 0.00 0.00 0.00 0.00 0.00 0.00 0.00 0.00 0.01 0.02 0.03 0.03 0.02 0.02 0.01 0.01 0.01 0.00 0.00 0.00 0.00 0.00 0.00 0.01 0.04 0.06 0.05 0.03 0.03 0.03 0.03 0.04 0.06 0.07 0.09 0.09 0.08 0.08 0.08 0.08 0.09 0.09 0.09 0.08 0.07 0.06 0.04 0.02 0.01 0.00 0.00 0.00 0.00
0.00 0.00 0.00 0.00 0.00 0.00 0.00 0.00 0.00 0.00 0.01 0.01 0.01 0.01 0.00 0.01 0.01 0.00 0.00 0.00 0.00 0.00 0.01 0.02 0.07 0.07 0.05 0.05 0.02 0.02 0.02 0.02 0.02 0.03 0.04 0.05 0.05 0.05 0.07 0.07 0.07 0.07 0.06 0.05 0.04 0.02 0.00 0.00 0.00 0.00 0.00 0.00 0.00 0.00
0.00 0.00 0.00 0.00 0.00 0.00 0.00 0.00 0.00 0.00 0.00 0.01 0.00 0.00 0.01 0.00 0.00 0.00 0.00 0.00 0.00 0.01 0.04 0.06 0.06 0.07 0.04 0.04 0.03 0.02 0.02 0.03 0.03 0.02 0.02 0.03 0.03 0.03 0.03 0.03 0.03 0.02 0.01 0.01 0.00 0.00 0.00 0.00 0.00 0.00 0.00 0.01 0.01 0.01
0.00 0.00 0.00 0.00 0.00 0.00 0.00 0.00 0.00 0.00 0.00 0.00 0.00 0.00 0.01 0.01 0.00 0.00 0.00 0.00 0.03 0.06 0.06 0.04 0.03 0.02 0.01 0.01 0.01 0.01 0.01 0.01 0.01 0.01 0.01 0.01 0.01 0.01 0.01 0.00 0.00 0.00 0.00 0.00 0.00 0.00 0.00 0.00 0.00 0.00 0.00 0.00 0.00 0.00
0.00 0.00 0.00 0.00 0.00 0.00 0.04 0.02 0.01 0.01 0.00 0.00 0.00 0.00 0.00 0.00 0.00 0.00 0.00 0.01 0.05 0.06 0.03 0.02 0.01 0.01 0.01 0.01 0.00 0.00 0.00 0.00 0.00 0.00 0.00 0.00 0.00 0.00 0.00 0.00 0.00 0.00 0.00 0.00 0.00 0.00 0.00 0.00 0.00 0.00 0.00 0.00 0.00 0.00
0.00 0.00 0.00 0.00 0.00 0.00 0.00 0.00 0.00 0.00 0.00 0.00 0.00 0.00 0.00 0.00 0.00 0.00 0.01 0.01 0.03 0.03 0.01 0.01 0.00 0.00 0.00 0.00 0.00 0.00 0.00 0.00 0.00 0.00 0.00 0.00 0.00 0.00 0.00 0.00 0.00 0.00 0.00 0.00 0.00 0.00 0.00 0.01 0.00 0.01 0.00 0.00 0.00 0.00
0.00 0.00 0.00 0.00 0.00 0.00 0.00 0.00 0.00 0.00 0.00 0.00 0.00 0.00 0.00 0.00 0.00 0.00 0.00 0.01 0.02 0.02 0.01 0.00 0.00 0.00 0.00 0.00 0.00 0.00 0.00 0.00 0.00 0.00 0.00 0.00 0.00 0.00 0.00 0.00 0.00 0.00 0.00 0.00 0.00 0.00 0.00 0.00 0.00 0.00 0.00 0.00 0.00 0.00
0.00 0.00 0.00 0.00 0.00 0.00 0.00 0.00 0.00 0.00 0.00 0.00 0.00 0.00 0.00 0.00 0.00 0.00 0.01 0.01 0.02 0.01 0.01 0.01 0.00 0.00 0.00 0.00 0.00 0.00 0.00 0.00 0.00 0.00 0.00 0.00 0.00 0.00 0.00 0.00 0.00 0.00 0.00 0.00 0.00 0.00 0.00 0.00 0.00 0.00 0.00 0.00 0.00 0.00
0.00 0.00 0.00 0.00 0.00 0.00 0.00 0.00 0.00 0.00 0.00 0.00 0.00 0.00 0.00 0.00 0.00 0.01 0.03 0.02 0.01 0.01 0.00 0.00 0.00 0.00 0.00 0.00 0.00 0.00 0.00 0.00 0.00 0.00 0.00 0.00 0.00 0.00 0.00 0.00 0.00 0.00 0.00 0.00 0.00 0.00 0.00 0.00 0.00 0.00 0.00 0.00 0.00 0.00
0.00 0.00 0.00 0.00 0.00 0.00 0.00 0.00 0.00 0.00 0.00 0.00 0.00 0.00 0.00 0.00 0.02 0.03 0.02 0.02 0.01 0.00 0.00 0.00 0.00 0.00 0.00 0.00 0.00 0.00 0.00 0.00 0.00 0.00 0.00 0.00 0.00 0.00 0.00 0.00 0.00 0.00 0.00 0.00 0.00 0.00 0.00 0.00 0.00 0.00 0.00 0.00 0.00 0.00
0.00 0.00 0.00 0.00 0.00 0.00 0.00 0.01 0.01 0.01 0.01 0.00 0.00 0.00 0.01 0.02 0.04 0.03 0.03 0.01 0.00 0.00 0.00 0.00 0.00 0.00 0.00 0.00 0.00 0.00 0.00 0.00 0.00 0.00 0.00 0.00 0.01 0.01 0.00 0.00 0.00 0.00 0.01 0.00 0.01 0.00 0.01 0.00 0.00 0.00 0.00 0.00 0.01 0.00
0.00 0.00 0.00 0.00 0.00 0.01 0.03 0.02 0.02 0.01 0.00 0.00 0.00 0.01 0.02 0.05 0.08 0.05 0.03 0.02 0.01 0.01 0.00 0.00 0.00 0.00 0.00 0.00 0.00 0.00 0.00 0.00 0.00 0.00 0.00 0.00 0.00 0.00 0.00 0.00 0.00 0.00 0.00 0.00 0.00 0.00 0.00 0.01 0.01 0.00 0.00 0.00 0.01 0.00
0.00 0.00 0.00 0.00 0.01 0.02 0.02 0.01 0.01 0.01 0.00 0.00 0.00 0.00 0.02 0.03 0.03 0.02 0.02 0.02 0.01 0.00 0.00 0.00 0.00 0.00 0.00 0.00 0.00 0.00 0.01 0.00 0.00 0.00 0.00 0.00 0.00 0.01 0.01 0.00 0.00 0.00 0.00 0.00 0.00 0.00 0.00 0.00 0.00 0.00 0.00 0.00 0.00 0.00
0.00 0.00 0.00 0.00 0.01 0.01 0.03 0.02 0.00 0.00 0.00 0.00 0.00 0.00 0.00 0.00 0.01 0.01 0.01 0.02 0.01 0.01 0.01 0.01 0.01 0.01 0.00 0.00 0.00 0.00 0.00 0.00 0.00 0.00 0.00 0.00 0.00 0.00 0.00 0.00 0.00 0.00 0.00 0.00 0.00 0.00 0.00 0.00 0.00 0.00 0.00 0.00 0.00 0.00
0.00 0.00 0.00 0.00 0.00 0.01 0.01 0.00 0.00 0.00 0.00 0.00 0.00 0.01 0.01 0.00 0.01 0.01 0.01 0.02 0.03 0.02 0.01 0.01 0.01 0.00 0.00 0.00 0.00 0.00 0.00 0.00 0.00 0.00 0.00 0.00 0.00 0.00 0.00 0.00 0.00 0.00 0.00 0.00 0.00 0.00 0.00 0.00 0.00 0.00 0.00 0.00 0.00 0.00

GFSWCAN_prec_precacc12_084.txt.gz
Total_Precipitation_Accumulation
0.03 0.03 0.03 0.02 0.01 0.02 0.03 0.04 0.05 0.05 0.06 0.07 0.07 0.07 0.07 0.10 0.19 0.40 0.28 0.05 0.10 0.11 0.01 0.00 0.01 0.06 0.07 0.11 0.22 0.30 0.15 0.29 0.23 0.16 0.09 0.08 0.08 0.08 0.10 0.16 0.16 0.11 0.08 0.05 0.05 0.07 0.02 0.00 0.02 0.08 0.13 0.03 0.00 0.00
0.03 0.03 0.02 0.01 0.02 0.02 0.02 0.04 0.05 0.06 0.07 0.07 0.06 0.05 0.06 0.10 0.15 0.37 0.53 0.14 0.10 0.09 0.02 0.01 0.00 0.01 0.04 0.12 0.23 0.31 0.47 0.34 0.20 0.14 0.11 0.13 0.14 0.14 0.09 0.10 0.18 0.36 0.14 0.05 0.01 0.02 0.06 0.10 0.09 0.06 0.05 0.08 0.07 0.02
0.02 0.02 0.02 0.02 0.02 0.02 0.01 0.01 0.02 0.03 0.04 0.08 0.08 0.07 0.07 0.07 0.12 0.32 0.45 0.15 0.27 0.41 0.15 0.01 0.01 0.00 0.00 0.01 0.15 0.33 0.18 0.30 0.44 0.34 0.28 0.23 0.20 0.13 0.11 0.07 0.22 0.45 0.34 0.13 0.18 0.15 0.12 0.24 0.19 0.03 0.07 0.03 0.02 0.04
0.01 0.02 0.03 0.02 0.02 0.03 0.03 0.03 0.02 0.02 0.02 0.03 0.05 0.08 0.08 0.08 0.12 0.30 0.42 0.23 0.24 0.29 0.11 0.01 0.00 0.00 0.00 0.01 0.03 0.05 0.12 0.18 0.22 0.26 0.32 0.28 0.16 0.10 0.21 0.14 0.17 0.20 0.27 0.35 0.44 0.25 0.21 0.25 0.66 0.24 0.02 0.01 0.02 0.00
0.03 0.04 0.04 0.04 0.04 0.05 0.04 0.03 0.01 0.01 0.01 0.03 0.06 0.09 0.10 0.11 0.15 0.27 0.35 0.16 0.10 0.10 0.14 0.05 0.01 0.00 0.00 0.00 0.02 0.06 0.07 0.10 0.19 0.20 0.16 0.07 0.07 0.12 0.11 0.18 0.21 0.05 0.17 0.42 0.50 0.53 0.38 0.37 0.31 0.29 0.14 0.03 0.00 0.00
0.07 0.06 0.05 0.03 0.03 0.03 0.02 0.01 0.01 0.01 0.01 0.04 0.07 0.09 0.14 0.19 0.25 0.66 1.10 0.54 0.13 0.08 0.25 0.19 0.06 0.01 0.01 0.01 0.02 0.05 0.09 0.16 0.27 0.27 0.13 0.08 0.13 0.24 0.25 0.23 0.27 0.12 0.03 0.04 0.29 0.31 0.37 0.32 0.14 0.04 0.01 0.00 0.00 0.00
0.03 0.02 0.02 0.02 0.02 0.02 0.01 0.01 0.01 0.01 0.01 0.04 0.07 0.10 0.23 0.30 0.32 0.42 0.29 0.15 0.08 0.20 0.47 0.21 0.11 0.08 0.02 0.06 0.05 0.09 0.16 0.26 0.23 0.27 0.18 0.06 0.11 0.21 0.30 0.18 0.17 0.09 0.03 0.01 0.02 0.08 0.05 0.03 0.03 0.00 0.00 0.00 0.00 0.00
0.01 0.01 0.02 0.02 0.09 0.05 0.02 0.03 0.02 0.03 0.03 0.05 0.10 0.17 0.32 0.53 0.55 0.26 0.03 0.01 0.05 0.36 0.27 0.16 0.15 0.19 0.07 0.09 0.10 0.11 0.20 0.16 0.14 0.12 0.07 0.04 0.10 0.18 0.25 0.10 0.01 0.00 0.00 0.00 0.00 0.00 0.00 0.00 0.00 0.00 0.00 0.00 0.00 0.00
0.01 0.02 0.04 0.10 0.07 0.03 0.03 0.09 0.08 0.11 0.12 0.10 0.36 0.69 1.02 0.92 0.50 0.25 0.08 0.05 0.10 0.22 0.15 0.07 0.12 0.29 0.08 0.07 0.09 0.08 0.13 0.17 0.10 0.08 0.03 0.08 0.11 0.22 0.16 0.02 0.00 0.00 0.00 0.00 0.00 0.00 0.00 0.00 0.00 0.00 0.00 0.00 0.00 0.01
0.01 0.05 0.07 0.09 0.01 0.01 0.07 0.22 0.28 0.28 0.31 0.47 0.75 0.74 0.69 0.42 0.27 0.31 0.75 0.79 0.64 0.26 0.12 0.08 0.14 0.32 0.11 0.06 0.10 0.12 0.09 0.12 0.13 0.06 0.07 0.17 0.15 0.06 0.01 0.00 0.00 0.00 0.00 0.00 0.00 0.01 0.01 0.01 0.01 0.01 0.01 0.01 0.01 0.02
0.05 0.12 0.17 0.17 0.15 0.19 0.35 0.47 0.35 0.32 0.39 0.55 0.64 0.36 0.31 0.38 0.33 0.50 0.64 0.45 0.33 0.14 0.04 0.10 0.09 0.08 0.16 0.12 0.10 0.09 0.11 0.07 0.12 0.11 0.07 0.19 0.09 0.06 0.01 0.00 0.00 0.00 0.00 0.00 0.01 0.01 0.01 0.02 0.02 0.01 0.01 0.02 0.02 0.02
0.05 0.04 0.07 0.13 0.23 0.40 0.42 0.40 0.36 0.33 0.31 0.19 0.15 0.25 0.40 0.53 0.38 0.30 0.28 0.11 0.09 0.07 0.02 0.06 0.09 0.13 0.14 0.17 0.12 0.04 0.10 0.11 0.12 0.15 0.24 0.17 0.09 0.02 0.00 0.00 0.00 0.00 0.00 0.00 0.00 0.01 0.01 0.01 0.01 0.01 0.02 0.03 0.04 0.04
0.06 0.03 0.08 0.11 0.19 0.26 0.31 0.35 0.31 0.10 0.06 0.04 0.03 0.16 0.23 0.25 0.13 0.25 0.14 0.07 0.05 0.02 0.02 0.01 0.11 0.09 0.08 0.15 0.12 0.05 0.05 0.19 0.13 0.16 0.12 0.08 0.05 0.01 0.01 0.00 0.00 0.00 0.01 0.01 0.01 0.01 0.02 0.02 0.02 0.02 0.03 0.04 0.04 0.05
0.10 0.08 0.09 0.10 0.12 0.17 0.23 0.25 0.13 0.04 0.03 0.02 0.02 0.03 0.06 0.03 0.02 0.05 0.05 0.02 0.01 0.02 0.02 0.01 0.03 0.04 0.07 0.11 0.09 0.07 0.01 0.00 0.05 0.07 0.06 0.08 0.02 0.02 0.02 0.02 0.01 0.02 0.01 0.02 0.02 0.02 0.03 0.03 0.04 0.04 0.05 0.05 0.04 0.05
0.08 0.06 0.05 0.07 0.06 0.05 0.03 0.02 0.00 0.00 0.00 0.00 0.00 0.01 0.01 0.03 0.05 0.05 0.03 0.02 0.03 0.05 0.02 0.03 0.01 0.00 0.02 0.04 0.03 0.02 0.02 0.02 0.03 0.06 0.07 0.05 0.02 0.03 0.04 0.03 0.03 0.04 0.04 0.04 0.04 0.03 0.04 0.04 0.03 0.05 0.06 0.06 0.05 0.05
0.01 0.01 0.01 0.01 0.01 0.01 0.01 0.00 0.00 0.00 0.00 0.00 0.01 0.04 0.07 0.07 0.08 0.06 0.06 0.06 0.08 0.08 0.02 0.02 0.00 0.00 0.01 0.01 0.00 0.01 0.02 0.04 0.06 0.06 0.05 0.03 0.04 0.05 0.06 0.06 0.06 0.06 0.05 0.05 0.05 0.05 0.05 0.05 0.05 0.06 0.07 0.06 0.06 0.05
0.00 0.00 0.00 0.00 0.00 0.00 0.00 0.00 0.00 0.03 0.01 0.01 0.02 0.03 0.05 0.04 0.06 0.07 0.07 0.07 0.07 0.05 0.01 0.01 0.00 0.01 0.00 0.00 0.01 0.01 0.04 0.06 0.05 0.07 0.07 0.06 0.06 0.06 0.05 0.06 0.07 0.06 0.06 0.06 0.06 0.06 0.06 0.06 0.06 0.05 0.06 0.07 0.04 0.02
0.00 0.00 0.00 0.00 0.00 0.00 0.00 0.00 0.00 0.00 0.02 0.03 0.04 0.06 0.02 0.04 0.05 0.05 0.03 0.00 0.00 0.00 0.00 0.00 0.00 0.00 0.01 0.02 0.03 0.04 0.05 0.04 0.03 0.03 0.03 0.04 0.04 0.05 0.04 0.04 0.05 0.04 0.04 0.05 0.05 0.05 0.06 0.05 0.04 0.04 0.03 0.01 0.00 0.00
0.00 0.00 0.00 0.00 0.00 0.00 0.00 0.00 0.00 0.01 0.03 0.04 0.04 0.04 0.02 0.03 0.02 0.02 0.00 0.00 0.00 0.00 0.00 0.00 0.00 0.02 0.03 0.04 0.03 0.02 0.02 0.02 0.02 0.02 0.02 0.02 0.02 0.02 0.02 0.02 0.03 0.03 0.04 0.04 0.04 0.04 0.04 0.04 0.03 0.02 0.01 0.01 0.00 0.00
0.00 0.00 0.00 0.00 0.00 0.00 0.00 0.00 0.00 0.00 0.02 0.02 0.02 0.01 0.02 0.03 0.02 0.00 0.00 0.00 0.00 0.00 0.01 0.02 0.07 0.09 0.06 0.06 0.02 0.02 0.01 0.01 0.01 0.01 0.02 0.02 0.02 0.03 0.04 0.03 0.02 0.02 0.02 0.03 0.02 0.02 0.01 0.00 0.00 0.00 0.00 0.00 0.01 0.01
0.00 0.00 0.00 0.00 0.00 0.00 0.00 0.00 0.00 0.00 0.00 0.00 0.00 0.00 0.02 0.01 0.00 0.00 0.00 0.00 0.00 0.01 0.04 0.06 0.06 0.07 0.03 0.03 0.02 0.01 0.03 0.05 0.05 0.02 0.01 0.02 0.01 0.01 0.01 0.02 0.04 0.04 0.03 0.02 0.00 0.00 0.00 0.00 0.00 0.00 0.00 0.00 0.00 0.00
0.00 0.00 0.00 0.00 0.00 0.00 0.00 0.00 0.00 0.00 0.00 0.00 0.01 0.01 0.02 0.01 0.00 0.00 0.00 0.00 0.03 0.08 0.05 0.03 0.02 0.01 0.00 0.00 0.00 0.00 0.00 0.00 0.00 0.00 0.00 0.01 0.01 0.01 0.01 0.01 0.01 0.00 0.00 0.01 0.00 0.00 0.00 0.00 0.00 0.00 0.00 0.00 0.00 0.00
0.00 0.00 0.00 0.00 0.00 0.00 0.01 0.02 0.01 0.01 0.01 0.00 0.00 0.00 0.00 0.00 0.00 0.00 0.00 0.01 0.05 0.04 0.01 0.00 0.00 0.00 0.00 0.00 0.00 0.00 0.00 0.00 0.00 0.00 0.00 0.00 0.00 0.00 0.00 0.00 0.00 0.00 0.00 0.00 0.00 0.00 0.00 0.00 0.00 0.00 0.00 0.01 0.01 0.00
0.00 0.00 0.00 0.00 0.00 0.01 0.00 0.00 0.00 0.00 0.00 0.00 0.00 0.00 0.00 0.00 0.00 0.00 0.01 0.02 0.02 0.01 0.00 0.00 0.00 0.00 0.00 0.00 0.00 0.00 0.00 0.00 0.00 0.00 0.00 0.00 0.00 0.00 0.00 0.00 0.00 0.00 0.00 0.00 0.00 0.00 0.00 0.00 0.00 0.01 0.00 0.01 0.01 0.01
0.00 0.00 0.00 0.00 0.00 0.00 0.00 0.00 0.00 0.00 0.00 0.00 0.00 0.00 0.00 0.00 0.00 0.00 0.00 0.02 0.02 0.02 0.01 0.00 0.01 0.01 0.00 0.00 0.00 0.00 0.00 0.00 0.00 0.00 0.00 0.00 0.00 0.00 0.00 0.00 0.00 0.00 0.00 0.01 0.01 0.00 0.00 0.00 0.00 0.00 0.00 0.00 0.00 0.00
0.00 0.00 0.00 0.00 0.00 0.00 0.00 0.00 0.00 0.00 0.00 0.00 0.00 0.00 0.00 0.00 0.00 0.01 0.02 0.02 0.02 0.01 0.02 0.02 0.01 0.00 0.00 0.00 0.00 0.00 0.00 0.00 0.00 0.00 0.00 0.00 0.00 0.00 0.01 0.00 0.00 0.01 0.00 0.00 0.00 0.01 0.01 0.00 0.00 0.00 0.00 0.00 0.00 0.00
0.00 0.00 0.00 0.00 0.00 0.00 0.00 0.00 0.00 0.00 0.00 0.00 0.00 0.00 0.00 0.00 0.00 0.03 0.07 0.02 0.01 0.02 0.01 0.00 0.00 0.00 0.00 0.00 0.00 0.00 0.00 0.00 0.00 0.00 0.00 0.00 0.00 0.00 0.00 0.00 0.00 0.01 0.00 0.00 0.00 0.00 0.01 0.01 0.00 0.00 0.00 0.00 0.01 0.01
0.00 0.00 0.00 0.00 0.00 0.00 0.00 0.00 0.00 0.00 0.00 0.00 0.00 0.00 0.00 0.00 0.03 0.05 0.05 0.04 0.00 0.00 0.00 0.00 0.00 0.00 0.00 0.00 0.00 0.00 0.00 0.00 0.00 0.00 0.00 0.00 0.00 0.00 0.00 0.00 0.00 0.00 0.00 0.00 0.00 0.00 0.00 0.00 0.00 0.00 0.00 0.00 0.00 0.00
0.00 0.00 0.00 0.00 0.00 0.00 0.00 0.00 0.00 0.00 0.00 0.00 0.00 0.00 0.01 0.04 0.05 0.04 0.02 0.00 0.00 0.00 0.00 0.00 0.00 0.00 0.00 0.00 0.00 0.00 0.00 0.00 0.00 0.00 0.00 0.01 0.02 0.01 0.00 0.00 0.00 0.00 0.01 0.01 0.01 0.00 0.00 0.00 0.00 0.00 0.00 0.00 0.00 0.00
0.00 0.00 0.00 0.00 0.00 0.01 0.04 0.02 0.02 0.01 0.00 0.00 0.01 0.02 0.04 0.09 0.10 0.04 0.02 0.02 0.02 0.01 0.01 0.00 0.01 0.01 0.00 0.00 0.00 0.00 0.00 0.00 0.00 0.00 0.00 0.01 0.01 0.01 0.00 0.00 0.00 0.00 0.00 0.00 0.01 0.00 0.00 0.00 0.00 0.00 0.01 0.01 0.01 0.01
0.00 0.00 0.00 0.00 0.02 0.04 0.04 0.02 0.02 0.01 0.01 0.01 0.00 0.00 0.02 0.05 0.05 0.05 0.04 0.03 0.01 0.00 0.01 0.01 0.01 0.01 0.00 0.00 0.01 0.01 0.01 0.00 0.00 0.00 0.00 0.00 0.00 0.01 0.00 0.00 0.00 0.00 0.00 0.00 0.00 0.00 0.00 0.00 0.00 0.00 0.00 0.00 0.00 0.00
0.00 0.00 0.00 0.00 0.03 0.03 0.06 0.03 0.01 0.01 0.01 0.00 0.01 0.01 0.01 0.00 0.01 0.02 0.02 0.03 0.03 0.02 0.01 0.01 0.01 0.01 0.00 0.00 0.00 0.00 0.00 0.00 0.00 0.00 0.00 0.00 0.00 0.00 0.00 0.00 0.00 0.00 0.00 0.00 0.00 0.00 0.00 0.00 0.00 0.00 0.00 0.00 0.00 0.00
0.00 0.00 0.00 0.00 0.00 0.00 0.01 0.01 0.00 0.00 0.00 0.01 0.01 0.02 0.01 0.00 0.01 0.02 0.01 0.02 0.06 0.02 0.02 0.01 0.01 0.00 0.00 0.00 0.00 0.00 0.00 0.00 0.00 0.00 0.00 0.00 0.00 0.00 0.00 0.00 0.00 0.00 0.00 0.00 0.00 0.00 0.00 0.00 0.00 0.00 0.00 0.00 0.00 0.00

GFSWCAN_prec_precacc12_087.txt.gz
Total_Precipitation_Accumulation
0.03 0.03 0.02 0.02 0.02 0.02 0.02 0.01 0.03 0.03 0.05 0.05 0.06 0.05 0.05 0.08 0.17 0.32 0.12 0.03 0.08 0.07 0.01 0.00 0.01 0.03 0.04 0.08 0.14 0.16 0.09 0.24 0.14 0.07 0.04 0.04 0.06 0.06 0.10 0.13 0.13 0.10 0.07 0.04 0.04 0.06 0.02 0.00 0.02 0.07 0.11 0.04 0.02 0.04
0.03 0.03 0.02 0.02 0.02 0.02 0.01 0.02 0.02 0.02 0.05 0.06 0.05 0.04 0.04 0.06 0.13 0.31 0.31 0.04 0.08 0.07 0.01 0.00 0.00 0.00 0.01 0.05 0.15 0.23 0.42 0.31 0.24 0.18 0.10 0.09 0.11 0.12 0.08 0.09 0.17 0.32 0.15 0.08 0.01 0.02 0.06 0.11 0.07 0.05 0.06 0.10 0.09 0.04
0.02 0.02 0.02 0.02 0.02 0.01 0.01 0.01 0.01 0.02 0.03 0.06 0.07 0.05 0.05 0.05 0.11 0.28 0.33 0.08 0.29 0.37 0.12 0.00 0.00 0.00 0.00 0.00 0.11 0.29 0.14 0.24 0.44 0.51 0.35 0.19 0.14 0.11 0.09 0.06 0.21 0.48 0.63 0.58 0.30 0.17 0.12 0.24 0.21 0.05 0.08 0.05 0.03 0.05
0.02 0.02 0.02 0.02 0.02 0.02 0.02 0.03 0.03 0.02 0.03 0.03 0.03 0.06 0.07 0.08 0.12 0.29 0.34 0.17 0.24 0.26 0.08 0.00 0.00 0.00 0.00 0.00 0.00 0.04 0.10 0.13 0.15 0.26 0.31 0.24 0.13 0.09 0.20 0.14 0.19 0.34 0.49 0.51 0.68 0.47 0.32 0.27 0.67 0.25 0.04 0.04 0.03 0.01
0.02 0.03 0.04 0.04 0.04 0.04 0.04 0.04 0.04 0.03 0.02 0.03 0.04 0.05 0.08 0.13 0.18 0.22 0.30 0.16 0.13 0.12 0.10 0.03 0.00 0.00 0.00 0.00 0.00 0.01 0.02 0.03 0.07 0.10 0.09 0.05 0.04 0.09 0.10 0.25 0.26 0.09 0.27 0.59 0.75 0.92 0.66 0.52 0.39 0.35 0.23 0.10 0.02 0.01
0.08 0.07 0.05 0.03 0.02 0.02 0.02 0.02 0.02 0.02 0.01 0.02 0.04 0.08 0.11 0.19 0.24 0.46 0.85 0.46 0.13 0.08 0.20 0.13 0.05 0.01 0.00 0.00 0.00 0.01 0.05 0.09 0.15 0.16 0.07 0.05 0.09 0.20 0.23 0.42 0.37 0.23 0.14 0.12 0.36 0.51 0.71 0.57 0.27 0.09 0.05 0.03 0.01 0.00
0.04 0.03 0.02 0.02 0.02 0.02 0.02 0.01 0.01 0.01 0.02 0.03 0.06 0.09 0.19 0.25 0.31 0.32 0.19 0.08 0.05 0.15 0.39 0.14 0.08 0.07 0.03 0.03 0.01 0.02 0.06 0.16 0.16 0.17 0.11 0.03 0.07 0.17 0.28 0.20 0.17 0.13 0.05 0.01 0.04 0.10 0.07 0.05 0.04 0.00 0.00 0.00 0.00 0.00
0.02 0.01 0.01 0.02 0.05 0.04 0.02 0.02 0.01 0.01 0.02 0.03 0.10 0.10 0.26 0.53 0.55 0.17 0.02 0.00 0.03 0.29 0.19 0.11 0.12 0.17 0.06 0.06 0.07 0.05 0.06 0.09 0.14 0.07 0.03 0.01 0.04 0.17 0.20 0.09 0.01 0.00 0.00 0.00 0.00 0.00 0.00 0.00 0.00 0.00 0.00 0.00 0.00 0.00
0.01 0.02 0.03 0.09 0.05 0.02 0.03 0.07 0.05 0.06 0.08 0.08 0.26 0.43 0.99 1.03 0.42 0.14 0.05 0.03 0.06 0.13 0.10 0.05 0.09 0.29 0.11 0.07 0.09 0.06 0.10 0.13 0.08 0.06 0.01 0.05 0.08 0.17 0.12 0.03 0.00 0.00 0.00 0.00 0.00 0.00 0.00 0.00 0.00 0.00 0.00 0.00 0.00 0.01
0.01 0.04 0.06 0.04 0.01 0.01 0.06 0.17 0.10 0.15 0.27 0.44 0.71 0.66 0.76 0.37 0.18 0.25 0.66 0.70 0.57 0.23 0.11 0.07 0.10 0.32 0.19 0.07 0.10 0.09 0.07 0.04 0.09 0.03 0.04 0.14 0.11 0.06 0.01 0.00 0.00 0.00 0.00 0.00 0.00 0.01 0.01 0.01 0.01 0.01 0.00 0.00 0.01 0.01
0.06 0.12 0.15 0.05 0.03 0.09 0.21 0.28 0.27 0.35 0.66 0.94 0.79 0.30 0.25 0.24 0.31 0.51 0.59 0.41 0.32 0.11 0.03 0.07 0.07 0.07 0.19 0.15 0.07 0.05 0.10 0.06 0.08 0.08 0.08 0.18 0.08 0.06 0.01 0.00 0.00 0.00 0.00 0.00 0.01 0.01 0.01 0.02 0.02 0.01 0.01 0.01 0.01 0.02
0.10 0.12 0.09 0.09 0.15 0.28 0.35 0.43 0.47 0.53 0.62 0.40 0.18 0.25 0.37 0.48 0.44 0.32 0.32 0.10 0.08 0.05 0.02 0.05 0.09 0.12 0.23 0.34 0.12 0.02 0.08 0.12 0.09 0.21 0.27 0.16 0.09 0.02 0.00 0.00 0.00 0.00 0.00 0.00 0.00 0.01 0.01 0.01 0.01 0.01 0.01 0.02 0.03 0.04
0.18 0.11 0.10 0.12 0.20 0.29 0.36 0.44 0.46 0.19 0.14 0.06 0.10 0.23 0.30 0.38 0.18 0.24 0.15 0.06 0.04 0.01 0.00 0.01 0.09 0.08 0.07 0.28 0.12 0.03 0.04 0.15 0.12 0.18 0.12 0.07 0.05 0.01 0.00 0.00 0.00 0.00 0.00 0.00 0.00 0.01 0.01 0.01 0.01 0.01 0.02 0.03 0.03 0.04
0.14 0.13 0.13 0.12 0.18 0.24 0.30 0.33 0.22 0.13 0.06 0.07 0.11 0.09 0.13 0.04 0.02 0.05 0.05 0.02 0.01 0.01 0.01 0.01 0.02 0.04 0.04 0.05 0.07 0.08 0.01 0.00 0.05 0.07 0.04 0.06 0.02 0.02 0.01 0.01 0.00 0.01 0.00 0.01 0.01 0.01 0.01 0.01 0.02 0.03 0.03 0.04 0.03 0.04
0.13 0.11 0.10 0.13 0.10 0.07 0.05 0.05 0.03 0.02 0.00 0.01 0.00 0.00 0.01 0.02 0.04 0.05 0.03 0.01 0.02 0.03 0.01 0.02 0.01 0.01 0.02 0.04 0.03 0.01 0.01 0.02 0.02 0.04 0.05 0.03 0.01 0.01 0.01 0.01 0.01 0.02 0.02 0.02 0.02 0.01 0.02 0.02 0.02 0.03 0.04 0.04 0.04 0.04
0.05 0.07 0.07 0.07 0.05 0.02 0.02 0.00 0.00 0.00 0.00 0.00 0.01 0.04 0.07 0.06 0.07 0.05 0.06 0.05 0.09 0.09 0.02 0.02 0.00 0.01 0.01 0.01 0.00 0.01 0.02 0.03 0.04 0.04 0.03 0.02 0.02 0.02 0.03 0.03 0.03 0.03 0.03 0.02 0.02 0.02 0.02 0.02 0.02 0.03 0.04 0.04 0.04 0.04
0.01 0.01 0.02 0.02 0.02 0.02 0.01 0.00 0.00 0.03 0.01 0.01 0.02 0.04 0.04 0.03 0.06 0.07 0.07 0.08 0.09 0.05 0.01 0.01 0.00 0.00 0.00 0.00 0.01 0.01 0.03 0.04 0.03 0.03 0.03 0.02 0.02 0.02 0.02 0.03 0.04 0.03 0.03 0.03 0.03 0.03 0.03 0.03 0.03 0.02 0.03 0.04 0.02 0.01
0.00 0.00 0.00 0.00 0.00 0.00 0.00 0.00 0.00 0.00 0.02 0.03 0.04 0.05 0.02 0.04 0.04 0.05 0.02 0.02 0.00 0.00 0.00 0.00 0.00 0.00 0.01 0.02 0.02 0.02 0.03 0.03 0.01 0.01 0.01 0.02 0.02 0.02 0.02 0.02 0.02 0.02 0.02 0.02 0.02 0.03 0.03 0.03 0.02 0.02 0.01 0.01 0.01 0.00
0.00 0.01 0.01 0.00 0.00 0.00 0.00 0.00 0.00 0.01 0.03 0.03 0.04 0.03 0.02 0.03 0.02 0.02 0.00 0.00 0.00 0.00 0.00 0.00 0.00 0.01 0.02 0.03 0.02 0.02 0.01 0.01 0.02 0.02 0.02 0.01 0.01 0.01 0.01 0.01 0.01 0.01 0.02 0.02 0.02 0.03 0.03 0.03 0.03 0.02 0.02 0.01 0.01 0.00
0.00 0.00 0.00 0.00 0.00 0.00 0.00 0.00 0.00 0.00 0.02 0.02 0.02 0.02 0.02 0.03 0.02 0.00 0.00 0.00 0.00 0.00 0.00 0.02 0.06 0.07 0.05 0.04 0.01 0.01 0.01 0.01 0.00 0.01 0.02 0.02 0.01 0.02 0.03 0.02 0.01 0.01 0.02 0.02 0.02 0.02 0.01 0.01 0.00 0.00 0.01 0.01 0.01 0.01
0.00 0.00 0.00 0.00 0.00 0.00 0.00 0.00 0.00 0.00 0.00 0.00 0.00 0.00 0.02 0.01 0.00 0.00 0.00 0.00 0.00 0.01 0.03 0.05 0.06 0.06 0.02 0.02 0.01 0.01 0.03 0.04 0.05 0.02 0.00 0.01 0.01 0.01 0.01 0.01 0.03 0.04 0.03 0.02 0.01 0.00 0.00 0.00 0.00 0.00 0.00 0.00 0.00 0.00
0.00 0.00 0.00 0.00 0.00 0.00 0.00 0.00 0.00 0.00 0.00 0.00 0.02 0.01 0.01 0.01 0.00 0.00 0.00 0.00 0.03 0.07 0.04 0.03 0.02 0.01 0.00 0.00 0.00 0.00 0.00 0.00 0.00 0.00 0.00 0.00 0.01 0.01 0.01 0.01 0.01 0.01 0.01 0.01 0.00 0.00 0.00 0.00 0.00 0.00 0.00 0.00 0.00 0.00
0.00 0.00 0.00 0.00 0.00 0.00 0.01 0.01 0.00 0.00 0.00 0.01 0.00 0.00 0.00 0.00 0.00 0.00 0.00 0.01 0.05 0.03 0.00 0.00 0.00 0.00 0.00 0.00 0.00 0.00 0.00 0.00 0.00 0.00 0.00 0.00 0.00 0.00 0.00 0.00 0.00 0.00 0.00 0.00 0.00 0.00 0.00 0.00 0.00 0.00 0.00 0.01 0.01 0.00
0.00 0.00 0.00 0.00 0.00 0.00 0.00 0.00 0.00 0.00 0.00 0.00 0.00 0.00 0.00 0.00 0.00 0.00 0.01 0.02 0.02 0.00 0.00 0.00 0.00 0.00 0.00 0.00 0.00 0.00 0.00 0.00 0.00 0.00 0.00 0.00 0.00 0.00 0.00 0.00 0.00 0.00 0.00 0.00 0.00 0.00 0.00 0.00 0.00 0.00 0.00 0.00 0.01 0.01
0.00 0.00 0.00 0.00 0.00 0.00 0.00 0.00 0.00 0.00 0.00 0.00 0.00 0.00 0.00 0.00 0.00 0.00 0.00 0.02 0.02 0.01 0.01 0.00 0.01 0.01 0.00 0.00 0.00 0.00 0.00 0.00 0.00 0.00 0.00 0.00 0.00 0.00 0.00 0.00 0.00 0.00 0.00 0.01 0.01 0.00 0.00 0.00 0.00 0.00 0.00 0.00 0.00 0.00
0.00 0.00 0.00 0.00 0.00 0.00 0.00 0.00 0.00 0.00 0.00 0.00 0.00 0.00 0.00 0.00 0.00 0.01 0.02 0.01 0.02 0.01 0.01 0.01 0.01 0.00 0.00 0.00 0.00 0.00 0.00 0.00 0.00 0.00 0.00 0.00 0.00 0.00 0.01 0.00 0.00 0.01 0.00 0.00 0.00 0.01 0.01 0.00 0.00 0.00 0.00 0.00 0.00 0.00
0.00 0.00 0.00 0.00 0.00 0.00 0.00 0.00 0.00 0.00 0.00 0.00 0.00 0.00 0.00 0.00 0.00 0.03 0.07 0.02 0.01 0.01 0.01 0.00 0.00 0.00 0.00 0.00 0.00 0.00 0.00 0.00 0.00 0.00 0.00 0.00 0.00 0.00 0.00 0.00 0.00 0.01 0.00 0.00 0.00 0.00 0.01 0.01 0.00 0.00 0.00 0.00 0.00 0.01
0.00 0.00 0.00 0.00 0.00 0.00 0.00 0.00 0.00 0.00 0.00 0.00 0.00 0.00 0.00 0.00 0.03 0.06 0.05 0.04 0.00 0.00 0.00 0.00 0.00 0.00 0.00 0.00 0.00 0.00 0.00 0.00 0.00 0.00 0.00 0.00 0.00 0.00 0.00 0.00 0.00 0.00 0.00 0.00 0.00 0.00 0.00 0.00 0.00 0.00 0.01 0.00 0.00 0.00
0.00 0.00 0.00 0.00 0.00 0.00 0.00 0.01 0.01 0.00 0.00 0.00 0.00 0.00 0.01 0.05 0.05 0.04 0.01 0.00 0.00 0.00 0.00 0.00 0.00 0.00 0.00 0.00 0.00 0.00 0.00 0.00 0.00 0.00 0.00 0.01 0.02 0.01 0.00 0.00 0.00 0.00 0.00 0.00 0.00 0.00 0.00 0.00 0.00 0.00 0.00 0.00 0.00 0.00
0.00 0.00 0.00 0.00 0.00 0.01 0.04 0.02 0.02 0.01 0.00 0.00 0.01 0.02 0.04 0.11 0.12 0.03 0.02 0.02 0.02 0.01 0.00 0.00 0.01 0.01 0.00 0.00 0.00 0.00 0.00 0.00 0.00 0.00 0.00 0.01 0.01 0.01 0.00 0.00 0.00 0.00 0.00 0.00 0.00 0.00 0.00 0.00 0.00 0.00 0.01 0.00 0.01 0.01
0.00 0.00 0.00 0.00 0.02 0.04 0.04 0.02 0.01 0.01 0.00 0.00 0.00 0.00 0.03 0.06 0.06 0.06 0.04 0.02 0.00 0.00 0.00 0.01 0.01 0.01 0.00 0.00 0.01 0.01 0.01 0.00 0.00 0.00 0.00 0.00 0.00 0.00 0.00 0.00 0.00 0.00 0.00 0.00 0.00 0.00 0.00 0.00 0.00 0.00 0.00 0.00 0.00 0.00
0.00 0.00 0.00 0.00 0.03 0.03 0.06 0.03 0.01 0.01 0.01 0.00 0.00 0.01 0.00 0.00 0.01 0.02 0.03 0.03 0.02 0.02 0.01 0.01 0.01 0.01 0.00 0.00 0.00 0.00 0.00 0.00 0.00 0.00 0.00 0.00 0.00 0.00 0.00 0.00 0.00 0.00 0.00 0.00 0.00 0.00 0.00 0.00 0.00 0.00 0.00 0.00 0.00 0.00
0.00 0.00 0.00 0.00 0.00 0.01 0.02 0.01 0.00 0.00 0.00 0.01 0.02 0.02 0.01 0.00 0.01 0.02 0.02 0.02 0.06 0.02 0.01 0.01 0.01 0.00 0.00 0.00 0.00 0.00 0.00 0.00 0.00 0.00 0.00 0.00 0.00 0.00 0.00 0.00 0.00 0.00 0.00 0.00 0.00 0.00 0.00 0.00 0.00 0.00 0.00 0.00 0.00 0.00

GFSWCAN_prec_precacc12_090.txt.gz
Total_Precipitation_Accumulation
0.04 0.03 0.03 0.02 0.02 0.02 0.02 0.02 0.02 0.01 0.01 0.02 0.04 0.04 0.04 0.06 0.14 0.32 0.15 0.02 0.04 0.03 0.00 0.00 0.00 0.00 0.01 0.03 0.08 0.08 0.02 0.20 0.12 0.03 0.00 0.00 0.01 0.02 0.08 0.10 0.08 0.07 0.04 0.02 0.02 0.04 0.01 0.00 0.01 0.03 0.04 0.02 0.02 0.05
0.03 0.03 0.02 0.02 0.02 0.02 0.02 0.02 0.02 0.01 0.01 0.01 0.02 0.04 0.04 0.06 0.12 0.31 0.31 0.05 0.06 0.06 0.00 0.00 0.00 0.00 0.00 0.00 0.04 0.14 0.29 0.25 0.23 0.21 0.09 0.05 0.04 0.06 0.05 0.06 0.15 0.29 0.15 0.09 0.03 0.02 0.06 0.11 0.06 0.04 0.06 0.10 0.09 0.05
0.03 0.02 0.02 0.02 0.02 0.02 0.02 0.02 0.01 0.01 0.02 0.02 0.03 0.05 0.05 0.05 0.09 0.25 0.30 0.11 0.36 0.31 0.06 0.00 0.00 0.00 0.00 0.00 0.01 0.01 0.10 0.21 0.37 0.38 0.22 0.14 0.08 0.05 0.04 0.05 0.18 0.46 0.61 0.61 0.53 0.39 0.13 0.19 0.20 0.05 0.10 0.06 0.03 0.06
0.02 0.03 0.02 0.03 0.03 0.04 0.04 0.03 0.02 0.02 0.02 0.02 0.03 0.05 0.07 0.07 0.11 0.22 0.22 0.11 0.25 0.17 0.02 0.00 0.00 0.00 0.00 0.00 0.00 0.01 0.06 0.12 0.10 0.12 0.14 0.20 0.08 0.05 0.16 0.12 0.19 0.34 0.47 0.57 0.84 0.58 0.37 0.28 0.64 0.27 0.06 0.05 0.03 0.01
0.02 0.03 0.05 0.05 0.06 0.06 0.05 0.04 0.04 0.04 0.04 0.05 0.05 0.05 0.07 0.13 0.19 0.24 0.20 0.08 0.11 0.09 0.06 0.02 0.00 0.00 0.00 0.00 0.00 0.00 0.00 0.01 0.02 0.05 0.07 0.04 0.02 0.07 0.10 0.26 0.27 0.12 0.30 0.59 0.77 0.99 0.79 0.64 0.58 0.50 0.31 0.16 0.08 0.04
0.05 0.06 0.05 0.04 0.04 0.03 0.02 0.02 0.03 0.03 0.04 0.06 0.06 0.06 0.07 0.21 0.30 0.33 0.67 0.39 0.17 0.13 0.12 0.04 0.01 0.00 0.00 0.00 0.00 0.00 0.00 0.02 0.04 0.08 0.04 0.01 0.05 0.18 0.20 0.42 0.41 0.35 0.21 0.17 0.41 0.63 0.90 0.78 0.44 0.19 0.12 0.06 0.03 0.02
0.04 0.03 0.03 0.02 0.02 0.01 0.01 0.01 0.02 0.03 0.04 0.05 0.06 0.07 0.12 0.23 0.32 0.21 0.12 0.04 0.05 0.13 0.32 0.10 0.02 0.05 0.03 0.02 0.00 0.00 0.01 0.07 0.08 0.08 0.03 0.01 0.03 0.09 0.25 0.19 0.12 0.13 0.07 0.02 0.05 0.12 0.09 0.07 0.06 0.00 0.00 0.00 0.00 0.00
0.02 0.02 0.02 0.02 0.02 0.02 0.02 0.02 0.04 0.04 0.04 0.05 0.10 0.10 0.21 0.47 0.51 0.14 0.01 0.00 0.03 0.20 0.14 0.06 0.04 0.14 0.06 0.05 0.05 0.02 0.01 0.04 0.09 0.07 0.03 0.01 0.03 0.11 0.15 0.08 0.01 0.00 0.00 0.00 0.00 0.00 0.00 0.00 0.00 0.00 0.00 0.00 0.00 0.00
0.02 0.01 0.02 0.01 0.01 0.01 0.02 0.05 0.06 0.09 0.09 0.08 0.22 0.39 0.96 1.01 0.33 0.11 0.04 0.03 0.04 0.09 0.05 0.02 0.04 0.26 0.11 0.07 0.08 0.04 0.01 0.02 0.03 0.04 0.01 0.03 0.05 0.07 0.07 0.02 0.01 0.00 0.00 0.00 0.00 0.00 0.00 0.00 0.00 0.00 0.00 0.00 0.00 0.01
0.02 0.02 0.03 0.02 0.01 0.01 0.05 0.14 0.07 0.10 0.19 0.38 0.74 0.76 0.87 0.34 0.06 0.20 0.56 0.51 0.41 0.16 0.06 0.04 0.04 0.30 0.19 0.06 0.10 0.05 0.03 0.02 0.05 0.02 0.03 0.11 0.08 0.05 0.01 0.00 0.00 0.00 0.00 0.00 0.00 0.01 0.02 0.01 0.01 0.00 0.01 0.01 0.01 0.01
0.06 0.08 0.05 0.02 0.02 0.05 0.10 0.14 0.17 0.27 0.67 1.08 0.92 0.35 0.24 0.16 0.22 0.42 0.45 0.29 0.20 0.06 0.01 0.02 0.02 0.04 0.17 0.16 0.06 0.03 0.08 0.05 0.03 0.02 0.07 0.12 0.05 0.06 0.01 0.00 0.00 0.00 0.00 0.00 0.01 0.01 0.02 0.02 0.02 0.01 0.01 0.01 0.01 0.01
0.11 0.14 0.10 0.08 0.10 0.16 0.22 0.35 0.41 0.58 0.75 0.51 0.26 0.28 0.35 0.39 0.44 0.32 0.28 0.07 0.04 0.01 0.00 0.02 0.05 0.09 0.22 0.43 0.08 0.02 0.10 0.17 0.06 0.21 0.28 0.11 0.08 0.02 0.00 0.00 0.00 0.00 0.00 0.00 0.00 0.00 0.00 0.01 0.01 0.00 0.01 0.01 0.02 0.03
0.23 0.23 0.18 0.14 0.21 0.27 0.31 0.42 0.48 0.31 0.19 0.18 0.23 0.32 0.30 0.39 0.22 0.20 0.14 0.03 0.02 0.01 0.00 0.01 0.10 0.08 0.07 0.46 0.17 0.01 0.01 0.13 0.13 0.18 0.11 0.04 0.04 0.01 0.00 0.00 0.00 0.00 0.00 0.00 0.00 0.01 0.01 0.01 0.01 0.01 0.01 0.02 0.01 0.02
0.39 0.26 0.15 0.12 0.20 0.25 0.31 0.43 0.34 0.32 0.22 0.33 0.31 0.22 0.17 0.06 0.02 0.04 0.02 0.01 0.00 0.00 0.00 0.00 0.02 0.03 0.01 0.10 0.15 0.06 0.01 0.00 0.04 0.05 0.02 0.04 0.02 0.01 0.00 0.00 0.00 0.00 0.00 0.00 0.00 0.00 0.01 0.01 0.01 0.01 0.02 0.02 0.01 0.02
0.36 0.13 0.11 0.14 0.13 0.13 0.16 0.27 0.18 0.15 0.11 0.10 0.02 0.00 0.01 0.01 0.04 0.04 0.02 0.00 0.02 0.02 0.00 0.00 0.01 0.02 0.01 0.02 0.01 0.01 0.01 0.01 0.01 0.02 0.03 0.02 0.01 0.01 0.00 0.00 0.00 0.00 0.00 0.00 0.00 0.00 0.01 0.01 0.01 0.02 0.02 0.02 0.02 0.03
0.16 0.12 0.14 0.10 0.08 0.06 0.13 0.12 0.05 0.03 0.00 0.00 0.01 0.03 0.05 0.03 0.06 0.04 0.04 0.04 0.08 0.08 0.01 0.01 0.01 0.01 0.01 0.00 0.00 0.01 0.01 0.01 0.02 0.02 0.02 0.01 0.01 0.01 0.01 0.01 0.01 0.01 0.00 0.00 0.00 0.00 0.01 0.01 0.01 0.02 0.02 0.02 0.02 0.02
0.04 0.08 0.13 0.06 0.05 0.04 0.01 0.01 0.03 0.02 0.00 0.00 0.02 0.03 0.03 0.02 0.04 0.06 0.06 0.08 0.10 0.05 0.01 0.00 0.00 0.00 0.00 0.00 0.00 0.00 0.01 0.01 0.02 0.02 0.02 0.00 0.01 0.01 0.01 0.01 0.01 0.01 0.01 0.01 0.01 0.01 0.01 0.01 0.01 0.01 0.02 0.02 0.01 0.00
0.01 0.02 0.03 0.02 0.01 0.02 0.01 0.00 0.01 0.00 0.01 0.03 0.03 0.04 0.01 0.03 0.03 0.04 0.03 0.04 0.01 0.00 0.00 0.00 0.00 0.00 0.00 0.01 0.01 0.01 0.03 0.03 0.01 0.01 0.01 0.01 0.01 0.01 0.00 0.00 0.01 0.00 0.00 0.01 0.01 0.01 0.01 0.02 0.01 0.01 0.01 0.01 0.01 0.00
0.01 0.02 0.01 0.00 0.01 0.02 0.02 0.00 0.00 0.00 0.03 0.03 0.04 0.03 0.01 0.03 0.02 0.01 0.00 0.00 0.00 0.00 0.00 0.00 0.00 0.00 0.01 0.01 0.01 0.01 0.01 0.01 0.02 0.02 0.02 0.01 0.00 0.00 0.00 0.00 0.01 0.01 0.01 0.01 0.01 0.02 0.03 0.03 0.02 0.03 0.02 0.02 0.01 0.00
0.04 0.02 0.00 0.00 0.00 0.00 0.00 0.00 0.00 0.00 0.01 0.01 0.02 0.02 0.02 0.03 0.02 0.00 0.00 0.00 0.00 0.00 0.00 0.01 0.04 0.05 0.03 0.03 0.01 0.00 0.00 0.00 0.00 0.01 0.02 0.02 0.01 0.01 0.02 0.01 0.00 0.01 0.01 0.02 0.02 0.02 0.01 0.01 0.00 0.00 0.01 0.01 0.02 0.02
0.00 0.00 0.00 0.00 0.00 0.00 0.00 0.00 0.00 0.00 0.00 0.00 0.00 0.00 0.02 0.00 0.00 0.00 0.00 0.00 0.00 0.01 0.02 0.04 0.05 0.05 0.01 0.01 0.00 0.00 0.02 0.03 0.03 0.01 0.00 0.01 0.01 0.00 0.01 0.01 0.02 0.03 0.02 0.01 0.00 0.01 0.00 0.00 0.00 0.00 0.00 0.00 0.00 0.00
0.00 0.00 0.00 0.00 0.00 0.00 0.00 0.00 0.00 0.00 0.00 0.01 0.02 0.01 0.01 0.01 0.00 0.00 0.00 0.00 0.02 0.05 0.03 0.02 0.01 0.00 0.00 0.00 0.00 0.00 0.00 0.00 0.00 0.00 0.00 0.00 0.01 0.01 0.00 0.01 0.01 0.01 0.01 0.01 0.00 0.00 0.00 0.00 0.00 0.00 0.00 0.00 0.00 0.00
0.00 0.00 0.00 0.00 0.00 0.00 0.00 0.00 0.00 0.00 0.00 0.01 0.00 0.00 0.00 0.00 0.00 0.00 0.00 0.01 0.04 0.02 0.00 0.00 0.00 0.00 0.00 0.00 0.00 0.00 0.00 0.00 0.00 0.00 0.00 0.00 0.00 0.00 0.00 0.00 0.00 0.00 0.00 0.00 0.00 0.00 0.00 0.00 0.00 0.00 0.00 0.01 0.00 0.00
0.00 0.00 0.00 0.00 0.00 0.00 0.00 0.00 0.00 0.00 0.00 0.00 0.00 0.00 0.00 0.00 0.00 0.00 0.01 0.01 0.02 0.00 0.00 0.00 0.00 0.00 0.00 0.00 0.00 0.00 0.00 0.00 0.00 0.00 0.00 0.00 0.00 0.00 0.00 0.00 0.00 0.00 0.00 0.00 0.00 0.00 0.00 0.00 0.00 0.00 0.00 0.01 0.01 0.01
0.00 0.00 0.00 0.00 0.00 0.00 0.00 0.00 0.00 0.00 0.00 0.00 0.00 0.00 0.00 0.00 0.00 0.00 0.00 0.01 0.01 0.01 0.00 0.00 0.01 0.01 0.00 0.00 0.00 0.00 0.00 0.00 0.00 0.00 0.00 0.00 0.00 0.00 0.00 0.00 0.00 0.00 0.00 0.00 0.01 0.00 0.00 0.00 0.00 0.00 0.00 0.00 0.00 0.00
0.00 0.00 0.00 0.00 0.00 0.00 0.00 0.00 0.00 0.00 0.00 0.00 0.00 0.00 0.00 0.00 0.00 0.01 0.01 0.01 0.01 0.00 0.00 0.01 0.01 0.00 0.00 0.00 0.00 0.00 0.00 0.00 0.00 0.00 0.00 0.00 0.00 0.00 0.00 0.00 0.00 0.00 0.00 0.00 0.00 0.00 0.01 0.00 0.00 0.00 0.00 0.00 0.00 0.00
0.00 0.00 0.00 0.00 0.00 0.00 0.00 0.00 0.00 0.00 0.00 0.00 0.00 0.00 0.00 0.00 0.00 0.03 0.06 0.01 0.00 0.01 0.00 0.00 0.00 0.00 0.00 0.00 0.00 0.00 0.00 0.00 0.00 0.00 0.00 0.00 0.00 0.00 0.00 0.00 0.00 0.01 0.00 0.00 0.00 0.00 0.01 0.01 0.00 0.00 0.00 0.00 0.01 0.01
0.00 0.00 0.00 0.00 0.00 0.00 0.00 0.00 0.00 0.00 0.00 0.00 0.00 0.00 0.00 0.00 0.02 0.05 0.04 0.03 0.00 0.00 0.00 0.00 0.00 0.00 0.00 0.00 0.00 0.00 0.00 0.00 0.00 0.00 0.00 0.00 0.00 0.00 0.00 0.00 0.00 0.00 0.00 0.00 0.00 0.00 0.00 0.00 0.00 0.00 0.00 0.00 0.00 0.00
0.00 0.00 0.00 0.00 0.00 0.00 0.00 0.01 0.01 0.00 0.01 0.00 0.00 0.01 0.01 0.04 0.04 0.04 0.02 0.00 0.00 0.00 0.00 0.00 0.00 0.00 0.00 0.00 0.00 0.00 0.00 0.00 0.00 0.00 0.00 0.01 0.01 0.00 0.00 0.00 0.00 0.00 0.00 0.00 0.00 0.00 0.01 0.00 0.00 0.00 0.00 0.00 0.00 0.00
0.00 0.00 0.00 0.00 0.00 0.01 0.03 0.02 0.01 0.01 0.00 0.00 0.01 0.02 0.04 0.11 0.13 0.03 0.01 0.01 0.01 0.00 0.00 0.00 0.00 0.00 0.00 0.00 0.00 0.00 0.00 0.00 0.00 0.00 0.00 0.00 0.00 0.01 0.00 0.00 0.00 0.00 0.00 0.00 0.00 0.00 0.00 0.00 0.00 0.00 0.00 0.00 0.00 0.00
0.00 0.00 0.00 0.00 0.02 0.04 0.04 0.01 0.01 0.00 0.00 0.00 0.00 0.00 0.03 0.08 0.08 0.07 0.04 0.01 0.00 0.00 0.00 0.01 0.01 0.00 0.00 0.00 0.00 0.00 0.00 0.00 0.00 0.00 0.00 0.00 0.00 0.00 0.00 0.00 0.00 0.00 0.00 0.00 0.00 0.00 0.00 0.00 0.00 0.00 0.00 0.00 0.00 0.00
0.00 0.00 0.00 0.00 0.02 0.03 0.04 0.01 0.00 0.01 0.00 0.00 0.00 0.00 0.00 0.00 0.01 0.02 0.03 0.02 0.01 0.01 0.00 0.00 0.00 0.00 0.00 0.00 0.00 0.00 0.00 0.00 0.00 0.00 0.00 0.00 0.00 0.00 0.00 0.00 0.00 0.00 0.00 0.00 0.00 0.00 0.00 0.00 0.00 0.00 0.00 0.00 0.00 0.00
0.00 0.00 0.00 0.00 0.00 0.01 0.02 0.01 0.00 0.00 0.00 0.01 0.01 0.02 0.01 0.00 0.01 0.01 0.02 0.02 0.04 0.01 0.01 0.00 0.00 0.00 0.00 0.00 0.00 0.00 0.00 0.00 0.00 0.00 0.00 0.00 0.00 0.00 0.00 0.00 0.00 0.00 0.00 0.00 0.00 0.00 0.00 0.00 0.00 0.00 0.00 0.00 0.00 0.00

GFSWCAN_prec_precacc12_093.txt.gz
Total_Precipitation_Accumulation
0.05 0.06 0.04 0.02 0.02 0.02 0.02 0.02 0.03 0.02 0.02 0.01 0.02 0.02 0.03 0.04 0.09 0.25 0.16 0.03 0.05 0.02 0.00 0.00 0.00 0.00 0.00 0.01 0.03 0.02 0.00 0.00 0.03 0.03 0.00 0.00 0.00 0.00 0.00 0.00 0.02 0.06 0.03 0.01 0.01 0.03 0.01 0.00 0.00 0.02 0.01 0.01 0.02 0.05
0.04 0.04 0.03 0.02 0.02 0.02 0.02 0.02 0.03 0.02 0.01 0.00 0.01 0.01 0.02 0.05 0.09 0.22 0.24 0.05 0.06 0.09 0.01 0.00 0.00 0.00 0.00 0.00 0.00 0.00 0.06 0.11 0.16 0.20 0.08 0.03 0.01 0.01 0.01 0.01 0.06 0.21 0.16 0.08 0.04 0.06 0.10 0.06 0.03 0.02 0.03 0.05 0.06 0.06
0.04 0.04 0.02 0.02 0.02 0.02 0.02 0.02 0.02 0.02 0.01 0.01 0.01 0.02 0.02 0.04 0.09 0.22 0.25 0.10 0.40 0.34 0.05 0.00 0.00 0.00 0.00 0.00 0.00 0.00 0.00 0.09 0.31 0.37 0.19 0.09 0.05 0.01 0.01 0.02 0.10 0.36 0.51 0.57 0.52 0.45 0.17 0.08 0.10 0.05 0.10 0.17 0.08 0.06
0.03 0.03 0.03 0.02 0.02 0.03 0.03 0.03 0.03 0.02 0.02 0.01 0.02 0.03 0.04 0.07 0.11 0.23 0.22 0.08 0.25 0.24 0.03 0.00 0.00 0.00 0.00 0.00 0.00 0.00 0.00 0.04 0.07 0.11 0.06 0.05 0.02 0.01 0.01 0.06 0.17 0.30 0.37 0.49 0.81 0.56 0.31 0.19 0.34 0.29 0.13 0.10 0.07 0.02
0.03 0.03 0.03 0.03 0.05 0.05 0.06 0.05 0.05 0.04 0.03 0.03 0.03 0.04 0.06 0.12 0.19 0.26 0.19 0.07 0.11 0.13 0.06 0.01 0.00 0.00 0.00 0.00 0.00 0.00 0.00 0.00 0.01 0.03 0.04 0.02 0.00 0.05 0.07 0.22 0.23 0.11 0.25 0.54 0.63 0.78 0.64 0.54 0.61 0.57 0.42 0.24 0.11 0.06
0.06 0.04 0.03 0.04 0.04 0.04 0.04 0.04 0.03 0.03 0.04 0.06 0.07 0.08 0.07 0.21 0.31 0.25 0.46 0.28 0.17 0.21 0.16 0.01 0.00 0.00 0.00 0.00 0.00 0.00 0.00 0.00 0.02 0.06 0.06 0.02 0.01 0.12 0.18 0.37 0.35 0.41 0.27 0.20 0.34 0.60 0.87 0.83 0.51 0.27 0.18 0.10 0.03 0.02
0.04 0.04 0.03 0.02 0.02 0.02 0.02 0.02 0.01 0.03 0.04 0.06 0.09 0.08 0.10 0.21 0.28 0.16 0.09 0.01 0.06 0.15 0.27 0.03 0.00 0.00 0.02 0.00 0.00 0.00 0.00 0.04 0.05 0.05 0.03 0.01 0.00 0.06 0.19 0.12 0.09 0.14 0.06 0.03 0.05 0.10 0.09 0.09 0.07 0.01 0.00 0.00 0.00 0.00
0.03 0.03 0.03 0.02 0.02 0.01 0.01 0.02 0.03 0.03 0.05 0.08 0.17 0.12 0.17 0.37 0.52 0.24 0.04 0.01 0.02 0.10 0.06 0.02 0.00 0.05 0.01 0.02 0.03 0.01 0.00 0.03 0.06 0.05 0.02 0.01 0.01 0.07 0.09 0.03 0.00 0.00 0.00 0.00 0.00 0.00 0.01 0.00 0.00 0.00 0.00 0.00 0.00 0.00
0.03 0.02 0.02 0.01 0.01 0.01 0.01 0.02 0.04 0.08 0.11 0.15 0.33 0.46 0.78 0.77 0.27 0.12 0.06 0.03 0.02 0.02 0.02 0.01 0.00 0.17 0.10 0.09 0.09 0.06 0.01 0.02 0.01 0.03 0.01 0.02 0.03 0.05 0.03 0.01 0.01 0.00 0.00 0.00 0.00 0.00 0.00 0.00 0.00 0.00 0.00 0.00 0.00 0.01
0.02 0.02 0.02 0.02 0.02 0.02 0.02 0.03 0.04 0.09 0.23 0.45 0.83 0.87 0.74 0.29 0.08 0.19 0.43 0.31 0.27 0.11 0.05 0.02 0.00 0.20 0.18 0.08 0.09 0.05 0.01 0.01 0.02 0.01 0.02 0.09 0.07 0.05 0.02 0.00 0.00 0.00 0.00 0.00 0.00 0.00 0.02 0.01 0.00 0.00 0.01 0.01 0.01 0.01
0.05 0.05 0.04 0.03 0.02 0.04 0.05 0.07 0.10 0.26 0.83 1.22 1.00 0.51 0.28 0.19 0.19 0.33 0.28 0.18 0.14 0.05 0.01 0.00 0.00 0.01 0.14 0.14 0.03 0.02 0.06 0.03 0.02 0.01 0.06 0.07 0.03 0.04 0.02 0.00 0.00 0.00 0.00 0.00 0.00 0.01 0.02 0.01 0.01 0.01 0.01 0.01 0.01 0.01
0.11 0.14 0.09 0.07 0.06 0.06 0.12 0.23 0.33 0.68 0.89 0.54 0.35 0.30 0.34 0.44 0.43 0.23 0.21 0.04 0.01 0.00 0.00 0.00 0.00 0.04 0.22 0.47 0.09 0.02 0.10 0.21 0.04 0.17 0.19 0.04 0.05 0.02 0.00 0.00 0.00 0.00 0.00 0.00 0.00 0.00 0.00 0.01 0.01 0.00 0.01 0.01 0.02 0.02
0.21 0.24 0.18 0.12 0.13 0.11 0.11 0.22 0.41 0.45 0.27 0.26 0.36 0.35 0.23 0.34 0.21 0.11 0.12 0.01 0.00 0.00 0.00 0.01 0.05 0.05 0.07 0.48 0.18 0.01 0.00 0.07 0.13 0.16 0.08 0.02 0.03 0.01 0.00 0.00 0.00 0.00 0.00 0.00 0.00 0.01 0.01 0.01 0.00 0.00 0.01 0.01 0.01 0.01
0.40 0.28 0.17 0.10 0.16 0.16 0.22 0.37 0.46 0.54 0.39 0.48 0.50 0.35 0.16 0.05 0.01 0.02 0.01 0.00 0.00 0.00 0.00 0.00 0.02 0.04 0.01 0.15 0.24 0.06 0.01 0.01 0.04 0.03 0.00 0.02 0.02 0.01 0.00 0.00 0.00 0.00 0.00 0.00 0.00 0.00 0.00 0.00 0.01 0.01 0.01 0.01 0.01 0.01
0.49 0.21 0.13 0.14 0.13 0.14 0.17 0.34 0.42 0.41 0.32 0.29 0.16 0.07 0.01 0.01 0.02 0.02 0.01 0.00 0.01 0.01 0.00 0.00 0.01 0.02 0.01 0.02 0.01 0.01 0.01 0.01 0.00 0.00 0.01 0.01 0.01 0.00 0.00 0.00 0.00 0.00 0.00 0.00 0.00 0.00 0.00 0.00 0.00 0.01 0.01 0.01 0.01 0.02
0.34 0.17 0.16 0.13 0.15 0.18 0.28 0.32 0.23 0.13 0.15 0.05 0.03 0.02 0.03 0.01 0.04 0.03 0.03 0.02 0.05 0.04 0.00 0.00 0.01 0.01 0.00 0.00 0.00 0.00 0.00 0.00 0.00 0.00 0.01 0.01 0.00 0.00 0.00 0.00 0.00 0.00 0.00 0.00 0.00 0.00 0.00 0.00 0.01 0.01 0.01 0.01 0.02 0.01
0.06 0.20 0.21 0.13 0.13 0.14 0.12 0.08 0.10 0.06 0.12 0.03 0.03 0.03 0.01 0.00 0.03 0.04 0.04 0.07 0.09 0.04 0.01 0.00 0.00 0.00 0.00 0.00 0.00 0.00 0.00 0.00 0.01 0.01 0.01 0.00 0.00 0.00 0.00 0.00 0.00 0.00 0.00 0.00 0.00 0.00 0.00 0.00 0.00 0.00 0.01 0.01 0.01 0.00
0.03 0.08 0.08 0.07 0.06 0.05 0.07 0.05 0.04 0.01 0.03 0.03 0.02 0.03 0.01 0.01 0.02 0.03 0.04 0.06 0.02 0.00 0.00 0.00 0.00 0.00 0.00 0.00 0.00 0.01 0.01 0.02 0.01 0.00 0.00 0.00 0.01 0.00 0.00 0.00 0.00 0.00 0.00 0.00 0.00 0.00 0.01 0.01 0.01 0.00 0.01 0.01 0.01 0.00
0.03 0.07 0.06 0.02 0.01 0.03 0.08 0.03 0.00 0.00 0.02 0.03 0.04 0.02 0.01 0.02 0.02 0.01 0.00 0.01 0.00 0.00 0.00 0.00 0.00 0.00 0.00 0.00 0.00 0.00 0.00 0.00 0.02 0.01 0.01 0.01 0.00 0.00 0.00 0.00 0.00 0.00 0.00 0.01 0.01 0.02 0.02 0.03 0.02 0.03 0.02 0.02 0.01 0.01
0.05 0.04 0.01 0.00 0.01 0.02 0.00 0.00 0.00 0.00 0.01 0.04 0.03 0.02 0.02 0.02 0.01 0.00 0.00 0.00 0.00 0.00 0.00 0.00 0.02 0.02 0.01 0.01 0.00 0.00 0.00 0.00 0.00 0.01 0.01 0.01 0.01 0.01 0.01 0.00 0.00 0.01 0.01 0.02 0.02 0.02 0.01 0.01 0.00 0.00 0.01 0.02 0.02 0.02
0.01 0.00 0.00 0.00 0.00 0.00 0.00 0.00 0.00 0.00 0.00 0.02 0.01 0.00 0.02 0.01 0.00 0.00 0.00 0.00 0.00 0.00 0.01 0.02 0.03 0.03 0.01 0.00 0.00 0.00 0.00 0.00 0.00 0.00 0.00 0.01 0.01 0.01 0.01 0.01 0.02 0.02 0.01 0.01 0.00 0.01 0.00 0.00 0.00 0.00 0.00 0.00 0.00 0.00
0.00 0.00 0.00 0.00 0.00 0.00 0.00 0.00 0.00 0.00 0.00 0.01 0.02 0.01 0.01 0.01 0.00 0.00 0.00 0.00 0.02 0.03 0.01 0.02 0.01 0.00 0.00 0.00 0.00 0.00 0.00 0.00 0.00 0.00 0.00 0.00 0.01 0.01 0.00 0.01 0.01 0.01 0.02 0.01 0.00 0.00 0.00 0.00 0.00 0.00 0.00 0.00 0.00 0.00
0.00 0.00 0.00 0.00 0.00 0.00 0.00 0.00 0.00 0.00 0.00 0.02 0.00 0.00 0.00 0.00 0.00 0.00 0.00 0.01 0.03 0.02 0.00 0.00 0.00 0.00 0.00 0.00 0.00 0.00 0.00 0.00 0.00 0.00 0.00 0.00 0.00 0.00 0.00 0.00 0.00 0.00 0.00 0.00 0.00 0.00 0.00 0.00 0.00 0.00 0.00 0.00 0.00 0.00
0.00 0.00 0.00 0.00 0.00 0.00 0.00 0.00 0.00 0.00 0.01 0.00 0.00 0.00 0.00 0.00 0.00 0.00 0.00 0.01 0.02 0.01 0.00 0.00 0.00 0.00 0.00 0.00 0.00 0.00 0.00 0.00 0.00 0.00 0.00 0.00 0.00 0.00 0.00 0.00 0.00 0.00 0.00 0.00 0.00 0.00 0.00 0.00 0.00 0.00 0.00 0.00 0.00 0.00
0.00 0.00 0.00 0.00 0.00 0.00 0.00 0.00 0.00 0.00 0.00 0.00 0.00 0.00 0.00 0.00 0.00 0.00 0.00 0.01 0.01 0.01 0.00 0.00 0.00 0.00 0.00 0.00 0.00 0.00 0.00 0.00 0.00 0.00 0.00 0.00 0.00 0.00 0.00 0.00 0.00 0.00 0.00 0.00 0.00 0.00 0.00 0.00 0.00 0.00 0.00 0.00 0.00 0.00
0.00 0.00 0.00 0.00 0.00 0.00 0.00 0.00 0.00 0.00 0.00 0.00 0.00 0.00 0.00 0.00 0.00 0.01 0.00 0.00 0.00 0.00 0.00 0.00 0.01 0.00 0.00 0.00 0.00 0.00 0.00 0.00 0.00 0.00 0.00 0.00 0.00 0.00 0.00 0.00 0.00 0.00 0.00 0.00 0.00 0.00 0.00 0.00 0.00 0.00 0.00 0.00 0.00 0.00
0.00 0.00 0.00 0.00 0.00 0.00 0.00 0.00 0.00 0.00 0.00 0.00 0.00 0.00 0.00 0.00 0.00 0.02 0.03 0.00 0.00 0.00 0.00 0.00 0.00 0.00 0.00 0.00 0.00 0.00 0.00 0.00 0.00 0.00 0.00 0.00 0.00 0.00 0.00 0.00 0.00 0.00 0.00 0.00 0.00 0.00 0.00 0.00 0.00 0.00 0.00 0.00 0.01 0.00
0.00 0.00 0.00 0.00 0.00 0.00 0.00 0.00 0.00 0.00 0.00 0.00 0.00 0.00 0.00 0.00 0.02 0.04 0.03 0.02 0.00 0.00 0.00 0.00 0.00 0.00 0.00 0.00 0.00 0.00 0.00 0.00 0.00 0.00 0.00 0.00 0.00 0.00 0.00 0.00 0.00 0.00 0.00 0.00 0.00 0.00 0.00 0.00 0.00 0.00 0.00 0.00 0.00 0.00
0.00 0.00 0.00 0.00 0.00 0.00 0.00 0.01 0.01 0.01 0.01 0.00 0.00 0.01 0.01 0.03 0.04 0.03 0.02 0.00 0.00 0.00 0.00 0.00 0.00 0.00 0.00 0.00 0.00 0.00 0.00 0.00 0.00 0.00 0.00 0.00 0.00 0.00 0.00 0.00 0.00 0.00 0.00 0.00 0.00 0.00 0.01 0.01 0.00 0.00 0.00 0.00 0.00 0.00
0.00 0.00 0.00 0.00 0.00 0.01 0.03 0.02 0.01 0.01 0.01 0.00 0.01 0.02 0.03 0.09 0.13 0.04 0.01 0.00 0.00 0.00 0.00 0.00 0.00 0.00 0.00 0.00 0.00 0.00 0.00 0.00 0.00 0.00 0.00 0.00 0.00 0.00 0.00 0.00 0.00 0.00 0.00 0.00 0.00 0.00 0.00 0.00 0.00 0.00 0.00 0.00 0.00 0.00
0.00 0.00 0.00 0.00 0.02 0.03 0.03 0.01 0.01 0.00 0.00 0.00 0.00 0.00 0.03 0.08 0.09 0.08 0.04 0.02 0.00 0.00 0.00 0.00 0.00 0.00 0.00 0.00 0.00 0.00 0.00 0.00 0.00 0.00 0.00 0.00 0.00 0.00 0.00 0.00 0.00 0.00 0.00 0.00 0.00 0.00 0.00 0.00 0.00 0.00 0.00 0.00 0.00 0.00
0.00 0.00 0.00 0.00 0.02 0.02 0.02 0.00 0.00 0.00 0.00 0.00 0.00 0.00 0.00 0.00 0.01 0.03 0.04 0.02 0.00 0.00 0.00 0.00 0.00 0.00 0.00 0.00 0.00 0.00 0.00 0.00 0.00 0.00 0.00 0.00 0.00 0.00 0.00 0.00 0.00 0.00 0.00 0.00 0.00 0.00 0.00 0.00 0.00 0.00 0.00 0.00 0.00 0.00
0.00 0.00 0.00 0.00 0.00 0.01 0.01 0.01 0.00 0.00 0.00 0.00 0.01 0.01 0.01 0.00 0.00 0.01 0.02 0.02 0.01 0.00 0.00 0.00 0.00 0.00 0.00 0.00 0.00 0.00 0.00 0.00 0.00 0.00 0.00 0.00 0.00 0.00 0.00 0.00 0.00 0.00 0.00 0.00 0.00 0.00 0.00 0.00 0.00 0.00 0.00 0.00 0.00 0.00

GFSWCAN_prec_precacc12_099.txt.gz
Total_Precipitation_Accumulation
0.05 0.06 0.07 0.05 0.01 0.01 0.01 0.02 0.02 0.02 0.02 0.02 0.02 0.01 0.00 0.00 0.03 0.18 0.19 0.05 0.05 0.04 0.01 0.00 0.00 0.00 0.00 0.00 0.00 0.00 0.00 0.00 0.00 0.02 0.02 0.02 0.02 0.01 0.02 0.02 0.01 0.01 0.02 0.01 0.01 0.01 0.01 0.00 0.00 0.01 0.03 0.02 0.01 0.02
0.04 0.04 0.04 0.08 0.04 0.01 0.02 0.02 0.02 0.02 0.01 0.01 0.01 0.01 0.00 0.00 0.01 0.13 0.20 0.11 0.11 0.12 0.01 0.00 0.00 0.00 0.00 0.00 0.00 0.00 0.00 0.00 0.02 0.05 0.04 0.03 0.02 0.01 0.01 0.06 0.01 0.04 0.04 0.03 0.05 0.09 0.10 0.03 0.02 0.03 0.02 0.02 0.05 0.07
0.05 0.05 0.03 0.03 0.03 0.02 0.02 0.02 0.01 0.02 0.02 0.02 0.01 0.01 0.01 0.01 0.02 0.09 0.13 0.15 0.29 0.18 0.03 0.00 0.01 0.00 0.00 0.00 0.00 0.00 0.01 0.01 0.02 0.01 0.03 0.06 0.07 0.04 0.03 0.01 0.01 0.01 0.01 0.10 0.38 0.40 0.16 0.07 0.05 0.05 0.08 0.19 0.18 0.08
0.06 0.03 0.03 0.03 0.02 0.02 0.02 0.01 0.01 0.01 0.01 0.03 0.03 0.01 0.02 0.02 0.04 0.11 0.15 0.07 0.15 0.17 0.04 0.02 0.00 0.00 0.00 0.00 0.00 0.00 0.00 0.00 0.01 0.01 0.01 0.04 0.04 0.04 0.03 0.03 0.03 0.02 0.02 0.11 0.35 0.26 0.20 0.15 0.19 0.15 0.12 0.08 0.06 0.02
0.08 0.06 0.04 0.04 0.04 0.02 0.02 0.02 0.01 0.02 0.03 0.04 0.04 0.03 0.02 0.04 0.07 0.19 0.21 0.09 0.05 0.12 0.09 0.02 0.01 0.00 0.00 0.00 0.00 0.00 0.00 0.00 0.01 0.03 0.06 0.07 0.06 0.05 0.06 0.09 0.03 0.05 0.10 0.11 0.16 0.19 0.29 0.31 0.37 0.31 0.22 0.17 0.10 0.06
0.10 0.07 0.06 0.04 0.04 0.04 0.03 0.02 0.02 0.03 0.04 0.06 0.06 0.05 0.02 0.08 0.20 0.27 0.36 0.20 0.15 0.21 0.28 0.05 0.03 0.00 0.00 0.00 0.00 0.00 0.00 0.00 0.01 0.05 0.10 0.08 0.04 0.09 0.04 0.06 0.08 0.24 0.16 0.18 0.19 0.21 0.29 0.34 0.29 0.20 0.16 0.09 0.02 0.02
0.08 0.08 0.07 0.06 0.04 0.02 0.02 0.02 0.02 0.03 0.03 0.05 0.07 0.07 0.06 0.10 0.23 0.22 0.12 0.04 0.07 0.17 0.37 0.07 0.02 0.00 0.00 0.00 0.00 0.00 0.00 0.00 0.01 0.04 0.06 0.04 0.06 0.07 0.06 0.03 0.01 0.06 0.05 0.03 0.05 0.06 0.06 0.05 0.05 0.00 0.00 0.00 0.00 0.00
0.08 0.07 0.06 0.05 0.03 0.02 0.02 0.02 0.04 0.04 0.04 0.07 0.15 0.14 0.14 0.25 0.36 0.28 0.07 0.04 0.05 0.18 0.14 0.07 0.02 0.02 0.01 0.01 0.02 0.01 0.00 0.01 0.03 0.08 0.04 0.03 0.06 0.07 0.07 0.01 0.00 0.00 0.00 0.00 0.00 0.00 0.01 0.00 0.00 0.00 0.00 0.00 0.00 0.00
0.06 0.06 0.05 0.04 0.02 0.02 0.02 0.02 0.03 0.05 0.07 0.14 0.34 0.60 0.64 0.45 0.22 0.16 0.14 0.09 0.05 0.08 0.06 0.01 0.02 0.06 0.03 0.08 0.05 0.05 0.02 0.03 0.05 0.05 0.02 0.03 0.03 0.03 0.01 0.00 0.00 0.00 0.00 0.00 0.00 0.00 0.00 0.00 0.00 0.00 0.00 0.00 0.00 0.00
0.04 0.03 0.03 0.02 0.03 0.03 0.03 0.02 0.02 0.05 0.12 0.38 0.91 0.93 0.56 0.24 0.14 0.22 0.36 0.15 0.14 0.08 0.04 0.02 0.00 0.04 0.06 0.12 0.09 0.07 0.04 0.06 0.06 0.02 0.01 0.03 0.01 0.02 0.01 0.00 0.00 0.00 0.00 0.00 0.00 0.00 0.00 0.00 0.00 0.00 0.00 0.00 0.00 0.01
0.02 0.02 0.02 0.02 0.02 0.03 0.04 0.03 0.04 0.13 0.50 0.84 0.89 0.57 0.26 0.25 0.16 0.19 0.10 0.08 0.05 0.03 0.01 0.01 0.00 0.03 0.04 0.13 0.09 0.05 0.06 0.05 0.03 0.03 0.03 0.04 0.02 0.02 0.01 0.00 0.00 0.00 0.00 0.00 0.00 0.00 0.01 0.01 0.00 0.00 0.00 0.00 0.01 0.01
0.05 0.04 0.07 0.07 0.04 0.03 0.04 0.06 0.13 0.49 0.59 0.34 0.51 0.35 0.36 0.46 0.32 0.16 0.07 0.02 0.01 0.00 0.00 0.00 0.00 0.02 0.03 0.19 0.11 0.02 0.07 0.18 0.06 0.09 0.08 0.02 0.02 0.02 0.00 0.00 0.00 0.00 0.00 0.00 0.00 0.00 0.00 0.00 0.00 0.00 0.00 0.00 0.01 0.01
0.10 0.16 0.14 0.07 0.05 0.03 0.03 0.10 0.25 0.42 0.38 0.60 0.67 0.43 0.25 0.27 0.18 0.04 0.03 0.00 0.00 0.00 0.00 0.01 0.03 0.02 0.01 0.27 0.23 0.03 0.01 0.07 0.11 0.09 0.06 0.01 0.02 0.01 0.00 0.00 0.00 0.00 0.00 0.00 0.00 0.00 0.00 0.00 0.00 0.00 0.00 0.01 0.00 0.01
0.32 0.22 0.12 0.05 0.06 0.05 0.05 0.18 0.35 0.64 0.87 0.78 0.68 0.39 0.10 0.05 0.01 0.00 0.00 0.00 0.00 0.00 0.00 0.00 0.01 0.01 0.01 0.15 0.28 0.05 0.01 0.02 0.03 0.02 0.01 0.01 0.01 0.01 0.00 0.00 0.00 0.00 0.00 0.00 0.00 0.00 0.00 0.00 0.00 0.00 0.00 0.00 0.00 0.00
0.44 0.14 0.06 0.05 0.09 0.11 0.15 0.33 0.56 0.79 0.80 0.50 0.29 0.09 0.01 0.00 0.00 0.00 0.00 0.00 0.00 0.00 0.00 0.01 0.01 0.02 0.01 0.06 0.05 0.04 0.03 0.02 0.01 0.01 0.01 0.01 0.01 0.00 0.00 0.00 0.00 0.00 0.00 0.00 0.00 0.00 0.00 0.00 0.00 0.00 0.01 0.00 0.00 0.00
0.38 0.26 0.16 0.08 0.13 0.19 0.31 0.49 0.67 0.50 0.41 0.14 0.05 0.01 0.01 0.00 0.01 0.01 0.01 0.01 0.01 0.00 0.01 0.02 0.02 0.01 0.00 0.01 0.01 0.01 0.01 0.01 0.01 0.00 0.01 0.01 0.00 0.00 0.00 0.00 0.00 0.00 0.00 0.00 0.00 0.00 0.00 0.00 0.00 0.01 0.01 0.00 0.00 0.00
0.29 0.39 0.25 0.13 0.14 0.20 0.31 0.43 0.42 0.31 0.24 0.05 0.01 0.01 0.00 0.00 0.01 0.01 0.02 0.03 0.03 0.02 0.01 0.01 0.00 0.00 0.00 0.00 0.00 0.00 0.00 0.00 0.00 0.01 0.01 0.00 0.00 0.00 0.00 0.00 0.00 0.00 0.00 0.00 0.00 0.00 0.00 0.00 0.00 0.00 0.00 0.01 0.00 0.00
0.25 0.16 0.09 0.08 0.16 0.32 0.42 0.27 0.18 0.09 0.07 0.03 0.01 0.02 0.01 0.01 0.01 0.02 0.04 0.05 0.02 0.01 0.00 0.00 0.00 0.00 0.00 0.00 0.00 0.00 0.01 0.01 0.01 0.00 0.00 0.00 0.00 0.00 0.00 0.00 0.00 0.00 0.00 0.00 0.00 0.00 0.00 0.00 0.01 0.00 0.00 0.00 0.00 0.00
0.25 0.18 0.13 0.10 0.13 0.20 0.29 0.16 0.02 0.01 0.02 0.03 0.03 0.02 0.01 0.02 0.02 0.01 0.01 0.01 0.00 0.00 0.00 0.00 0.00 0.00 0.00 0.00 0.00 0.00 0.01 0.00 0.01 0.01 0.01 0.01 0.00 0.00 0.00 0.00 0.00 0.00 0.00 0.00 0.00 0.01 0.01 0.01 0.01 0.01 0.01 0.01 0.01 0.01
0.30 0.25 0.21 0.14 0.05 0.03 0.04 0.05 0.00 0.00 0.01 0.04 0.02 0.01 0.01 0.01 0.01 0.01 0.01 0.00 0.00 0.00 0.01 0.00 0.00 0.00 0.00 0.00 0.00 0.00 0.00 0.00 0.00 0.00 0.01 0.01 0.01 0.00 0.00 0.00 0.01 0.01 0.01 0.01 0.01 0.01 0.01 0.01 0.00 0.00 0.00 0.01 0.02 0.02
0.23 0.25 0.15 0.10 0.05 0.02 0.01 0.00 0.00 0.00 0.00 0.03 0.02 0.00 0.02 0.02 0.02 0.02 0.02 0.01 0.02 0.02 0.01 0.00 0.00 0.01 0.00 0.00 0.00 0.00 0.00 0.00 0.00 0.00 0.00 0.01 0.01 0.01 0.00 0.01 0.01 0.01 0.01 0.01 0.01 0.01 0.01 0.01 0.00 0.00 0.00 0.00 0.00 0.01
0.07 0.09 0.11 0.04 0.02 0.01 0.01 0.00 0.00 0.00 0.01 0.04 0.02 0.00 0.02 0.03 0.03 0.02 0.00 0.02 0.02 0.01 0.00 0.00 0.00 0.00 0.00 0.00 0.00 0.00 0.00 0.00 0.00 0.00 0.00 0.00 0.01 0.01 0.01 0.01 0.01 0.01 0.01 0.01 0.01 0.01 0.01 0.00 0.00 0.00 0.00 0.00 0.00 0.01
0.00 0.02 0.03 0.02 0.00 0.01 0.03 0.01 0.00 0.00 0.01 0.02 0.01 0.01 0.01 0.01 0.00 0.00 0.01 0.01 0.01 0.01 0.00 0.00 0.00 0.00 0.00 0.00 0.00 0.00 0.00 0.00 0.00 0.00 0.00 0.00 0.00 0.00 0.00 0.00 0.00 0.00 0.00 0.00 0.00 0.00 0.00 0.00 0.00 0.00 0.00 0.00 0.00 0.01
0.00 0.02 0.05 0.03 0.00 0.01 0.01 0.01 0.00 0.00 0.01 0.01 0.00 0.00 0.00 0.00 0.00 0.00 0.00 0.00 0.02 0.02 0.00 0.00 0.00 0.00 0.00 0.00 0.00 0.00 0.00 0.00 0.00 0.00 0.00 0.00 0.00 0.00 0.00 0.00 0.00 0.00 0.00 0.00 0.00 0.00 0.00 0.00 0.00 0.00 0.01 0.01 0.01 0.01
0.03 0.04 0.04 0.02 0.00 0.00 0.00 0.00 0.00 0.00 0.00 0.00 0.00 0.00 0.00 0.00 0.00 0.00 0.00 0.01 0.02 0.01 0.00 0.00 0.00 0.00 0.00 0.00 0.00 0.00 0.00 0.00 0.00 0.00 0.00 0.00 0.00 0.00 0.00 0.00 0.00 0.00 0.00 0.00 0.00 0.01 0.01 0.01 0.01 0.01 0.00 0.00 0.00 0.00
0.01 0.01 0.02 0.01 0.00 0.00 0.00 0.00 0.00 0.00 0.00 0.00 0.00 0.00 0.00 0.00 0.00 0.00 0.00 0.01 0.01 0.01 0.00 0.00 0.00 0.00 0.00 0.00 0.00 0.00 0.00 0.00 0.00 0.00 0.00 0.00 0.00 0.00 0.00 0.00 0.00 0.00 0.00 0.00 0.00 0.00 0.00 0.00 0.00 0.00 0.00 0.00 0.00 0.00
0.00 0.00 0.00 0.00 0.00 0.00 0.00 0.00 0.00 0.00 0.00 0.00 0.00 0.00 0.00 0.00 0.00 0.00 0.01 0.01 0.00 0.00 0.00 0.00 0.00 0.00 0.00 0.00 0.00 0.00 0.00 0.00 0.00 0.00 0.00 0.00 0.00 0.00 0.00 0.00 0.00 0.00 0.00 0.00 0.00 0.00 0.00 0.00 0.00 0.00 0.00 0.01 0.01 0.00
0.00 0.00 0.00 0.00 0.00 0.00 0.00 0.00 0.00 0.00 0.00 0.01 0.00 0.00 0.00 0.00 0.01 0.02 0.03 0.02 0.01 0.00 0.00 0.00 0.00 0.00 0.00 0.00 0.00 0.00 0.00 0.00 0.00 0.00 0.00 0.00 0.00 0.00 0.00 0.00 0.00 0.00 0.00 0.00 0.00 0.00 0.00 0.00 0.00 0.00 0.00 0.00 0.00 0.01
0.00 0.00 0.00 0.00 0.00 0.00 0.00 0.00 0.00 0.01 0.01 0.00 0.00 0.00 0.01 0.01 0.03 0.03 0.04 0.02 0.00 0.00 0.00 0.00 0.00 0.00 0.00 0.00 0.00 0.00 0.00 0.00 0.00 0.00 0.00 0.00 0.00 0.00 0.00 0.00 0.00 0.00 0.00 0.00 0.00 0.00 0.00 0.01 0.00 0.00 0.00 0.00 0.00 0.01
0.00 0.00 0.00 0.00 0.00 0.01 0.02 0.02 0.02 0.02 0.01 0.00 0.00 0.00 0.01 0.04 0.09 0.06 0.04 0.03 0.01 0.00 0.00 0.00 0.00 0.00 0.00 0.00 0.00 0.00 0.00 0.00 0.00 0.00 0.00 0.00 0.00 0.00 0.00 0.00 0.00 0.00 0.00 0.00 0.00 0.00 0.00 0.00 0.00 0.00 0.00 0.00 0.00 0.00
0.00 0.00 0.00 0.00 0.01 0.02 0.02 0.01 0.01 0.00 0.00 0.00 0.00 0.00 0.02 0.06 0.08 0.07 0.04 0.03 0.01 0.00 0.00 0.00 0.00 0.00 0.00 0.00 0.00 0.00 0.00 0.00 0.00 0.00 0.00 0.00 0.00 0.00 0.00 0.00 0.00 0.00 0.00 0.00 0.00 0.00 0.00 0.00 0.00 0.00 0.00 0.00 0.00 0.00
0.00 0.00 0.00 0.00 0.01 0.01 0.01 0.00 0.00 0.01 0.01 0.01 0.01 0.00 0.01 0.01 0.02 0.04 0.04 0.03 0.02 0.01 0.00 0.00 0.00 0.00 0.00 0.00 0.00 0.00 0.00 0.00 0.00 0.00 0.00 0.00 0.00 0.00 0.00 0.00 0.00 0.00 0.00 0.00 0.00 0.00 0.00 0.00 0.00 0.00 0.00 0.00 0.00 0.00
0.00 0.00 0.00 0.00 0.01 0.01 0.01 0.00 0.00 0.00 0.00 0.01 0.01 0.01 0.01 0.00 0.01 0.02 0.03 0.03 0.02 0.01 0.00 0.00 0.00 0.00 0.00 0.00 0.00 0.00 0.00 0.00 0.00 0.00 0.00 0.00 0.00 0.00 0.00 0.00 0.00 0.00 0.00 0.00 0.00 0.00 0.00 0.00 0.00 0.00 0.00 0.00 0.00 0.00

GFSWCAN_prec_precacc12_102.txt.gz
Total_Precipitation_Accumulation
0.08 0.08 0.10 0.05 0.02 0.01 0.00 0.00 0.01 0.02 0.02 0.02 0.02 0.01 0.00 0.00 0.02 0.15 0.19 0.05 0.06 0.05 0.01 0.00 0.00 0.00 0.00 0.01 0.01 0.00 0.02 0.01 0.00 0.02 0.02 0.02 0.03 0.01 0.03 0.03 0.01 0.02 0.05 0.03 0.02 0.02 0.03 0.00 0.00 0.02 0.06 0.04 0.01 0.02
0.05 0.04 0.04 0.08 0.05 0.01 0.00 0.00 0.01 0.02 0.02 0.01 0.01 0.00 0.00 0.00 0.00 0.09 0.19 0.11 0.11 0.12 0.02 0.00 0.00 0.00 0.00 0.00 0.01 0.00 0.01 0.02 0.01 0.03 0.02 0.02 0.02 0.01 0.01 0.17 0.02 0.04 0.04 0.03 0.05 0.10 0.11 0.03 0.02 0.04 0.03 0.03 0.06 0.08
0.06 0.05 0.03 0.03 0.05 0.03 0.00 0.01 0.01 0.02 0.02 0.02 0.01 0.01 0.00 0.01 0.01 0.06 0.11 0.11 0.17 0.14 0.02 0.00 0.02 0.01 0.00 0.00 0.00 0.01 0.04 0.02 0.03 0.01 0.01 0.01 0.05 0.05 0.05 0.03 0.02 0.03 0.01 0.05 0.11 0.17 0.14 0.06 0.04 0.05 0.07 0.19 0.18 0.07
0.08 0.04 0.04 0.03 0.03 0.02 0.01 0.01 0.01 0.01 0.02 0.02 0.02 0.01 0.02 0.02 0.03 0.07 0.11 0.05 0.06 0.14 0.04 0.04 0.02 0.00 0.00 0.00 0.00 0.00 0.01 0.00 0.01 0.02 0.02 0.01 0.03 0.06 0.06 0.06 0.04 0.02 0.01 0.04 0.13 0.11 0.13 0.05 0.11 0.12 0.10 0.07 0.06 0.02
0.09 0.07 0.05 0.03 0.03 0.01 0.01 0.02 0.01 0.01 0.01 0.01 0.01 0.02 0.02 0.03 0.03 0.10 0.14 0.10 0.04 0.15 0.12 0.03 0.04 0.01 0.00 0.00 0.00 0.00 0.00 0.00 0.01 0.03 0.06 0.07 0.08 0.07 0.07 0.11 0.05 0.01 0.06 0.09 0.12 0.08 0.12 0.12 0.16 0.17 0.15 0.11 0.05 0.02
0.10 0.09 0.08 0.04 0.04 0.03 0.03 0.02 0.01 0.01 0.01 0.02 0.04 0.06 0.03 0.03 0.10 0.19 0.20 0.09 0.06 0.16 0.28 0.06 0.06 0.02 0.00 0.00 0.00 0.00 0.00 0.01 0.01 0.02 0.09 0.09 0.07 0.12 0.06 0.08 0.02 0.10 0.08 0.13 0.14 0.09 0.10 0.13 0.12 0.10 0.08 0.06 0.01 0.00
0.10 0.10 0.09 0.07 0.03 0.03 0.03 0.02 0.01 0.01 0.01 0.03 0.07 0.07 0.05 0.05 0.17 0.20 0.11 0.12 0.07 0.17 0.35 0.07 0.06 0.02 0.00 0.00 0.00 0.00 0.00 0.01 0.01 0.02 0.06 0.06 0.10 0.10 0.09 0.06 0.01 0.03 0.02 0.03 0.05 0.04 0.06 0.04 0.03 0.00 0.00 0.00 0.00 0.00
0.09 0.07 0.07 0.06 0.04 0.03 0.03 0.02 0.01 0.01 0.02 0.05 0.13 0.13 0.11 0.20 0.31 0.24 0.07 0.08 0.05 0.21 0.15 0.08 0.06 0.05 0.01 0.02 0.03 0.01 0.01 0.01 0.02 0.05 0.03 0.04 0.09 0.13 0.10 0.01 0.00 0.00 0.00 0.00 0.00 0.00 0.01 0.00 0.00 0.00 0.00 0.00 0.00 0.00
0.07 0.07 0.06 0.05 0.03 0.03 0.03 0.02 0.01 0.02 0.05 0.13 0.30 0.51 0.50 0.36 0.23 0.14 0.12 0.09 0.08 0.19 0.13 0.03 0.03 0.14 0.05 0.09 0.07 0.06 0.02 0.04 0.08 0.05 0.02 0.05 0.06 0.07 0.02 0.00 0.00 0.00 0.00 0.00 0.00 0.00 0.00 0.00 0.00 0.00 0.00 0.00 0.00 0.00
0.04 0.04 0.05 0.03 0.03 0.03 0.02 0.02 0.02 0.05 0.12 0.32 0.74 0.77 0.42 0.22 0.13 0.17 0.30 0.15 0.14 0.09 0.05 0.02 0.01 0.08 0.08 0.13 0.07 0.06 0.05 0.08 0.12 0.06 0.02 0.03 0.02 0.01 0.00 0.00 0.00 0.00 0.00 0.00 0.00 0.00 0.00 0.00 0.00 0.00 0.00 0.00 0.00 0.00
0.03 0.03 0.03 0.02 0.03 0.03 0.02 0.02 0.03 0.12 0.41 0.61 0.70 0.52 0.28 0.23 0.18 0.24 0.11 0.08 0.05 0.03 0.01 0.00 0.00 0.07 0.06 0.12 0.13 0.08 0.12 0.10 0.06 0.07 0.02 0.04 0.03 0.02 0.01 0.00 0.00 0.00 0.00 0.00 0.00 0.00 0.00 0.00 0.00 0.00 0.00 0.00 0.00 0.01
0.05 0.03 0.04 0.04 0.03 0.02 0.02 0.02 0.08 0.32 0.39 0.21 0.45 0.46 0.41 0.48 0.31 0.15 0.05 0.03 0.02 0.00 0.00 0.00 0.00 0.04 0.10 0.13 0.19 0.07 0.04 0.13 0.09 0.10 0.05 0.03 0.02 0.01 0.00 0.00 0.00 0.00 0.00 0.00 0.00 0.00 0.00 0.00 0.00 0.00 0.00 0.01 0.01 0.01
0.06 0.05 0.05 0.05 0.04 0.02 0.02 0.05 0.14 0.28 0.35 0.51 0.68 0.54 0.32 0.26 0.19 0.05 0.03 0.01 0.00 0.00 0.00 0.00 0.02 0.03 0.01 0.09 0.18 0.04 0.01 0.07 0.11 0.09 0.06 0.02 0.01 0.01 0.00 0.00 0.00 0.00 0.00 0.00 0.00 0.00 0.00 0.00 0.00 0.00 0.00 0.00 0.00 0.00
0.10 0.09 0.08 0.05 0.05 0.04 0.02 0.06 0.24 0.48 0.76 0.64 0.66 0.40 0.13 0.05 0.01 0.00 0.00 0.02 0.01 0.00 0.00 0.01 0.02 0.02 0.01 0.07 0.20 0.06 0.03 0.02 0.04 0.05 0.04 0.01 0.01 0.00 0.00 0.00 0.00 0.00 0.00 0.00 0.00 0.00 0.00 0.00 0.00 0.00 0.00 0.00 0.00 0.00
0.23 0.13 0.06 0.04 0.07 0.05 0.05 0.14 0.44 0.69 0.79 0.53 0.45 0.18 0.01 0.02 0.01 0.02 0.01 0.01 0.00 0.00 0.01 0.01 0.01 0.03 0.01 0.07 0.05 0.07 0.03 0.02 0.02 0.04 0.01 0.01 0.01 0.00 0.00 0.00 0.00 0.00 0.00 0.00 0.00 0.00 0.00 0.00 0.00 0.00 0.00 0.00 0.00 0.00
0.30 0.24 0.10 0.05 0.11 0.16 0.23 0.42 0.64 0.53 0.52 0.24 0.16 0.08 0.01 0.00 0.01 0.01 0.01 0.00 0.00 0.01 0.01 0.04 0.02 0.02 0.01 0.01 0.02 0.02 0.03 0.05 0.03 0.00 0.01 0.01 0.00 0.00 0.00 0.00 0.00 0.00 0.00 0.00 0.00 0.00 0.00 0.00 0.00 0.01 0.01 0.00 0.00 0.00
0.29 0.33 0.15 0.10 0.14 0.22 0.32 0.45 0.45 0.39 0.32 0.13 0.03 0.02 0.01 0.01 0.01 0.01 0.01 0.01 0.01 0.02 0.03 0.02 0.01 0.01 0.01 0.00 0.00 0.00 0.01 0.01 0.01 0.01 0.01 0.00 0.00 0.00 0.00 0.00 0.00 0.00 0.00 0.00 0.00 0.00 0.00 0.00 0.00 0.00 0.02 0.01 0.00 0.00
0.25 0.16 0.06 0.08 0.20 0.35 0.43 0.30 0.23 0.17 0.11 0.04 0.01 0.01 0.01 0.01 0.01 0.01 0.02 0.02 0.02 0.01 0.02 0.01 0.00 0.00 0.01 0.02 0.02 0.00 0.00 0.01 0.01 0.01 0.01 0.00 0.00 0.00 0.00 0.00 0.00 0.00 0.00 0.00 0.00 0.00 0.00 0.00 0.01 0.02 0.00 0.00 0.00 0.00
0.26 0.18 0.13 0.11 0.15 0.20 0.29 0.18 0.06 0.04 0.02 0.02 0.02 0.02 0.01 0.01 0.01 0.01 0.01 0.00 0.00 0.00 0.00 0.00 0.00 0.01 0.01 0.00 0.00 0.00 0.01 0.01 0.01 0.01 0.01 0.01 0.00 0.00 0.00 0.00 0.00 0.00 0.00 0.00 0.01 0.01 0.01 0.01 0.01 0.01 0.01 0.01 0.01 0.01
0.28 0.24 0.22 0.15 0.06 0.08 0.05 0.06 0.00 0.01 0.01 0.04 0.02 0.01 0.01 0.01 0.01 0.01 0.01 0.00 0.00 0.00 0.01 0.00 0.00 0.00 0.00 0.00 0.00 0.00 0.00 0.00 0.00 0.00 0.01 0.01 0.01 0.00 0.01 0.01 0.01 0.01 0.01 0.01 0.01 0.01 0.01 0.01 0.01 0.00 0.00 0.00 0.01 0.02
0.28 0.27 0.18 0.13 0.11 0.05 0.01 0.01 0.00 0.00 0.00 0.03 0.02 0.00 0.02 0.02 0.02 0.02 0.02 0.01 0.03 0.02 0.01 0.00 0.00 0.01 0.00 0.00 0.00 0.00 0.00 0.00 0.00 0.00 0.00 0.00 0.01 0.01 0.01 0.01 0.01 0.01 0.01 0.01 0.01 0.01 0.01 0.01 0.01 0.00 0.00 0.01 0.01 0.01
0.19 0.13 0.15 0.09 0.07 0.02 0.01 0.00 0.00 0.00 0.01 0.03 0.02 0.00 0.02 0.03 0.03 0.02 0.00 0.02 0.02 0.01 0.00 0.00 0.00 0.00 0.00 0.00 0.00 0.00 0.00 0.00 0.00 0.00 0.00 0.00 0.00 0.01 0.01 0.01 0.01 0.01 0.01 0.01 0.01 0.01 0.01 0.00 0.00 0.00 0.00 0.01 0.00 0.01
0.05 0.08 0.08 0.05 0.05 0.04 0.05 0.01 0.00 0.00 0.01 0.02 0.01 0.01 0.01 0.01 0.01 0.00 0.01 0.01 0.01 0.01 0.00 0.00 0.00 0.00 0.00 0.00 0.00 0.00 0.00 0.00 0.00 0.00 0.00 0.00 0.00 0.00 0.00 0.00 0.00 0.00 0.00 0.00 0.00 0.00 0.00 0.00 0.00 0.00 0.00 0.01 0.01 0.01
0.06 0.10 0.10 0.05 0.03 0.04 0.04 0.02 0.00 0.00 0.01 0.01 0.01 0.01 0.01 0.00 0.00 0.00 0.00 0.00 0.01 0.01 0.00 0.00 0.00 0.00 0.00 0.00 0.00 0.00 0.00 0.00 0.00 0.00 0.00 0.00 0.00 0.00 0.00 0.00 0.00 0.00 0.00 0.00 0.00 0.00 0.00 0.01 0.01 0.00 0.01 0.01 0.01 0.01
0.16 0.11 0.09 0.04 0.00 0.01 0.01 0.01 0.00 0.00 0.01 0.00 0.00 0.00 0.00 0.00 0.00 0.00 0.00 0.01 0.02 0.01 0.00 0.00 0.00 0.00 0.00 0.00 0.00 0.00 0.00 0.00 0.00 0.00 0.00 0.00 0.00 0.00 0.00 0.00 0.00 0.00 0.00 0.00 0.01 0.01 0.01 0.01 0.01 0.01 0.01 0.01 0.00 0.00
0.08 0.04 0.06 0.03 0.00 0.00 0.00 0.00 0.00 0.00 0.00 0.00 0.00 0.00 0.00 0.00 0.00 0.00 0.00 0.01 0.01 0.01 0.01 0.00 0.00 0.00 0.00 0.00 0.00 0.00 0.00 0.00 0.00 0.00 0.00 0.00 0.00 0.00 0.00 0.00 0.00 0.01 0.00 0.00 0.00 0.00 0.00 0.00 0.00 0.00 0.00 0.00 0.00 0.00
0.03 0.02 0.02 0.01 0.01 0.00 0.00 0.00 0.00 0.00 0.00 0.00 0.01 0.00 0.00 0.00 0.00 0.01 0.02 0.02 0.01 0.00 0.00 0.00 0.00 0.00 0.00 0.00 0.00 0.00 0.00 0.00 0.00 0.00 0.00 0.00 0.00 0.00 0.00 0.00 0.00 0.01 0.00 0.00 0.00 0.00 0.00 0.00 0.00 0.00 0.00 0.00 0.00 0.01
0.00 0.01 0.01 0.00 0.00 0.00 0.00 0.00 0.00 0.00 0.00 0.00 0.00 0.00 0.00 0.00 0.02 0.02 0.03 0.04 0.03 0.01 0.00 0.00 0.00 0.00 0.00 0.00 0.00 0.00 0.00 0.00 0.00 0.00 0.00 0.00 0.00 0.00 0.00 0.00 0.00 0.00 0.00 0.00 0.00 0.00 0.00 0.00 0.00 0.00 0.00 0.00 0.00 0.00
0.00 0.00 0.00 0.00 0.00 0.00 0.00 0.00 0.00 0.01 0.01 0.01 0.01 0.01 0.01 0.01 0.03 0.04 0.05 0.04 0.01 0.00 0.00 0.00 0.00 0.00 0.00 0.00 0.00 0.00 0.00 0.00 0.00 0.00 0.00 0.00 0.00 0.00 0.00 0.00 0.00 0.00 0.00 0.00 0.00 0.00 0.00 0.00 0.01 0.00 0.00 0.00 0.00 0.00
0.00 0.00 0.00 0.00 0.00 0.01 0.02 0.02 0.02 0.02 0.01 0.00 0.00 0.00 0.01 0.03 0.06 0.07 0.07 0.05 0.03 0.01 0.00 0.00 0.00 0.00 0.00 0.00 0.00 0.00 0.00 0.00 0.00 0.00 0.00 0.00 0.00 0.00 0.00 0.00 0.00 0.00 0.00 0.00 0.00 0.00 0.00 0.00 0.00 0.00 0.00 0.00 0.00 0.00
0.00 0.00 0.00 0.00 0.01 0.02 0.02 0.02 0.01 0.00 0.00 0.01 0.00 0.00 0.02 0.05 0.06 0.06 0.07 0.08 0.03 0.00 0.00 0.00 0.00 0.00 0.00 0.00 0.00 0.00 0.00 0.00 0.00 0.00 0.00 0.00 0.00 0.00 0.00 0.00 0.00 0.00 0.00 0.00 0.00 0.00 0.00 0.00 0.00 0.00 0.00 0.00 0.00 0.00
0.00 0.00 0.00 0.00 0.01 0.01 0.02 0.02 0.01 0.01 0.02 0.01 0.01 0.01 0.01 0.01 0.03 0.04 0.04 0.05 0.04 0.02 0.01 0.00 0.01 0.01 0.00 0.00 0.00 0.00 0.00 0.00 0.00 0.00 0.00 0.00 0.00 0.00 0.00 0.00 0.00 0.00 0.00 0.00 0.00 0.00 0.00 0.00 0.00 0.00 0.00 0.00 0.00 0.00
0.00 0.00 0.00 0.00 0.01 0.01 0.01 0.01 0.00 0.01 0.01 0.01 0.02 0.02 0.02 0.01 0.01 0.02 0.04 0.04 0.06 0.02 0.01 0.01 0.00 0.00 0.00 0.00 0.00 0.00 0.00 0.00 0.00 0.00 0.00 0.00 0.00 0.00 0.00 0.00 0.00 0.00 0.00 0.00 0.00 0.00 0.00 0.00 0.00 0.00 0.00 0.00 0.00 0.00

GFSWCAN_prec_precacc12_105.txt.gz
Total_Precipitation_Accumulation
0.14 0.10 0.10 0.06 0.02 0.01 0.00 0.01 0.01 0.01 0.01 0.02 0.02 0.01 0.00 0.00 0.00 0.07 0.16 0.03 0.03 0.04 0.01 0.00 0.00 0.00 0.00 0.01 0.01 0.00 0.02 0.01 0.00 0.02 0.02 0.02 0.03 0.01 0.05 0.04 0.01 0.02 0.06 0.03 0.02 0.02 0.04 0.00 0.00 0.03 0.08 0.06 0.03 0.03
0.13 0.10 0.08 0.09 0.05 0.01 0.00 0.00 0.00 0.01 0.01 0.02 0.01 0.00 0.00 0.00 0.00 0.04 0.16 0.10 0.08 0.07 0.02 0.00 0.00 0.00 0.00 0.00 0.01 0.00 0.01 0.03 0.02 0.03 0.02 0.01 0.02 0.02 0.02 0.21 0.02 0.04 0.03 0.03 0.04 0.07 0.07 0.02 0.03 0.05 0.04 0.03 0.06 0.07
0.11 0.08 0.07 0.04 0.05 0.03 0.00 0.00 0.00 0.00 0.02 0.03 0.01 0.01 0.00 0.00 0.01 0.03 0.11 0.10 0.11 0.06 0.01 0.00 0.02 0.01 0.00 0.00 0.00 0.01 0.06 0.03 0.04 0.01 0.02 0.02 0.04 0.05 0.07 0.05 0.04 0.03 0.01 0.04 0.09 0.07 0.02 0.04 0.03 0.04 0.03 0.08 0.13 0.05
0.10 0.07 0.05 0.03 0.04 0.03 0.01 0.00 0.00 0.01 0.02 0.03 0.02 0.01 0.01 0.01 0.02 0.05 0.09 0.05 0.04 0.06 0.03 0.05 0.02 0.01 0.00 0.00 0.00 0.00 0.02 0.00 0.01 0.03 0.02 0.02 0.02 0.07 0.07 0.08 0.04 0.01 0.01 0.02 0.09 0.06 0.05 0.02 0.03 0.05 0.03 0.02 0.02 0.01
0.09 0.09 0.06 0.03 0.02 0.03 0.01 0.01 0.00 0.01 0.01 0.02 0.01 0.02 0.01 0.01 0.01 0.06 0.11 0.10 0.04 0.11 0.10 0.03 0.04 0.01 0.00 0.00 0.00 0.00 0.00 0.00 0.01 0.03 0.06 0.07 0.09 0.07 0.06 0.12 0.06 0.00 0.02 0.07 0.11 0.04 0.07 0.05 0.05 0.04 0.03 0.03 0.01 0.00
0.08 0.08 0.08 0.05 0.04 0.03 0.01 0.01 0.01 0.01 0.01 0.02 0.01 0.03 0.01 0.02 0.06 0.13 0.11 0.05 0.03 0.09 0.18 0.05 0.06 0.02 0.00 0.00 0.00 0.00 0.00 0.01 0.01 0.01 0.05 0.08 0.07 0.12 0.06 0.11 0.04 0.04 0.02 0.07 0.10 0.04 0.03 0.04 0.04 0.02 0.02 0.02 0.00 0.00
0.10 0.09 0.09 0.08 0.06 0.03 0.02 0.02 0.02 0.01 0.01 0.01 0.02 0.05 0.05 0.03 0.09 0.13 0.07 0.14 0.06 0.11 0.19 0.07 0.07 0.04 0.00 0.00 0.00 0.00 0.00 0.02 0.01 0.02 0.05 0.06 0.10 0.11 0.10 0.07 0.02 0.01 0.01 0.01 0.04 0.04 0.04 0.02 0.01 0.00 0.00 0.00 0.00 0.00
0.09 0.08 0.08 0.07 0.05 0.03 0.03 0.03 0.01 0.01 0.01 0.01 0.06 0.08 0.08 0.08 0.12 0.11 0.05 0.12 0.06 0.17 0.13 0.08 0.07 0.07 0.01 0.02 0.03 0.01 0.01 0.01 0.02 0.05 0.03 0.04 0.09 0.16 0.15 0.01 0.00 0.00 0.00 0.00 0.00 0.00 0.00 0.00 0.00 0.00 0.00 0.00 0.00 0.00
0.06 0.07 0.08 0.06 0.03 0.03 0.04 0.02 0.01 0.01 0.01 0.05 0.16 0.31 0.35 0.27 0.18 0.11 0.10 0.09 0.10 0.23 0.14 0.04 0.03 0.16 0.06 0.07 0.07 0.04 0.03 0.03 0.08 0.05 0.02 0.06 0.07 0.10 0.05 0.00 0.00 0.00 0.00 0.00 0.00 0.00 0.00 0.00 0.00 0.00 0.00 0.00 0.00 0.00
0.05 0.05 0.06 0.05 0.03 0.03 0.03 0.02 0.02 0.03 0.05 0.18 0.47 0.48 0.35 0.17 0.10 0.14 0.22 0.14 0.13 0.09 0.06 0.02 0.01 0.09 0.09 0.11 0.06 0.05 0.05 0.08 0.15 0.07 0.03 0.03 0.03 0.01 0.00 0.00 0.00 0.00 0.00 0.00 0.00 0.01 0.00 0.00 0.00 0.00 0.00 0.00 0.00 0.00
0.04 0.03 0.04 0.02 0.03 0.03 0.02 0.02 0.03 0.07 0.21 0.36 0.46 0.32 0.24 0.17 0.18 0.23 0.13 0.06 0.05 0.03 0.01 0.00 0.00 0.08 0.09 0.12 0.14 0.09 0.14 0.13 0.09 0.10 0.04 0.04 0.04 0.02 0.00 0.00 0.00 0.00 0.00 0.00 0.00 0.00 0.00 0.00 0.00 0.00 0.00 0.00 0.00 0.00
0.05 0.03 0.04 0.04 0.02 0.02 0.02 0.02 0.05 0.15 0.19 0.13 0.34 0.49 0.47 0.37 0.30 0.18 0.07 0.03 0.02 0.00 0.00 0.00 0.00 0.05 0.17 0.12 0.28 0.12 0.05 0.08 0.10 0.11 0.04 0.03 0.02 0.01 0.00 0.00 0.00 0.00 0.00 0.00 0.00 0.00 0.00 0.00 0.00 0.00 0.00 0.00 0.01 0.00
0.06 0.05 0.05 0.05 0.03 0.01 0.02 0.03 0.04 0.12 0.31 0.43 0.58 0.63 0.37 0.25 0.20 0.08 0.03 0.01 0.00 0.00 0.01 0.00 0.01 0.04 0.03 0.04 0.12 0.04 0.01 0.06 0.10 0.09 0.06 0.03 0.01 0.00 0.00 0.00 0.00 0.00 0.00 0.00 0.00 0.00 0.00 0.00 0.00 0.00 0.00 0.00 0.00 0.00
0.08 0.06 0.07 0.05 0.04 0.02 0.02 0.03 0.09 0.29 0.62 0.51 0.51 0.36 0.16 0.09 0.02 0.00 0.01 0.03 0.01 0.00 0.00 0.01 0.02 0.02 0.01 0.02 0.10 0.06 0.04 0.02 0.03 0.06 0.05 0.01 0.00 0.00 0.00 0.00 0.00 0.00 0.00 0.00 0.00 0.00 0.00 0.00 0.00 0.00 0.00 0.00 0.00 0.00
0.09 0.07 0.07 0.05 0.05 0.02 0.03 0.07 0.23 0.44 0.61 0.38 0.37 0.20 0.02 0.03 0.01 0.03 0.03 0.02 0.01 0.00 0.01 0.01 0.01 0.03 0.01 0.05 0.04 0.07 0.03 0.02 0.02 0.06 0.02 0.02 0.01 0.00 0.00 0.00 0.00 0.00 0.00 0.00 0.00 0.00 0.00 0.00 0.00 0.00 0.00 0.00 0.00 0.00
0.15 0.22 0.10 0.03 0.05 0.06 0.10 0.24 0.48 0.44 0.39 0.24 0.20 0.23 0.05 0.00 0.01 0.01 0.02 0.01 0.00 0.01 0.02 0.05 0.02 0.02 0.01 0.01 0.02 0.02 0.04 0.08 0.06 0.01 0.02 0.01 0.00 0.00 0.00 0.00 0.00 0.00 0.00 0.00 0.00 0.00 0.00 0.00 0.00 0.01 0.01 0.00 0.00 0.00
0.28 0.23 0.08 0.05 0.08 0.14 0.23 0.39 0.38 0.34 0.24 0.15 0.09 0.09 0.06 0.02 0.01 0.01 0.01 0.00 0.00 0.02 0.04 0.04 0.02 0.01 0.01 0.01 0.00 0.01 0.02 0.01 0.01 0.01 0.01 0.00 0.00 0.00 0.00 0.00 0.00 0.00 0.00 0.00 0.00 0.00 0.00 0.00 0.00 0.00 0.02 0.01 0.00 0.00
0.24 0.11 0.03 0.06 0.18 0.35 0.41 0.27 0.20 0.19 0.12 0.06 0.06 0.04 0.01 0.01 0.01 0.01 0.01 0.00 0.01 0.01 0.03 0.02 0.00 0.01 0.02 0.03 0.03 0.00 0.01 0.02 0.01 0.01 0.01 0.00 0.00 0.00 0.00 0.00 0.00 0.00 0.00 0.00 0.00 0.00 0.00 0.00 0.01 0.04 0.01 0.01 0.00 0.00
0.27 0.15 0.10 0.10 0.15 0.20 0.25 0.16 0.10 0.09 0.03 0.03 0.03 0.01 0.01 0.01 0.01 0.00 0.01 0.00 0.00 0.00 0.00 0.00 0.00 0.02 0.02 0.00 0.00 0.00 0.01 0.01 0.02 0.01 0.01 0.00 0.00 0.00 0.00 0.00 0.00 0.00 0.00 0.00 0.01 0.02 0.02 0.00 0.01 0.00 0.01 0.01 0.01 0.01
0.30 0.23 0.21 0.15 0.07 0.12 0.08 0.06 0.02 0.03 0.01 0.03 0.01 0.01 0.01 0.01 0.01 0.01 0.01 0.00 0.00 0.00 0.01 0.00 0.00 0.00 0.00 0.00 0.00 0.00 0.00 0.00 0.00 0.00 0.01 0.01 0.00 0.00 0.00 0.01 0.01 0.00 0.00 0.01 0.01 0.00 0.00 0.01 0.01 0.00 0.00 0.00 0.01 0.01
0.32 0.31 0.20 0.15 0.17 0.14 0.03 0.01 0.00 0.01 0.00 0.02 0.01 0.00 0.01 0.02 0.02 0.02 0.02 0.01 0.03 0.02 0.01 0.00 0.00 0.00 0.00 0.00 0.00 0.00 0.00 0.00 0.00 0.00 0.00 0.00 0.00 0.01 0.01 0.02 0.01 0.01 0.01 0.01 0.01 0.01 0.01 0.01 0.01 0.00 0.00 0.01 0.01 0.01
0.22 0.17 0.20 0.13 0.11 0.05 0.01 0.00 0.00 0.00 0.01 0.03 0.02 0.00 0.02 0.03 0.03 0.02 0.00 0.02 0.02 0.00 0.00 0.00 0.00 0.00 0.00 0.00 0.00 0.00 0.00 0.00 0.00 0.00 0.00 0.00 0.00 0.00 0.01 0.01 0.01 0.01 0.01 0.01 0.01 0.01 0.01 0.01 0.00 0.00 0.00 0.01 0.00 0.01
0.06 0.10 0.09 0.08 0.11 0.05 0.05 0.01 0.00 0.00 0.01 0.02 0.01 0.01 0.01 0.02 0.01 0.00 0.02 0.01 0.01 0.00 0.00 0.00 0.00 0.00 0.00 0.00 0.00 0.00 0.00 0.00 0.00 0.00 0.00 0.00 0.00 0.00 0.00 0.00 0.00 0.00 0.00 0.00 0.00 0.00 0.00 0.00 0.00 0.00 0.00 0.01 0.01 0.01
0.07 0.11 0.10 0.07 0.08 0.05 0.04 0.02 0.00 0.00 0.01 0.01 0.02 0.01 0.01 0.01 0.00 0.00 0.01 0.00 0.01 0.00 0.00 0.00 0.00 0.00 0.00 0.00 0.00 0.00 0.00 0.00 0.00 0.00 0.00 0.00 0.00 0.00 0.00 0.00 0.00 0.00 0.00 0.00 0.00 0.00 0.00 0.01 0.01 0.00 0.01 0.01 0.01 0.01
0.17 0.12 0.10 0.05 0.02 0.02 0.02 0.02 0.01 0.00 0.01 0.01 0.01 0.00 0.00 0.00 0.00 0.00 0.00 0.01 0.01 0.01 0.00 0.00 0.00 0.00 0.00 0.00 0.00 0.00 0.00 0.00 0.00 0.00 0.00 0.00 0.00 0.00 0.00 0.00 0.00 0.00 0.00 0.00 0.01 0.01 0.01 0.01 0.01 0.01 0.01 0.01 0.00 0.00
0.16 0.07 0.08 0.05 0.01 0.01 0.00 0.01 0.00 0.00 0.00 0.00 0.01 0.00 0.00 0.00 0.00 0.00 0.02 0.01 0.01 0.01 0.01 0.00 0.00 0.00 0.00 0.00 0.00 0.00 0.00 0.00 0.00 0.00 0.00 0.00 0.00 0.00 0.00 0.00 0.00 0.01 0.00 0.00 0.00 0.00 0.00 0.00 0.00 0.00 0.00 0.00 0.00 0.00
0.10 0.05 0.03 0.01 0.02 0.00 0.01 0.00 0.00 0.00 0.00 0.00 0.01 0.00 0.00 0.00 0.00 0.01 0.02 0.04 0.01 0.00 0.00 0.00 0.00 0.00 0.00 0.00 0.00 0.00 0.00 0.00 0.00 0.00 0.00 0.00 0.00 0.00 0.00 0.00 0.00 0.01 0.00 0.00 0.00 0.00 0.00 0.00 0.00 0.00 0.00 0.00 0.00 0.00
0.02 0.02 0.05 0.04 0.02 0.01 0.01 0.00 0.00 0.00 0.00 0.00 0.00 0.00 0.00 0.00 0.02 0.03 0.03 0.08 0.05 0.02 0.02 0.01 0.00 0.00 0.00 0.00 0.00 0.00 0.00 0.00 0.00 0.00 0.00 0.00 0.00 0.00 0.00 0.00 0.00 0.00 0.00 0.00 0.00 0.00 0.00 0.00 0.00 0.00 0.00 0.00 0.00 0.00
0.01 0.01 0.02 0.01 0.01 0.00 0.00 0.01 0.01 0.00 0.00 0.01 0.03 0.01 0.01 0.01 0.04 0.05 0.06 0.07 0.01 0.00 0.00 0.00 0.01 0.00 0.00 0.00 0.00 0.00 0.00 0.00 0.00 0.00 0.00 0.00 0.00 0.01 0.00 0.00 0.00 0.00 0.00 0.00 0.00 0.00 0.00 0.00 0.00 0.00 0.00 0.00 0.01 0.01
0.00 0.00 0.00 0.00 0.00 0.01 0.01 0.01 0.02 0.01 0.00 0.00 0.00 0.00 0.01 0.03 0.05 0.07 0.09 0.05 0.04 0.02 0.01 0.00 0.00 0.00 0.00 0.00 0.01 0.01 0.00 0.00 0.00 0.00 0.00 0.00 0.00 0.00 0.00 0.00 0.00 0.00 0.00 0.00 0.00 0.00 0.00 0.00 0.00 0.00 0.00 0.00 0.00 0.00
0.00 0.00 0.00 0.00 0.01 0.02 0.02 0.02 0.01 0.00 0.01 0.02 0.01 0.00 0.01 0.03 0.05 0.04 0.08 0.12 0.04 0.01 0.01 0.01 0.01 0.01 0.00 0.00 0.00 0.00 0.00 0.00 0.00 0.00 0.00 0.00 0.00 0.00 0.00 0.00 0.00 0.00 0.00 0.00 0.00 0.00 0.00 0.00 0.00 0.00 0.00 0.00 0.00 0.00
0.00 0.00 0.00 0.00 0.02 0.01 0.02 0.04 0.02 0.01 0.02 0.01 0.01 0.01 0.02 0.02 0.03 0.04 0.04 0.07 0.06 0.04 0.03 0.01 0.01 0.02 0.01 0.00 0.00 0.00 0.00 0.00 0.00 0.00 0.00 0.00 0.00 0.00 0.00 0.00 0.00 0.00 0.00 0.00 0.00 0.00 0.00 0.00 0.00 0.00 0.00 0.00 0.00 0.00
0.01 0.00 0.00 0.00 0.01 0.01 0.01 0.01 0.01 0.01 0.02 0.02 0.02 0.03 0.04 0.02 0.02 0.03 0.04 0.07 0.10 0.03 0.03 0.01 0.00 0.00 0.00 0.00 0.00 0.00 0.00 0.00 0.00 0.00 0.00 0.00 0.00 0.00 0.00 0.00 0.00 0.00 0.00 0.00 0.00 0.00 0.00 0.00 0.00 0.00 0.00 0.00 0.00 0.00

GFSWCAN_prec_precacc12_108.txt.gz
Total_Precipitation_Accumulation
0.16 0.12 0.08 0.04 0.02 0.02 0.01 0.01 0.01 0.01 0.01 0.00 0.02 0.01 0.00 0.00 0.00 0.04 0.09 0.03 0.02 0.03 0.01 0.00 0.00 0.00 0.00 0.01 0.01 0.00 0.02 0.01 0.00 0.02 0.02 0.01 0.02 0.01 0.08 0.06 0.01 0.01 0.06 0.03 0.02 0.02 0.03 0.00 0.00 0.03 0.09 0.08 0.04 0.04
0.19 0.13 0.07 0.05 0.04 0.01 0.01 0.01 0.01 0.01 0.01 0.01 0.01 0.00 0.00 0.00 0.00 0.02 0.07 0.05 0.06 0.04 0.01 0.00 0.00 0.00 0.00 0.00 0.01 0.00 0.01 0.03 0.02 0.02 0.02 0.01 0.02 0.01 0.02 0.21 0.02 0.04 0.03 0.02 0.02 0.05 0.07 0.02 0.03 0.05 0.03 0.03 0.05 0.04
0.18 0.11 0.07 0.04 0.05 0.02 0.00 0.00 0.00 0.01 0.01 0.01 0.01 0.01 0.00 0.00 0.00 0.01 0.08 0.06 0.08 0.04 0.01 0.00 0.02 0.01 0.00 0.00 0.00 0.01 0.06 0.03 0.03 0.01 0.02 0.01 0.03 0.05 0.07 0.10 0.05 0.04 0.01 0.03 0.06 0.06 0.02 0.02 0.02 0.02 0.02 0.02 0.03 0.02
0.19 0.12 0.06 0.02 0.04 0.03 0.01 0.01 0.00 0.00 0.01 0.02 0.02 0.01 0.00 0.00 0.00 0.01 0.07 0.04 0.03 0.04 0.02 0.05 0.02 0.01 0.00 0.00 0.00 0.00 0.02 0.00 0.00 0.02 0.02 0.01 0.02 0.06 0.07 0.08 0.04 0.01 0.01 0.02 0.05 0.05 0.04 0.02 0.02 0.01 0.00 0.00 0.00 0.00
0.14 0.13 0.08 0.03 0.03 0.03 0.01 0.01 0.00 0.00 0.01 0.02 0.02 0.02 0.00 0.00 0.00 0.02 0.07 0.08 0.04 0.09 0.08 0.02 0.04 0.01 0.00 0.00 0.00 0.00 0.00 0.00 0.01 0.03 0.06 0.05 0.07 0.06 0.05 0.11 0.06 0.00 0.01 0.05 0.09 0.02 0.04 0.03 0.02 0.00 0.00 0.00 0.00 0.00
0.08 0.11 0.10 0.05 0.04 0.03 0.01 0.01 0.00 0.00 0.01 0.02 0.01 0.03 0.01 0.00 0.02 0.07 0.06 0.04 0.03 0.07 0.07 0.03 0.06 0.02 0.00 0.00 0.00 0.00 0.00 0.01 0.01 0.01 0.03 0.04 0.06 0.09 0.05 0.11 0.04 0.01 0.00 0.01 0.04 0.01 0.02 0.02 0.02 0.01 0.00 0.00 0.00 0.00
0.07 0.08 0.09 0.09 0.06 0.03 0.02 0.02 0.00 0.00 0.01 0.02 0.02 0.03 0.00 0.01 0.06 0.08 0.06 0.15 0.05 0.08 0.06 0.04 0.07 0.04 0.00 0.00 0.00 0.00 0.00 0.01 0.00 0.01 0.03 0.05 0.09 0.10 0.10 0.08 0.02 0.00 0.00 0.00 0.02 0.02 0.03 0.01 0.01 0.00 0.00 0.00 0.00 0.00
0.07 0.08 0.07 0.08 0.07 0.04 0.04 0.03 0.01 0.00 0.01 0.02 0.03 0.01 0.01 0.03 0.06 0.06 0.02 0.14 0.06 0.12 0.06 0.06 0.07 0.07 0.00 0.01 0.03 0.01 0.01 0.00 0.00 0.03 0.02 0.03 0.07 0.16 0.16 0.01 0.00 0.00 0.00 0.00 0.00 0.00 0.01 0.00 0.00 0.00 0.00 0.00 0.00 0.00
0.07 0.07 0.07 0.07 0.04 0.03 0.04 0.02 0.01 0.01 0.01 0.04 0.06 0.09 0.16 0.15 0.12 0.04 0.03 0.04 0.10 0.22 0.13 0.04 0.03 0.15 0.06 0.06 0.06 0.03 0.02 0.02 0.07 0.04 0.02 0.05 0.07 0.11 0.08 0.00 0.00 0.00 0.00 0.00 0.00 0.00 0.00 0.00 0.00 0.00 0.00 0.00 0.00 0.00
0.06 0.05 0.05 0.05 0.03 0.03 0.02 0.02 0.02 0.03 0.05 0.07 0.14 0.24 0.22 0.08 0.06 0.09 0.13 0.10 0.12 0.09 0.05 0.02 0.01 0.09 0.07 0.05 0.04 0.02 0.04 0.06 0.14 0.07 0.03 0.02 0.03 0.02 0.01 0.00 0.00 0.00 0.00 0.00 0.00 0.01 0.00 0.00 0.00 0.00 0.00 0.00 0.00 0.00
0.05 0.05 0.05 0.04 0.03 0.02 0.01 0.01 0.03 0.07 0.09 0.13 0.18 0.21 0.18 0.11 0.16 0.20 0.13 0.06 0.04 0.03 0.01 0.00 0.00 0.07 0.08 0.10 0.13 0.08 0.14 0.12 0.09 0.14 0.03 0.04 0.05 0.02 0.00 0.00 0.00 0.00 0.00 0.00 0.00 0.00 0.00 0.00 0.00 0.00 0.00 0.00 0.00 0.00
0.05 0.05 0.05 0.04 0.02 0.02 0.01 0.02 0.05 0.05 0.06 0.06 0.21 0.47 0.44 0.28 0.28 0.19 0.08 0.03 0.02 0.00 0.00 0.00 0.00 0.04 0.16 0.13 0.31 0.12 0.05 0.06 0.09 0.11 0.02 0.04 0.03 0.00 0.00 0.00 0.00 0.00 0.00 0.00 0.00 0.00 0.00 0.00 0.00 0.00 0.00 0.00 0.00 0.00
0.07 0.06 0.07 0.05 0.02 0.01 0.01 0.03 0.02 0.06 0.15 0.26 0.48 0.61 0.31 0.17 0.21 0.08 0.04 0.01 0.00 0.00 0.01 0.00 0.01 0.03 0.03 0.02 0.07 0.03 0.01 0.05 0.08 0.06 0.06 0.03 0.01 0.00 0.00 0.00 0.00 0.00 0.00 0.00 0.00 0.00 0.00 0.00 0.00 0.00 0.00 0.00 0.00 0.00
0.09 0.08 0.08 0.06 0.02 0.01 0.01 0.03 0.06 0.13 0.33 0.40 0.44 0.37 0.16 0.09 0.03 0.00 0.01 0.03 0.01 0.00 0.00 0.00 0.02 0.02 0.01 0.00 0.05 0.05 0.04 0.01 0.03 0.05 0.06 0.01 0.00 0.00 0.00 0.00 0.00 0.00 0.00 0.00 0.00 0.00 0.00 0.00 0.00 0.00 0.00 0.00 0.00 0.00
0.11 0.09 0.10 0.06 0.04 0.01 0.03 0.07 0.10 0.18 0.34 0.33 0.34 0.22 0.03 0.03 0.01 0.03 0.04 0.02 0.01 0.00 0.01 0.01 0.01 0.03 0.01 0.03 0.03 0.06 0.03 0.02 0.02 0.06 0.02 0.02 0.01 0.00 0.00 0.00 0.00 0.00 0.00 0.00 0.00 0.00 0.00 0.00 0.00 0.00 0.00 0.00 0.00 0.00
0.12 0.15 0.08 0.06 0.05 0.06 0.10 0.11 0.16 0.24 0.26 0.21 0.19 0.26 0.09 0.01 0.01 0.01 0.03 0.01 0.00 0.01 0.02 0.04 0.02 0.02 0.00 0.01 0.02 0.02 0.04 0.09 0.08 0.01 0.02 0.01 0.00 0.00 0.00 0.00 0.00 0.00 0.00 0.00 0.00 0.00 0.00 0.00 0.00 0.00 0.00 0.00 0.00 0.00
0.10 0.06 0.04 0.08 0.08 0.10 0.08 0.12 0.18 0.20 0.17 0.14 0.09 0.12 0.14 0.04 0.01 0.01 0.01 0.01 0.00 0.02 0.04 0.04 0.02 0.01 0.01 0.01 0.00 0.01 0.02 0.01 0.01 0.01 0.01 0.00 0.00 0.00 0.00 0.00 0.00 0.00 0.00 0.00 0.00 0.00 0.00 0.00 0.00 0.00 0.02 0.01 0.00 0.00
0.06 0.05 0.03 0.06 0.10 0.16 0.16 0.15 0.11 0.13 0.09 0.04 0.07 0.08 0.07 0.03 0.01 0.01 0.00 0.00 0.01 0.01 0.03 0.02 0.00 0.01 0.02 0.03 0.03 0.00 0.01 0.02 0.01 0.01 0.01 0.00 0.00 0.00 0.00 0.00 0.00 0.00 0.00 0.00 0.00 0.00 0.00 0.00 0.01 0.04 0.01 0.01 0.01 0.00
0.15 0.08 0.06 0.05 0.09 0.11 0.12 0.07 0.10 0.11 0.02 0.03 0.03 0.02 0.02 0.01 0.00 0.00 0.00 0.00 0.00 0.00 0.00 0.00 0.00 0.02 0.02 0.00 0.00 0.00 0.01 0.01 0.02 0.01 0.01 0.00 0.00 0.00 0.00 0.00 0.00 0.00 0.00 0.00 0.01 0.02 0.02 0.00 0.01 0.00 0.00 0.00 0.01 0.00
0.23 0.17 0.15 0.13 0.08 0.12 0.07 0.03 0.02 0.04 0.01 0.03 0.03 0.02 0.01 0.01 0.00 0.01 0.00 0.00 0.00 0.00 0.01 0.00 0.00 0.00 0.00 0.00 0.00 0.00 0.00 0.00 0.00 0.01 0.01 0.01 0.00 0.00 0.00 0.01 0.01 0.00 0.00 0.00 0.00 0.00 0.00 0.00 0.00 0.00 0.00 0.00 0.00 0.01
0.33 0.32 0.23 0.16 0.17 0.17 0.07 0.00 0.00 0.01 0.01 0.04 0.04 0.01 0.01 0.01 0.01 0.01 0.01 0.01 0.02 0.01 0.01 0.00 0.00 0.00 0.00 0.00 0.00 0.00 0.00 0.00 0.00 0.00 0.00 0.00 0.00 0.00 0.01 0.02 0.01 0.00 0.00 0.01 0.01 0.01 0.01 0.01 0.00 0.00 0.00 0.01 0.01 0.00
0.24 0.19 0.24 0.17 0.22 0.11 0.06 0.00 0.00 0.00 0.01 0.04 0.04 0.01 0.01 0.02 0.02 0.01 0.00 0.01 0.01 0.00 0.00 0.00 0.00 0.00 0.00 0.00 0.00 0.00 0.00 0.00 0.00 0.00 0.00 0.00 0.00 0.00 0.01 0.00 0.00 0.00 0.00 0.01 0.01 0.01 0.01 0.01 0.00 0.00 0.00 0.01 0.00 0.00
0.06 0.10 0.09 0.08 0.13 0.06 0.05 0.00 0.00 0.00 0.01 0.03 0.02 0.01 0.01 0.01 0.01 0.00 0.01 0.01 0.00 0.00 0.00 0.00 0.00 0.00 0.00 0.00 0.00 0.00 0.00 0.00 0.00 0.00 0.00 0.00 0.00 0.00 0.00 0.00 0.00 0.00 0.00 0.00 0.00 0.00 0.00 0.00 0.00 0.00 0.00 0.00 0.01 0.01
0.07 0.11 0.09 0.06 0.10 0.06 0.05 0.03 0.00 0.00 0.01 0.01 0.02 0.01 0.01 0.01 0.00 0.00 0.01 0.00 0.00 0.00 0.00 0.00 0.00 0.00 0.00 0.00 0.00 0.00 0.00 0.00 0.00 0.00 0.00 0.00 0.00 0.00 0.00 0.00 0.00 0.00 0.00 0.00 0.00 0.00 0.00 0.01 0.01 0.00 0.01 0.01 0.01 0.01
0.17 0.12 0.10 0.07 0.08 0.02 0.03 0.03 0.01 0.00 0.01 0.01 0.01 0.00 0.01 0.00 0.00 0.00 0.00 0.00 0.00 0.00 0.00 0.00 0.00 0.00 0.00 0.00 0.00 0.00 0.00 0.00 0.00 0.00 0.00 0.00 0.00 0.00 0.00 0.00 0.00 0.00 0.00 0.00 0.00 0.01 0.01 0.01 0.01 0.00 0.00 0.00 0.00 0.00
0.16 0.06 0.08 0.05 0.01 0.01 0.01 0.01 0.00 0.00 0.00 0.00 0.01 0.00 0.00 0.00 0.01 0.01 0.02 0.01 0.01 0.01 0.00 0.00 0.00 0.00 0.00 0.00 0.00 0.00 0.00 0.00 0.00 0.00 0.00 0.00 0.00 0.00 0.00 0.00 0.00 0.01 0.00 0.00 0.00 0.00 0.00 0.00 0.00 0.00 0.00 0.00 0.00 0.00
0.11 0.06 0.03 0.02 0.02 0.01 0.01 0.00 0.01 0.00 0.00 0.01 0.01 0.00 0.00 0.01 0.01 0.02 0.03 0.04 0.01 0.00 0.00 0.00 0.00 0.00 0.00 0.00 0.00 0.00 0.00 0.00 0.00 0.00 0.00 0.00 0.00 0.00 0.00 0.00 0.00 0.01 0.00 0.00 0.00 0.00 0.00 0.00 0.00 0.00 0.00 0.00 0.00 0.00
0.06 0.04 0.06 0.05 0.04 0.03 0.01 0.01 0.00 0.00 0.00 0.00 0.00 0.00 0.01 0.01 0.03 0.04 0.03 0.10 0.06 0.02 0.02 0.01 0.00 0.00 0.00 0.00 0.00 0.00 0.00 0.00 0.00 0.00 0.00 0.00 0.00 0.00 0.00 0.00 0.00 0.00 0.00 0.00 0.00 0.00 0.00 0.00 0.00 0.00 0.00 0.00 0.00 0.01
0.06 0.09 0.09 0.07 0.06 0.04 0.02 0.01 0.01 0.00 0.00 0.01 0.03 0.02 0.01 0.02 0.04 0.05 0.08 0.09 0.02 0.00 0.00 0.01 0.03 0.00 0.00 0.00 0.00 0.00 0.00 0.00 0.00 0.00 0.00 0.00 0.01 0.01 0.00 0.00 0.00 0.00 0.00 0.00 0.00 0.00 0.00 0.00 0.00 0.00 0.00 0.00 0.01 0.01
0.03 0.06 0.05 0.02 0.01 0.01 0.02 0.02 0.02 0.01 0.00 0.00 0.00 0.00 0.01 0.02 0.04 0.08 0.11 0.07 0.04 0.02 0.01 0.01 0.01 0.01 0.01 0.01 0.01 0.01 0.00 0.00 0.00 0.00 0.00 0.00 0.00 0.00 0.00 0.00 0.00 0.00 0.00 0.00 0.00 0.00 0.00 0.00 0.00 0.00 0.00 0.00 0.00 0.00
0.01 0.02 0.02 0.03 0.03 0.02 0.02 0.01 0.01 0.01 0.01 0.02 0.01 0.00 0.01 0.02 0.04 0.03 0.08 0.13 0.05 0.01 0.02 0.03 0.03 0.02 0.01 0.00 0.00 0.00 0.00 0.00 0.00 0.00 0.00 0.00 0.00 0.00 0.00 0.00 0.00 0.00 0.00 0.00 0.00 0.00 0.00 0.00 0.00 0.00 0.00 0.00 0.00 0.00
0.01 0.01 0.00 0.02 0.02 0.01 0.02 0.04 0.02 0.01 0.02 0.01 0.01 0.01 0.02 0.02 0.02 0.04 0.05 0.09 0.06 0.04 0.04 0.02 0.02 0.03 0.01 0.00 0.00 0.00 0.00 0.00 0.00 0.00 0.00 0.00 0.00 0.00 0.00 0.00 0.00 0.00 0.00 0.00 0.00 0.00 0.00 0.00 0.00 0.00 0.00 0.00 0.00 0.00
0.01 0.01 0.00 0.00 0.01 0.01 0.01 0.02 0.01 0.02 0.02 0.02 0.02 0.03 0.05 0.02 0.02 0.03 0.04 0.07 0.10 0.04 0.03 0.01 0.01 0.01 0.00 0.00 0.00 0.00 0.00 0.00 0.00 0.00 0.00 0.00 0.00 0.00 0.00 0.00 0.00 0.00 0.00 0.00 0.00 0.00 0.00 0.00 0.00 0.00 0.00 0.00 0.00 0.00

GFSWCAN_prec_precacc12_111.txt.gz
Total_Precipitation_Accumulation
0.19 0.14 0.09 0.03 0.02 0.02 0.02 0.02 0.02 0.01 0.01 0.00 0.01 0.00 0.00 0.00 0.00 0.02 0.06 0.01 0.01 0.02 0.00 0.00 0.00 0.00 0.00 0.00 0.01 0.00 0.01 0.01 0.00 0.01 0.01 0.00 0.00 0.00 0.12 0.06 0.01 0.00 0.04 0.02 0.01 0.01 0.03 0.01 0.00 0.04 0.09 0.08 0.05 0.04
0.23 0.15 0.08 0.03 0.02 0.02 0.02 0.01 0.01 0.01 0.01 0.01 0.00 0.00 0.00 0.00 0.00 0.00 0.04 0.01 0.02 0.02 0.01 0.00 0.00 0.00 0.00 0.00 0.00 0.00 0.01 0.03 0.01 0.01 0.01 0.00 0.00 0.01 0.03 0.19 0.02 0.02 0.01 0.01 0.02 0.04 0.07 0.03 0.04 0.06 0.03 0.04 0.06 0.03
0.21 0.13 0.08 0.03 0.04 0.03 0.01 0.01 0.01 0.01 0.02 0.02 0.00 0.00 0.00 0.00 0.00 0.00 0.05 0.02 0.00 0.02 0.00 0.00 0.01 0.01 0.00 0.00 0.00 0.00 0.06 0.02 0.02 0.01 0.01 0.01 0.01 0.02 0.07 0.14 0.06 0.03 0.01 0.02 0.04 0.05 0.03 0.02 0.02 0.02 0.01 0.01 0.01 0.00
0.20 0.12 0.07 0.03 0.05 0.04 0.01 0.01 0.00 0.01 0.02 0.02 0.01 0.01 0.00 0.00 0.00 0.00 0.02 0.02 0.01 0.02 0.01 0.03 0.02 0.01 0.00 0.00 0.00 0.00 0.01 0.00 0.00 0.01 0.02 0.01 0.00 0.03 0.05 0.08 0.03 0.00 0.00 0.01 0.03 0.04 0.03 0.02 0.02 0.01 0.00 0.00 0.00 0.00
0.17 0.13 0.08 0.04 0.02 0.03 0.01 0.01 0.00 0.00 0.01 0.02 0.01 0.01 0.00 0.00 0.00 0.00 0.03 0.04 0.03 0.06 0.05 0.01 0.03 0.00 0.00 0.00 0.00 0.00 0.00 0.00 0.00 0.01 0.04 0.02 0.03 0.03 0.03 0.09 0.05 0.00 0.00 0.03 0.05 0.02 0.03 0.02 0.01 0.00 0.00 0.00 0.00 0.00
0.13 0.12 0.09 0.06 0.03 0.02 0.01 0.01 0.00 0.00 0.01 0.02 0.01 0.03 0.01 0.00 0.00 0.02 0.03 0.02 0.01 0.04 0.05 0.01 0.03 0.02 0.00 0.00 0.00 0.00 0.00 0.00 0.01 0.00 0.01 0.01 0.03 0.05 0.03 0.09 0.04 0.00 0.00 0.00 0.01 0.00 0.00 0.00 0.00 0.00 0.00 0.00 0.00 0.00
0.11 0.10 0.10 0.08 0.05 0.03 0.01 0.02 0.00 0.00 0.01 0.02 0.03 0.03 0.00 0.00 0.02 0.04 0.03 0.12 0.03 0.06 0.04 0.01 0.05 0.04 0.00 0.00 0.00 0.00 0.00 0.01 0.00 0.01 0.01 0.02 0.04 0.06 0.08 0.07 0.02 0.00 0.00 0.00 0.00 0.01 0.02 0.00 0.00 0.00 0.00 0.00 0.00 0.00
0.08 0.08 0.09 0.08 0.07 0.03 0.03 0.02 0.00 0.00 0.01 0.03 0.04 0.01 0.00 0.01 0.01 0.01 0.01 0.13 0.04 0.04 0.02 0.01 0.05 0.06 0.00 0.01 0.02 0.01 0.01 0.00 0.00 0.01 0.01 0.01 0.04 0.12 0.14 0.01 0.00 0.00 0.00 0.00 0.00 0.00 0.00 0.00 0.00 0.00 0.00 0.00 0.00 0.00
0.06 0.08 0.07 0.07 0.04 0.03 0.03 0.02 0.01 0.01 0.02 0.04 0.05 0.02 0.03 0.03 0.02 0.02 0.03 0.04 0.06 0.16 0.08 0.03 0.01 0.10 0.04 0.04 0.05 0.02 0.01 0.01 0.03 0.02 0.01 0.03 0.06 0.10 0.09 0.00 0.00 0.00 0.00 0.00 0.00 0.00 0.00 0.00 0.00 0.00 0.00 0.00 0.00 0.00
0.06 0.05 0.06 0.05 0.02 0.02 0.02 0.01 0.02 0.03 0.06 0.06 0.05 0.06 0.07 0.03 0.02 0.05 0.05 0.04 0.04 0.03 0.04 0.02 0.00 0.06 0.05 0.03 0.02 0.01 0.01 0.02 0.10 0.05 0.02 0.01 0.04 0.04 0.02 0.00 0.00 0.00 0.00 0.00 0.00 0.01 0.00 0.00 0.00 0.00 0.00 0.00 0.00 0.00
0.04 0.05 0.05 0.03 0.02 0.02 0.01 0.01 0.03 0.07 0.07 0.05 0.04 0.06 0.12 0.07 0.10 0.16 0.10 0.03 0.01 0.02 0.01 0.00 0.00 0.04 0.06 0.04 0.07 0.04 0.09 0.08 0.07 0.13 0.03 0.04 0.04 0.02 0.00 0.00 0.00 0.00 0.00 0.00 0.00 0.00 0.00 0.00 0.00 0.00 0.00 0.00 0.00 0.00
0.04 0.06 0.05 0.03 0.02 0.02 0.01 0.01 0.04 0.04 0.04 0.01 0.04 0.34 0.33 0.18 0.20 0.16 0.07 0.02 0.02 0.00 0.00 0.00 0.00 0.03 0.14 0.11 0.26 0.10 0.04 0.03 0.07 0.09 0.01 0.03 0.03 0.00 0.00 0.00 0.00 0.00 0.00 0.00 0.00 0.00 0.00 0.00 0.00 0.00 0.00 0.00 0.00 0.00
0.07 0.07 0.07 0.04 0.02 0.01 0.00 0.01 0.01 0.06 0.08 0.04 0.22 0.50 0.24 0.13 0.20 0.08 0.03 0.01 0.00 0.00 0.00 0.00 0.00 0.03 0.02 0.01 0.04 0.01 0.00 0.03 0.05 0.04 0.04 0.02 0.01 0.00 0.00 0.00 0.00 0.00 0.00 0.00 0.00 0.00 0.00 0.00 0.00 0.00 0.00 0.00 0.00 0.00
0.10 0.09 0.09 0.05 0.02 0.00 0.01 0.03 0.07 0.08 0.09 0.15 0.26 0.31 0.14 0.08 0.02 0.00 0.01 0.02 0.01 0.00 0.00 0.00 0.01 0.01 0.00 0.00 0.01 0.02 0.03 0.01 0.01 0.04 0.04 0.01 0.00 0.00 0.00 0.00 0.00 0.00 0.00 0.00 0.00 0.00 0.00 0.00 0.00 0.00 0.00 0.00 0.00 0.00
0.12 0.11 0.11 0.07 0.02 0.01 0.03 0.08 0.07 0.03 0.12 0.18 0.25 0.20 0.03 0.03 0.01 0.03 0.04 0.01 0.01 0.00 0.00 0.01 0.01 0.02 0.00 0.01 0.01 0.03 0.02 0.01 0.01 0.05 0.02 0.02 0.00 0.00 0.00 0.00 0.00 0.00 0.00 0.00 0.00 0.00 0.00 0.00 0.00 0.00 0.00 0.00 0.00 0.00
0.14 0.16 0.07 0.07 0.04 0.04 0.08 0.07 0.04 0.07 0.13 0.15 0.18 0.26 0.10 0.02 0.00 0.01 0.03 0.01 0.00 0.00 0.01 0.03 0.01 0.02 0.00 0.01 0.01 0.01 0.03 0.08 0.07 0.01 0.01 0.01 0.00 0.00 0.00 0.00 0.00 0.00 0.00 0.00 0.00 0.00 0.00 0.00 0.00 0.00 0.00 0.00 0.00 0.00
0.10 0.05 0.07 0.11 0.08 0.06 0.04 0.04 0.06 0.10 0.11 0.12 0.09 0.13 0.15 0.05 0.01 0.01 0.00 0.01 0.00 0.01 0.02 0.03 0.01 0.01 0.01 0.00 0.00 0.01 0.01 0.01 0.01 0.01 0.01 0.00 0.00 0.00 0.00 0.00 0.00 0.00 0.00 0.00 0.00 0.00 0.00 0.00 0.00 0.00 0.01 0.00 0.00 0.00
0.04 0.06 0.06 0.08 0.08 0.08 0.07 0.05 0.06 0.10 0.08 0.04 0.07 0.08 0.08 0.05 0.01 0.00 0.00 0.00 0.00 0.00 0.03 0.02 0.00 0.01 0.01 0.03 0.03 0.00 0.00 0.02 0.01 0.01 0.01 0.00 0.00 0.00 0.00 0.00 0.00 0.00 0.00 0.00 0.00 0.00 0.00 0.00 0.01 0.04 0.01 0.00 0.01 0.00
0.07 0.05 0.04 0.03 0.03 0.04 0.05 0.02 0.08 0.10 0.02 0.03 0.03 0.02 0.03 0.02 0.01 0.01 0.00 0.00 0.00 0.00 0.00 0.00 0.00 0.02 0.02 0.00 0.00 0.00 0.00 0.00 0.02 0.01 0.01 0.00 0.00 0.00 0.00 0.00 0.00 0.00 0.00 0.00 0.01 0.02 0.01 0.00 0.00 0.00 0.00 0.00 0.00 0.00
0.06 0.03 0.01 0.02 0.05 0.12 0.05 0.02 0.02 0.04 0.02 0.03 0.03 0.02 0.01 0.01 0.00 0.00 0.00 0.00 0.00 0.00 0.00 0.00 0.00 0.00 0.00 0.00 0.00 0.00 0.00 0.00 0.00 0.01 0.01 0.01 0.00 0.00 0.00 0.00 0.01 0.00 0.00 0.00 0.00 0.00 0.00 0.00 0.00 0.00 0.00 0.00 0.00 0.01
0.15 0.13 0.11 0.06 0.14 0.16 0.07 0.00 0.00 0.02 0.01 0.04 0.04 0.02 0.01 0.01 0.01 0.01 0.00 0.00 0.01 0.01 0.01 0.00 0.00 0.00 0.00 0.00 0.00 0.00 0.00 0.00 0.00 0.00 0.00 0.00 0.00 0.00 0.00 0.01 0.00 0.00 0.00 0.00 0.00 0.00 0.01 0.00 0.00 0.00 0.00 0.00 0.01 0.00
0.18 0.13 0.14 0.14 0.23 0.15 0.11 0.00 0.00 0.00 0.01 0.04 0.04 0.02 0.01 0.02 0.01 0.01 0.00 0.01 0.01 0.00 0.00 0.00 0.00 0.00 0.00 0.00 0.00 0.00 0.00 0.00 0.00 0.00 0.00 0.00 0.00 0.00 0.00 0.00 0.00 0.00 0.00 0.00 0.00 0.00 0.01 0.00 0.00 0.00 0.00 0.00 0.00 0.00
0.06 0.09 0.07 0.08 0.20 0.11 0.09 0.00 0.00 0.01 0.01 0.05 0.04 0.03 0.02 0.01 0.00 0.00 0.00 0.00 0.00 0.00 0.00 0.00 0.00 0.00 0.00 0.00 0.00 0.00 0.00 0.00 0.00 0.00 0.00 0.00 0.00 0.00 0.00 0.00 0.00 0.00 0.00 0.00 0.00 0.00 0.00 0.00 0.00 0.00 0.00 0.00 0.01 0.00
0.06 0.10 0.06 0.04 0.11 0.08 0.09 0.03 0.00 0.00 0.00 0.02 0.02 0.02 0.01 0.00 0.00 0.00 0.01 0.00 0.00 0.00 0.00 0.00 0.00 0.00 0.00 0.00 0.00 0.00 0.00 0.00 0.00 0.00 0.00 0.00 0.00 0.00 0.00 0.00 0.00 0.00 0.00 0.00 0.00 0.00 0.00 0.00 0.00 0.00 0.00 0.00 0.00 0.00
0.14 0.08 0.05 0.05 0.10 0.04 0.04 0.04 0.02 0.00 0.00 0.00 0.01 0.00 0.01 0.00 0.00 0.00 0.00 0.00 0.00 0.00 0.00 0.00 0.00 0.00 0.00 0.00 0.00 0.00 0.00 0.00 0.00 0.00 0.00 0.00 0.00 0.00 0.00 0.00 0.00 0.00 0.00 0.00 0.00 0.00 0.00 0.00 0.00 0.00 0.00 0.00 0.00 0.00
0.16 0.06 0.07 0.04 0.02 0.01 0.01 0.01 0.00 0.00 0.00 0.01 0.01 0.00 0.00 0.00 0.01 0.01 0.02 0.01 0.00 0.00 0.00 0.00 0.00 0.00 0.00 0.00 0.00 0.00 0.00 0.00 0.00 0.00 0.00 0.00 0.00 0.00 0.00 0.00 0.00 0.01 0.00 0.00 0.00 0.00 0.00 0.00 0.00 0.00 0.00 0.00 0.00 0.00
0.11 0.05 0.03 0.02 0.02 0.01 0.01 0.00 0.01 0.00 0.00 0.01 0.01 0.00 0.00 0.01 0.01 0.02 0.03 0.04 0.01 0.00 0.00 0.00 0.00 0.00 0.00 0.00 0.00 0.00 0.00 0.00 0.00 0.00 0.00 0.00 0.00 0.00 0.00 0.00 0.00 0.01 0.00 0.00 0.00 0.00 0.00 0.00 0.00 0.00 0.00 0.00 0.00 0.00
0.06 0.05 0.07 0.06 0.04 0.03 0.02 0.01 0.00 0.00 0.00 0.00 0.00 0.00 0.01 0.01 0.03 0.03 0.03 0.10 0.05 0.02 0.02 0.01 0.00 0.00 0.00 0.00 0.00 0.00 0.00 0.00 0.00 0.00 0.00 0.00 0.00 0.00 0.00 0.00 0.00 0.00 0.00 0.00 0.00 0.00 0.00 0.00 0.00 0.00 0.00 0.00 0.00 0.01
0.07 0.11 0.14 0.12 0.09 0.06 0.03 0.02 0.01 0.00 0.00 0.01 0.03 0.02 0.01 0.02 0.04 0.04 0.07 0.09 0.02 0.01 0.01 0.02 0.03 0.01 0.00 0.00 0.00 0.00 0.00 0.00 0.00 0.00 0.00 0.00 0.01 0.01 0.00 0.00 0.00 0.00 0.00 0.00 0.00 0.00 0.00 0.00 0.00 0.00 0.00 0.00 0.01 0.01
0.03 0.08 0.11 0.08 0.06 0.04 0.03 0.02 0.01 0.00 0.00 0.00 0.00 0.00 0.01 0.01 0.03 0.07 0.09 0.05 0.05 0.02 0.02 0.02 0.02 0.01 0.01 0.01 0.02 0.02 0.01 0.00 0.00 0.00 0.00 0.00 0.00 0.00 0.00 0.00 0.00 0.00 0.00 0.00 0.00 0.00 0.00 0.00 0.00 0.00 0.00 0.00 0.00 0.00
0.02 0.03 0.05 0.06 0.06 0.05 0.03 0.02 0.02 0.01 0.01 0.02 0.00 0.00 0.01 0.02 0.02 0.03 0.07 0.13 0.05 0.01 0.02 0.04 0.05 0.03 0.02 0.01 0.01 0.01 0.01 0.00 0.00 0.00 0.00 0.00 0.00 0.00 0.00 0.00 0.00 0.00 0.00 0.00 0.00 0.00 0.00 0.00 0.00 0.00 0.00 0.00 0.00 0.00
0.05 0.05 0.04 0.05 0.06 0.05 0.05 0.06 0.03 0.01 0.02 0.01 0.01 0.01 0.02 0.01 0.02 0.03 0.05 0.09 0.06 0.04 0.04 0.02 0.02 0.05 0.03 0.02 0.01 0.00 0.00 0.00 0.00 0.00 0.00 0.00 0.00 0.00 0.00 0.00 0.00 0.00 0.00 0.00 0.00 0.00 0.00 0.00 0.00 0.00 0.00 0.00 0.00 0.00
0.02 0.02 0.03 0.02 0.03 0.03 0.03 0.03 0.02 0.02 0.02 0.01 0.01 0.03 0.04 0.02 0.02 0.03 0.04 0.07 0.09 0.03 0.03 0.02 0.02 0.03 0.01 0.00 0.00 0.00 0.00 0.00 0.00 0.00 0.00 0.00 0.00 0.00 0.00 0.00 0.00 0.00 0.00 0.00 0.00 0.00 0.00 0.00 0.00 0.00 0.00 0.00 0.00 0.00

GFSWCAN_prec_precacc12_114.txt.gz
Total_Precipitation_Accumulation
0.19 0.16 0.09 0.04 0.03 0.03 0.03 0.03 0.02 0.01 0.01 0.00 0.00 0.00 0.00 0.00 0.00 0.00 0.02 0.00 0.00 0.00 0.00 0.00 0.00 0.00 0.00 0.00 0.00 0.00 0.00 0.00 0.00 0.00 0.00 0.00 0.00 0.00 0.12 0.07 0.01 0.00 0.02 0.02 0.04 0.02 0.02 0.01 0.01 0.04 0.08 0.07 0.05 0.04
0.27 0.20 0.10 0.04 0.02 0.03 0.03 0.02 0.01 0.01 0.01 0.01 0.00 0.00 0.00 0.00 0.00 0.00 0.01 0.00 0.00 0.00 0.00 0.00 0.00 0.00 0.00 0.00 0.00 0.00 0.00 0.01 0.01 0.00 0.00 0.00 0.00 0.00 0.05 0.14 0.02 0.01 0.01 0.01 0.03 0.04 0.08 0.04 0.05 0.06 0.02 0.04 0.06 0.02
0.27 0.17 0.10 0.04 0.05 0.04 0.01 0.01 0.01 0.01 0.01 0.01 0.00 0.00 0.00 0.00 0.00 0.00 0.02 0.01 0.00 0.00 0.00 0.00 0.00 0.00 0.00 0.00 0.00 0.00 0.03 0.01 0.00 0.00 0.00 0.00 0.00 0.01 0.06 0.14 0.06 0.03 0.01 0.01 0.03 0.06 0.04 0.03 0.03 0.02 0.01 0.01 0.01 0.00
0.20 0.12 0.07 0.05 0.06 0.03 0.01 0.01 0.01 0.01 0.01 0.01 0.01 0.00 0.00 0.00 0.00 0.00 0.00 0.00 0.00 0.00 0.00 0.01 0.01 0.00 0.00 0.00 0.00 0.00 0.00 0.00 0.00 0.00 0.00 0.00 0.00 0.01 0.02 0.07 0.01 0.01 0.01 0.01 0.02 0.04 0.03 0.03 0.02 0.01 0.00 0.00 0.00 0.00
0.16 0.12 0.09 0.08 0.05 0.03 0.02 0.01 0.00 0.01 0.01 0.02 0.01 0.01 0.00 0.00 0.00 0.00 0.00 0.01 0.01 0.02 0.01 0.00 0.00 0.00 0.00 0.00 0.00 0.00 0.00 0.00 0.00 0.00 0.01 0.01 0.00 0.01 0.02 0.05 0.03 0.00 0.01 0.02 0.02 0.01 0.01 0.02 0.01 0.00 0.00 0.00 0.00 0.00
0.12 0.14 0.13 0.08 0.04 0.03 0.01 0.01 0.01 0.01 0.01 0.02 0.01 0.01 0.01 0.00 0.00 0.00 0.00 0.00 0.01 0.02 0.01 0.00 0.00 0.00 0.00 0.00 0.00 0.00 0.00 0.00 0.00 0.00 0.00 0.00 0.01 0.01 0.02 0.04 0.04 0.00 0.00 0.00 0.00 0.00 0.00 0.00 0.00 0.00 0.00 0.00 0.00 0.00
0.10 0.11 0.10 0.07 0.06 0.03 0.01 0.01 0.01 0.01 0.01 0.02 0.02 0.03 0.00 0.00 0.00 0.01 0.01 0.04 0.01 0.03 0.02 0.00 0.01 0.02 0.00 0.00 0.00 0.00 0.00 0.00 0.00 0.00 0.00 0.00 0.00 0.02 0.04 0.03 0.02 0.00 0.00 0.00 0.00 0.01 0.01 0.00 0.00 0.00 0.00 0.00 0.00 0.00
0.07 0.07 0.08 0.07 0.05 0.02 0.02 0.01 0.01 0.01 0.02 0.03 0.03 0.00 0.00 0.00 0.00 0.00 0.01 0.08 0.03 0.01 0.00 0.00 0.01 0.03 0.00 0.00 0.00 0.00 0.00 0.00 0.00 0.00 0.00 0.00 0.01 0.05 0.08 0.01 0.00 0.00 0.00 0.00 0.00 0.00 0.00 0.00 0.00 0.00 0.00 0.00 0.00 0.00
0.07 0.08 0.06 0.06 0.03 0.02 0.02 0.01 0.01 0.01 0.02 0.03 0.04 0.01 0.00 0.00 0.00 0.01 0.03 0.02 0.03 0.05 0.01 0.01 0.00 0.03 0.02 0.01 0.02 0.01 0.00 0.00 0.00 0.00 0.00 0.01 0.03 0.05 0.08 0.01 0.00 0.00 0.00 0.00 0.00 0.00 0.00 0.00 0.00 0.00 0.00 0.00 0.00 0.00
0.08 0.07 0.06 0.05 0.02 0.01 0.01 0.01 0.01 0.02 0.04 0.05 0.02 0.00 0.00 0.00 0.01 0.03 0.01 0.01 0.01 0.01 0.01 0.01 0.00 0.01 0.01 0.01 0.01 0.00 0.00 0.00 0.03 0.02 0.01 0.01 0.03 0.04 0.02 0.00 0.00 0.00 0.00 0.00 0.00 0.00 0.00 0.00 0.00 0.00 0.00 0.00 0.00 0.00
0.07 0.07 0.06 0.04 0.01 0.01 0.00 0.01 0.02 0.05 0.05 0.02 0.00 0.01 0.03 0.03 0.03 0.05 0.05 0.01 0.00 0.01 0.00 0.00 0.00 0.00 0.03 0.02 0.02 0.01 0.02 0.02 0.04 0.10 0.02 0.03 0.03 0.02 0.00 0.00 0.00 0.00 0.00 0.00 0.00 0.00 0.00 0.00 0.00 0.00 0.00 0.00 0.00 0.00
0.06 0.08 0.05 0.03 0.01 0.01 0.01 0.01 0.03 0.02 0.02 0.01 0.01 0.16 0.18 0.08 0.08 0.10 0.05 0.01 0.01 0.00 0.00 0.00 0.00 0.01 0.07 0.05 0.16 0.05 0.02 0.01 0.03 0.06 0.01 0.02 0.02 0.00 0.00 0.00 0.00 0.00 0.00 0.00 0.00 0.00 0.00 0.00 0.00 0.00 0.00 0.00 0.00 0.00
0.07 0.07 0.06 0.03 0.01 0.01 0.00 0.00 0.01 0.04 0.05 0.00 0.07 0.28 0.12 0.07 0.12 0.05 0.02 0.00 0.00 0.00 0.00 0.00 0.00 0.01 0.02 0.00 0.04 0.00 0.00 0.01 0.03 0.03 0.01 0.01 0.01 0.00 0.00 0.00 0.00 0.00 0.00 0.00 0.00 0.00 0.00 0.00 0.00 0.00 0.00 0.00 0.00 0.00
0.09 0.08 0.08 0.04 0.01 0.01 0.00 0.02 0.05 0.04 0.03 0.02 0.08 0.17 0.07 0.05 0.01 0.00 0.00 0.00 0.00 0.00 0.00 0.00 0.00 0.00 0.00 0.00 0.00 0.00 0.00 0.00 0.00 0.01 0.02 0.01 0.00 0.00 0.00 0.00 0.00 0.00 0.00 0.00 0.00 0.00 0.00 0.00 0.00 0.00 0.00 0.00 0.00 0.00
0.11 0.10 0.11 0.06 0.02 0.01 0.02 0.06 0.03 0.01 0.03 0.05 0.08 0.11 0.02 0.02 0.00 0.01 0.03 0.00 0.00 0.00 0.00 0.00 0.00 0.00 0.00 0.00 0.00 0.01 0.01 0.01 0.00 0.02 0.01 0.01 0.00 0.00 0.00 0.00 0.00 0.00 0.00 0.00 0.00 0.00 0.00 0.00 0.00 0.00 0.00 0.00 0.00 0.00
0.15 0.16 0.07 0.08 0.04 0.04 0.05 0.03 0.01 0.00 0.02 0.05 0.07 0.20 0.11 0.02 0.01 0.01 0.03 0.01 0.00 0.00 0.00 0.01 0.00 0.00 0.00 0.00 0.01 0.00 0.01 0.04 0.05 0.00 0.01 0.00 0.00 0.00 0.00 0.00 0.00 0.00 0.00 0.00 0.00 0.00 0.00 0.00 0.00 0.00 0.00 0.00 0.00 0.00
0.07 0.04 0.10 0.12 0.06 0.03 0.01 0.02 0.00 0.01 0.03 0.04 0.07 0.13 0.15 0.05 0.01 0.01 0.01 0.01 0.00 0.00 0.01 0.01 0.01 0.00 0.00 0.00 0.00 0.00 0.00 0.00 0.00 0.01 0.01 0.00 0.00 0.00 0.00 0.00 0.00 0.00 0.00 0.00 0.00 0.00 0.00 0.00 0.00 0.00 0.00 0.00 0.00 0.00
0.02 0.05 0.06 0.07 0.03 0.04 0.05 0.02 0.01 0.02 0.04 0.02 0.06 0.09 0.10 0.06 0.02 0.02 0.02 0.02 0.00 0.00 0.01 0.01 0.00 0.00 0.00 0.01 0.01 0.00 0.00 0.01 0.01 0.01 0.00 0.00 0.00 0.00 0.00 0.00 0.00 0.00 0.00 0.00 0.00 0.00 0.00 0.00 0.01 0.02 0.01 0.00 0.00 0.00
0.05 0.03 0.03 0.01 0.00 0.02 0.03 0.00 0.04 0.07 0.02 0.03 0.02 0.02 0.04 0.03 0.01 0.02 0.00 0.03 0.00 0.00 0.00 0.00 0.00 0.00 0.00 0.00 0.00 0.00 0.00 0.00 0.01 0.01 0.00 0.00 0.00 0.00 0.00 0.00 0.00 0.00 0.00 0.00 0.00 0.01 0.01 0.00 0.00 0.00 0.00 0.00 0.00 0.00
0.05 0.01 0.00 0.01 0.03 0.07 0.04 0.01 0.01 0.04 0.01 0.03 0.02 0.02 0.01 0.00 0.00 0.00 0.00 0.00 0.00 0.00 0.00 0.00 0.00 0.00 0.00 0.00 0.00 0.00 0.00 0.00 0.00 0.01 0.01 0.00 0.00 0.00 0.00 0.00 0.00 0.00 0.00 0.00 0.00 0.00 0.00 0.00 0.00 0.00 0.00 0.00 0.00 0.00
0.13 0.13 0.08 0.04 0.08 0.12 0.07 0.00 0.00 0.02 0.01 0.04 0.04 0.02 0.01 0.00 0.00 0.00 0.00 0.00 0.00 0.00 0.00 0.00 0.00 0.00 0.00 0.00 0.00 0.00 0.00 0.00 0.00 0.00 0.00 0.00 0.00 0.00 0.00 0.01 0.00 0.00 0.00 0.00 0.00 0.00 0.00 0.00 0.00 0.00 0.00 0.00 0.00 0.00
0.16 0.12 0.10 0.08 0.18 0.13 0.11 0.00 0.00 0.00 0.01 0.05 0.05 0.01 0.01 0.01 0.00 0.00 0.00 0.00 0.00 0.00 0.00 0.00 0.00 0.00 0.00 0.00 0.00 0.00 0.00 0.00 0.00 0.00 0.00 0.00 0.00 0.00 0.00 0.00 0.00 0.00 0.00 0.00 0.00 0.00 0.01 0.00 0.00 0.00 0.00 0.00 0.00 0.00
0.02 0.02 0.02 0.05 0.15 0.09 0.14 0.01 0.01 0.01 0.02 0.06 0.05 0.03 0.02 0.01 0.00 0.00 0.00 0.00 0.00 0.00 0.00 0.00 0.00 0.00 0.00 0.00 0.00 0.00 0.00 0.00 0.00 0.00 0.00 0.00 0.00 0.00 0.00 0.00 0.00 0.00 0.00 0.00 0.00 0.00 0.00 0.00 0.00 0.00 0.00 0.00 0.00 0.00
0.00 0.01 0.01 0.02 0.09 0.09 0.15 0.03 0.02 0.02 0.02 0.04 0.02 0.03 0.01 0.00 0.00 0.00 0.00 0.00 0.00 0.00 0.00 0.00 0.00 0.00 0.00 0.00 0.00 0.00 0.00 0.00 0.00 0.00 0.00 0.00 0.00 0.00 0.00 0.00 0.00 0.00 0.00 0.00 0.00 0.00 0.00 0.00 0.00 0.00 0.00 0.00 0.00 0.00
0.02 0.01 0.01 0.03 0.10 0.05 0.05 0.05 0.03 0.01 0.01 0.01 0.01 0.01 0.01 0.00 0.00 0.00 0.00 0.00 0.00 0.00 0.00 0.00 0.00 0.00 0.00 0.00 0.00 0.00 0.00 0.00 0.00 0.00 0.00 0.00 0.00 0.00 0.00 0.00 0.00 0.00 0.00 0.00 0.00 0.00 0.00 0.00 0.00 0.00 0.00 0.00 0.00 0.00
0.08 0.03 0.03 0.02 0.02 0.02 0.01 0.01 0.00 0.00 0.00 0.00 0.00 0.00 0.00 0.00 0.00 0.00 0.01 0.01 0.00 0.00 0.00 0.00 0.00 0.00 0.00 0.00 0.00 0.00 0.00 0.00 0.00 0.00 0.00 0.00 0.00 0.00 0.00 0.00 0.00 0.00 0.00 0.00 0.00 0.00 0.00 0.00 0.00 0.00 0.00 0.00 0.00 0.00
0.08 0.04 0.01 0.01 0.01 0.01 0.01 0.00 0.00 0.00 0.00 0.00 0.01 0.00 0.00 0.00 0.00 0.01 0.02 0.03 0.01 0.00 0.00 0.00 0.00 0.00 0.00 0.00 0.00 0.00 0.00 0.00 0.00 0.00 0.00 0.00 0.00 0.00 0.00 0.00 0.00 0.00 0.00 0.00 0.00 0.00 0.00 0.00 0.00 0.00 0.00 0.00 0.00 0.00
0.07 0.04 0.06 0.05 0.04 0.03 0.01 0.01 0.00 0.00 0.00 0.00 0.00 0.00 0.00 0.00 0.02 0.02 0.02 0.07 0.03 0.01 0.02 0.01 0.00 0.00 0.00 0.00 0.00 0.00 0.00 0.00 0.00 0.00 0.00 0.00 0.00 0.00 0.00 0.00 0.00 0.00 0.00 0.00 0.00 0.00 0.00 0.00 0.00 0.00 0.00 0.00 0.00 0.01
0.07 0.12 0.14 0.13 0.11 0.06 0.03 0.02 0.01 0.00 0.00 0.01 0.02 0.01 0.01 0.01 0.02 0.03 0.05 0.06 0.02 0.01 0.01 0.02 0.04 0.01 0.00 0.00 0.00 0.00 0.00 0.00 0.00 0.00 0.00 0.00 0.00 0.00 0.00 0.00 0.00 0.00 0.00 0.00 0.00 0.00 0.00 0.00 0.00 0.00 0.00 0.00 0.00 0.01
0.03 0.08 0.12 0.10 0.09 0.05 0.02 0.01 0.01 0.00 0.00 0.00 0.00 0.00 0.00 0.01 0.02 0.05 0.06 0.03 0.03 0.02 0.02 0.02 0.03 0.01 0.01 0.01 0.03 0.03 0.02 0.00 0.00 0.00 0.00 0.00 0.00 0.00 0.00 0.00 0.00 0.00 0.00 0.00 0.00 0.00 0.00 0.00 0.00 0.00 0.00 0.00 0.00 0.00
0.02 0.03 0.05 0.06 0.06 0.04 0.03 0.03 0.02 0.01 0.01 0.01 0.00 0.00 0.00 0.01 0.02 0.02 0.04 0.08 0.03 0.02 0.02 0.04 0.05 0.04 0.02 0.02 0.02 0.02 0.02 0.00 0.00 0.00 0.00 0.00 0.00 0.00 0.00 0.00 0.00 0.00 0.00 0.00 0.00 0.00 0.00 0.00 0.00 0.00 0.00 0.00 0.00 0.00
0.05 0.06 0.05 0.07 0.07 0.07 0.06 0.06 0.03 0.02 0.02 0.01 0.00 0.00 0.01 0.01 0.01 0.02 0.04 0.07 0.04 0.03 0.04 0.02 0.02 0.05 0.05 0.04 0.03 0.01 0.00 0.00 0.00 0.00 0.00 0.00 0.00 0.00 0.00 0.00 0.00 0.00 0.00 0.00 0.00 0.00 0.00 0.00 0.00 0.00 0.00 0.00 0.00 0.00
0.02 0.03 0.04 0.04 0.04 0.04 0.05 0.06 0.03 0.03 0.02 0.01 0.01 0.02 0.03 0.01 0.01 0.02 0.03 0.06 0.06 0.03 0.02 0.01 0.03 0.04 0.02 0.01 0.00 0.00 0.00 0.00 0.00 0.00 0.00 0.00 0.00 0.00 0.00 0.00 0.00 0.00 0.00 0.00 0.00 0.00 0.00 0.00 0.00 0.00 0.00 0.00 0.00 0.00

GFSWCAN_prec_precacc12_117.txt.gz
Total_Precipitation_Accumulation
0.15 0.16 0.12 0.14 0.15 0.13 0.14 0.14 0.09 0.06 0.04 0.02 0.02 0.01 0.00 0.00 0.00 0.00 0.00 0.00 0.00 0.00 0.00 0.00 0.00 0.00 0.00 0.00 0.00 0.00 0.00 0.00 0.00 0.00 0.00 0.00 0.00 0.00 0.12 0.07 0.01 0.00 0.02 0.05 0.10 0.07 0.04 0.03 0.03 0.03 0.06 0.06 0.03 0.02
0.23 0.17 0.11 0.13 0.12 0.10 0.07 0.03 0.02 0.02 0.02 0.01 0.00 0.00 0.00 0.00 0.00 0.00 0.00 0.00 0.00 0.00 0.00 0.00 0.00 0.00 0.00 0.00 0.00 0.00 0.00 0.00 0.00 0.00 0.00 0.00 0.00 0.00 0.05 0.16 0.02 0.01 0.01 0.04 0.07 0.07 0.09 0.07 0.06 0.05 0.02 0.03 0.04 0.01
0.26 0.16 0.11 0.10 0.08 0.06 0.03 0.01 0.01 0.01 0.01 0.01 0.00 0.00 0.00 0.00 0.00 0.00 0.00 0.00 0.00 0.00 0.00 0.00 0.00 0.00 0.00 0.00 0.00 0.00 0.00 0.00 0.00 0.00 0.00 0.00 0.00 0.00 0.05 0.13 0.06 0.04 0.01 0.01 0.04 0.07 0.04 0.04 0.03 0.02 0.01 0.00 0.01 0.00
0.22 0.13 0.12 0.12 0.09 0.04 0.02 0.02 0.01 0.01 0.01 0.01 0.01 0.00 0.00 0.00 0.00 0.00 0.00 0.00 0.00 0.00 0.00 0.00 0.00 0.00 0.00 0.00 0.00 0.00 0.00 0.00 0.00 0.00 0.00 0.00 0.00 0.00 0.01 0.05 0.01 0.02 0.02 0.02 0.03 0.05 0.03 0.03 0.02 0.01 0.00 0.00 0.00 0.00
0.16 0.13 0.15 0.14 0.07 0.02 0.01 0.01 0.01 0.00 0.01 0.01 0.00 0.00 0.00 0.00 0.00 0.00 0.00 0.00 0.00 0.00 0.00 0.00 0.00 0.00 0.00 0.00 0.00 0.00 0.00 0.00 0.00 0.00 0.00 0.00 0.00 0.00 0.01 0.02 0.02 0.01 0.02 0.02 0.01 0.00 0.01 0.02 0.01 0.00 0.00 0.00 0.00 0.00
0.13 0.19 0.18 0.09 0.04 0.02 0.01 0.01 0.01 0.01 0.01 0.01 0.00 0.01 0.00 0.00 0.00 0.00 0.00 0.00 0.00 0.00 0.00 0.00 0.00 0.00 0.00 0.00 0.00 0.00 0.00 0.00 0.00 0.00 0.00 0.00 0.00 0.00 0.01 0.01 0.02 0.01 0.01 0.00 0.00 0.00 0.00 0.00 0.00 0.00 0.00 0.00 0.00 0.00
0.16 0.19 0.12 0.07 0.04 0.03 0.02 0.01 0.02 0.01 0.01 0.01 0.01 0.01 0.00 0.00 0.00 0.00 0.00 0.01 0.00 0.00 0.00 0.00 0.00 0.00 0.00 0.00 0.00 0.00 0.00 0.00 0.00 0.00 0.00 0.00 0.00 0.00 0.01 0.01 0.01 0.00 0.01 0.00 0.00 0.00 0.01 0.00 0.00 0.00 0.00 0.00 0.00 0.00
0.13 0.09 0.08 0.06 0.04 0.02 0.02 0.02 0.01 0.01 0.01 0.02 0.01 0.00 0.00 0.00 0.00 0.00 0.00 0.04 0.01 0.00 0.00 0.00 0.01 0.01 0.00 0.00 0.00 0.00 0.00 0.00 0.00 0.00 0.00 0.00 0.00 0.02 0.03 0.02 0.00 0.00 0.00 0.00 0.00 0.00 0.00 0.00 0.00 0.00 0.00 0.00 0.00 0.00
0.06 0.07 0.06 0.04 0.02 0.01 0.02 0.01 0.02 0.02 0.02 0.02 0.01 0.00 0.00 0.00 0.00 0.00 0.02 0.01 0.00 0.00 0.00 0.00 0.00 0.01 0.00 0.00 0.00 0.00 0.00 0.00 0.00 0.00 0.00 0.00 0.02 0.02 0.05 0.01 0.00 0.00 0.00 0.00 0.00 0.00 0.00 0.00 0.00 0.00 0.00 0.00 0.00 0.00
0.07 0.06 0.05 0.03 0.02 0.01 0.01 0.01 0.02 0.02 0.02 0.02 0.00 0.00 0.00 0.00 0.00 0.01 0.00 0.00 0.00 0.00 0.00 0.00 0.00 0.00 0.00 0.00 0.00 0.00 0.00 0.00 0.00 0.00 0.00 0.00 0.02 0.04 0.02 0.00 0.00 0.00 0.00 0.00 0.00 0.00 0.00 0.00 0.00 0.00 0.00 0.00 0.00 0.00
0.07 0.06 0.04 0.03 0.01 0.00 0.01 0.01 0.02 0.03 0.02 0.00 0.00 0.01 0.01 0.01 0.01 0.00 0.00 0.00 0.00 0.00 0.00 0.00 0.00 0.00 0.00 0.00 0.00 0.00 0.00 0.00 0.01 0.06 0.00 0.02 0.02 0.01 0.00 0.00 0.00 0.00 0.00 0.00 0.00 0.00 0.00 0.00 0.00 0.00 0.00 0.00 0.00 0.00
0.08 0.08 0.04 0.02 0.01 0.01 0.01 0.01 0.01 0.01 0.00 0.00 0.00 0.07 0.04 0.01 0.01 0.03 0.02 0.00 0.00 0.00 0.00 0.00 0.00 0.00 0.00 0.01 0.05 0.01 0.01 0.00 0.01 0.04 0.00 0.01 0.01 0.00 0.00 0.00 0.00 0.00 0.00 0.00 0.00 0.00 0.00 0.00 0.00 0.00 0.00 0.00 0.00 0.00
0.09 0.07 0.05 0.02 0.01 0.01 0.00 0.00 0.01 0.02 0.01 0.00 0.03 0.12 0.04 0.03 0.05 0.02 0.01 0.00 0.00 0.00 0.00 0.00 0.00 0.00 0.00 0.00 0.03 0.00 0.00 0.00 0.02 0.02 0.00 0.00 0.00 0.00 0.00 0.00 0.00 0.00 0.00 0.00 0.00 0.00 0.00 0.00 0.00 0.00 0.00 0.00 0.00 0.00
0.09 0.07 0.06 0.03 0.02 0.02 0.01 0.02 0.04 0.01 0.00 0.00 0.03 0.07 0.02 0.01 0.00 0.00 0.00 0.00 0.00 0.00 0.00 0.00 0.00 0.00 0.00 0.00 0.00 0.00 0.00 0.00 0.00 0.00 0.00 0.00 0.00 0.00 0.00 0.00 0.00 0.00 0.00 0.00 0.00 0.00 0.00 0.00 0.00 0.00 0.00 0.00 0.00 0.00
0.10 0.08 0.10 0.06 0.02 0.01 0.02 0.05 0.01 0.00 0.00 0.02 0.02 0.03 0.02 0.01 0.00 0.00 0.01 0.00 0.00 0.00 0.00 0.00 0.00 0.00 0.00 0.00 0.00 0.00 0.01 0.01 0.00 0.00 0.00 0.00 0.00 0.00 0.00 0.00 0.00 0.00 0.00 0.00 0.00 0.00 0.00 0.00 0.00 0.00 0.00 0.00 0.00 0.00
0.15 0.15 0.06 0.09 0.04 0.03 0.03 0.01 0.00 0.00 0.00 0.00 0.01 0.05 0.07 0.03 0.01 0.00 0.01 0.00 0.00 0.00 0.00 0.00 0.00 0.00 0.00 0.00 0.00 0.00 0.00 0.01 0.02 0.00 0.00 0.00 0.00 0.00 0.00 0.00 0.00 0.00 0.00 0.00 0.00 0.00 0.00 0.00 0.00 0.00 0.00 0.00 0.00 0.00
0.06 0.05 0.11 0.11 0.04 0.01 0.00 0.00 0.00 0.00 0.00 0.00 0.02 0.06 0.10 0.04 0.01 0.01 0.02 0.01 0.00 0.00 0.00 0.00 0.00 0.00 0.00 0.00 0.00 0.00 0.00 0.00 0.00 0.00 0.00 0.00 0.00 0.00 0.00 0.00 0.00 0.00 0.00 0.00 0.00 0.00 0.00 0.00 0.00 0.00 0.00 0.00 0.00 0.00
0.00 0.04 0.05 0.04 0.01 0.01 0.02 0.00 0.00 0.00 0.00 0.00 0.02 0.07 0.10 0.07 0.03 0.05 0.04 0.02 0.00 0.00 0.00 0.00 0.00 0.00 0.00 0.00 0.00 0.00 0.00 0.01 0.01 0.00 0.00 0.00 0.00 0.00 0.00 0.00 0.00 0.00 0.00 0.00 0.00 0.00 0.00 0.00 0.00 0.00 0.00 0.00 0.00 0.00
0.01 0.01 0.02 0.00 0.00 0.00 0.01 0.00 0.01 0.02 0.01 0.01 0.01 0.03 0.04 0.03 0.02 0.03 0.01 0.04 0.01 0.00 0.00 0.00 0.00 0.00 0.00 0.00 0.00 0.00 0.00 0.00 0.01 0.01 0.00 0.00 0.00 0.00 0.00 0.00 0.00 0.00 0.00 0.00 0.00 0.00 0.00 0.00 0.00 0.00 0.00 0.00 0.00 0.00
0.01 0.00 0.00 0.00 0.01 0.01 0.00 0.00 0.00 0.01 0.01 0.01 0.02 0.02 0.01 0.00 0.00 0.00 0.00 0.01 0.00 0.00 0.00 0.00 0.00 0.00 0.00 0.00 0.00 0.00 0.00 0.00 0.00 0.00 0.01 0.00 0.00 0.00 0.00 0.00 0.00 0.00 0.00 0.00 0.00 0.00 0.00 0.00 0.00 0.00 0.00 0.00 0.00 0.00
0.09 0.10 0.06 0.01 0.02 0.03 0.05 0.00 0.00 0.01 0.01 0.03 0.04 0.02 0.01 0.00 0.00 0.00 0.00 0.00 0.00 0.00 0.00 0.00 0.00 0.00 0.00 0.00 0.00 0.00 0.00 0.00 0.00 0.00 0.00 0.00 0.00 0.00 0.00 0.00 0.00 0.00 0.00 0.00 0.00 0.00 0.00 0.00 0.00 0.00 0.00 0.00 0.00 0.00
0.14 0.08 0.05 0.05 0.13 0.10 0.11 0.00 0.00 0.00 0.01 0.05 0.05 0.01 0.00 0.00 0.00 0.00 0.00 0.00 0.00 0.00 0.00 0.00 0.00 0.00 0.00 0.00 0.00 0.00 0.00 0.00 0.00 0.00 0.00 0.00 0.00 0.00 0.00 0.00 0.00 0.00 0.00 0.00 0.00 0.00 0.00 0.00 0.00 0.00 0.00 0.00 0.00 0.00
0.01 0.01 0.01 0.03 0.10 0.08 0.15 0.01 0.01 0.01 0.02 0.06 0.05 0.03 0.02 0.00 0.00 0.00 0.00 0.00 0.00 0.00 0.00 0.00 0.00 0.00 0.00 0.00 0.00 0.00 0.00 0.00 0.00 0.00 0.00 0.00 0.00 0.00 0.00 0.00 0.00 0.00 0.00 0.00 0.00 0.00 0.00 0.00 0.00 0.00 0.00 0.00 0.00 0.00
0.00 0.00 0.00 0.00 0.04 0.08 0.18 0.04 0.03 0.03 0.03 0.04 0.02 0.03 0.01 0.00 0.00 0.00 0.00 0.00 0.00 0.00 0.00 0.00 0.00 0.00 0.00 0.00 0.00 0.00 0.00 0.00 0.00 0.00 0.00 0.00 0.00 0.00 0.00 0.00 0.00 0.00 0.00 0.00 0.00 0.00 0.00 0.00 0.00 0.00 0.00 0.00 0.00 0.00
0.00 0.00 0.00 0.02 0.09 0.04 0.06 0.05 0.03 0.02 0.01 0.01 0.01 0.01 0.01 0.00 0.00 0.00 0.00 0.00 0.00 0.00 0.00 0.00 0.00 0.00 0.00 0.00 0.00 0.00 0.00 0.00 0.00 0.00 0.00 0.00 0.00 0.00 0.00 0.00 0.00 0.00 0.00 0.00 0.00 0.00 0.00 0.00 0.00 0.00 0.00 0.00 0.00 0.00
0.00 0.00 0.00 0.00 0.02 0.02 0.01 0.01 0.00 0.00 0.01 0.02 0.01 0.00 0.00 0.00 0.00 0.00 0.00 0.00 0.00 0.00 0.00 0.00 0.00 0.00 0.00 0.00 0.00 0.00 0.00 0.00 0.00 0.00 0.00 0.00 0.00 0.00 0.00 0.00 0.00 0.00 0.00 0.00 0.00 0.00 0.00 0.00 0.00 0.00 0.00 0.00 0.00 0.00
0.01 0.01 0.00 0.00 0.01 0.01 0.01 0.00 0.00 0.00 0.00 0.00 0.01 0.00 0.00 0.00 0.00 0.00 0.02 0.02 0.01 0.01 0.00 0.00 0.00 0.00 0.00 0.00 0.00 0.00 0.00 0.00 0.00 0.00 0.00 0.00 0.00 0.00 0.00 0.00 0.00 0.00 0.00 0.00 0.00 0.00 0.00 0.00 0.00 0.00 0.00 0.00 0.00 0.00
0.04 0.03 0.01 0.02 0.03 0.03 0.01 0.01 0.00 0.00 0.00 0.00 0.00 0.00 0.00 0.00 0.01 0.01 0.02 0.04 0.02 0.01 0.01 0.01 0.00 0.00 0.00 0.00 0.00 0.00 0.00 0.00 0.00 0.00 0.00 0.00 0.00 0.00 0.00 0.00 0.00 0.00 0.00 0.00 0.00 0.00 0.00 0.00 0.00 0.00 0.00 0.00 0.00 0.01
0.06 0.10 0.12 0.12 0.11 0.06 0.03 0.01 0.00 0.00 0.00 0.00 0.00 0.00 0.00 0.01 0.01 0.01 0.03 0.04 0.02 0.01 0.01 0.02 0.03 0.01 0.00 0.01 0.01 0.01 0.00 0.00 0.00 0.00 0.00 0.00 0.00 0.00 0.00 0.00 0.00 0.00 0.00 0.00 0.00 0.00 0.00 0.00 0.00 0.00 0.00 0.00 0.00 0.00
0.03 0.08 0.11 0.10 0.09 0.05 0.02 0.01 0.00 0.00 0.00 0.00 0.00 0.00 0.00 0.01 0.01 0.03 0.03 0.03 0.02 0.01 0.02 0.03 0.04 0.01 0.01 0.01 0.02 0.03 0.02 0.00 0.00 0.00 0.00 0.00 0.00 0.00 0.00 0.00 0.00 0.00 0.00 0.00 0.00 0.00 0.00 0.00 0.00 0.00 0.00 0.00 0.00 0.00
0.02 0.03 0.05 0.06 0.06 0.04 0.04 0.04 0.03 0.02 0.01 0.01 0.01 0.00 0.00 0.01 0.01 0.02 0.02 0.03 0.02 0.02 0.02 0.03 0.05 0.04 0.03 0.03 0.02 0.02 0.03 0.01 0.00 0.00 0.00 0.00 0.00 0.00 0.00 0.00 0.00 0.00 0.00 0.00 0.00 0.00 0.00 0.00 0.00 0.00 0.00 0.00 0.00 0.00
0.06 0.06 0.05 0.07 0.06 0.07 0.08 0.07 0.04 0.03 0.02 0.01 0.01 0.01 0.01 0.01 0.01 0.01 0.04 0.05 0.03 0.02 0.03 0.01 0.01 0.05 0.06 0.06 0.05 0.02 0.00 0.00 0.00 0.00 0.00 0.00 0.00 0.00 0.00 0.00 0.00 0.00 0.00 0.00 0.00 0.00 0.00 0.00 0.00 0.00 0.00 0.00 0.00 0.00
0.03 0.04 0.05 0.05 0.04 0.04 0.06 0.07 0.04 0.03 0.01 0.01 0.00 0.01 0.01 0.00 0.01 0.02 0.02 0.04 0.03 0.03 0.02 0.02 0.03 0.05 0.04 0.03 0.01 0.01 0.00 0.00 0.00 0.00 0.00 0.00 0.00 0.00 0.00 0.00 0.00 0.00 0.00 0.00 0.00 0.00 0.00 0.00 0.00 0.00 0.00 0.00 0.00 0.00

GFSWCAN_prec_precacc12_123.txt.gz
Total_Precipitation_Accumulation
0.36 0.32 0.25 0.28 0.38 0.53 0.83 0.72 0.48 0.42 0.37 0.34 0.33 0.25 0.17 0.13 0.05 0.01 0.01 0.00 0.00 0.03 0.04 0.02 0.00 0.01 0.00 0.00 0.00 0.00 0.00 0.00 0.00 0.00 0.00 0.00 0.00 0.00 0.03 0.03 0.02 0.01 0.03 0.06 0.12 0.12 0.10 0.06 0.15 0.13 0.05 0.02 0.01 0.00
0.34 0.29 0.27 0.30 0.36 0.44 0.48 0.47 0.36 0.31 0.31 0.27 0.17 0.10 0.06 0.03 0.01 0.00 0.01 0.01 0.00 0.02 0.03 0.01 0.00 0.00 0.00 0.00 0.00 0.00 0.00 0.00 0.00 0.00 0.00 0.00 0.00 0.00 0.04 0.14 0.01 0.01 0.01 0.05 0.09 0.09 0.09 0.12 0.14 0.08 0.02 0.02 0.01 0.00
0.32 0.30 0.21 0.21 0.29 0.30 0.30 0.34 0.31 0.29 0.22 0.15 0.09 0.05 0.03 0.01 0.01 0.00 0.00 0.00 0.01 0.03 0.02 0.01 0.00 0.00 0.00 0.00 0.00 0.00 0.00 0.00 0.00 0.00 0.00 0.00 0.00 0.00 0.03 0.06 0.04 0.04 0.01 0.01 0.07 0.10 0.08 0.12 0.14 0.09 0.04 0.02 0.01 0.00
0.23 0.17 0.20 0.28 0.29 0.25 0.24 0.27 0.26 0.20 0.12 0.08 0.04 0.02 0.00 0.00 0.00 0.00 0.00 0.00 0.00 0.00 0.00 0.00 0.00 0.00 0.00 0.00 0.00 0.00 0.00 0.00 0.00 0.00 0.00 0.00 0.00 0.00 0.02 0.03 0.01 0.02 0.02 0.02 0.07 0.11 0.09 0.11 0.11 0.07 0.03 0.01 0.00 0.00
0.15 0.18 0.27 0.29 0.23 0.23 0.25 0.20 0.15 0.09 0.04 0.02 0.00 0.00 0.00 0.00 0.00 0.00 0.00 0.00 0.00 0.00 0.00 0.00 0.00 0.00 0.00 0.00 0.00 0.00 0.00 0.00 0.00 0.00 0.00 0.00 0.00 0.00 0.00 0.01 0.01 0.01 0.02 0.04 0.05 0.02 0.06 0.08 0.09 0.05 0.02 0.00 0.00 0.00
0.13 0.20 0.22 0.18 0.18 0.17 0.16 0.09 0.04 0.01 0.01 0.00 0.00 0.00 0.00 0.00 0.00 0.00 0.00 0.00 0.00 0.00 0.00 0.01 0.00 0.00 0.00 0.00 0.00 0.00 0.00 0.00 0.00 0.00 0.00 0.00 0.00 0.00 0.01 0.01 0.02 0.01 0.01 0.00 0.01 0.02 0.03 0.05 0.04 0.02 0.01 0.00 0.00 0.00
0.17 0.17 0.11 0.11 0.09 0.07 0.03 0.01 0.02 0.01 0.00 0.00 0.00 0.00 0.00 0.00 0.00 0.00 0.00 0.00 0.00 0.00 0.00 0.01 0.03 0.01 0.00 0.00 0.00 0.00 0.00 0.00 0.00 0.00 0.00 0.00 0.00 0.01 0.01 0.01 0.01 0.01 0.02 0.00 0.00 0.01 0.05 0.04 0.02 0.00 0.00 0.00 0.00 0.00
0.14 0.07 0.06 0.05 0.02 0.02 0.01 0.02 0.01 0.01 0.01 0.01 0.00 0.00 0.00 0.00 0.00 0.00 0.00 0.00 0.00 0.00 0.00 0.00 0.05 0.03 0.00 0.00 0.00 0.00 0.00 0.00 0.00 0.00 0.00 0.00 0.00 0.01 0.01 0.02 0.00 0.00 0.00 0.00 0.00 0.00 0.00 0.00 0.00 0.00 0.00 0.00 0.00 0.00
0.06 0.05 0.04 0.02 0.02 0.01 0.01 0.01 0.01 0.01 0.01 0.00 0.00 0.00 0.00 0.00 0.00 0.00 0.00 0.00 0.00 0.00 0.00 0.00 0.01 0.03 0.00 0.00 0.00 0.00 0.00 0.00 0.00 0.00 0.00 0.00 0.01 0.00 0.01 0.01 0.00 0.00 0.00 0.00 0.00 0.00 0.00 0.00 0.00 0.00 0.00 0.00 0.00 0.00
0.07 0.05 0.04 0.03 0.01 0.01 0.00 0.01 0.02 0.01 0.00 0.00 0.00 0.00 0.00 0.00 0.00 0.00 0.00 0.00 0.00 0.00 0.00 0.00 0.00 0.01 0.00 0.01 0.01 0.00 0.00 0.00 0.00 0.00 0.00 0.00 0.01 0.00 0.00 0.00 0.00 0.00 0.00 0.00 0.00 0.00 0.00 0.00 0.00 0.00 0.00 0.00 0.00 0.00
0.07 0.06 0.05 0.03 0.01 0.01 0.01 0.01 0.01 0.00 0.00 0.00 0.00 0.01 0.00 0.00 0.00 0.00 0.00 0.00 0.00 0.00 0.00 0.00 0.00 0.00 0.00 0.01 0.00 0.00 0.00 0.00 0.01 0.02 0.01 0.01 0.01 0.00 0.00 0.00 0.00 0.00 0.00 0.00 0.00 0.00 0.00 0.00 0.00 0.00 0.00 0.00 0.00 0.00
0.08 0.06 0.03 0.02 0.01 0.01 0.01 0.01 0.00 0.00 0.00 0.00 0.00 0.00 0.00 0.00 0.00 0.00 0.00 0.00 0.00 0.00 0.00 0.00 0.00 0.00 0.00 0.00 0.00 0.00 0.01 0.00 0.02 0.02 0.01 0.01 0.00 0.00 0.00 0.00 0.00 0.00 0.00 0.00 0.00 0.00 0.00 0.00 0.00 0.00 0.00 0.00 0.00 0.00
0.07 0.04 0.03 0.01 0.01 0.00 0.00 0.00 0.00 0.00 0.00 0.00 0.00 0.00 0.00 0.00 0.00 0.00 0.00 0.00 0.00 0.00 0.00 0.00 0.00 0.00 0.00 0.00 0.01 0.00 0.00 0.01 0.02 0.03 0.01 0.01 0.00 0.00 0.00 0.00 0.00 0.00 0.00 0.00 0.00 0.00 0.00 0.00 0.00 0.00 0.00 0.00 0.00 0.00
0.05 0.03 0.03 0.02 0.01 0.01 0.00 0.00 0.00 0.00 0.00 0.00 0.00 0.00 0.00 0.00 0.00 0.00 0.00 0.00 0.00 0.00 0.00 0.00 0.00 0.00 0.00 0.00 0.00 0.00 0.00 0.01 0.01 0.00 0.01 0.00 0.00 0.00 0.00 0.00 0.00 0.00 0.00 0.00 0.00 0.00 0.00 0.00 0.00 0.00 0.00 0.00 0.00 0.00
0.06 0.04 0.05 0.03 0.02 0.01 0.00 0.00 0.00 0.00 0.00 0.00 0.00 0.01 0.02 0.02 0.02 0.01 0.00 0.00 0.00 0.00 0.00 0.00 0.00 0.00 0.00 0.00 0.00 0.00 0.01 0.01 0.00 0.00 0.00 0.00 0.00 0.00 0.00 0.00 0.00 0.00 0.00 0.00 0.00 0.00 0.00 0.00 0.00 0.00 0.00 0.00 0.00 0.00
0.08 0.07 0.04 0.03 0.01 0.00 0.00 0.00 0.00 0.00 0.00 0.00 0.01 0.04 0.05 0.05 0.04 0.02 0.01 0.00 0.00 0.00 0.00 0.00 0.00 0.00 0.00 0.00 0.00 0.00 0.00 0.00 0.00 0.00 0.00 0.00 0.00 0.00 0.00 0.00 0.00 0.00 0.00 0.00 0.00 0.00 0.00 0.00 0.00 0.00 0.00 0.00 0.00 0.00
0.01 0.04 0.07 0.03 0.01 0.00 0.00 0.00 0.00 0.00 0.00 0.01 0.02 0.03 0.04 0.03 0.03 0.03 0.03 0.01 0.00 0.00 0.00 0.00 0.00 0.00 0.00 0.00 0.00 0.00 0.00 0.00 0.00 0.00 0.00 0.00 0.00 0.00 0.00 0.00 0.00 0.00 0.00 0.00 0.00 0.00 0.00 0.00 0.00 0.00 0.00 0.00 0.00 0.00
0.00 0.01 0.01 0.01 0.00 0.00 0.00 0.00 0.00 0.00 0.01 0.02 0.04 0.04 0.04 0.05 0.04 0.06 0.05 0.02 0.00 0.00 0.00 0.00 0.00 0.00 0.00 0.00 0.00 0.00 0.00 0.00 0.00 0.00 0.00 0.00 0.00 0.00 0.00 0.00 0.00 0.00 0.00 0.00 0.00 0.00 0.00 0.00 0.00 0.00 0.00 0.00 0.00 0.00
0.00 0.00 0.00 0.00 0.00 0.00 0.00 0.00 0.00 0.00 0.01 0.02 0.03 0.03 0.03 0.03 0.03 0.03 0.02 0.04 0.01 0.00 0.00 0.00 0.00 0.00 0.00 0.00 0.00 0.00 0.00 0.00 0.00 0.00 0.00 0.00 0.00 0.00 0.00 0.00 0.00 0.00 0.00 0.00 0.00 0.00 0.00 0.00 0.00 0.00 0.00 0.00 0.00 0.00
0.00 0.00 0.00 0.00 0.00 0.00 0.00 0.00 0.00 0.00 0.01 0.01 0.01 0.00 0.00 0.00 0.01 0.01 0.00 0.01 0.01 0.00 0.00 0.00 0.00 0.00 0.00 0.00 0.00 0.00 0.00 0.00 0.00 0.00 0.01 0.00 0.00 0.00 0.00 0.00 0.00 0.00 0.00 0.00 0.00 0.00 0.00 0.00 0.00 0.00 0.00 0.00 0.00 0.00
0.04 0.03 0.00 0.00 0.00 0.00 0.00 0.00 0.00 0.00 0.00 0.00 0.00 0.00 0.00 0.00 0.00 0.00 0.00 0.00 0.01 0.01 0.01 0.00 0.00 0.00 0.00 0.00 0.00 0.00 0.00 0.00 0.00 0.00 0.00 0.00 0.00 0.00 0.00 0.00 0.00 0.00 0.00 0.00 0.00 0.00 0.00 0.00 0.00 0.00 0.00 0.01 0.00 0.00
0.11 0.03 0.00 0.00 0.00 0.00 0.00 0.00 0.00 0.00 0.00 0.01 0.01 0.00 0.00 0.00 0.00 0.00 0.00 0.00 0.01 0.00 0.00 0.00 0.00 0.00 0.00 0.00 0.00 0.00 0.00 0.00 0.00 0.00 0.00 0.00 0.00 0.00 0.00 0.00 0.00 0.00 0.00 0.00 0.00 0.00 0.00 0.00 0.00 0.00 0.01 0.00 0.00 0.00
0.00 0.00 0.00 0.00 0.00 0.01 0.08 0.01 0.01 0.01 0.01 0.02 0.01 0.00 0.00 0.00 0.00 0.00 0.00 0.00 0.00 0.00 0.00 0.00 0.00 0.00 0.00 0.00 0.00 0.00 0.00 0.00 0.00 0.00 0.00 0.00 0.00 0.00 0.00 0.00 0.00 0.00 0.00 0.00 0.00 0.00 0.01 0.00 0.00 0.00 0.00 0.00 0.00 0.00
0.00 0.00 0.00 0.00 0.00 0.04 0.13 0.03 0.03 0.03 0.04 0.03 0.02 0.01 0.01 0.00 0.00 0.00 0.00 0.00 0.00 0.00 0.00 0.00 0.00 0.00 0.00 0.00 0.00 0.00 0.00 0.00 0.00 0.00 0.00 0.00 0.00 0.00 0.00 0.00 0.00 0.00 0.00 0.00 0.00 0.01 0.01 0.01 0.00 0.00 0.00 0.00 0.00 0.00
0.00 0.00 0.00 0.00 0.00 0.02 0.05 0.02 0.02 0.02 0.02 0.02 0.02 0.01 0.01 0.00 0.00 0.00 0.00 0.00 0.00 0.00 0.00 0.00 0.00 0.00 0.00 0.00 0.00 0.00 0.00 0.00 0.00 0.00 0.00 0.00 0.00 0.00 0.00 0.00 0.00 0.00 0.00 0.00 0.00 0.00 0.00 0.00 0.00 0.00 0.00 0.00 0.00 0.00
0.00 0.00 0.00 0.00 0.00 0.01 0.01 0.00 0.01 0.00 0.01 0.03 0.02 0.00 0.00 0.00 0.00 0.00 0.00 0.00 0.01 0.01 0.01 0.01 0.00 0.00 0.00 0.00 0.00 0.00 0.00 0.00 0.00 0.00 0.00 0.00 0.00 0.00 0.00 0.00 0.00 0.00 0.00 0.00 0.00 0.00 0.00 0.00 0.00 0.00 0.00 0.00 0.00 0.00
0.00 0.00 0.00 0.00 0.00 0.00 0.01 0.01 0.00 0.00 0.00 0.01 0.01 0.00 0.00 0.00 0.00 0.00 0.00 0.00 0.01 0.01 0.01 0.01 0.00 0.00 0.00 0.00 0.00 0.00 0.00 0.00 0.00 0.00 0.00 0.00 0.00 0.00 0.00 0.00 0.00 0.00 0.00 0.00 0.00 0.00 0.00 0.00 0.00 0.00 0.00 0.00 0.00 0.00
0.00 0.00 0.00 0.00 0.00 0.00 0.01 0.01 0.00 0.00 0.00 0.00 0.00 0.00 0.00 0.00 0.00 0.00 0.00 0.00 0.01 0.01 0.01 0.01 0.00 0.00 0.00 0.00 0.00 0.00 0.01 0.00 0.00 0.00 0.00 0.01 0.01 0.00 0.00 0.00 0.00 0.00 0.00 0.00 0.00 0.00 0.00 0.00 0.00 0.00 0.00 0.00 0.00 0.00
0.00 0.00 0.00 0.01 0.02 0.01 0.00 0.00 0.00 0.00 0.00 0.00 0.00 0.00 0.00 0.00 0.00 0.00 0.00 0.00 0.01 0.01 0.01 0.01 0.02 0.01 0.01 0.01 0.02 0.02 0.02 0.01 0.01 0.01 0.01 0.01 0.02 0.02 0.00 0.00 0.00 0.00 0.00 0.00 0.00 0.00 0.00 0.00 0.00 0.00 0.00 0.00 0.00 0.00
0.00 0.00 0.01 0.02 0.03 0.02 0.01 0.00 0.00 0.00 0.00 0.00 0.00 0.00 0.00 0.00 0.00 0.01 0.00 0.00 0.01 0.01 0.01 0.02 0.02 0.02 0.02 0.01 0.02 0.04 0.05 0.03 0.02 0.01 0.01 0.01 0.01 0.01 0.00 0.00 0.00 0.00 0.00 0.00 0.00 0.00 0.00 0.00 0.00 0.00 0.00 0.00 0.00 0.00
0.00 0.01 0.00 0.01 0.01 0.01 0.02 0.03 0.02 0.01 0.00 0.01 0.01 0.01 0.01 0.01 0.01 0.01 0.01 0.01 0.01 0.02 0.01 0.01 0.02 0.03 0.03 0.03 0.02 0.02 0.04 0.02 0.00 0.00 0.00 0.00 0.00 0.00 0.00 0.00 0.00 0.00 0.00 0.00 0.00 0.00 0.00 0.00 0.00 0.00 0.00 0.00 0.00 0.00
0.02 0.02 0.01 0.02 0.02 0.03 0.05 0.05 0.04 0.02 0.01 0.01 0.01 0.01 0.01 0.01 0.01 0.01 0.02 0.02 0.02 0.03 0.03 0.02 0.02 0.05 0.07 0.09 0.08 0.05 0.03 0.01 0.00 0.00 0.00 0.00 0.00 0.00 0.00 0.00 0.00 0.00 0.00 0.00 0.00 0.00 0.00 0.00 0.00 0.00 0.00 0.00 0.00 0.00
0.03 0.04 0.05 0.05 0.04 0.04 0.06 0.08 0.03 0.02 0.01 0.01 0.01 0.01 0.01 0.02 0.01 0.02 0.01 0.02 0.04 0.05 0.05 0.04 0.04 0.07 0.08 0.07 0.05 0.04 0.02 0.00 0.00 0.00 0.00 0.00 0.00 0.00 0.00 0.00 0.00 0.00 0.00 0.00 0.00 0.00 0.00 0.00 0.00 0.00 0.00 0.00 0.00 0.00

GFSWCAN_prec_precacc12_126.txt.gz
Total_Precipitation_Accumulation
0.34 0.31 0.28 0.30 0.40 0.61 1.00 0.89 0.55 0.46 0.41 0.36 0.35 0.27 0.28 0.48 0.42 0.14 0.10 0.02 0.03 0.06 0.06 0.02 0.01 0.01 0.01 0.00 0.01 0.00 0.00 0.00 0.00 0.00 0.00 0.00 0.00 0.00 0.02 0.02 0.01 0.01 0.03 0.06 0.09 0.12 0.12 0.06 0.15 0.14 0.05 0.01 0.00 0.00
0.38 0.33 0.30 0.34 0.49 0.65 0.72 0.72 0.43 0.35 0.38 0.31 0.21 0.21 0.35 0.45 0.45 0.23 0.15 0.04 0.02 0.04 0.04 0.01 0.00 0.00 0.00 0.00 0.00 0.00 0.00 0.00 0.00 0.00 0.00 0.00 0.00 0.00 0.02 0.09 0.01 0.01 0.01 0.05 0.08 0.10 0.07 0.11 0.14 0.08 0.02 0.02 0.01 0.00
0.40 0.34 0.25 0.29 0.52 0.58 0.57 0.56 0.35 0.31 0.27 0.21 0.15 0.17 0.25 0.34 0.42 0.26 0.11 0.06 0.06 0.07 0.06 0.04 0.01 0.00 0.00 0.00 0.00 0.00 0.00 0.00 0.00 0.00 0.00 0.00 0.00 0.00 0.02 0.04 0.02 0.02 0.00 0.01 0.07 0.09 0.07 0.12 0.14 0.11 0.07 0.05 0.02 0.01
0.32 0.25 0.26 0.37 0.57 0.53 0.46 0.50 0.33 0.24 0.16 0.14 0.10 0.10 0.16 0.23 0.22 0.07 0.02 0.03 0.02 0.02 0.06 0.07 0.01 0.00 0.00 0.00 0.00 0.00 0.00 0.00 0.00 0.00 0.00 0.00 0.00 0.00 0.02 0.02 0.02 0.01 0.02 0.02 0.07 0.10 0.08 0.11 0.12 0.11 0.08 0.04 0.01 0.00
0.20 0.29 0.37 0.40 0.51 0.52 0.42 0.41 0.26 0.14 0.09 0.06 0.03 0.03 0.05 0.04 0.03 0.00 0.00 0.00 0.00 0.00 0.03 0.03 0.01 0.00 0.00 0.00 0.00 0.00 0.00 0.00 0.00 0.00 0.00 0.00 0.00 0.00 0.00 0.00 0.01 0.00 0.01 0.03 0.06 0.02 0.06 0.08 0.11 0.09 0.07 0.04 0.01 0.00
0.27 0.32 0.29 0.35 0.49 0.41 0.29 0.22 0.12 0.05 0.02 0.01 0.01 0.00 0.00 0.00 0.00 0.00 0.06 0.02 0.00 0.00 0.00 0.05 0.02 0.00 0.00 0.00 0.00 0.00 0.00 0.00 0.00 0.00 0.00 0.00 0.00 0.00 0.01 0.01 0.01 0.01 0.01 0.00 0.01 0.02 0.03 0.06 0.07 0.06 0.05 0.02 0.00 0.00
0.25 0.28 0.28 0.35 0.33 0.20 0.09 0.05 0.03 0.01 0.00 0.00 0.00 0.00 0.00 0.00 0.00 0.00 0.02 0.01 0.00 0.00 0.00 0.02 0.05 0.02 0.00 0.00 0.00 0.00 0.00 0.00 0.00 0.00 0.00 0.00 0.00 0.00 0.00 0.01 0.01 0.01 0.02 0.00 0.00 0.01 0.05 0.04 0.03 0.01 0.00 0.00 0.00 0.00
0.25 0.25 0.25 0.22 0.11 0.04 0.02 0.02 0.01 0.00 0.00 0.00 0.00 0.00 0.00 0.00 0.00 0.00 0.00 0.00 0.00 0.00 0.00 0.01 0.06 0.04 0.00 0.00 0.00 0.00 0.00 0.00 0.00 0.00 0.00 0.00 0.00 0.01 0.01 0.01 0.00 0.00 0.00 0.00 0.00 0.00 0.00 0.00 0.00 0.00 0.00 0.00 0.00 0.00
0.15 0.14 0.09 0.05 0.02 0.01 0.01 0.01 0.01 0.00 0.00 0.00 0.00 0.00 0.00 0.00 0.00 0.00 0.00 0.00 0.00 0.00 0.00 0.00 0.01 0.03 0.01 0.01 0.00 0.00 0.00 0.00 0.00 0.00 0.00 0.00 0.01 0.00 0.01 0.01 0.00 0.00 0.00 0.00 0.00 0.00 0.00 0.00 0.00 0.00 0.00 0.00 0.00 0.00
0.06 0.04 0.02 0.02 0.01 0.00 0.00 0.01 0.01 0.00 0.00 0.00 0.00 0.00 0.00 0.00 0.00 0.00 0.00 0.00 0.00 0.00 0.00 0.00 0.00 0.01 0.00 0.01 0.01 0.01 0.00 0.00 0.01 0.00 0.00 0.00 0.01 0.00 0.00 0.00 0.00 0.00 0.00 0.00 0.00 0.00 0.00 0.00 0.00 0.00 0.00 0.00 0.00 0.00
0.04 0.04 0.03 0.02 0.01 0.01 0.01 0.01 0.00 0.00 0.00 0.00 0.00 0.00 0.00 0.00 0.00 0.00 0.00 0.00 0.00 0.00 0.00 0.00 0.00 0.00 0.00 0.01 0.00 0.00 0.01 0.00 0.01 0.02 0.01 0.01 0.01 0.00 0.00 0.00 0.00 0.00 0.00 0.00 0.00 0.00 0.00 0.00 0.00 0.00 0.00 0.00 0.00 0.00
0.05 0.03 0.02 0.01 0.01 0.01 0.01 0.00 0.00 0.00 0.00 0.00 0.00 0.00 0.00 0.00 0.00 0.00 0.00 0.00 0.00 0.00 0.00 0.01 0.01 0.01 0.01 0.01 0.00 0.00 0.01 0.01 0.03 0.02 0.02 0.02 0.01 0.00 0.00 0.00 0.00 0.00 0.00 0.00 0.00 0.00 0.00 0.00 0.00 0.00 0.00 0.00 0.00 0.00
0.04 0.02 0.01 0.01 0.01 0.00 0.00 0.00 0.00 0.00 0.00 0.00 0.00 0.00 0.00 0.00 0.00 0.00 0.00 0.00 0.00 0.00 0.01 0.01 0.01 0.01 0.00 0.01 0.01 0.00 0.01 0.01 0.01 0.02 0.01 0.02 0.00 0.00 0.00 0.00 0.00 0.00 0.00 0.00 0.00 0.00 0.00 0.00 0.00 0.00 0.00 0.00 0.00 0.00
0.03 0.02 0.01 0.01 0.01 0.01 0.00 0.00 0.00 0.00 0.00 0.00 0.00 0.00 0.00 0.00 0.01 0.01 0.00 0.00 0.00 0.01 0.01 0.01 0.00 0.00 0.00 0.00 0.01 0.00 0.01 0.01 0.01 0.01 0.02 0.01 0.00 0.00 0.00 0.00 0.00 0.00 0.00 0.00 0.00 0.00 0.00 0.00 0.00 0.00 0.00 0.00 0.00 0.00
0.03 0.02 0.02 0.01 0.01 0.00 0.00 0.00 0.00 0.00 0.00 0.00 0.00 0.01 0.02 0.03 0.03 0.01 0.01 0.01 0.02 0.01 0.00 0.00 0.00 0.00 0.00 0.00 0.00 0.00 0.01 0.00 0.00 0.02 0.02 0.00 0.00 0.00 0.00 0.00 0.00 0.00 0.00 0.00 0.00 0.00 0.00 0.00 0.00 0.00 0.00 0.00 0.00 0.00
0.05 0.04 0.03 0.01 0.00 0.00 0.00 0.00 0.00 0.00 0.00 0.00 0.02 0.05 0.06 0.06 0.05 0.03 0.02 0.01 0.01 0.01 0.00 0.00 0.00 0.00 0.00 0.00 0.00 0.00 0.00 0.01 0.01 0.00 0.00 0.00 0.00 0.00 0.00 0.00 0.00 0.00 0.00 0.00 0.00 0.00 0.00 0.00 0.00 0.00 0.00 0.00 0.00 0.00
0.01 0.04 0.03 0.01 0.00 0.00 0.00 0.00 0.00 0.00 0.00 0.01 0.03 0.04 0.06 0.04 0.04 0.04 0.02 0.01 0.00 0.01 0.00 0.00 0.00 0.00 0.00 0.00 0.00 0.00 0.01 0.01 0.00 0.00 0.00 0.00 0.00 0.00 0.00 0.00 0.00 0.00 0.00 0.00 0.00 0.00 0.00 0.00 0.00 0.00 0.00 0.00 0.00 0.00
0.00 0.01 0.00 0.00 0.00 0.00 0.00 0.00 0.00 0.00 0.02 0.04 0.06 0.06 0.03 0.04 0.04 0.05 0.03 0.01 0.01 0.00 0.00 0.00 0.00 0.00 0.00 0.00 0.01 0.00 0.00 0.00 0.00 0.00 0.00 0.00 0.00 0.00 0.00 0.00 0.00 0.00 0.00 0.00 0.00 0.00 0.00 0.00 0.00 0.00 0.00 0.00 0.00 0.00
0.00 0.00 0.00 0.00 0.00 0.00 0.00 0.00 0.00 0.01 0.03 0.04 0.05 0.03 0.02 0.03 0.02 0.02 0.01 0.01 0.01 0.00 0.00 0.00 0.00 0.00 0.01 0.01 0.00 0.00 0.00 0.00 0.00 0.00 0.00 0.00 0.00 0.00 0.00 0.00 0.00 0.00 0.00 0.00 0.00 0.00 0.00 0.00 0.00 0.00 0.00 0.00 0.00 0.00
0.00 0.00 0.00 0.00 0.00 0.00 0.00 0.00 0.00 0.00 0.02 0.03 0.02 0.01 0.00 0.01 0.01 0.01 0.01 0.01 0.01 0.00 0.00 0.00 0.01 0.01 0.00 0.00 0.00 0.00 0.00 0.00 0.00 0.00 0.01 0.00 0.00 0.00 0.00 0.00 0.00 0.00 0.00 0.00 0.00 0.00 0.00 0.00 0.00 0.00 0.00 0.00 0.00 0.01
0.00 0.00 0.00 0.00 0.00 0.00 0.00 0.00 0.00 0.00 0.00 0.00 0.00 0.00 0.00 0.00 0.00 0.01 0.00 0.00 0.01 0.01 0.01 0.01 0.00 0.00 0.00 0.00 0.00 0.00 0.00 0.00 0.00 0.00 0.00 0.00 0.00 0.00 0.00 0.00 0.00 0.00 0.00 0.00 0.00 0.00 0.00 0.00 0.00 0.00 0.00 0.01 0.01 0.01
0.01 0.00 0.00 0.00 0.00 0.00 0.00 0.00 0.00 0.00 0.00 0.00 0.00 0.00 0.00 0.00 0.00 0.00 0.00 0.01 0.02 0.01 0.00 0.00 0.00 0.00 0.00 0.00 0.00 0.00 0.00 0.00 0.00 0.00 0.00 0.00 0.00 0.00 0.00 0.00 0.00 0.00 0.00 0.00 0.00 0.00 0.00 0.00 0.00 0.00 0.02 0.01 0.00 0.00
0.00 0.00 0.00 0.00 0.00 0.00 0.02 0.01 0.00 0.01 0.00 0.01 0.01 0.00 0.00 0.00 0.00 0.00 0.00 0.01 0.00 0.00 0.00 0.00 0.00 0.00 0.00 0.00 0.00 0.00 0.00 0.00 0.00 0.00 0.00 0.00 0.00 0.00 0.00 0.00 0.00 0.00 0.00 0.00 0.00 0.01 0.02 0.01 0.00 0.01 0.01 0.01 0.01 0.00
0.00 0.00 0.00 0.00 0.00 0.00 0.04 0.02 0.01 0.01 0.02 0.01 0.01 0.01 0.01 0.00 0.00 0.00 0.00 0.00 0.00 0.00 0.00 0.00 0.00 0.00 0.00 0.00 0.00 0.00 0.00 0.00 0.00 0.00 0.00 0.00 0.00 0.00 0.00 0.00 0.00 0.00 0.00 0.00 0.01 0.01 0.01 0.01 0.00 0.01 0.01 0.00 0.00 0.00
0.00 0.00 0.00 0.00 0.00 0.00 0.03 0.01 0.01 0.01 0.02 0.01 0.01 0.01 0.01 0.00 0.00 0.00 0.00 0.01 0.00 0.00 0.00 0.00 0.00 0.00 0.00 0.00 0.00 0.00 0.00 0.00 0.00 0.00 0.00 0.00 0.00 0.00 0.00 0.00 0.00 0.00 0.00 0.01 0.01 0.01 0.01 0.01 0.01 0.01 0.00 0.00 0.00 0.00
0.00 0.00 0.00 0.00 0.00 0.01 0.01 0.00 0.01 0.01 0.02 0.04 0.02 0.00 0.00 0.00 0.00 0.00 0.00 0.01 0.01 0.01 0.01 0.01 0.01 0.00 0.00 0.00 0.00 0.00 0.00 0.00 0.00 0.00 0.00 0.00 0.00 0.00 0.00 0.01 0.01 0.00 0.01 0.01 0.01 0.01 0.00 0.00 0.00 0.00 0.00 0.00 0.00 0.00
0.00 0.00 0.00 0.00 0.00 0.00 0.01 0.01 0.00 0.00 0.00 0.02 0.02 0.00 0.00 0.00 0.00 0.00 0.00 0.00 0.01 0.01 0.01 0.01 0.00 0.00 0.00 0.00 0.00 0.00 0.00 0.00 0.00 0.00 0.00 0.00 0.00 0.01 0.01 0.01 0.01 0.00 0.00 0.00 0.00 0.00 0.00 0.00 0.00 0.00 0.00 0.00 0.00 0.00
0.00 0.00 0.00 0.00 0.00 0.00 0.01 0.01 0.00 0.00 0.01 0.00 0.01 0.01 0.01 0.00 0.01 0.00 0.00 0.00 0.01 0.01 0.01 0.01 0.00 0.00 0.00 0.00 0.01 0.01 0.01 0.00 0.00 0.00 0.00 0.01 0.01 0.00 0.00 0.00 0.00 0.00 0.00 0.00 0.00 0.00 0.00 0.00 0.00 0.00 0.00 0.00 0.00 0.00
0.00 0.00 0.00 0.00 0.00 0.00 0.00 0.00 0.01 0.00 0.00 0.00 0.01 0.02 0.00 0.00 0.00 0.00 0.00 0.00 0.01 0.01 0.01 0.01 0.02 0.01 0.01 0.01 0.02 0.02 0.02 0.02 0.01 0.01 0.01 0.02 0.03 0.03 0.01 0.00 0.00 0.00 0.00 0.00 0.00 0.00 0.00 0.00 0.00 0.00 0.00 0.00 0.00 0.00
0.00 0.00 0.00 0.00 0.00 0.01 0.01 0.00 0.00 0.00 0.00 0.00 0.00 0.00 0.00 0.00 0.00 0.00 0.00 0.00 0.01 0.01 0.01 0.01 0.02 0.02 0.02 0.02 0.02 0.04 0.05 0.04 0.03 0.04 0.03 0.02 0.02 0.02 0.01 0.00 0.00 0.00 0.00 0.00 0.00 0.00 0.00 0.00 0.00 0.00 0.00 0.00 0.00 0.00
0.00 0.00 0.00 0.00 0.01 0.01 0.01 0.02 0.01 0.00 0.00 0.01 0.01 0.01 0.01 0.01 0.01 0.01 0.01 0.01 0.01 0.01 0.01 0.02 0.02 0.03 0.03 0.03 0.02 0.02 0.04 0.02 0.01 0.00 0.00 0.00 0.01 0.01 0.01 0.00 0.00 0.00 0.00 0.00 0.00 0.00 0.00 0.00 0.00 0.00 0.00 0.00 0.00 0.00
0.02 0.02 0.01 0.01 0.01 0.01 0.03 0.03 0.03 0.02 0.01 0.01 0.01 0.01 0.01 0.01 0.02 0.03 0.02 0.02 0.03 0.04 0.04 0.04 0.04 0.05 0.07 0.08 0.07 0.06 0.03 0.01 0.00 0.00 0.00 0.00 0.00 0.00 0.00 0.00 0.00 0.00 0.00 0.00 0.00 0.00 0.00 0.00 0.00 0.00 0.00 0.00 0.00 0.00
0.03 0.04 0.05 0.04 0.03 0.02 0.03 0.06 0.02 0.01 0.01 0.01 0.02 0.02 0.02 0.02 0.03 0.03 0.01 0.02 0.05 0.07 0.06 0.06 0.06 0.07 0.08 0.08 0.07 0.06 0.04 0.02 0.01 0.00 0.00 0.00 0.00 0.00 0.00 0.00 0.00 0.00 0.00 0.00 0.00 0.00 0.00 0.00 0.00 0.00 0.00 0.00 0.00 0.00

GFSWCAN_prec_precacc12_132.txt.gz
Total_Precipitation_Accumulation
0.22 0.17 0.12 0.11 0.17 0.33 0.67 0.55 0.24 0.17 0.15 0.13 0.13 0.16 0.25 0.47 0.44 0.21 0.12 0.03 0.10 0.12 0.07 0.03 0.01 0.03 0.02 0.02 0.02 0.01 0.02 0.02 0.02 0.04 0.03 0.00 0.00 0.00 0.01 0.03 0.01 0.01 0.02 0.03 0.04 0.06 0.07 0.01 0.05 0.09 0.04 0.00 0.00 0.00
0.31 0.22 0.13 0.13 0.27 0.45 0.55 0.59 0.33 0.24 0.21 0.16 0.13 0.19 0.36 0.46 0.47 0.29 0.17 0.05 0.10 0.15 0.08 0.02 0.01 0.00 0.01 0.02 0.03 0.02 0.01 0.00 0.00 0.00 0.00 0.00 0.00 0.00 0.02 0.05 0.05 0.07 0.02 0.04 0.02 0.04 0.01 0.02 0.05 0.04 0.02 0.01 0.01 0.00
0.30 0.21 0.14 0.18 0.42 0.52 0.62 0.69 0.43 0.29 0.23 0.18 0.14 0.18 0.28 0.38 0.47 0.37 0.20 0.10 0.19 0.25 0.19 0.07 0.02 0.00 0.00 0.01 0.02 0.05 0.03 0.00 0.00 0.00 0.00 0.01 0.01 0.00 0.01 0.04 0.10 0.06 0.00 0.00 0.02 0.02 0.01 0.05 0.09 0.09 0.06 0.04 0.02 0.01
0.21 0.15 0.19 0.32 0.57 0.62 0.65 0.70 0.48 0.40 0.26 0.23 0.14 0.13 0.22 0.34 0.38 0.31 0.24 0.12 0.14 0.19 0.21 0.17 0.03 0.01 0.00 0.00 0.00 0.00 0.00 0.00 0.00 0.01 0.02 0.01 0.01 0.03 0.03 0.03 0.02 0.01 0.00 0.00 0.03 0.03 0.03 0.07 0.09 0.10 0.08 0.05 0.03 0.02
0.14 0.25 0.31 0.41 0.60 0.73 0.67 0.74 0.49 0.35 0.30 0.25 0.15 0.16 0.23 0.33 0.31 0.29 0.25 0.13 0.07 0.07 0.12 0.14 0.03 0.04 0.03 0.01 0.00 0.00 0.00 0.00 0.00 0.01 0.02 0.01 0.01 0.01 0.01 0.01 0.01 0.00 0.00 0.02 0.04 0.00 0.03 0.05 0.08 0.09 0.07 0.06 0.03 0.03
0.24 0.28 0.27 0.46 0.70 0.71 0.65 0.73 0.50 0.47 0.43 0.28 0.17 0.18 0.26 0.33 0.32 0.37 0.55 0.28 0.08 0.07 0.07 0.14 0.11 0.03 0.05 0.04 0.02 0.01 0.00 0.00 0.01 0.00 0.00 0.00 0.01 0.01 0.01 0.01 0.00 0.00 0.00 0.00 0.00 0.01 0.02 0.04 0.06 0.06 0.05 0.03 0.01 0.01
0.19 0.23 0.36 0.58 0.69 0.66 0.73 0.62 0.48 0.50 0.38 0.29 0.20 0.17 0.21 0.28 0.30 0.30 0.41 0.35 0.11 0.10 0.08 0.13 0.14 0.08 0.02 0.02 0.00 0.00 0.00 0.00 0.00 0.00 0.00 0.00 0.00 0.00 0.00 0.00 0.00 0.00 0.00 0.00 0.00 0.01 0.04 0.04 0.04 0.01 0.00 0.00 0.00 0.00
0.26 0.37 0.49 0.53 0.42 0.59 0.63 0.37 0.40 0.33 0.24 0.18 0.16 0.19 0.25 0.29 0.28 0.14 0.03 0.02 0.06 0.14 0.07 0.12 0.18 0.11 0.05 0.02 0.00 0.00 0.00 0.00 0.00 0.00 0.00 0.00 0.00 0.00 0.00 0.00 0.00 0.00 0.00 0.00 0.00 0.00 0.00 0.00 0.00 0.00 0.00 0.00 0.00 0.00
0.39 0.43 0.36 0.29 0.42 0.50 0.26 0.18 0.24 0.18 0.12 0.14 0.21 0.26 0.30 0.30 0.29 0.14 0.02 0.01 0.04 0.12 0.05 0.05 0.07 0.07 0.02 0.01 0.00 0.00 0.00 0.00 0.00 0.00 0.00 0.00 0.01 0.00 0.00 0.00 0.00 0.00 0.00 0.00 0.00 0.00 0.00 0.00 0.00 0.00 0.00 0.00 0.00 0.00
0.16 0.16 0.18 0.31 0.38 0.24 0.13 0.05 0.06 0.07 0.06 0.07 0.10 0.17 0.30 0.16 0.09 0.12 0.20 0.25 0.18 0.12 0.02 0.00 0.00 0.01 0.01 0.01 0.02 0.01 0.00 0.00 0.00 0.00 0.00 0.00 0.02 0.00 0.00 0.00 0.00 0.00 0.00 0.00 0.00 0.00 0.00 0.00 0.00 0.00 0.00 0.00 0.00 0.00
0.08 0.08 0.09 0.11 0.09 0.06 0.04 0.02 0.00 0.01 0.00 0.00 0.02 0.13 0.14 0.05 0.06 0.09 0.16 0.15 0.15 0.09 0.03 0.01 0.00 0.00 0.00 0.01 0.01 0.01 0.01 0.00 0.01 0.01 0.01 0.01 0.01 0.00 0.00 0.00 0.00 0.00 0.00 0.00 0.00 0.00 0.00 0.00 0.00 0.00 0.00 0.00 0.00 0.00
0.03 0.02 0.01 0.02 0.01 0.00 0.00 0.00 0.00 0.00 0.00 0.00 0.03 0.08 0.04 0.01 0.01 0.00 0.00 0.00 0.00 0.02 0.01 0.01 0.01 0.01 0.02 0.01 0.00 0.00 0.00 0.01 0.04 0.01 0.01 0.02 0.02 0.00 0.00 0.00 0.00 0.00 0.00 0.00 0.00 0.00 0.00 0.00 0.00 0.00 0.00 0.00 0.00 0.00
0.01 0.01 0.00 0.00 0.00 0.00 0.00 0.00 0.00 0.00 0.00 0.00 0.00 0.00 0.00 0.00 0.00 0.00 0.00 0.00 0.00 0.01 0.01 0.01 0.02 0.01 0.00 0.01 0.00 0.00 0.01 0.01 0.01 0.01 0.01 0.02 0.00 0.00 0.00 0.00 0.00 0.00 0.00 0.00 0.00 0.00 0.00 0.00 0.00 0.00 0.00 0.00 0.00 0.00
0.00 0.00 0.00 0.00 0.00 0.00 0.00 0.00 0.00 0.00 0.00 0.00 0.00 0.00 0.00 0.00 0.01 0.01 0.00 0.00 0.00 0.01 0.01 0.01 0.00 0.00 0.00 0.00 0.01 0.00 0.01 0.00 0.01 0.01 0.03 0.01 0.00 0.00 0.00 0.00 0.00 0.00 0.00 0.00 0.00 0.00 0.00 0.00 0.00 0.00 0.00 0.00 0.00 0.00
0.00 0.00 0.00 0.00 0.00 0.00 0.00 0.00 0.00 0.00 0.00 0.00 0.00 0.01 0.02 0.03 0.03 0.01 0.01 0.01 0.02 0.01 0.00 0.00 0.00 0.00 0.00 0.00 0.00 0.00 0.00 0.00 0.00 0.02 0.02 0.00 0.00 0.00 0.00 0.00 0.00 0.00 0.00 0.00 0.00 0.00 0.00 0.00 0.00 0.00 0.00 0.00 0.00 0.00
0.00 0.00 0.00 0.00 0.00 0.00 0.00 0.00 0.00 0.00 0.00 0.00 0.02 0.06 0.06 0.05 0.07 0.05 0.02 0.02 0.02 0.01 0.00 0.00 0.00 0.00 0.00 0.00 0.00 0.00 0.00 0.01 0.01 0.00 0.00 0.00 0.00 0.00 0.00 0.00 0.00 0.00 0.00 0.00 0.00 0.00 0.00 0.00 0.00 0.00 0.00 0.00 0.00 0.00
0.00 0.00 0.00 0.00 0.00 0.00 0.00 0.00 0.00 0.00 0.00 0.02 0.05 0.06 0.08 0.09 0.12 0.07 0.02 0.01 0.01 0.01 0.00 0.00 0.00 0.00 0.00 0.00 0.00 0.00 0.01 0.01 0.00 0.00 0.00 0.00 0.00 0.00 0.00 0.00 0.00 0.00 0.00 0.00 0.00 0.00 0.00 0.00 0.00 0.00 0.00 0.00 0.00 0.00
0.00 0.00 0.00 0.00 0.00 0.00 0.00 0.00 0.00 0.00 0.03 0.07 0.10 0.09 0.06 0.09 0.07 0.02 0.00 0.01 0.02 0.00 0.00 0.00 0.00 0.00 0.00 0.01 0.01 0.01 0.00 0.00 0.00 0.00 0.00 0.00 0.00 0.00 0.00 0.00 0.00 0.00 0.00 0.00 0.00 0.00 0.00 0.00 0.00 0.00 0.00 0.00 0.00 0.00
0.00 0.00 0.00 0.00 0.00 0.00 0.00 0.00 0.00 0.02 0.07 0.08 0.11 0.08 0.05 0.06 0.02 0.01 0.00 0.00 0.00 0.00 0.00 0.00 0.00 0.01 0.01 0.01 0.00 0.00 0.00 0.00 0.01 0.01 0.01 0.00 0.00 0.00 0.00 0.00 0.00 0.00 0.00 0.00 0.00 0.00 0.00 0.00 0.00 0.00 0.00 0.00 0.00 0.00
0.00 0.00 0.00 0.00 0.00 0.00 0.00 0.00 0.00 0.01 0.05 0.07 0.07 0.04 0.03 0.03 0.00 0.00 0.00 0.00 0.00 0.00 0.00 0.01 0.02 0.01 0.00 0.00 0.00 0.00 0.00 0.00 0.00 0.01 0.02 0.02 0.01 0.00 0.00 0.00 0.00 0.00 0.00 0.00 0.00 0.00 0.00 0.00 0.00 0.00 0.00 0.00 0.01 0.01
0.00 0.00 0.00 0.00 0.00 0.00 0.00 0.00 0.00 0.00 0.01 0.04 0.03 0.01 0.03 0.01 0.01 0.01 0.00 0.00 0.00 0.02 0.03 0.01 0.00 0.00 0.00 0.00 0.00 0.00 0.00 0.00 0.00 0.00 0.00 0.01 0.00 0.00 0.00 0.00 0.00 0.00 0.00 0.00 0.00 0.00 0.00 0.00 0.00 0.00 0.00 0.01 0.01 0.01
0.00 0.00 0.00 0.00 0.00 0.00 0.00 0.00 0.00 0.00 0.00 0.01 0.00 0.00 0.01 0.00 0.00 0.00 0.00 0.01 0.04 0.04 0.01 0.01 0.00 0.00 0.00 0.00 0.00 0.00 0.00 0.00 0.00 0.00 0.00 0.00 0.00 0.00 0.00 0.00 0.00 0.00 0.00 0.00 0.00 0.00 0.00 0.00 0.00 0.00 0.01 0.01 0.01 0.01
0.00 0.00 0.00 0.00 0.00 0.00 0.00 0.00 0.00 0.00 0.00 0.00 0.00 0.00 0.00 0.00 0.00 0.00 0.00 0.02 0.05 0.04 0.00 0.00 0.00 0.00 0.00 0.00 0.00 0.00 0.00 0.00 0.00 0.00 0.00 0.00 0.00 0.00 0.00 0.00 0.00 0.00 0.00 0.00 0.00 0.01 0.03 0.01 0.01 0.01 0.01 0.01 0.01 0.01
0.00 0.00 0.00 0.00 0.00 0.00 0.00 0.00 0.00 0.00 0.00 0.00 0.00 0.00 0.00 0.00 0.00 0.00 0.01 0.03 0.04 0.03 0.00 0.00 0.00 0.00 0.00 0.00 0.00 0.00 0.00 0.00 0.00 0.00 0.00 0.00 0.00 0.01 0.00 0.00 0.00 0.00 0.00 0.00 0.01 0.01 0.01 0.01 0.01 0.01 0.01 0.01 0.01 0.01
0.00 0.00 0.00 0.00 0.00 0.00 0.00 0.00 0.00 0.00 0.01 0.00 0.00 0.00 0.00 0.00 0.00 0.00 0.01 0.03 0.01 0.01 0.01 0.00 0.00 0.00 0.00 0.00 0.00 0.00 0.00 0.00 0.00 0.00 0.00 0.00 0.00 0.01 0.02 0.02 0.02 0.03 0.01 0.01 0.02 0.02 0.02 0.02 0.02 0.01 0.00 0.00 0.00 0.00
0.00 0.00 0.00 0.00 0.00 0.00 0.00 0.00 0.00 0.01 0.01 0.01 0.01 0.00 0.00 0.00 0.00 0.01 0.02 0.02 0.02 0.02 0.03 0.03 0.01 0.00 0.00 0.00 0.00 0.00 0.00 0.00 0.00 0.00 0.01 0.00 0.00 0.00 0.01 0.01 0.02 0.04 0.03 0.01 0.01 0.01 0.01 0.02 0.01 0.00 0.00 0.00 0.00 0.00
0.00 0.00 0.00 0.00 0.00 0.00 0.01 0.00 0.00 0.00 0.01 0.03 0.02 0.00 0.00 0.01 0.02 0.01 0.01 0.01 0.01 0.01 0.02 0.02 0.01 0.00 0.00 0.00 0.00 0.00 0.00 0.00 0.00 0.00 0.01 0.01 0.01 0.01 0.01 0.01 0.01 0.01 0.01 0.01 0.00 0.00 0.00 0.00 0.00 0.00 0.00 0.00 0.00 0.00
0.00 0.00 0.00 0.00 0.00 0.00 0.00 0.00 0.01 0.01 0.02 0.01 0.01 0.01 0.01 0.02 0.02 0.01 0.01 0.01 0.00 0.00 0.01 0.01 0.00 0.00 0.00 0.00 0.00 0.00 0.00 0.00 0.00 0.00 0.00 0.01 0.02 0.01 0.01 0.01 0.00 0.00 0.00 0.00 0.00 0.00 0.00 0.00 0.00 0.00 0.00 0.00 0.00 0.00
0.00 0.00 0.00 0.00 0.00 0.00 0.00 0.00 0.01 0.01 0.00 0.00 0.02 0.03 0.00 0.00 0.01 0.00 0.00 0.00 0.00 0.01 0.01 0.02 0.02 0.01 0.01 0.01 0.01 0.01 0.01 0.01 0.01 0.00 0.01 0.02 0.03 0.05 0.03 0.01 0.01 0.00 0.00 0.00 0.00 0.00 0.00 0.00 0.00 0.00 0.00 0.00 0.00 0.00
0.00 0.00 0.00 0.00 0.00 0.01 0.01 0.00 0.00 0.00 0.00 0.00 0.00 0.00 0.00 0.01 0.01 0.01 0.01 0.01 0.02 0.02 0.02 0.01 0.02 0.02 0.02 0.02 0.03 0.05 0.06 0.04 0.04 0.04 0.03 0.02 0.02 0.03 0.02 0.01 0.00 0.00 0.00 0.00 0.00 0.00 0.00 0.00 0.00 0.00 0.00 0.00 0.00 0.00
0.00 0.00 0.00 0.00 0.01 0.01 0.01 0.00 0.00 0.00 0.00 0.00 0.00 0.00 0.02 0.02 0.02 0.01 0.01 0.01 0.02 0.02 0.02 0.02 0.02 0.04 0.03 0.03 0.02 0.02 0.03 0.03 0.01 0.01 0.01 0.00 0.01 0.01 0.01 0.01 0.00 0.00 0.00 0.00 0.00 0.00 0.00 0.00 0.00 0.00 0.00 0.00 0.00 0.00
0.01 0.01 0.01 0.02 0.02 0.01 0.00 0.00 0.00 0.00 0.01 0.01 0.01 0.01 0.02 0.01 0.04 0.04 0.02 0.02 0.03 0.04 0.06 0.07 0.06 0.08 0.07 0.05 0.05 0.03 0.02 0.02 0.02 0.02 0.01 0.00 0.01 0.01 0.00 0.00 0.00 0.00 0.00 0.00 0.00 0.00 0.00 0.00 0.00 0.00 0.00 0.00 0.00 0.00
0.02 0.01 0.02 0.02 0.02 0.02 0.02 0.02 0.01 0.01 0.02 0.01 0.03 0.04 0.04 0.03 0.05 0.04 0.02 0.02 0.05 0.08 0.08 0.08 0.08 0.06 0.07 0.07 0.07 0.06 0.06 0.05 0.04 0.02 0.01 0.00 0.00 0.00 0.00 0.00 0.00 0.00 0.00 0.00 0.00 0.00 0.00 0.00 0.00 0.00 0.00 0.00 0.00 0.00

GFSWCAN_prec_precacc12_135.txt.gz
Total_Precipitation_Accumulation
0.06 0.07 0.10 0.07 0.07 0.12 0.21 0.21 0.09 0.06 0.07 0.07 0.08 0.11 0.16 0.37 0.42 0.22 0.11 0.03 0.27 0.24 0.03 0.00 0.01 0.02 0.02 0.02 0.02 0.01 0.04 0.03 0.03 0.06 0.06 0.02 0.00 0.00 0.01 0.02 0.00 0.01 0.02 0.03 0.03 0.05 0.04 0.01 0.00 0.02 0.02 0.00 0.00 0.00
0.16 0.16 0.09 0.08 0.16 0.26 0.28 0.30 0.16 0.11 0.11 0.08 0.08 0.18 0.37 0.45 0.48 0.32 0.16 0.05 0.11 0.26 0.10 0.02 0.01 0.00 0.01 0.02 0.03 0.02 0.02 0.01 0.01 0.01 0.00 0.00 0.00 0.00 0.02 0.04 0.05 0.06 0.01 0.03 0.01 0.02 0.00 0.00 0.01 0.00 0.01 0.01 0.01 0.00
0.19 0.15 0.11 0.15 0.31 0.37 0.42 0.43 0.22 0.12 0.13 0.11 0.10 0.17 0.29 0.39 0.47 0.39 0.20 0.10 0.20 0.25 0.22 0.07 0.02 0.00 0.00 0.01 0.03 0.06 0.04 0.01 0.01 0.01 0.01 0.01 0.01 0.00 0.00 0.02 0.10 0.10 0.02 0.03 0.03 0.01 0.00 0.01 0.01 0.02 0.03 0.03 0.02 0.01
0.13 0.13 0.14 0.20 0.42 0.47 0.49 0.49 0.29 0.25 0.17 0.17 0.11 0.13 0.24 0.35 0.38 0.35 0.26 0.13 0.15 0.22 0.27 0.19 0.03 0.01 0.00 0.00 0.00 0.00 0.01 0.00 0.00 0.02 0.05 0.01 0.01 0.02 0.03 0.03 0.02 0.05 0.07 0.05 0.02 0.00 0.01 0.02 0.02 0.04 0.05 0.05 0.03 0.02
0.10 0.21 0.21 0.27 0.47 0.56 0.48 0.58 0.37 0.28 0.27 0.24 0.16 0.17 0.26 0.35 0.32 0.33 0.28 0.13 0.10 0.10 0.16 0.16 0.03 0.04 0.03 0.01 0.00 0.00 0.01 0.02 0.04 0.06 0.06 0.01 0.01 0.02 0.01 0.02 0.02 0.00 0.01 0.01 0.01 0.00 0.00 0.01 0.02 0.04 0.05 0.05 0.03 0.03
0.22 0.25 0.22 0.38 0.58 0.57 0.53 0.66 0.48 0.47 0.45 0.29 0.18 0.20 0.29 0.35 0.35 0.46 0.65 0.31 0.09 0.10 0.12 0.24 0.11 0.02 0.05 0.04 0.02 0.01 0.01 0.02 0.08 0.08 0.02 0.01 0.01 0.02 0.03 0.01 0.00 0.00 0.00 0.00 0.00 0.00 0.00 0.01 0.03 0.03 0.04 0.03 0.01 0.01
0.16 0.21 0.33 0.52 0.63 0.62 0.75 0.68 0.58 0.57 0.42 0.31 0.21 0.19 0.23 0.30 0.33 0.35 0.48 0.37 0.11 0.15 0.22 0.19 0.15 0.07 0.03 0.04 0.07 0.03 0.01 0.03 0.06 0.04 0.01 0.00 0.00 0.00 0.00 0.00 0.00 0.00 0.00 0.00 0.00 0.00 0.01 0.01 0.02 0.01 0.00 0.00 0.00 0.00
0.25 0.36 0.47 0.51 0.47 0.78 0.88 0.68 0.73 0.57 0.33 0.20 0.18 0.22 0.28 0.32 0.34 0.17 0.08 0.04 0.06 0.19 0.22 0.21 0.21 0.12 0.08 0.05 0.09 0.05 0.02 0.02 0.01 0.00 0.00 0.00 0.00 0.00 0.00 0.00 0.00 0.00 0.00 0.00 0.00 0.00 0.00 0.00 0.00 0.00 0.00 0.00 0.00 0.00
0.38 0.41 0.37 0.36 0.64 0.82 0.62 0.73 0.81 0.46 0.27 0.18 0.25 0.33 0.39 0.40 0.37 0.16 0.06 0.10 0.05 0.20 0.21 0.10 0.12 0.10 0.06 0.05 0.03 0.05 0.02 0.02 0.00 0.00 0.00 0.00 0.01 0.01 0.00 0.00 0.00 0.00 0.00 0.00 0.00 0.00 0.00 0.00 0.00 0.00 0.00 0.00 0.00 0.00
0.19 0.20 0.28 0.60 0.75 0.57 0.47 0.46 0.42 0.27 0.18 0.22 0.34 0.61 0.82 0.38 0.17 0.17 0.37 0.65 0.25 0.19 0.12 0.02 0.00 0.02 0.01 0.02 0.04 0.03 0.02 0.00 0.00 0.00 0.00 0.00 0.01 0.00 0.00 0.00 0.00 0.00 0.00 0.00 0.00 0.00 0.00 0.00 0.00 0.00 0.00 0.00 0.00 0.00
0.15 0.20 0.28 0.29 0.22 0.17 0.19 0.16 0.12 0.10 0.15 0.35 0.49 0.51 0.33 0.16 0.22 0.36 0.62 0.74 0.30 0.19 0.13 0.02 0.00 0.00 0.00 0.00 0.00 0.01 0.02 0.01 0.01 0.01 0.00 0.00 0.01 0.00 0.00 0.00 0.00 0.00 0.00 0.00 0.00 0.00 0.00 0.00 0.00 0.00 0.00 0.00 0.00 0.00
0.04 0.04 0.03 0.03 0.03 0.04 0.05 0.04 0.04 0.06 0.11 0.14 0.22 0.25 0.21 0.22 0.22 0.22 0.22 0.18 0.10 0.05 0.06 0.02 0.01 0.01 0.02 0.01 0.00 0.00 0.00 0.01 0.03 0.00 0.00 0.01 0.01 0.00 0.00 0.00 0.00 0.00 0.00 0.00 0.00 0.00 0.00 0.00 0.00 0.00 0.00 0.00 0.00 0.00
0.00 0.00 0.00 0.01 0.01 0.02 0.02 0.01 0.00 0.00 0.00 0.00 0.02 0.06 0.09 0.08 0.05 0.05 0.07 0.03 0.05 0.01 0.01 0.01 0.01 0.01 0.01 0.00 0.00 0.00 0.00 0.01 0.00 0.01 0.01 0.02 0.00 0.00 0.00 0.00 0.00 0.00 0.00 0.00 0.00 0.00 0.00 0.00 0.00 0.00 0.00 0.00 0.00 0.00
0.00 0.00 0.00 0.01 0.00 0.00 0.01 0.00 0.00 0.00 0.00 0.00 0.00 0.00 0.00 0.00 0.01 0.01 0.00 0.00 0.00 0.00 0.00 0.00 0.00 0.00 0.00 0.00 0.00 0.00 0.00 0.00 0.01 0.01 0.02 0.00 0.00 0.00 0.00 0.00 0.00 0.00 0.00 0.00 0.00 0.00 0.00 0.00 0.00 0.00 0.00 0.00 0.00 0.00
0.00 0.00 0.00 0.00 0.00 0.00 0.00 0.00 0.00 0.00 0.00 0.00 0.00 0.00 0.01 0.03 0.02 0.01 0.00 0.01 0.02 0.01 0.00 0.00 0.00 0.00 0.00 0.00 0.00 0.00 0.00 0.00 0.00 0.02 0.02 0.00 0.00 0.00 0.00 0.00 0.00 0.00 0.00 0.00 0.00 0.00 0.00 0.00 0.00 0.00 0.00 0.00 0.00 0.00
0.00 0.00 0.00 0.00 0.00 0.00 0.00 0.00 0.00 0.00 0.00 0.00 0.02 0.05 0.06 0.03 0.05 0.04 0.02 0.02 0.02 0.01 0.00 0.00 0.00 0.00 0.00 0.00 0.00 0.00 0.00 0.01 0.01 0.00 0.00 0.00 0.00 0.00 0.00 0.00 0.00 0.00 0.00 0.00 0.00 0.00 0.00 0.00 0.00 0.00 0.00 0.00 0.00 0.00
0.00 0.00 0.00 0.00 0.00 0.00 0.00 0.00 0.00 0.00 0.00 0.02 0.06 0.08 0.07 0.08 0.12 0.07 0.01 0.00 0.01 0.01 0.00 0.00 0.00 0.00 0.00 0.00 0.00 0.00 0.01 0.01 0.00 0.00 0.00 0.00 0.00 0.00 0.00 0.00 0.00 0.00 0.00 0.00 0.00 0.00 0.00 0.00 0.00 0.00 0.00 0.00 0.00 0.00
0.00 0.00 0.00 0.00 0.00 0.00 0.00 0.00 0.00 0.00 0.03 0.07 0.13 0.13 0.08 0.12 0.08 0.03 0.00 0.01 0.01 0.00 0.00 0.00 0.00 0.00 0.00 0.01 0.01 0.00 0.01 0.01 0.01 0.00 0.00 0.00 0.00 0.00 0.00 0.00 0.00 0.00 0.00 0.00 0.00 0.00 0.00 0.00 0.00 0.00 0.00 0.00 0.00 0.00
0.00 0.00 0.00 0.00 0.00 0.00 0.00 0.00 0.00 0.02 0.07 0.11 0.17 0.10 0.07 0.08 0.02 0.01 0.00 0.00 0.00 0.00 0.00 0.00 0.00 0.00 0.01 0.01 0.00 0.00 0.00 0.00 0.01 0.01 0.00 0.00 0.00 0.00 0.00 0.00 0.00 0.00 0.00 0.00 0.00 0.00 0.00 0.00 0.00 0.00 0.00 0.00 0.00 0.00
0.00 0.00 0.00 0.00 0.00 0.00 0.00 0.00 0.00 0.01 0.06 0.14 0.13 0.04 0.03 0.03 0.00 0.00 0.00 0.00 0.00 0.00 0.00 0.01 0.01 0.01 0.00 0.00 0.00 0.00 0.00 0.00 0.00 0.01 0.02 0.02 0.01 0.00 0.00 0.00 0.00 0.00 0.00 0.00 0.00 0.00 0.00 0.00 0.00 0.00 0.00 0.00 0.00 0.00
0.00 0.00 0.00 0.00 0.00 0.00 0.00 0.00 0.00 0.00 0.03 0.12 0.06 0.01 0.03 0.01 0.01 0.00 0.00 0.00 0.00 0.01 0.02 0.02 0.00 0.00 0.00 0.00 0.00 0.00 0.00 0.00 0.00 0.00 0.00 0.02 0.01 0.00 0.00 0.00 0.00 0.00 0.00 0.00 0.00 0.00 0.00 0.00 0.00 0.00 0.00 0.00 0.01 0.01
0.00 0.00 0.00 0.00 0.00 0.00 0.00 0.00 0.00 0.00 0.00 0.03 0.00 0.00 0.01 0.00 0.00 0.00 0.00 0.01 0.03 0.04 0.01 0.01 0.00 0.00 0.00 0.00 0.00 0.00 0.00 0.00 0.00 0.00 0.00 0.00 0.01 0.00 0.01 0.00 0.00 0.00 0.00 0.00 0.00 0.00 0.00 0.00 0.00 0.00 0.01 0.01 0.01 0.01
0.00 0.00 0.00 0.00 0.00 0.00 0.00 0.00 0.00 0.00 0.00 0.00 0.00 0.00 0.00 0.00 0.00 0.00 0.00 0.02 0.07 0.05 0.00 0.00 0.00 0.00 0.00 0.00 0.00 0.00 0.00 0.00 0.00 0.00 0.00 0.00 0.00 0.00 0.00 0.00 0.00 0.00 0.00 0.00 0.00 0.00 0.02 0.01 0.00 0.00 0.00 0.01 0.01 0.02
0.00 0.00 0.00 0.00 0.00 0.00 0.00 0.00 0.00 0.00 0.00 0.00 0.00 0.00 0.00 0.00 0.00 0.00 0.01 0.03 0.06 0.06 0.01 0.00 0.00 0.00 0.00 0.00 0.00 0.00 0.00 0.00 0.00 0.00 0.00 0.00 0.00 0.01 0.00 0.00 0.00 0.00 0.00 0.00 0.01 0.01 0.00 0.01 0.01 0.01 0.01 0.01 0.02 0.01
0.00 0.00 0.00 0.00 0.00 0.00 0.00 0.00 0.00 0.00 0.00 0.00 0.00 0.00 0.00 0.00 0.00 0.01 0.01 0.04 0.03 0.03 0.03 0.00 0.00 0.00 0.00 0.00 0.00 0.00 0.00 0.00 0.00 0.00 0.01 0.00 0.00 0.01 0.02 0.03 0.03 0.03 0.01 0.01 0.02 0.01 0.02 0.02 0.03 0.03 0.02 0.01 0.01 0.00
0.00 0.00 0.00 0.00 0.00 0.00 0.00 0.00 0.00 0.00 0.00 0.01 0.00 0.00 0.00 0.00 0.00 0.02 0.02 0.03 0.02 0.02 0.03 0.03 0.01 0.00 0.00 0.00 0.00 0.00 0.00 0.00 0.00 0.00 0.01 0.00 0.00 0.00 0.01 0.01 0.02 0.05 0.04 0.01 0.00 0.01 0.02 0.03 0.02 0.02 0.01 0.01 0.00 0.00
0.00 0.00 0.00 0.00 0.00 0.00 0.00 0.00 0.00 0.00 0.00 0.02 0.01 0.00 0.00 0.01 0.02 0.02 0.01 0.01 0.01 0.02 0.02 0.03 0.01 0.00 0.00 0.00 0.00 0.00 0.00 0.00 0.00 0.00 0.02 0.01 0.01 0.01 0.00 0.01 0.01 0.01 0.01 0.01 0.01 0.01 0.01 0.01 0.01 0.00 0.00 0.00 0.00 0.00
0.00 0.00 0.00 0.00 0.00 0.00 0.00 0.00 0.00 0.01 0.02 0.01 0.01 0.01 0.01 0.02 0.03 0.02 0.01 0.01 0.00 0.01 0.01 0.02 0.01 0.00 0.00 0.00 0.00 0.00 0.01 0.00 0.00 0.00 0.00 0.01 0.02 0.02 0.01 0.01 0.00 0.00 0.01 0.01 0.01 0.00 0.00 0.00 0.00 0.00 0.00 0.00 0.00 0.00
0.00 0.00 0.00 0.00 0.00 0.00 0.00 0.01 0.02 0.01 0.01 0.00 0.02 0.03 0.01 0.01 0.02 0.01 0.01 0.01 0.01 0.01 0.02 0.02 0.03 0.00 0.00 0.01 0.01 0.01 0.01 0.01 0.00 0.00 0.01 0.01 0.02 0.05 0.04 0.02 0.01 0.00 0.00 0.00 0.00 0.00 0.00 0.00 0.00 0.00 0.00 0.00 0.00 0.00
0.00 0.00 0.00 0.00 0.00 0.01 0.01 0.00 0.00 0.00 0.00 0.00 0.00 0.00 0.01 0.02 0.02 0.02 0.01 0.01 0.02 0.03 0.02 0.01 0.02 0.01 0.01 0.01 0.02 0.05 0.05 0.04 0.02 0.03 0.02 0.01 0.01 0.02 0.02 0.02 0.01 0.01 0.00 0.00 0.00 0.00 0.00 0.00 0.00 0.00 0.00 0.00 0.00 0.00
0.00 0.00 0.00 0.00 0.01 0.01 0.01 0.00 0.00 0.00 0.00 0.00 0.00 0.00 0.02 0.02 0.03 0.02 0.01 0.02 0.02 0.03 0.03 0.02 0.02 0.03 0.02 0.02 0.01 0.02 0.03 0.03 0.02 0.01 0.00 0.00 0.00 0.01 0.02 0.01 0.01 0.00 0.00 0.00 0.00 0.00 0.00 0.00 0.00 0.00 0.00 0.00 0.00 0.00
0.00 0.01 0.01 0.02 0.02 0.00 0.00 0.00 0.00 0.00 0.00 0.00 0.01 0.01 0.02 0.01 0.03 0.03 0.01 0.02 0.02 0.04 0.06 0.06 0.05 0.07 0.05 0.03 0.03 0.02 0.01 0.02 0.03 0.02 0.02 0.01 0.01 0.01 0.01 0.01 0.00 0.00 0.00 0.00 0.00 0.00 0.00 0.00 0.00 0.00 0.00 0.00 0.00 0.00
0.01 0.01 0.01 0.01 0.01 0.01 0.01 0.01 0.01 0.01 0.02 0.02 0.03 0.04 0.04 0.03 0.04 0.03 0.02 0.02 0.04 0.07 0.07 0.07 0.08 0.05 0.06 0.07 0.07 0.06 0.05 0.06 0.05 0.04 0.02 0.01 0.01 0.00 0.00 0.00 0.00 0.00 0.00 0.00 0.00 0.00 0.00 0.00 0.00 0.00 0.00 0.00 0.00 0.00

GFSWCAN_prec_precacc12_138.txt.gz
Total_Precipitation_Accumulation
0.06 0.05 0.05 0.05 0.05 0.05 0.04 0.04 0.03 0.03 0.03 0.05 0.06 0.08 0.07 0.04 0.07 0.12 0.03 0.01 0.33 0.38 0.03 0.00 0.01 0.02 0.01 0.02 0.01 0.01 0.04 0.03 0.03 0.07 0.06 0.02 0.00 0.00 0.01 0.02 0.00 0.00 0.01 0.02 0.03 0.08 0.03 0.00 0.00 0.01 0.01 0.00 0.00 0.00
0.08 0.07 0.05 0.03 0.03 0.04 0.05 0.07 0.09 0.07 0.04 0.03 0.04 0.06 0.09 0.05 0.07 0.13 0.04 0.01 0.10 0.34 0.18 0.03 0.01 0.00 0.01 0.02 0.03 0.03 0.01 0.01 0.03 0.02 0.01 0.00 0.00 0.00 0.02 0.04 0.05 0.06 0.01 0.01 0.01 0.00 0.00 0.00 0.00 0.00 0.00 0.00 0.00 0.00
0.05 0.05 0.06 0.06 0.06 0.08 0.15 0.23 0.18 0.10 0.08 0.05 0.04 0.06 0.08 0.11 0.11 0.25 0.16 0.05 0.16 0.25 0.23 0.06 0.03 0.00 0.00 0.01 0.03 0.07 0.04 0.01 0.01 0.05 0.06 0.04 0.02 0.00 0.00 0.02 0.09 0.10 0.02 0.03 0.04 0.01 0.00 0.00 0.00 0.00 0.00 0.00 0.00 0.01
0.03 0.05 0.07 0.10 0.12 0.19 0.28 0.27 0.22 0.22 0.14 0.12 0.06 0.06 0.11 0.17 0.24 0.41 0.40 0.11 0.13 0.22 0.23 0.13 0.02 0.02 0.01 0.00 0.00 0.00 0.01 0.01 0.01 0.03 0.09 0.09 0.04 0.02 0.03 0.03 0.02 0.05 0.07 0.05 0.04 0.00 0.00 0.01 0.00 0.00 0.00 0.01 0.01 0.01
0.04 0.10 0.10 0.12 0.18 0.28 0.32 0.38 0.27 0.23 0.23 0.21 0.14 0.16 0.24 0.36 0.37 0.52 0.49 0.16 0.10 0.10 0.15 0.13 0.02 0.03 0.03 0.01 0.00 0.00 0.01 0.02 0.04 0.09 0.11 0.05 0.01 0.02 0.02 0.02 0.02 0.00 0.01 0.03 0.02 0.01 0.00 0.00 0.00 0.00 0.00 0.02 0.02 0.03
0.08 0.10 0.10 0.18 0.26 0.34 0.41 0.55 0.42 0.45 0.43 0.29 0.19 0.21 0.31 0.39 0.47 0.74 0.90 0.36 0.09 0.11 0.12 0.22 0.13 0.02 0.05 0.04 0.02 0.01 0.01 0.02 0.09 0.11 0.07 0.02 0.01 0.04 0.07 0.01 0.00 0.00 0.00 0.00 0.00 0.00 0.00 0.00 0.00 0.00 0.00 0.01 0.01 0.01
0.07 0.08 0.15 0.27 0.39 0.49 0.69 0.66 0.58 0.58 0.43 0.33 0.23 0.19 0.25 0.33 0.47 0.52 0.55 0.38 0.11 0.16 0.26 0.20 0.13 0.06 0.03 0.05 0.07 0.03 0.01 0.03 0.07 0.10 0.08 0.02 0.00 0.02 0.05 0.00 0.00 0.00 0.00 0.00 0.00 0.00 0.00 0.00 0.01 0.00 0.00 0.00 0.00 0.00
0.13 0.17 0.27 0.35 0.39 0.76 0.88 0.68 0.74 0.60 0.35 0.23 0.21 0.23 0.29 0.37 0.41 0.22 0.09 0.05 0.06 0.19 0.26 0.29 0.20 0.12 0.10 0.07 0.10 0.05 0.04 0.04 0.08 0.09 0.06 0.02 0.01 0.04 0.05 0.00 0.00 0.00 0.00 0.00 0.00 0.00 0.00 0.00 0.00 0.00 0.00 0.00 0.00 0.00
0.28 0.31 0.31 0.34 0.66 0.85 0.65 0.76 0.84 0.48 0.30 0.22 0.30 0.38 0.48 0.54 0.51 0.21 0.06 0.14 0.08 0.20 0.23 0.16 0.16 0.10 0.07 0.05 0.03 0.08 0.06 0.10 0.06 0.06 0.02 0.01 0.01 0.01 0.00 0.00 0.00 0.00 0.00 0.00 0.00 0.00 0.00 0.00 0.00 0.00 0.01 0.00 0.00 0.00
0.18 0.24 0.42 0.79 0.94 0.73 0.60 0.57 0.51 0.34 0.24 0.29 0.46 0.83 1.08 0.50 0.19 0.18 0.42 0.94 0.68 0.26 0.15 0.04 0.01 0.02 0.02 0.04 0.05 0.08 0.08 0.04 0.03 0.00 0.00 0.00 0.00 0.00 0.00 0.00 0.00 0.00 0.00 0.00 0.00 0.00 0.00 0.00 0.00 0.00 0.00 0.00 0.00 0.00
0.26 0.34 0.47 0.57 0.56 0.47 0.41 0.36 0.26 0.24 0.38 0.74 0.84 0.71 0.39 0.17 0.25 0.40 0.75 0.98 0.60 0.29 0.13 0.02 0.00 0.00 0.01 0.05 0.02 0.03 0.04 0.03 0.02 0.00 0.00 0.00 0.00 0.00 0.00 0.00 0.00 0.00 0.00 0.00 0.00 0.00 0.00 0.00 0.00 0.00 0.00 0.00 0.00 0.00
0.24 0.27 0.29 0.28 0.23 0.19 0.16 0.19 0.20 0.41 0.58 0.42 0.28 0.31 0.23 0.28 0.30 0.26 0.29 0.32 0.27 0.07 0.05 0.01 0.00 0.00 0.02 0.07 0.04 0.04 0.02 0.01 0.01 0.00 0.00 0.00 0.00 0.00 0.00 0.00 0.00 0.00 0.00 0.00 0.00 0.00 0.00 0.00 0.00 0.00 0.00 0.00 0.00 0.00
0.17 0.17 0.12 0.06 0.04 0.05 0.11 0.14 0.19 0.18 0.07 0.04 0.06 0.14 0.16 0.20 0.12 0.12 0.09 0.07 0.15 0.01 0.00 0.00 0.01 0.01 0.01 0.01 0.02 0.02 0.01 0.00 0.00 0.00 0.00 0.00 0.00 0.00 0.00 0.00 0.00 0.00 0.00 0.00 0.00 0.00 0.00 0.00 0.00 0.00 0.00 0.00 0.00 0.00
0.08 0.06 0.07 0.04 0.03 0.07 0.10 0.09 0.03 0.01 0.00 0.01 0.05 0.05 0.05 0.04 0.02 0.02 0.00 0.00 0.00 0.00 0.00 0.00 0.00 0.00 0.00 0.00 0.00 0.00 0.00 0.00 0.01 0.00 0.01 0.00 0.00 0.00 0.00 0.00 0.00 0.00 0.00 0.00 0.00 0.00 0.00 0.00 0.00 0.00 0.00 0.00 0.00 0.00
0.02 0.01 0.01 0.01 0.01 0.01 0.01 0.00 0.00 0.00 0.00 0.01 0.00 0.00 0.01 0.02 0.01 0.00 0.00 0.00 0.00 0.00 0.00 0.00 0.00 0.00 0.00 0.00 0.00 0.00 0.00 0.00 0.00 0.00 0.00 0.00 0.00 0.00 0.00 0.00 0.00 0.00 0.00 0.00 0.00 0.00 0.00 0.00 0.00 0.00 0.00 0.00 0.00 0.00
0.00 0.00 0.00 0.00 0.01 0.01 0.00 0.00 0.00 0.00 0.00 0.00 0.02 0.04 0.04 0.02 0.03 0.03 0.01 0.01 0.01 0.00 0.00 0.00 0.01 0.02 0.02 0.00 0.00 0.00 0.00 0.00 0.00 0.00 0.00 0.00 0.00 0.00 0.00 0.00 0.00 0.00 0.00 0.00 0.00 0.00 0.00 0.00 0.00 0.00 0.00 0.00 0.00 0.00
0.00 0.00 0.00 0.00 0.00 0.00 0.00 0.00 0.00 0.00 0.00 0.01 0.06 0.06 0.05 0.07 0.10 0.05 0.00 0.00 0.01 0.01 0.00 0.00 0.00 0.00 0.00 0.00 0.00 0.00 0.00 0.00 0.00 0.00 0.00 0.00 0.00 0.00 0.00 0.00 0.00 0.00 0.00 0.00 0.00 0.00 0.00 0.00 0.00 0.00 0.00 0.00 0.00 0.00
0.00 0.00 0.00 0.00 0.00 0.00 0.00 0.00 0.00 0.00 0.03 0.07 0.11 0.10 0.08 0.11 0.07 0.02 0.00 0.00 0.00 0.00 0.00 0.00 0.00 0.00 0.00 0.00 0.00 0.00 0.00 0.01 0.00 0.00 0.00 0.00 0.00 0.00 0.00 0.00 0.00 0.00 0.00 0.00 0.00 0.00 0.00 0.00 0.00 0.00 0.00 0.00 0.00 0.00
0.00 0.00 0.00 0.00 0.00 0.00 0.00 0.00 0.00 0.02 0.09 0.14 0.20 0.13 0.10 0.12 0.03 0.01 0.00 0.00 0.00 0.00 0.00 0.00 0.00 0.00 0.01 0.00 0.00 0.00 0.00 0.00 0.01 0.01 0.01 0.00 0.00 0.00 0.00 0.00 0.00 0.00 0.00 0.00 0.00 0.00 0.00 0.00 0.00 0.00 0.00 0.00 0.00 0.00
0.00 0.00 0.00 0.00 0.00 0.00 0.00 0.00 0.00 0.01 0.09 0.20 0.18 0.07 0.07 0.07 0.02 0.00 0.00 0.00 0.00 0.00 0.00 0.00 0.01 0.00 0.00 0.00 0.00 0.00 0.00 0.00 0.00 0.01 0.02 0.02 0.00 0.00 0.00 0.00 0.00 0.00 0.00 0.00 0.00 0.00 0.00 0.00 0.00 0.00 0.00 0.00 0.00 0.00
0.00 0.00 0.00 0.00 0.00 0.00 0.00 0.00 0.00 0.01 0.07 0.18 0.11 0.02 0.05 0.01 0.01 0.00 0.00 0.00 0.00 0.01 0.02 0.02 0.01 0.00 0.00 0.00 0.00 0.00 0.00 0.00 0.00 0.00 0.00 0.02 0.01 0.00 0.00 0.00 0.00 0.00 0.00 0.00 0.00 0.00 0.00 0.00 0.00 0.00 0.00 0.00 0.00 0.00
0.00 0.00 0.00 0.00 0.00 0.00 0.00 0.00 0.00 0.00 0.01 0.04 0.01 0.00 0.01 0.00 0.00 0.00 0.00 0.00 0.03 0.05 0.01 0.00 0.00 0.00 0.00 0.00 0.00 0.00 0.00 0.00 0.00 0.00 0.00 0.00 0.01 0.01 0.01 0.00 0.00 0.00 0.00 0.00 0.00 0.00 0.00 0.00 0.00 0.00 0.00 0.00 0.00 0.01
0.00 0.00 0.00 0.00 0.00 0.00 0.00 0.00 0.00 0.00 0.00 0.00 0.00 0.00 0.00 0.00 0.00 0.00 0.00 0.02 0.08 0.07 0.00 0.00 0.00 0.00 0.00 0.00 0.00 0.00 0.00 0.00 0.00 0.00 0.00 0.00 0.00 0.00 0.00 0.00 0.00 0.00 0.00 0.00 0.00 0.00 0.01 0.01 0.00 0.00 0.00 0.00 0.01 0.02
0.00 0.00 0.00 0.00 0.00 0.00 0.00 0.00 0.00 0.00 0.00 0.00 0.00 0.00 0.00 0.00 0.00 0.00 0.01 0.03 0.07 0.08 0.01 0.00 0.00 0.00 0.00 0.00 0.00 0.00 0.00 0.00 0.00 0.00 0.00 0.00 0.00 0.01 0.00 0.00 0.00 0.00 0.00 0.00 0.00 0.00 0.00 0.01 0.01 0.01 0.01 0.01 0.02 0.02
0.00 0.00 0.00 0.00 0.00 0.00 0.00 0.00 0.00 0.00 0.00 0.00 0.00 0.00 0.00 0.00 0.00 0.00 0.01 0.04 0.03 0.04 0.03 0.00 0.00 0.00 0.00 0.00 0.00 0.00 0.00 0.00 0.00 0.01 0.01 0.00 0.00 0.01 0.03 0.03 0.03 0.03 0.01 0.00 0.01 0.01 0.02 0.02 0.03 0.03 0.03 0.02 0.02 0.02
0.00 0.00 0.00 0.00 0.00 0.00 0.00 0.00 0.00 0.00 0.00 0.00 0.00 0.00 0.00 0.00 0.00 0.02 0.02 0.03 0.02 0.02 0.04 0.03 0.02 0.00 0.00 0.00 0.00 0.00 0.00 0.00 0.00 0.00 0.02 0.01 0.00 0.00 0.00 0.01 0.02 0.05 0.03 0.00 0.00 0.01 0.02 0.03 0.03 0.03 0.03 0.03 0.02 0.01
0.00 0.00 0.00 0.00 0.00 0.00 0.00 0.00 0.00 0.00 0.00 0.01 0.00 0.00 0.00 0.01 0.02 0.02 0.02 0.02 0.02 0.02 0.03 0.04 0.02 0.00 0.00 0.00 0.00 0.00 0.00 0.00 0.00 0.00 0.02 0.01 0.01 0.00 0.00 0.00 0.00 0.00 0.01 0.01 0.01 0.01 0.01 0.02 0.02 0.02 0.02 0.02 0.01 0.00
0.00 0.00 0.00 0.00 0.00 0.00 0.00 0.00 0.00 0.01 0.02 0.01 0.01 0.01 0.01 0.01 0.02 0.02 0.02 0.02 0.01 0.01 0.02 0.04 0.02 0.00 0.00 0.00 0.00 0.00 0.01 0.00 0.00 0.00 0.01 0.01 0.03 0.02 0.01 0.01 0.00 0.00 0.01 0.01 0.01 0.01 0.01 0.00 0.01 0.01 0.00 0.00 0.00 0.00
0.00 0.00 0.00 0.00 0.00 0.00 0.01 0.01 0.01 0.01 0.02 0.01 0.01 0.01 0.01 0.01 0.02 0.02 0.02 0.01 0.01 0.01 0.02 0.03 0.03 0.01 0.00 0.01 0.01 0.01 0.01 0.00 0.00 0.00 0.00 0.01 0.02 0.04 0.04 0.02 0.01 0.01 0.00 0.00 0.00 0.00 0.00 0.00 0.00 0.00 0.00 0.00 0.00 0.00
0.00 0.00 0.00 0.00 0.00 0.01 0.01 0.01 0.01 0.01 0.00 0.00 0.00 0.01 0.01 0.02 0.02 0.02 0.02 0.01 0.02 0.03 0.02 0.01 0.02 0.01 0.01 0.01 0.02 0.04 0.05 0.03 0.01 0.01 0.00 0.00 0.00 0.01 0.02 0.02 0.01 0.01 0.01 0.00 0.01 0.01 0.00 0.00 0.00 0.00 0.00 0.00 0.00 0.00
0.00 0.00 0.00 0.00 0.01 0.01 0.01 0.00 0.00 0.00 0.00 0.00 0.00 0.00 0.01 0.02 0.03 0.02 0.02 0.02 0.02 0.03 0.03 0.02 0.02 0.03 0.01 0.01 0.01 0.01 0.02 0.02 0.01 0.00 0.00 0.00 0.00 0.00 0.01 0.02 0.01 0.01 0.00 0.00 0.00 0.00 0.00 0.00 0.00 0.00 0.00 0.00 0.00 0.00
0.00 0.00 0.01 0.01 0.01 0.00 0.00 0.00 0.00 0.00 0.00 0.00 0.01 0.01 0.02 0.01 0.02 0.02 0.01 0.01 0.02 0.03 0.05 0.06 0.04 0.05 0.04 0.02 0.02 0.01 0.01 0.01 0.03 0.02 0.02 0.01 0.01 0.01 0.01 0.01 0.01 0.00 0.00 0.00 0.00 0.00 0.00 0.00 0.00 0.00 0.00 0.00 0.00 0.00
0.01 0.00 0.00 0.00 0.01 0.01 0.01 0.00 0.01 0.01 0.02 0.02 0.03 0.04 0.04 0.02 0.03 0.02 0.01 0.02 0.02 0.04 0.05 0.06 0.06 0.04 0.05 0.06 0.06 0.05 0.04 0.05 0.05 0.05 0.04 0.02 0.01 0.01 0.01 0.01 0.00 0.00 0.00 0.00 0.00 0.00 0.00 0.00 0.00 0.00 0.00 0.00 0.00 0.00

GFSWCAN_prec_precacc12_141.txt.gz
Total_Precipitation_Accumulation
0.06 0.05 0.06 0.06 0.08 0.16 0.18 0.09 0.05 0.04 0.04 0.05 0.06 0.08 0.06 0.03 0.11 0.16 0.03 0.00 0.32 0.47 0.06 0.00 0.00 0.00 0.00 0.00 0.01 0.00 0.04 0.02 0.03 0.07 0.07 0.02 0.00 0.00 0.00 0.00 0.00 0.00 0.01 0.01 0.03 0.09 0.02 0.00 0.00 0.00 0.00 0.00 0.00 0.00
0.06 0.07 0.06 0.05 0.05 0.07 0.07 0.06 0.04 0.03 0.02 0.03 0.05 0.06 0.09 0.05 0.06 0.17 0.15 0.01 0.05 0.29 0.21 0.04 0.00 0.00 0.00 0.01 0.03 0.03 0.01 0.00 0.03 0.02 0.00 0.00 0.00 0.00 0.00 0.01 0.04 0.05 0.00 0.00 0.00 0.00 0.00 0.00 0.00 0.00 0.00 0.00 0.00 0.00
0.04 0.05 0.06 0.05 0.04 0.05 0.06 0.05 0.04 0.02 0.02 0.02 0.03 0.05 0.06 0.08 0.08 0.19 0.20 0.10 0.09 0.14 0.18 0.05 0.02 0.00 0.00 0.00 0.02 0.07 0.04 0.01 0.01 0.06 0.17 0.11 0.05 0.01 0.00 0.02 0.08 0.10 0.02 0.03 0.04 0.01 0.00 0.00 0.00 0.00 0.00 0.00 0.00 0.00
0.03 0.04 0.04 0.05 0.05 0.04 0.04 0.04 0.05 0.05 0.03 0.03 0.03 0.04 0.06 0.07 0.11 0.21 0.36 0.16 0.07 0.11 0.14 0.06 0.00 0.02 0.01 0.00 0.00 0.00 0.01 0.02 0.02 0.03 0.09 0.10 0.04 0.02 0.02 0.02 0.01 0.05 0.07 0.05 0.04 0.00 0.00 0.00 0.00 0.00 0.00 0.00 0.00 0.00
0.04 0.04 0.04 0.04 0.04 0.04 0.07 0.11 0.15 0.15 0.09 0.04 0.04 0.04 0.06 0.08 0.11 0.33 0.45 0.20 0.09 0.08 0.13 0.06 0.01 0.03 0.03 0.01 0.00 0.00 0.01 0.02 0.04 0.09 0.12 0.06 0.01 0.03 0.03 0.03 0.02 0.00 0.01 0.03 0.02 0.01 0.00 0.00 0.00 0.00 0.00 0.00 0.00 0.00
0.04 0.04 0.04 0.05 0.06 0.09 0.18 0.32 0.37 0.36 0.29 0.12 0.04 0.04 0.06 0.09 0.22 0.55 0.93 0.45 0.14 0.14 0.15 0.18 0.10 0.02 0.05 0.03 0.01 0.01 0.01 0.03 0.10 0.12 0.08 0.03 0.01 0.06 0.10 0.01 0.00 0.00 0.00 0.00 0.00 0.00 0.00 0.00 0.00 0.00 0.00 0.00 0.00 0.00
0.03 0.03 0.05 0.08 0.15 0.23 0.45 0.56 0.56 0.54 0.29 0.16 0.07 0.06 0.10 0.17 0.37 0.59 0.53 0.25 0.09 0.18 0.27 0.16 0.07 0.04 0.03 0.05 0.07 0.03 0.01 0.03 0.07 0.10 0.09 0.02 0.01 0.06 0.09 0.00 0.00 0.00 0.00 0.00 0.00 0.00 0.00 0.00 0.00 0.00 0.00 0.00 0.00 0.00
0.04 0.04 0.06 0.11 0.18 0.56 0.72 0.64 0.74 0.59 0.32 0.17 0.16 0.19 0.29 0.41 0.48 0.48 0.19 0.06 0.06 0.19 0.25 0.27 0.12 0.08 0.10 0.08 0.12 0.07 0.05 0.05 0.09 0.10 0.06 0.02 0.02 0.08 0.09 0.00 0.00 0.00 0.00 0.00 0.00 0.00 0.00 0.00 0.00 0.00 0.00 0.00 0.00 0.00
0.09 0.09 0.12 0.22 0.58 0.77 0.57 0.73 0.85 0.49 0.32 0.25 0.36 0.44 0.57 0.71 0.72 0.52 0.16 0.16 0.08 0.20 0.23 0.15 0.14 0.07 0.07 0.05 0.04 0.12 0.11 0.14 0.08 0.08 0.03 0.02 0.03 0.02 0.00 0.00 0.00 0.00 0.00 0.00 0.00 0.00 0.00 0.00 0.00 0.00 0.01 0.00 0.00 0.00
0.11 0.20 0.41 0.79 0.94 0.71 0.58 0.57 0.53 0.37 0.28 0.36 0.60 0.96 1.24 0.62 0.24 0.37 0.63 1.01 0.71 0.28 0.15 0.04 0.01 0.03 0.04 0.05 0.07 0.09 0.11 0.07 0.08 0.02 0.02 0.05 0.01 0.00 0.00 0.00 0.00 0.00 0.00 0.00 0.00 0.00 0.00 0.00 0.00 0.00 0.00 0.00 0.00 0.00
0.29 0.37 0.51 0.60 0.58 0.48 0.42 0.36 0.28 0.29 0.47 0.94 1.11 0.75 0.42 0.18 0.28 0.51 0.84 0.99 0.61 0.38 0.13 0.02 0.00 0.00 0.01 0.07 0.04 0.05 0.10 0.07 0.03 0.00 0.01 0.01 0.00 0.00 0.00 0.00 0.00 0.00 0.00 0.00 0.00 0.00 0.00 0.00 0.00 0.00 0.00 0.00 0.00 0.00
0.54 0.52 0.50 0.43 0.32 0.23 0.19 0.20 0.22 0.50 0.79 0.56 0.31 0.34 0.25 0.28 0.33 0.29 0.31 0.33 0.27 0.09 0.06 0.01 0.00 0.00 0.01 0.09 0.13 0.12 0.06 0.05 0.01 0.00 0.00 0.00 0.00 0.00 0.00 0.00 0.00 0.00 0.00 0.00 0.00 0.00 0.00 0.00 0.00 0.00 0.00 0.00 0.00 0.00
0.32 0.30 0.22 0.17 0.17 0.17 0.16 0.18 0.25 0.24 0.10 0.07 0.11 0.17 0.18 0.20 0.14 0.13 0.09 0.08 0.16 0.02 0.00 0.00 0.00 0.01 0.01 0.02 0.11 0.20 0.08 0.02 0.00 0.00 0.00 0.00 0.00 0.00 0.00 0.00 0.00 0.00 0.00 0.00 0.00 0.00 0.00 0.00 0.00 0.00 0.00 0.00 0.00 0.00
0.10 0.09 0.10 0.17 0.28 0.25 0.19 0.15 0.06 0.02 0.01 0.03 0.11 0.08 0.05 0.05 0.02 0.02 0.00 0.00 0.00 0.00 0.00 0.00 0.00 0.00 0.00 0.00 0.01 0.02 0.02 0.00 0.00 0.01 0.00 0.00 0.00 0.00 0.00 0.00 0.00 0.00 0.00 0.00 0.00 0.00 0.00 0.00 0.00 0.00 0.00 0.00 0.00 0.00
0.04 0.05 0.11 0.20 0.16 0.10 0.04 0.01 0.00 0.00 0.00 0.02 0.03 0.00 0.01 0.02 0.01 0.00 0.00 0.00 0.00 0.00 0.00 0.00 0.00 0.00 0.00 0.00 0.00 0.00 0.00 0.00 0.00 0.00 0.00 0.00 0.00 0.00 0.00 0.00 0.00 0.00 0.00 0.00 0.00 0.00 0.00 0.00 0.00 0.00 0.00 0.00 0.00 0.00
0.01 0.02 0.02 0.02 0.02 0.02 0.01 0.00 0.00 0.00 0.02 0.01 0.02 0.02 0.03 0.02 0.02 0.01 0.00 0.00 0.00 0.00 0.00 0.00 0.01 0.02 0.02 0.00 0.00 0.00 0.00 0.00 0.00 0.00 0.00 0.00 0.00 0.00 0.00 0.00 0.00 0.00 0.00 0.00 0.00 0.00 0.00 0.00 0.00 0.00 0.00 0.00 0.00 0.00
0.00 0.01 0.00 0.00 0.00 0.00 0.00 0.00 0.01 0.01 0.07 0.05 0.05 0.05 0.04 0.05 0.05 0.02 0.00 0.00 0.00 0.00 0.00 0.00 0.00 0.00 0.00 0.00 0.00 0.00 0.00 0.00 0.00 0.00 0.00 0.00 0.00 0.00 0.00 0.00 0.00 0.00 0.00 0.00 0.00 0.00 0.00 0.00 0.00 0.00 0.00 0.00 0.00 0.00
0.00 0.00 0.00 0.00 0.00 0.00 0.01 0.02 0.03 0.01 0.06 0.07 0.10 0.11 0.08 0.08 0.04 0.01 0.00 0.00 0.00 0.00 0.00 0.00 0.00 0.00 0.00 0.00 0.00 0.00 0.00 0.01 0.00 0.00 0.00 0.00 0.00 0.00 0.00 0.00 0.00 0.00 0.00 0.00 0.00 0.00 0.00 0.00 0.00 0.00 0.00 0.00 0.00 0.00
0.00 0.00 0.00 0.00 0.00 0.01 0.02 0.03 0.02 0.04 0.09 0.13 0.19 0.14 0.10 0.10 0.03 0.01 0.00 0.00 0.01 0.01 0.00 0.00 0.00 0.00 0.00 0.00 0.00 0.00 0.00 0.00 0.01 0.01 0.01 0.00 0.00 0.00 0.00 0.00 0.00 0.00 0.00 0.00 0.00 0.00 0.00 0.00 0.00 0.00 0.00 0.00 0.00 0.00
0.00 0.00 0.00 0.00 0.00 0.00 0.00 0.01 0.01 0.03 0.12 0.22 0.20 0.08 0.07 0.09 0.04 0.01 0.01 0.01 0.02 0.02 0.02 0.01 0.01 0.00 0.00 0.00 0.00 0.00 0.00 0.00 0.01 0.01 0.02 0.01 0.00 0.00 0.00 0.00 0.00 0.00 0.00 0.00 0.00 0.01 0.00 0.00 0.00 0.00 0.00 0.00 0.00 0.00
0.00 0.00 0.00 0.00 0.00 0.00 0.00 0.00 0.01 0.04 0.13 0.26 0.18 0.04 0.06 0.02 0.03 0.02 0.04 0.03 0.01 0.02 0.02 0.02 0.02 0.00 0.00 0.00 0.00 0.00 0.00 0.00 0.00 0.00 0.01 0.01 0.01 0.00 0.00 0.00 0.00 0.00 0.00 0.00 0.00 0.01 0.00 0.00 0.00 0.00 0.00 0.00 0.00 0.00
0.00 0.00 0.00 0.00 0.00 0.00 0.00 0.00 0.00 0.00 0.06 0.13 0.03 0.02 0.05 0.05 0.04 0.01 0.00 0.00 0.02 0.03 0.01 0.00 0.00 0.00 0.00 0.00 0.00 0.00 0.00 0.00 0.00 0.00 0.00 0.00 0.01 0.01 0.01 0.00 0.00 0.00 0.00 0.00 0.00 0.00 0.00 0.00 0.00 0.00 0.00 0.00 0.00 0.01
0.00 0.00 0.00 0.00 0.00 0.00 0.00 0.00 0.00 0.00 0.03 0.03 0.01 0.03 0.02 0.01 0.02 0.00 0.00 0.02 0.07 0.07 0.00 0.00 0.00 0.00 0.00 0.00 0.00 0.00 0.00 0.00 0.00 0.00 0.00 0.00 0.00 0.00 0.00 0.00 0.00 0.00 0.00 0.00 0.00 0.00 0.00 0.00 0.00 0.00 0.00 0.00 0.01 0.02
0.00 0.00 0.00 0.00 0.00 0.00 0.00 0.00 0.00 0.00 0.00 0.00 0.00 0.00 0.00 0.00 0.00 0.00 0.01 0.02 0.07 0.09 0.01 0.00 0.00 0.00 0.00 0.00 0.00 0.00 0.00 0.00 0.00 0.00 0.00 0.00 0.01 0.02 0.00 0.00 0.00 0.00 0.00 0.00 0.00 0.00 0.00 0.01 0.01 0.01 0.01 0.01 0.02 0.01
0.00 0.00 0.00 0.00 0.00 0.00 0.00 0.00 0.00 0.00 0.00 0.00 0.00 0.00 0.00 0.00 0.00 0.00 0.00 0.03 0.04 0.05 0.04 0.00 0.00 0.00 0.00 0.00 0.00 0.00 0.00 0.00 0.00 0.01 0.02 0.00 0.00 0.02 0.02 0.02 0.02 0.01 0.00 0.00 0.01 0.01 0.01 0.02 0.02 0.03 0.03 0.03 0.03 0.03
0.00 0.00 0.00 0.00 0.00 0.00 0.00 0.00 0.00 0.00 0.00 0.00 0.00 0.00 0.00 0.00 0.00 0.01 0.02 0.03 0.02 0.03 0.04 0.03 0.01 0.00 0.00 0.00 0.00 0.00 0.00 0.00 0.00 0.00 0.02 0.01 0.00 0.00 0.00 0.01 0.02 0.04 0.02 0.00 0.00 0.01 0.02 0.02 0.03 0.03 0.04 0.04 0.03 0.02
0.00 0.00 0.00 0.00 0.00 0.00 0.00 0.00 0.00 0.00 0.00 0.00 0.00 0.00 0.00 0.00 0.01 0.02 0.03 0.03 0.03 0.03 0.04 0.04 0.03 0.01 0.00 0.00 0.00 0.00 0.00 0.00 0.00 0.00 0.01 0.01 0.00 0.00 0.00 0.00 0.00 0.00 0.01 0.01 0.01 0.01 0.01 0.02 0.02 0.02 0.02 0.02 0.02 0.01
0.00 0.00 0.00 0.00 0.00 0.00 0.00 0.00 0.01 0.01 0.01 0.01 0.00 0.00 0.00 0.01 0.01 0.03 0.02 0.03 0.01 0.01 0.02 0.04 0.04 0.01 0.00 0.00 0.00 0.00 0.01 0.01 0.00 0.01 0.01 0.01 0.02 0.01 0.01 0.00 0.00 0.00 0.01 0.01 0.01 0.01 0.01 0.00 0.01 0.01 0.01 0.01 0.01 0.00
0.00 0.00 0.00 0.00 0.00 0.00 0.01 0.01 0.01 0.02 0.03 0.01 0.01 0.01 0.01 0.01 0.03 0.02 0.02 0.02 0.02 0.01 0.02 0.04 0.05 0.02 0.00 0.01 0.01 0.02 0.02 0.01 0.00 0.00 0.00 0.01 0.02 0.03 0.03 0.02 0.01 0.01 0.00 0.01 0.01 0.00 0.00 0.00 0.00 0.00 0.00 0.00 0.00 0.00
0.00 0.00 0.00 0.00 0.00 0.01 0.02 0.01 0.01 0.02 0.01 0.01 0.00 0.01 0.01 0.02 0.03 0.03 0.02 0.02 0.02 0.03 0.03 0.02 0.02 0.01 0.00 0.01 0.02 0.04 0.04 0.02 0.00 0.00 0.00 0.00 0.00 0.01 0.02 0.02 0.02 0.01 0.01 0.00 0.01 0.01 0.00 0.00 0.00 0.00 0.00 0.00 0.00 0.00
0.00 0.00 0.00 0.00 0.01 0.01 0.01 0.01 0.01 0.00 0.00 0.00 0.00 0.00 0.01 0.01 0.02 0.02 0.02 0.01 0.02 0.03 0.04 0.02 0.02 0.01 0.01 0.00 0.01 0.01 0.02 0.02 0.01 0.00 0.00 0.00 0.00 0.00 0.01 0.02 0.02 0.01 0.00 0.00 0.00 0.00 0.00 0.00 0.00 0.00 0.00 0.00 0.00 0.00
0.00 0.00 0.00 0.01 0.01 0.00 0.00 0.00 0.00 0.00 0.00 0.00 0.01 0.01 0.01 0.01 0.01 0.01 0.01 0.01 0.01 0.02 0.03 0.04 0.03 0.03 0.02 0.01 0.01 0.00 0.00 0.01 0.02 0.02 0.02 0.01 0.00 0.01 0.01 0.01 0.01 0.00 0.00 0.00 0.00 0.00 0.00 0.00 0.00 0.00 0.00 0.00 0.00 0.00
0.01 0.00 0.00 0.00 0.01 0.01 0.01 0.00 0.01 0.01 0.01 0.02 0.02 0.03 0.04 0.02 0.01 0.01 0.01 0.02 0.01 0.02 0.03 0.04 0.04 0.04 0.04 0.06 0.05 0.04 0.03 0.03 0.04 0.05 0.04 0.02 0.02 0.01 0.01 0.01 0.00 0.00 0.00 0.00 0.00 0.00 0.00 0.00 0.00 0.00 0.00 0.00 0.00 0.00

GFSWCAN_prec_precacc12_147.txt.gz
Total_Precipitation_Accumulation
0.05 0.04 0.05 0.10 0.20 0.39 0.73 0.49 0.17 0.09 0.13 0.16 0.41 0.38 0.15 0.12 0.18 0.16 0.07 0.03 0.18 0.41 0.10 0.00 0.00 0.00 0.00 0.00 0.00 0.00 0.00 0.00 0.00 0.01 0.01 0.00 0.00 0.00 0.00 0.00 0.00 0.00 0.01 0.02 0.03 0.08 0.03 0.00 0.00 0.01 0.03 0.00 0.00 0.00
0.04 0.04 0.06 0.07 0.16 0.32 0.51 0.82 0.24 0.14 0.09 0.12 0.24 0.39 0.26 0.13 0.13 0.19 0.23 0.02 0.01 0.19 0.23 0.03 0.00 0.00 0.00 0.00 0.00 0.01 0.02 0.01 0.02 0.02 0.01 0.00 0.00 0.00 0.00 0.00 0.00 0.00 0.00 0.00 0.01 0.01 0.00 0.00 0.00 0.00 0.00 0.00 0.00 0.00
0.04 0.03 0.05 0.04 0.11 0.34 0.42 0.83 0.38 0.20 0.10 0.10 0.17 0.30 0.33 0.21 0.14 0.16 0.27 0.09 0.03 0.10 0.15 0.04 0.02 0.00 0.00 0.00 0.00 0.01 0.02 0.04 0.05 0.09 0.20 0.15 0.08 0.02 0.01 0.01 0.00 0.00 0.00 0.00 0.02 0.00 0.00 0.00 0.00 0.00 0.00 0.00 0.00 0.00
0.04 0.05 0.04 0.05 0.08 0.33 0.53 0.72 0.52 0.24 0.15 0.12 0.15 0.26 0.31 0.22 0.18 0.19 0.36 0.15 0.04 0.06 0.07 0.02 0.00 0.01 0.01 0.00 0.00 0.00 0.02 0.03 0.07 0.05 0.11 0.14 0.07 0.02 0.01 0.01 0.01 0.00 0.02 0.02 0.03 0.00 0.00 0.00 0.00 0.00 0.00 0.00 0.00 0.00
0.04 0.06 0.06 0.05 0.08 0.30 0.57 0.57 0.52 0.28 0.16 0.14 0.16 0.22 0.27 0.23 0.18 0.33 0.39 0.16 0.04 0.06 0.10 0.02 0.00 0.00 0.00 0.00 0.00 0.00 0.00 0.05 0.10 0.12 0.10 0.07 0.02 0.04 0.03 0.03 0.01 0.00 0.01 0.03 0.03 0.01 0.01 0.00 0.00 0.00 0.00 0.00 0.00 0.00
0.03 0.05 0.05 0.05 0.05 0.21 0.43 0.41 0.33 0.24 0.14 0.11 0.13 0.13 0.11 0.10 0.19 0.41 0.70 0.34 0.10 0.14 0.16 0.06 0.04 0.00 0.00 0.00 0.00 0.01 0.01 0.04 0.11 0.13 0.12 0.06 0.01 0.05 0.09 0.02 0.00 0.00 0.00 0.00 0.00 0.00 0.00 0.00 0.00 0.00 0.00 0.00 0.00 0.00
0.03 0.03 0.04 0.06 0.05 0.09 0.21 0.21 0.15 0.12 0.08 0.06 0.05 0.03 0.05 0.08 0.20 0.37 0.28 0.13 0.06 0.12 0.19 0.08 0.01 0.00 0.01 0.01 0.02 0.02 0.02 0.03 0.05 0.12 0.11 0.05 0.03 0.09 0.11 0.01 0.00 0.00 0.00 0.00 0.00 0.00 0.00 0.00 0.00 0.00 0.00 0.00 0.00 0.00
0.03 0.02 0.03 0.05 0.05 0.03 0.07 0.12 0.10 0.08 0.05 0.05 0.06 0.04 0.09 0.16 0.17 0.32 0.12 0.04 0.02 0.07 0.11 0.14 0.04 0.01 0.04 0.05 0.05 0.04 0.05 0.08 0.11 0.11 0.07 0.03 0.03 0.12 0.11 0.00 0.00 0.00 0.00 0.00 0.00 0.00 0.00 0.00 0.00 0.00 0.00 0.00 0.00 0.00
0.03 0.04 0.03 0.04 0.05 0.05 0.05 0.08 0.10 0.08 0.07 0.10 0.16 0.18 0.29 0.38 0.37 0.39 0.13 0.16 0.10 0.03 0.07 0.09 0.06 0.02 0.02 0.04 0.05 0.11 0.19 0.23 0.12 0.11 0.03 0.03 0.04 0.04 0.01 0.00 0.00 0.00 0.00 0.00 0.00 0.00 0.00 0.00 0.00 0.00 0.00 0.00 0.00 0.00
0.03 0.08 0.17 0.24 0.23 0.18 0.15 0.14 0.16 0.13 0.14 0.23 0.39 0.44 0.53 0.31 0.09 0.28 0.45 0.63 0.70 0.17 0.05 0.03 0.01 0.05 0.05 0.06 0.08 0.08 0.13 0.12 0.15 0.05 0.04 0.08 0.02 0.00 0.00 0.00 0.00 0.00 0.00 0.00 0.00 0.00 0.00 0.00 0.00 0.00 0.00 0.00 0.00 0.00
0.16 0.20 0.27 0.33 0.38 0.34 0.26 0.24 0.22 0.27 0.42 0.71 0.84 0.31 0.15 0.06 0.13 0.37 0.45 0.44 0.47 0.30 0.03 0.01 0.00 0.03 0.03 0.11 0.11 0.11 0.16 0.14 0.09 0.03 0.05 0.03 0.00 0.00 0.00 0.00 0.00 0.00 0.00 0.00 0.00 0.00 0.00 0.00 0.00 0.00 0.00 0.00 0.00 0.00
0.52 0.50 0.49 0.43 0.31 0.21 0.16 0.20 0.25 0.54 0.77 0.51 0.16 0.14 0.12 0.16 0.26 0.25 0.25 0.23 0.21 0.08 0.01 0.00 0.00 0.01 0.04 0.14 0.20 0.19 0.13 0.13 0.10 0.07 0.09 0.02 0.00 0.00 0.00 0.00 0.00 0.00 0.00 0.00 0.00 0.00 0.00 0.00 0.00 0.00 0.00 0.00 0.00 0.00
0.40 0.35 0.25 0.20 0.20 0.17 0.17 0.22 0.28 0.26 0.12 0.14 0.16 0.18 0.16 0.19 0.22 0.17 0.11 0.10 0.14 0.06 0.01 0.01 0.01 0.03 0.04 0.04 0.15 0.27 0.23 0.15 0.05 0.05 0.02 0.00 0.00 0.00 0.00 0.00 0.00 0.00 0.00 0.00 0.00 0.00 0.00 0.00 0.00 0.00 0.00 0.00 0.00 0.00
0.16 0.14 0.16 0.22 0.31 0.27 0.22 0.18 0.08 0.06 0.05 0.12 0.16 0.12 0.09 0.08 0.06 0.04 0.02 0.03 0.01 0.01 0.00 0.01 0.02 0.04 0.04 0.04 0.06 0.08 0.08 0.07 0.08 0.05 0.00 0.01 0.01 0.00 0.00 0.00 0.00 0.00 0.00 0.00 0.00 0.00 0.00 0.00 0.00 0.00 0.00 0.00 0.00 0.00
0.08 0.09 0.20 0.26 0.19 0.13 0.06 0.02 0.01 0.01 0.07 0.07 0.08 0.03 0.01 0.02 0.01 0.01 0.02 0.03 0.01 0.01 0.01 0.03 0.09 0.08 0.08 0.08 0.02 0.03 0.03 0.02 0.01 0.00 0.01 0.01 0.00 0.00 0.00 0.00 0.00 0.00 0.00 0.00 0.00 0.00 0.00 0.00 0.00 0.00 0.00 0.00 0.00 0.00
0.04 0.08 0.07 0.05 0.04 0.03 0.01 0.02 0.05 0.08 0.11 0.08 0.06 0.04 0.02 0.01 0.01 0.00 0.01 0.01 0.01 0.00 0.02 0.04 0.12 0.15 0.11 0.05 0.04 0.01 0.00 0.00 0.01 0.01 0.01 0.00 0.00 0.00 0.00 0.00 0.00 0.00 0.00 0.00 0.00 0.00 0.00 0.00 0.00 0.00 0.00 0.00 0.00 0.00
0.03 0.03 0.02 0.02 0.02 0.03 0.03 0.09 0.13 0.12 0.14 0.09 0.08 0.04 0.04 0.02 0.01 0.00 0.00 0.00 0.00 0.00 0.00 0.02 0.04 0.06 0.04 0.03 0.01 0.01 0.00 0.00 0.01 0.00 0.00 0.00 0.00 0.00 0.00 0.00 0.00 0.00 0.00 0.00 0.00 0.00 0.00 0.00 0.00 0.00 0.00 0.00 0.00 0.00
0.01 0.02 0.01 0.02 0.03 0.07 0.08 0.07 0.11 0.07 0.12 0.14 0.14 0.06 0.04 0.02 0.00 0.00 0.00 0.00 0.00 0.00 0.00 0.00 0.02 0.02 0.01 0.01 0.00 0.01 0.01 0.00 0.00 0.00 0.00 0.00 0.00 0.00 0.00 0.00 0.00 0.00 0.00 0.00 0.00 0.00 0.00 0.00 0.00 0.00 0.00 0.00 0.00 0.00
0.01 0.01 0.01 0.01 0.01 0.03 0.07 0.07 0.10 0.16 0.10 0.10 0.09 0.07 0.07 0.06 0.02 0.00 0.00 0.01 0.01 0.01 0.01 0.01 0.02 0.02 0.01 0.01 0.01 0.00 0.00 0.00 0.01 0.01 0.01 0.01 0.00 0.00 0.00 0.00 0.00 0.00 0.00 0.00 0.00 0.00 0.00 0.00 0.00 0.00 0.00 0.00 0.00 0.00
0.00 0.00 0.00 0.00 0.01 0.04 0.09 0.14 0.06 0.11 0.18 0.17 0.12 0.08 0.07 0.10 0.05 0.02 0.04 0.03 0.07 0.09 0.09 0.04 0.01 0.01 0.01 0.00 0.00 0.00 0.00 0.00 0.01 0.02 0.03 0.03 0.02 0.00 0.00 0.00 0.00 0.00 0.00 0.00 0.00 0.01 0.00 0.00 0.00 0.00 0.00 0.00 0.00 0.00
0.01 0.01 0.01 0.02 0.04 0.06 0.13 0.18 0.12 0.08 0.17 0.23 0.18 0.08 0.10 0.07 0.12 0.14 0.18 0.15 0.14 0.12 0.04 0.01 0.01 0.01 0.00 0.00 0.00 0.00 0.00 0.00 0.01 0.01 0.01 0.02 0.01 0.00 0.00 0.00 0.00 0.00 0.00 0.00 0.00 0.01 0.01 0.00 0.00 0.00 0.00 0.01 0.01 0.00
0.00 0.01 0.04 0.05 0.06 0.03 0.04 0.08 0.13 0.10 0.13 0.20 0.15 0.08 0.13 0.14 0.15 0.13 0.16 0.14 0.10 0.04 0.01 0.00 0.00 0.00 0.00 0.00 0.00 0.00 0.00 0.00 0.00 0.01 0.01 0.01 0.01 0.01 0.00 0.00 0.00 0.00 0.00 0.00 0.00 0.01 0.01 0.00 0.00 0.00 0.01 0.01 0.00 0.01
0.00 0.02 0.05 0.03 0.05 0.02 0.02 0.03 0.10 0.09 0.17 0.13 0.10 0.08 0.07 0.07 0.06 0.03 0.10 0.06 0.04 0.03 0.00 0.00 0.00 0.00 0.00 0.00 0.00 0.00 0.00 0.00 0.00 0.00 0.01 0.02 0.01 0.01 0.01 0.01 0.00 0.01 0.01 0.01 0.00 0.01 0.01 0.00 0.01 0.01 0.01 0.01 0.00 0.01
0.00 0.02 0.05 0.04 0.02 0.01 0.00 0.02 0.04 0.06 0.06 0.03 0.04 0.04 0.02 0.01 0.00 0.00 0.01 0.02 0.03 0.04 0.01 0.00 0.00 0.00 0.00 0.00 0.00 0.00 0.00 0.00 0.00 0.01 0.01 0.01 0.02 0.03 0.02 0.01 0.01 0.01 0.00 0.00 0.01 0.01 0.01 0.01 0.00 0.00 0.00 0.00 0.01 0.01
0.00 0.00 0.00 0.00 0.00 0.00 0.00 0.00 0.00 0.02 0.05 0.03 0.01 0.01 0.01 0.00 0.00 0.00 0.00 0.01 0.02 0.04 0.03 0.00 0.00 0.00 0.00 0.00 0.00 0.00 0.00 0.00 0.00 0.01 0.02 0.01 0.01 0.02 0.02 0.01 0.00 0.00 0.00 0.00 0.01 0.01 0.01 0.00 0.00 0.00 0.01 0.02 0.02 0.03
0.00 0.00 0.00 0.00 0.00 0.00 0.00 0.00 0.00 0.00 0.00 0.02 0.03 0.02 0.00 0.01 0.01 0.01 0.01 0.02 0.03 0.02 0.03 0.02 0.01 0.00 0.00 0.00 0.00 0.00 0.00 0.00 0.00 0.00 0.02 0.01 0.01 0.00 0.00 0.00 0.01 0.00 0.00 0.00 0.00 0.00 0.00 0.00 0.01 0.01 0.02 0.03 0.03 0.02
0.00 0.00 0.00 0.00 0.00 0.00 0.00 0.00 0.00 0.00 0.00 0.00 0.00 0.00 0.00 0.00 0.00 0.01 0.02 0.03 0.03 0.02 0.02 0.02 0.02 0.01 0.00 0.00 0.00 0.00 0.00 0.00 0.00 0.00 0.00 0.01 0.00 0.00 0.00 0.00 0.00 0.00 0.00 0.00 0.00 0.00 0.00 0.01 0.01 0.02 0.02 0.03 0.03 0.02
0.00 0.00 0.00 0.01 0.00 0.00 0.00 0.00 0.01 0.01 0.01 0.01 0.00 0.00 0.00 0.00 0.00 0.02 0.02 0.02 0.02 0.01 0.01 0.03 0.04 0.02 0.00 0.00 0.00 0.00 0.01 0.01 0.01 0.01 0.01 0.01 0.01 0.01 0.00 0.00 0.00 0.00 0.01 0.01 0.01 0.01 0.01 0.01 0.01 0.02 0.01 0.02 0.03 0.02
0.00 0.00 0.00 0.00 0.00 0.00 0.01 0.01 0.01 0.02 0.02 0.02 0.00 0.00 0.01 0.01 0.02 0.02 0.02 0.02 0.01 0.00 0.01 0.03 0.04 0.03 0.01 0.01 0.01 0.01 0.02 0.01 0.01 0.01 0.01 0.01 0.01 0.01 0.01 0.01 0.01 0.01 0.01 0.01 0.02 0.01 0.01 0.01 0.01 0.01 0.01 0.01 0.02 0.02
0.00 0.00 0.00 0.00 0.00 0.01 0.02 0.02 0.03 0.03 0.02 0.01 0.01 0.01 0.01 0.01 0.01 0.01 0.01 0.01 0.01 0.02 0.02 0.03 0.02 0.02 0.01 0.01 0.01 0.03 0.03 0.02 0.01 0.01 0.01 0.01 0.00 0.01 0.01 0.01 0.01 0.02 0.02 0.01 0.01 0.02 0.02 0.01 0.02 0.02 0.01 0.02 0.01 0.01
0.00 0.00 0.00 0.00 0.01 0.02 0.02 0.01 0.01 0.00 0.00 0.00 0.00 0.01 0.00 0.01 0.01 0.00 0.01 0.01 0.01 0.02 0.03 0.02 0.02 0.01 0.00 0.00 0.01 0.01 0.02 0.01 0.01 0.00 0.00 0.00 0.00 0.01 0.01 0.01 0.01 0.01 0.01 0.00 0.00 0.01 0.01 0.01 0.01 0.01 0.01 0.01 0.00 0.00
0.00 0.00 0.01 0.00 0.01 0.01 0.01 0.01 0.00 0.00 0.00 0.01 0.01 0.01 0.01 0.01 0.00 0.00 0.01 0.00 0.01 0.01 0.02 0.02 0.02 0.02 0.01 0.00 0.00 0.00 0.01 0.01 0.00 0.00 0.00 0.00 0.00 0.01 0.01 0.01 0.01 0.01 0.00 0.00 0.00 0.00 0.00 0.00 0.00 0.00 0.00 0.00 0.00 0.00
0.00 0.00 0.00 0.00 0.01 0.01 0.01 0.00 0.00 0.01 0.01 0.02 0.02 0.02 0.02 0.01 0.00 0.01 0.00 0.01 0.01 0.01 0.02 0.02 0.03 0.03 0.02 0.03 0.02 0.01 0.01 0.02 0.02 0.02 0.02 0.02 0.02 0.01 0.02 0.02 0.02 0.01 0.00 0.00 0.00 0.00 0.00 0.00 0.00 0.00 0.00 0.00 0.00 0.00